<?xml version="1.0" encoding="UTF-8" standalone="no" ?>
<gpx xmlns="http://www.topografix.com/GPX/1/1" xmlns:xsi="http://www.w3.org/2001/XMLSchema-instance" xsi:schemaLocation="http://www.topografix.com/GPX/1/1 http://www.topografix.com/GPX/1/1/gpx.xsd" version="1.1" creator="VisuGPX - https://www.visugpx.com">
  <metadata>
    <name>Montagne de Reims, J1: De Bézannes à Rilly-la-Montagne</name>
    <desc><![CDATA[Trace AlpineQuest 20/08/2026 08:55:55]]></desc>
  </metadata>
  <trk>
    <name><![CDATA[visugpx_8t4zMOfZVN_1]]></name>
    <extensions>
      <line xmlns="http://www.topografix.com/GPX/gpx_style/0/2">
        <color>0000FF</color>
        <width>4</width>
      </line>
    </extensions>
    <trkseg>
      <trkpt lat="49.21471" lon="3.99485">
        <ele>86.1</ele>
        <time>2026-08-20T06:55:54Z</time>
      </trkpt>
      <trkpt lat="49.21476" lon="3.99487">
        <ele>86</ele>
        <time>2026-08-20T06:56:01Z</time>
      </trkpt>
      <trkpt lat="49.21478" lon="3.99481">
        <ele>85.9</ele>
        <time>2026-08-20T06:56:06Z</time>
      </trkpt>
      <trkpt lat="49.21479" lon="3.9948">
        <ele>85.8</ele>
        <time>2026-08-20T06:56:11Z</time>
      </trkpt>
      <trkpt lat="49.21479" lon="3.99477">
        <ele>85.8</ele>
        <time>2026-08-20T06:56:16Z</time>
      </trkpt>
      <trkpt lat="49.21482" lon="3.99473">
        <ele>85.6</ele>
        <time>2026-08-20T06:56:22Z</time>
      </trkpt>
      <trkpt lat="49.21485" lon="3.9947">
        <ele>85.5</ele>
        <time>2026-08-20T06:56:27Z</time>
      </trkpt>
      <trkpt lat="49.21486" lon="3.99468">
        <ele>85.5</ele>
        <time>2026-08-20T06:56:32Z</time>
      </trkpt>
      <trkpt lat="49.21486" lon="3.99468">
        <ele>85.5</ele>
        <time>2026-08-20T06:56:38Z</time>
      </trkpt>
      <trkpt lat="49.21486" lon="3.99468">
        <ele>85.5</ele>
        <time>2026-08-20T06:56:43Z</time>
      </trkpt>
      <trkpt lat="49.21486" lon="3.99468">
        <ele>85.5</ele>
        <time>2026-08-20T06:56:48Z</time>
      </trkpt>
      <trkpt lat="49.21486" lon="3.9947">
        <ele>85.5</ele>
        <time>2026-08-20T06:56:54Z</time>
      </trkpt>
      <trkpt lat="49.21488" lon="3.99473">
        <ele>85.5</ele>
        <time>2026-08-20T06:56:59Z</time>
      </trkpt>
      <trkpt lat="49.21493" lon="3.99478">
        <ele>85.6</ele>
        <time>2026-08-20T06:57:04Z</time>
      </trkpt>
      <trkpt lat="49.21499" lon="3.99483">
        <ele>85.6</ele>
        <time>2026-08-20T06:57:10Z</time>
      </trkpt>
      <trkpt lat="49.21499" lon="3.99483">
        <ele>85.6</ele>
        <time>2026-08-20T06:57:15Z</time>
      </trkpt>
      <trkpt lat="49.21499" lon="3.99483">
        <ele>85.6</ele>
        <time>2026-08-20T06:57:20Z</time>
      </trkpt>
      <trkpt lat="49.21497" lon="3.99487">
        <ele>85.7</ele>
        <time>2026-08-20T06:57:26Z</time>
      </trkpt>
      <trkpt lat="49.21497" lon="3.99494">
        <ele>85.9</ele>
        <time>2026-08-20T06:57:31Z</time>
      </trkpt>
      <trkpt lat="49.21497" lon="3.995">
        <ele>86</ele>
        <time>2026-08-20T06:57:36Z</time>
      </trkpt>
      <trkpt lat="49.21497" lon="3.99503">
        <ele>86.1</ele>
        <time>2026-08-20T06:57:42Z</time>
      </trkpt>
      <trkpt lat="49.21498" lon="3.99509">
        <ele>86.1</ele>
        <time>2026-08-20T06:57:47Z</time>
      </trkpt>
      <trkpt lat="49.21496" lon="3.99515">
        <ele>86.2</ele>
        <time>2026-08-20T06:57:52Z</time>
      </trkpt>
      <trkpt lat="49.21495" lon="3.99521">
        <ele>86.3</ele>
        <time>2026-08-20T06:57:58Z</time>
      </trkpt>
      <trkpt lat="49.21495" lon="3.99522">
        <ele>86.3</ele>
        <time>2026-08-20T06:58:03Z</time>
      </trkpt>
      <trkpt lat="49.21495" lon="3.99522">
        <ele>86.3</ele>
        <time>2026-08-20T06:58:08Z</time>
      </trkpt>
      <trkpt lat="49.21494" lon="3.99525">
        <ele>86.4</ele>
        <time>2026-08-20T06:58:14Z</time>
      </trkpt>
      <trkpt lat="49.21493" lon="3.99531">
        <ele>86.5</ele>
        <time>2026-08-20T06:58:19Z</time>
      </trkpt>
      <trkpt lat="49.21496" lon="3.99535">
        <ele>86.5</ele>
        <time>2026-08-20T06:58:24Z</time>
      </trkpt>
      <trkpt lat="49.215" lon="3.9954">
        <ele>86.5</ele>
        <time>2026-08-20T06:58:30Z</time>
      </trkpt>
      <trkpt lat="49.21504" lon="3.99545">
        <ele>86.4</ele>
        <time>2026-08-20T06:58:35Z</time>
      </trkpt>
      <trkpt lat="49.21508" lon="3.99547">
        <ele>86.4</ele>
        <time>2026-08-20T06:58:40Z</time>
      </trkpt>
      <trkpt lat="49.21512" lon="3.99555">
        <ele>86.4</ele>
        <time>2026-08-20T06:58:46Z</time>
      </trkpt>
      <trkpt lat="49.21512" lon="3.99557">
        <ele>86.4</ele>
        <time>2026-08-20T06:58:51Z</time>
      </trkpt>
      <trkpt lat="49.21514" lon="3.99557">
        <ele>86.3</ele>
        <time>2026-08-20T06:58:56Z</time>
      </trkpt>
      <trkpt lat="49.21516" lon="3.99556">
        <ele>86.3</ele>
        <time>2026-08-20T06:59:02Z</time>
      </trkpt>
      <trkpt lat="49.21516" lon="3.99556">
        <ele>86.3</ele>
        <time>2026-08-20T06:59:07Z</time>
      </trkpt>
      <trkpt lat="49.21516" lon="3.99556">
        <ele>86.3</ele>
        <time>2026-08-20T06:59:12Z</time>
      </trkpt>
      <trkpt lat="49.21518" lon="3.9956">
        <ele>86.3</ele>
        <time>2026-08-20T06:59:18Z</time>
      </trkpt>
      <trkpt lat="49.2152" lon="3.99562">
        <ele>86.3</ele>
        <time>2026-08-20T06:59:23Z</time>
      </trkpt>
      <trkpt lat="49.2152" lon="3.99562">
        <ele>86.3</ele>
        <time>2026-08-20T06:59:28Z</time>
      </trkpt>
      <trkpt lat="49.2152" lon="3.99562">
        <ele>86.3</ele>
        <time>2026-08-20T06:59:34Z</time>
      </trkpt>
      <trkpt lat="49.2152" lon="3.99562">
        <ele>86.3</ele>
        <time>2026-08-20T06:59:39Z</time>
      </trkpt>
      <trkpt lat="49.2152" lon="3.99562">
        <ele>86.3</ele>
        <time>2026-08-20T06:59:44Z</time>
      </trkpt>
      <trkpt lat="49.2152" lon="3.99562">
        <ele>86.3</ele>
        <time>2026-08-20T06:59:50Z</time>
      </trkpt>
      <trkpt lat="49.2152" lon="3.99562">
        <ele>86.3</ele>
        <time>2026-08-20T06:59:55Z</time>
      </trkpt>
      <trkpt lat="49.2152" lon="3.99562">
        <ele>86.3</ele>
        <time>2026-08-20T07:00:00Z</time>
      </trkpt>
      <trkpt lat="49.2152" lon="3.99562">
        <ele>86.3</ele>
        <time>2026-08-20T07:00:06Z</time>
      </trkpt>
      <trkpt lat="49.2152" lon="3.99562">
        <ele>86.3</ele>
        <time>2026-08-20T07:00:11Z</time>
      </trkpt>
      <trkpt lat="49.2152" lon="3.99562">
        <ele>86.3</ele>
        <time>2026-08-20T07:00:16Z</time>
      </trkpt>
      <trkpt lat="49.2152" lon="3.99562">
        <ele>86.3</ele>
        <time>2026-08-20T07:00:22Z</time>
      </trkpt>
      <trkpt lat="49.2152" lon="3.99562">
        <ele>86.3</ele>
        <time>2026-08-20T07:00:27Z</time>
      </trkpt>
      <trkpt lat="49.2152" lon="3.99562">
        <ele>86.3</ele>
        <time>2026-08-20T07:00:32Z</time>
      </trkpt>
      <trkpt lat="49.21528" lon="3.99576">
        <ele>86.2</ele>
        <time>2026-08-20T07:00:38Z</time>
      </trkpt>
      <trkpt lat="49.21532" lon="3.99583">
        <ele>86.2</ele>
        <time>2026-08-20T07:00:43Z</time>
      </trkpt>
      <trkpt lat="49.21537" lon="3.99589">
        <ele>86.2</ele>
        <time>2026-08-20T07:00:48Z</time>
      </trkpt>
      <trkpt lat="49.21541" lon="3.99597">
        <ele>86.2</ele>
        <time>2026-08-20T07:00:54Z</time>
      </trkpt>
      <trkpt lat="49.21545" lon="3.99602">
        <ele>86.2</ele>
        <time>2026-08-20T07:00:59Z</time>
      </trkpt>
      <trkpt lat="49.21549" lon="3.99609">
        <ele>86.2</ele>
        <time>2026-08-20T07:01:04Z</time>
      </trkpt>
      <trkpt lat="49.21554" lon="3.99616">
        <ele>86.2</ele>
        <time>2026-08-20T07:01:10Z</time>
      </trkpt>
      <trkpt lat="49.21558" lon="3.99621">
        <ele>86.2</ele>
        <time>2026-08-20T07:01:15Z</time>
      </trkpt>
      <trkpt lat="49.21561" lon="3.99629">
        <ele>86.3</ele>
        <time>2026-08-20T07:01:20Z</time>
      </trkpt>
      <trkpt lat="49.2156" lon="3.99639">
        <ele>86.5</ele>
        <time>2026-08-20T07:01:26Z</time>
      </trkpt>
      <trkpt lat="49.21562" lon="3.99647">
        <ele>86.6</ele>
        <time>2026-08-20T07:01:31Z</time>
      </trkpt>
      <trkpt lat="49.21565" lon="3.99654">
        <ele>86.8</ele>
        <time>2026-08-20T07:01:36Z</time>
      </trkpt>
      <trkpt lat="49.2157" lon="3.99661">
        <ele>86.9</ele>
        <time>2026-08-20T07:01:42Z</time>
      </trkpt>
      <trkpt lat="49.21574" lon="3.99668">
        <ele>87</ele>
        <time>2026-08-20T07:01:47Z</time>
      </trkpt>
      <trkpt lat="49.21579" lon="3.99674">
        <ele>87</ele>
        <time>2026-08-20T07:01:52Z</time>
      </trkpt>
      <trkpt lat="49.21585" lon="3.99682">
        <ele>87</ele>
        <time>2026-08-20T07:01:58Z</time>
      </trkpt>
      <trkpt lat="49.21589" lon="3.99688">
        <ele>86.9</ele>
        <time>2026-08-20T07:02:03Z</time>
      </trkpt>
      <trkpt lat="49.21593" lon="3.99695">
        <ele>86.9</ele>
        <time>2026-08-20T07:02:08Z</time>
      </trkpt>
      <trkpt lat="49.21599" lon="3.99703">
        <ele>86.8</ele>
        <time>2026-08-20T07:02:14Z</time>
      </trkpt>
      <trkpt lat="49.21604" lon="3.99709">
        <ele>86.8</ele>
        <time>2026-08-20T07:02:19Z</time>
      </trkpt>
      <trkpt lat="49.21605" lon="3.9971">
        <ele>86.7</ele>
        <time>2026-08-20T07:02:24Z</time>
      </trkpt>
      <trkpt lat="49.21605" lon="3.9971">
        <ele>86.7</ele>
        <time>2026-08-20T07:02:30Z</time>
      </trkpt>
      <trkpt lat="49.21605" lon="3.9971">
        <ele>86.7</ele>
        <time>2026-08-20T07:02:35Z</time>
      </trkpt>
      <trkpt lat="49.21604" lon="3.99707">
        <ele>86.8</ele>
        <time>2026-08-20T07:02:40Z</time>
      </trkpt>
      <trkpt lat="49.21599" lon="3.99702">
        <ele>86.8</ele>
        <time>2026-08-20T07:02:46Z</time>
      </trkpt>
      <trkpt lat="49.21595" lon="3.99697">
        <ele>86.9</ele>
        <time>2026-08-20T07:02:51Z</time>
      </trkpt>
      <trkpt lat="49.21591" lon="3.9969">
        <ele>86.9</ele>
        <time>2026-08-20T07:02:56Z</time>
      </trkpt>
      <trkpt lat="49.21586" lon="3.99682">
        <ele>87</ele>
        <time>2026-08-20T07:03:02Z</time>
      </trkpt>
      <trkpt lat="49.21581" lon="3.99676">
        <ele>87</ele>
        <time>2026-08-20T07:03:07Z</time>
      </trkpt>
      <trkpt lat="49.21575" lon="3.9967">
        <ele>87</ele>
        <time>2026-08-20T07:03:12Z</time>
      </trkpt>
      <trkpt lat="49.21572" lon="3.99663">
        <ele>86.9</ele>
        <time>2026-08-20T07:03:18Z</time>
      </trkpt>
      <trkpt lat="49.21571" lon="3.99661">
        <ele>86.9</ele>
        <time>2026-08-20T07:03:23Z</time>
      </trkpt>
      <trkpt lat="49.21571" lon="3.99661">
        <ele>86.9</ele>
        <time>2026-08-20T07:03:28Z</time>
      </trkpt>
      <trkpt lat="49.21571" lon="3.99661">
        <ele>86.9</ele>
        <time>2026-08-20T07:03:34Z</time>
      </trkpt>
      <trkpt lat="49.21571" lon="3.99661">
        <ele>86.9</ele>
        <time>2026-08-20T07:03:39Z</time>
      </trkpt>
      <trkpt lat="49.21571" lon="3.99661">
        <ele>86.9</ele>
        <time>2026-08-20T07:03:44Z</time>
      </trkpt>
      <trkpt lat="49.21567" lon="3.99657">
        <ele>86.8</ele>
        <time>2026-08-20T07:03:50Z</time>
      </trkpt>
      <trkpt lat="49.21562" lon="3.99653">
        <ele>86.8</ele>
        <time>2026-08-20T07:03:55Z</time>
      </trkpt>
      <trkpt lat="49.2156" lon="3.99657">
        <ele>86.8</ele>
        <time>2026-08-20T07:04:00Z</time>
      </trkpt>
      <trkpt lat="49.21559" lon="3.99657">
        <ele>86.8</ele>
        <time>2026-08-20T07:04:06Z</time>
      </trkpt>
      <trkpt lat="49.21559" lon="3.99662">
        <ele>86.9</ele>
        <time>2026-08-20T07:04:11Z</time>
      </trkpt>
      <trkpt lat="49.21557" lon="3.99666">
        <ele>87</ele>
        <time>2026-08-20T07:04:16Z</time>
      </trkpt>
      <trkpt lat="49.21558" lon="3.99667">
        <ele>87</ele>
        <time>2026-08-20T07:04:22Z</time>
      </trkpt>
      <trkpt lat="49.21558" lon="3.99667">
        <ele>87</ele>
        <time>2026-08-20T07:04:27Z</time>
      </trkpt>
      <trkpt lat="49.21558" lon="3.99667">
        <ele>87</ele>
        <time>2026-08-20T07:04:32Z</time>
      </trkpt>
      <trkpt lat="49.21556" lon="3.99671">
        <ele>87</ele>
        <time>2026-08-20T07:04:38Z</time>
      </trkpt>
      <trkpt lat="49.21555" lon="3.99675">
        <ele>87</ele>
        <time>2026-08-20T07:04:43Z</time>
      </trkpt>
      <trkpt lat="49.21555" lon="3.99677">
        <ele>87</ele>
        <time>2026-08-20T07:04:48Z</time>
      </trkpt>
      <trkpt lat="49.21555" lon="3.99678">
        <ele>87</ele>
        <time>2026-08-20T07:04:54Z</time>
      </trkpt>
      <trkpt lat="49.21551" lon="3.99682">
        <ele>87.1</ele>
        <time>2026-08-20T07:04:59Z</time>
      </trkpt>
      <trkpt lat="49.21549" lon="3.99688">
        <ele>87.1</ele>
        <time>2026-08-20T07:05:04Z</time>
      </trkpt>
      <trkpt lat="49.21549" lon="3.99689">
        <ele>87.1</ele>
        <time>2026-08-20T07:05:10Z</time>
      </trkpt>
      <trkpt lat="49.21548" lon="3.9969">
        <ele>87.1</ele>
        <time>2026-08-20T07:05:15Z</time>
      </trkpt>
      <trkpt lat="49.21547" lon="3.99693">
        <ele>87.1</ele>
        <time>2026-08-20T07:05:20Z</time>
      </trkpt>
      <trkpt lat="49.21544" lon="3.99695">
        <ele>87.2</ele>
        <time>2026-08-20T07:05:26Z</time>
      </trkpt>
      <trkpt lat="49.21543" lon="3.99697">
        <ele>87.2</ele>
        <time>2026-08-20T07:05:31Z</time>
      </trkpt>
      <trkpt lat="49.21543" lon="3.99697">
        <ele>87.2</ele>
        <time>2026-08-20T07:05:36Z</time>
      </trkpt>
      <trkpt lat="49.21543" lon="3.99697">
        <ele>87.2</ele>
        <time>2026-08-20T07:05:42Z</time>
      </trkpt>
      <trkpt lat="49.21543" lon="3.99697">
        <ele>87.2</ele>
        <time>2026-08-20T07:05:47Z</time>
      </trkpt>
      <trkpt lat="49.21543" lon="3.99697">
        <ele>87.2</ele>
        <time>2026-08-20T07:05:52Z</time>
      </trkpt>
      <trkpt lat="49.21543" lon="3.99697">
        <ele>87.2</ele>
        <time>2026-08-20T07:05:58Z</time>
      </trkpt>
      <trkpt lat="49.21543" lon="3.99697">
        <ele>87.2</ele>
        <time>2026-08-20T07:06:03Z</time>
      </trkpt>
      <trkpt lat="49.21543" lon="3.99697">
        <ele>87.2</ele>
        <time>2026-08-20T07:06:08Z</time>
      </trkpt>
      <trkpt lat="49.2154" lon="3.99708">
        <ele>87.3</ele>
        <time>2026-08-20T07:06:14Z</time>
      </trkpt>
      <trkpt lat="49.2154" lon="3.99708">
        <ele>87.3</ele>
        <time>2026-08-20T07:06:19Z</time>
      </trkpt>
      <trkpt lat="49.2154" lon="3.99708">
        <ele>87.3</ele>
        <time>2026-08-20T07:06:24Z</time>
      </trkpt>
      <trkpt lat="49.2154" lon="3.99708">
        <ele>87.3</ele>
        <time>2026-08-20T07:06:30Z</time>
      </trkpt>
      <trkpt lat="49.21538" lon="3.99716">
        <ele>87.3</ele>
        <time>2026-08-20T07:06:35Z</time>
      </trkpt>
      <trkpt lat="49.21537" lon="3.99719">
        <ele>87.3</ele>
        <time>2026-08-20T07:06:40Z</time>
      </trkpt>
      <trkpt lat="49.21535" lon="3.99726">
        <ele>87.4</ele>
        <time>2026-08-20T07:06:46Z</time>
      </trkpt>
      <trkpt lat="49.21534" lon="3.99728">
        <ele>87.4</ele>
        <time>2026-08-20T07:06:51Z</time>
      </trkpt>
      <trkpt lat="49.21534" lon="3.99732">
        <ele>87.5</ele>
        <time>2026-08-20T07:06:56Z</time>
      </trkpt>
      <trkpt lat="49.2153" lon="3.9974">
        <ele>87.6</ele>
        <time>2026-08-20T07:07:02Z</time>
      </trkpt>
      <trkpt lat="49.21529" lon="3.99746">
        <ele>87.6</ele>
        <time>2026-08-20T07:07:07Z</time>
      </trkpt>
      <trkpt lat="49.21529" lon="3.99747">
        <ele>87.6</ele>
        <time>2026-08-20T07:07:12Z</time>
      </trkpt>
      <trkpt lat="49.21529" lon="3.99747">
        <ele>87.6</ele>
        <time>2026-08-20T07:07:18Z</time>
      </trkpt>
      <trkpt lat="49.21527" lon="3.99751">
        <ele>87.7</ele>
        <time>2026-08-20T07:07:23Z</time>
      </trkpt>
      <trkpt lat="49.21525" lon="3.99758">
        <ele>87.8</ele>
        <time>2026-08-20T07:07:28Z</time>
      </trkpt>
      <trkpt lat="49.21521" lon="3.99764">
        <ele>88</ele>
        <time>2026-08-20T07:07:34Z</time>
      </trkpt>
      <trkpt lat="49.21519" lon="3.99768">
        <ele>88.1</ele>
        <time>2026-08-20T07:07:39Z</time>
      </trkpt>
      <trkpt lat="49.21519" lon="3.99769">
        <ele>88.1</ele>
        <time>2026-08-20T07:07:44Z</time>
      </trkpt>
      <trkpt lat="49.2152" lon="3.9977">
        <ele>88.1</ele>
        <time>2026-08-20T07:07:50Z</time>
      </trkpt>
      <trkpt lat="49.21516" lon="3.99772">
        <ele>88.2</ele>
        <time>2026-08-20T07:07:55Z</time>
      </trkpt>
      <trkpt lat="49.21511" lon="3.99772">
        <ele>88.3</ele>
        <time>2026-08-20T07:08:00Z</time>
      </trkpt>
      <trkpt lat="49.21504" lon="3.99771">
        <ele>88.4</ele>
        <time>2026-08-20T07:08:06Z</time>
      </trkpt>
      <trkpt lat="49.21499" lon="3.99773">
        <ele>88.6</ele>
        <time>2026-08-20T07:08:11Z</time>
      </trkpt>
      <trkpt lat="49.21493" lon="3.99773">
        <ele>88.8</ele>
        <time>2026-08-20T07:08:16Z</time>
      </trkpt>
      <trkpt lat="49.21488" lon="3.99776">
        <ele>89</ele>
        <time>2026-08-20T07:08:22Z</time>
      </trkpt>
      <trkpt lat="49.21484" lon="3.99778">
        <ele>89.1</ele>
        <time>2026-08-20T07:08:27Z</time>
      </trkpt>
      <trkpt lat="49.21483" lon="3.99777">
        <ele>89.1</ele>
        <time>2026-08-20T07:08:32Z</time>
      </trkpt>
      <trkpt lat="49.21483" lon="3.99777">
        <ele>89.1</ele>
        <time>2026-08-20T07:08:38Z</time>
      </trkpt>
      <trkpt lat="49.21483" lon="3.99777">
        <ele>89.1</ele>
        <time>2026-08-20T07:08:43Z</time>
      </trkpt>
      <trkpt lat="49.21483" lon="3.99777">
        <ele>89.1</ele>
        <time>2026-08-20T07:08:48Z</time>
      </trkpt>
      <trkpt lat="49.21481" lon="3.99778">
        <ele>89.2</ele>
        <time>2026-08-20T07:08:54Z</time>
      </trkpt>
      <trkpt lat="49.21479" lon="3.99781">
        <ele>89.3</ele>
        <time>2026-08-20T07:08:59Z</time>
      </trkpt>
      <trkpt lat="49.21477" lon="3.99785">
        <ele>89.4</ele>
        <time>2026-08-20T07:09:04Z</time>
      </trkpt>
      <trkpt lat="49.21474" lon="3.99789">
        <ele>89.6</ele>
        <time>2026-08-20T07:09:10Z</time>
      </trkpt>
      <trkpt lat="49.21471" lon="3.99789">
        <ele>89.7</ele>
        <time>2026-08-20T07:09:15Z</time>
      </trkpt>
      <trkpt lat="49.21471" lon="3.99788">
        <ele>89.6</ele>
        <time>2026-08-20T07:09:20Z</time>
      </trkpt>
      <trkpt lat="49.21471" lon="3.99788">
        <ele>89.6</ele>
        <time>2026-08-20T07:09:26Z</time>
      </trkpt>
      <trkpt lat="49.21471" lon="3.99788">
        <ele>89.6</ele>
        <time>2026-08-20T07:09:31Z</time>
      </trkpt>
      <trkpt lat="49.21471" lon="3.99788">
        <ele>89.6</ele>
        <time>2026-08-20T07:09:36Z</time>
      </trkpt>
      <trkpt lat="49.21471" lon="3.99788">
        <ele>89.6</ele>
        <time>2026-08-20T07:09:42Z</time>
      </trkpt>
      <trkpt lat="49.21471" lon="3.99788">
        <ele>89.6</ele>
        <time>2026-08-20T07:09:47Z</time>
      </trkpt>
      <trkpt lat="49.21471" lon="3.99788">
        <ele>89.6</ele>
        <time>2026-08-20T07:09:52Z</time>
      </trkpt>
      <trkpt lat="49.21471" lon="3.99788">
        <ele>89.6</ele>
        <time>2026-08-20T07:09:58Z</time>
      </trkpt>
      <trkpt lat="49.21471" lon="3.99788">
        <ele>89.6</ele>
        <time>2026-08-20T07:10:03Z</time>
      </trkpt>
      <trkpt lat="49.21471" lon="3.99788">
        <ele>89.6</ele>
        <time>2026-08-20T07:10:08Z</time>
      </trkpt>
      <trkpt lat="49.21471" lon="3.99788">
        <ele>89.6</ele>
        <time>2026-08-20T07:10:14Z</time>
      </trkpt>
      <trkpt lat="49.21471" lon="3.99788">
        <ele>89.6</ele>
        <time>2026-08-20T07:10:19Z</time>
      </trkpt>
      <trkpt lat="49.21471" lon="3.99788">
        <ele>89.6</ele>
        <time>2026-08-20T07:10:24Z</time>
      </trkpt>
      <trkpt lat="49.21471" lon="3.99788">
        <ele>89.6</ele>
        <time>2026-08-20T07:10:30Z</time>
      </trkpt>
      <trkpt lat="49.21471" lon="3.99788">
        <ele>89.6</ele>
        <time>2026-08-20T07:10:35Z</time>
      </trkpt>
      <trkpt lat="49.21466" lon="3.99795">
        <ele>89.9</ele>
        <time>2026-08-20T07:10:40Z</time>
      </trkpt>
      <trkpt lat="49.21462" lon="3.99803">
        <ele>90.1</ele>
        <time>2026-08-20T07:10:46Z</time>
      </trkpt>
      <trkpt lat="49.2146" lon="3.99813">
        <ele>90.2</ele>
        <time>2026-08-20T07:10:51Z</time>
      </trkpt>
      <trkpt lat="49.21458" lon="3.99822">
        <ele>90.4</ele>
        <time>2026-08-20T07:10:56Z</time>
      </trkpt>
      <trkpt lat="49.21456" lon="3.99833">
        <ele>90.5</ele>
        <time>2026-08-20T07:11:02Z</time>
      </trkpt>
      <trkpt lat="49.21456" lon="3.99841">
        <ele>90.7</ele>
        <time>2026-08-20T07:11:07Z</time>
      </trkpt>
      <trkpt lat="49.21457" lon="3.99849">
        <ele>90.9</ele>
        <time>2026-08-20T07:11:12Z</time>
      </trkpt>
      <trkpt lat="49.21459" lon="3.99858">
        <ele>91.1</ele>
        <time>2026-08-20T07:11:18Z</time>
      </trkpt>
      <trkpt lat="49.2146" lon="3.99862">
        <ele>91.2</ele>
        <time>2026-08-20T07:11:23Z</time>
      </trkpt>
      <trkpt lat="49.2146" lon="3.99864">
        <ele>91.2</ele>
        <time>2026-08-20T07:11:28Z</time>
      </trkpt>
      <trkpt lat="49.2146" lon="3.99864">
        <ele>91.2</ele>
        <time>2026-08-20T07:11:34Z</time>
      </trkpt>
      <trkpt lat="49.2146" lon="3.99864">
        <ele>91.2</ele>
        <time>2026-08-20T07:11:39Z</time>
      </trkpt>
      <trkpt lat="49.2146" lon="3.99864">
        <ele>91.2</ele>
        <time>2026-08-20T07:11:44Z</time>
      </trkpt>
      <trkpt lat="49.2146" lon="3.99864">
        <ele>91.2</ele>
        <time>2026-08-20T07:11:50Z</time>
      </trkpt>
      <trkpt lat="49.2146" lon="3.99864">
        <ele>91.2</ele>
        <time>2026-08-20T07:11:55Z</time>
      </trkpt>
      <trkpt lat="49.2146" lon="3.99864">
        <ele>91.2</ele>
        <time>2026-08-20T07:12:00Z</time>
      </trkpt>
      <trkpt lat="49.2146" lon="3.99864">
        <ele>91.2</ele>
        <time>2026-08-20T07:12:06Z</time>
      </trkpt>
      <trkpt lat="49.2146" lon="3.99864">
        <ele>91.2</ele>
        <time>2026-08-20T07:12:11Z</time>
      </trkpt>
      <trkpt lat="49.2146" lon="3.99864">
        <ele>91.2</ele>
        <time>2026-08-20T07:12:16Z</time>
      </trkpt>
      <trkpt lat="49.2146" lon="3.99864">
        <ele>91.2</ele>
        <time>2026-08-20T07:12:22Z</time>
      </trkpt>
      <trkpt lat="49.2146" lon="3.99864">
        <ele>91.2</ele>
        <time>2026-08-20T07:12:27Z</time>
      </trkpt>
      <trkpt lat="49.2146" lon="3.99864">
        <ele>91.2</ele>
        <time>2026-08-20T07:12:32Z</time>
      </trkpt>
      <trkpt lat="49.2146" lon="3.99864">
        <ele>91.2</ele>
        <time>2026-08-20T07:12:38Z</time>
      </trkpt>
      <trkpt lat="49.2146" lon="3.99864">
        <ele>91.2</ele>
        <time>2026-08-20T07:12:43Z</time>
      </trkpt>
      <trkpt lat="49.2146" lon="3.99864">
        <ele>91.2</ele>
        <time>2026-08-20T07:12:48Z</time>
      </trkpt>
      <trkpt lat="49.2146" lon="3.99864">
        <ele>91.2</ele>
        <time>2026-08-20T07:12:54Z</time>
      </trkpt>
      <trkpt lat="49.2146" lon="3.99864">
        <ele>91.2</ele>
        <time>2026-08-20T07:12:59Z</time>
      </trkpt>
      <trkpt lat="49.2146" lon="3.99864">
        <ele>91.2</ele>
        <time>2026-08-20T07:13:04Z</time>
      </trkpt>
      <trkpt lat="49.2146" lon="3.99864">
        <ele>91.2</ele>
        <time>2026-08-20T07:13:10Z</time>
      </trkpt>
      <trkpt lat="49.2146" lon="3.99864">
        <ele>91.2</ele>
        <time>2026-08-20T07:13:15Z</time>
      </trkpt>
      <trkpt lat="49.2146" lon="3.99864">
        <ele>91.2</ele>
        <time>2026-08-20T07:13:20Z</time>
      </trkpt>
      <trkpt lat="49.2146" lon="3.99864">
        <ele>91.2</ele>
        <time>2026-08-20T07:13:26Z</time>
      </trkpt>
      <trkpt lat="49.2146" lon="3.99864">
        <ele>91.2</ele>
        <time>2026-08-20T07:13:31Z</time>
      </trkpt>
      <trkpt lat="49.2146" lon="3.99864">
        <ele>91.2</ele>
        <time>2026-08-20T07:13:36Z</time>
      </trkpt>
      <trkpt lat="49.2146" lon="3.99864">
        <ele>91.2</ele>
        <time>2026-08-20T07:13:42Z</time>
      </trkpt>
      <trkpt lat="49.2146" lon="3.99864">
        <ele>91.2</ele>
        <time>2026-08-20T07:13:47Z</time>
      </trkpt>
      <trkpt lat="49.2146" lon="3.99864">
        <ele>91.2</ele>
        <time>2026-08-20T07:13:52Z</time>
      </trkpt>
      <trkpt lat="49.2146" lon="3.99864">
        <ele>91.2</ele>
        <time>2026-08-20T07:13:58Z</time>
      </trkpt>
      <trkpt lat="49.2146" lon="3.99864">
        <ele>91.2</ele>
        <time>2026-08-20T07:14:03Z</time>
      </trkpt>
      <trkpt lat="49.2146" lon="3.99864">
        <ele>91.2</ele>
        <time>2026-08-20T07:14:08Z</time>
      </trkpt>
      <trkpt lat="49.2146" lon="3.99864">
        <ele>91.2</ele>
        <time>2026-08-20T07:14:14Z</time>
      </trkpt>
      <trkpt lat="49.2146" lon="3.99864">
        <ele>91.2</ele>
        <time>2026-08-20T07:14:19Z</time>
      </trkpt>
      <trkpt lat="49.2146" lon="3.99864">
        <ele>91.2</ele>
        <time>2026-08-20T07:14:24Z</time>
      </trkpt>
      <trkpt lat="49.2146" lon="3.99864">
        <ele>91.2</ele>
        <time>2026-08-20T07:14:30Z</time>
      </trkpt>
      <trkpt lat="49.2146" lon="3.99864">
        <ele>91.2</ele>
        <time>2026-08-20T07:14:35Z</time>
      </trkpt>
      <trkpt lat="49.2146" lon="3.99864">
        <ele>91.2</ele>
        <time>2026-08-20T07:14:40Z</time>
      </trkpt>
      <trkpt lat="49.2146" lon="3.99864">
        <ele>91.2</ele>
        <time>2026-08-20T07:14:46Z</time>
      </trkpt>
      <trkpt lat="49.2146" lon="3.99864">
        <ele>91.2</ele>
        <time>2026-08-20T07:14:51Z</time>
      </trkpt>
      <trkpt lat="49.2146" lon="3.99864">
        <ele>91.2</ele>
        <time>2026-08-20T07:14:56Z</time>
      </trkpt>
      <trkpt lat="49.2146" lon="3.99864">
        <ele>91.2</ele>
        <time>2026-08-20T07:15:02Z</time>
      </trkpt>
      <trkpt lat="49.2146" lon="3.99864">
        <ele>91.2</ele>
        <time>2026-08-20T07:15:07Z</time>
      </trkpt>
      <trkpt lat="49.2146" lon="3.99864">
        <ele>91.2</ele>
        <time>2026-08-20T07:15:12Z</time>
      </trkpt>
      <trkpt lat="49.2146" lon="3.99864">
        <ele>91.2</ele>
        <time>2026-08-20T07:15:18Z</time>
      </trkpt>
      <trkpt lat="49.2146" lon="3.99864">
        <ele>91.2</ele>
        <time>2026-08-20T07:15:23Z</time>
      </trkpt>
      <trkpt lat="49.2146" lon="3.99864">
        <ele>91.2</ele>
        <time>2026-08-20T07:15:28Z</time>
      </trkpt>
      <trkpt lat="49.2146" lon="3.99864">
        <ele>91.2</ele>
        <time>2026-08-20T07:15:34Z</time>
      </trkpt>
      <trkpt lat="49.2146" lon="3.99867">
        <ele>91.3</ele>
        <time>2026-08-20T07:15:39Z</time>
      </trkpt>
      <trkpt lat="49.21461" lon="3.99872">
        <ele>91.4</ele>
        <time>2026-08-20T07:15:44Z</time>
      </trkpt>
      <trkpt lat="49.21464" lon="3.99879">
        <ele>91.5</ele>
        <time>2026-08-20T07:15:50Z</time>
      </trkpt>
      <trkpt lat="49.21469" lon="3.99884">
        <ele>91.6</ele>
        <time>2026-08-20T07:15:55Z</time>
      </trkpt>
      <trkpt lat="49.21474" lon="3.9989">
        <ele>91.7</ele>
        <time>2026-08-20T07:16:00Z</time>
      </trkpt>
      <trkpt lat="49.21481" lon="3.99895">
        <ele>91.7</ele>
        <time>2026-08-20T07:16:06Z</time>
      </trkpt>
      <trkpt lat="49.21484" lon="3.99899">
        <ele>91.8</ele>
        <time>2026-08-20T07:16:11Z</time>
      </trkpt>
      <trkpt lat="49.2149" lon="3.99903">
        <ele>91.8</ele>
        <time>2026-08-20T07:16:16Z</time>
      </trkpt>
      <trkpt lat="49.21492" lon="3.99909">
        <ele>91.9</ele>
        <time>2026-08-20T07:16:22Z</time>
      </trkpt>
      <trkpt lat="49.21492" lon="3.99909">
        <ele>91.9</ele>
        <time>2026-08-20T07:16:27Z</time>
      </trkpt>
      <trkpt lat="49.21492" lon="3.99909">
        <ele>91.9</ele>
        <time>2026-08-20T07:16:32Z</time>
      </trkpt>
      <trkpt lat="49.21492" lon="3.99909">
        <ele>91.9</ele>
        <time>2026-08-20T07:16:38Z</time>
      </trkpt>
      <trkpt lat="49.21492" lon="3.99909">
        <ele>91.9</ele>
        <time>2026-08-20T07:16:43Z</time>
      </trkpt>
      <trkpt lat="49.21492" lon="3.99909">
        <ele>91.9</ele>
        <time>2026-08-20T07:16:48Z</time>
      </trkpt>
      <trkpt lat="49.21492" lon="3.99909">
        <ele>91.9</ele>
        <time>2026-08-20T07:16:54Z</time>
      </trkpt>
      <trkpt lat="49.21492" lon="3.99909">
        <ele>91.9</ele>
        <time>2026-08-20T07:16:59Z</time>
      </trkpt>
      <trkpt lat="49.21492" lon="3.99909">
        <ele>91.9</ele>
        <time>2026-08-20T07:17:04Z</time>
      </trkpt>
      <trkpt lat="49.21492" lon="3.99909">
        <ele>91.9</ele>
        <time>2026-08-20T07:17:10Z</time>
      </trkpt>
      <trkpt lat="49.21492" lon="3.99909">
        <ele>91.9</ele>
        <time>2026-08-20T07:17:15Z</time>
      </trkpt>
      <trkpt lat="49.21492" lon="3.99909">
        <ele>91.9</ele>
        <time>2026-08-20T07:17:20Z</time>
      </trkpt>
      <trkpt lat="49.21495" lon="3.99927">
        <ele>92</ele>
        <time>2026-08-20T07:17:26Z</time>
      </trkpt>
      <trkpt lat="49.21495" lon="3.99927">
        <ele>92</ele>
        <time>2026-08-20T07:17:31Z</time>
      </trkpt>
      <trkpt lat="49.21495" lon="3.99927">
        <ele>92</ele>
        <time>2026-08-20T07:17:36Z</time>
      </trkpt>
      <trkpt lat="49.21495" lon="3.99927">
        <ele>92</ele>
        <time>2026-08-20T07:17:42Z</time>
      </trkpt>
      <trkpt lat="49.21495" lon="3.99927">
        <ele>92</ele>
        <time>2026-08-20T07:17:47Z</time>
      </trkpt>
      <trkpt lat="49.21495" lon="3.99927">
        <ele>92</ele>
        <time>2026-08-20T07:17:52Z</time>
      </trkpt>
      <trkpt lat="49.21495" lon="3.99927">
        <ele>92</ele>
        <time>2026-08-20T07:17:58Z</time>
      </trkpt>
      <trkpt lat="49.21495" lon="3.99927">
        <ele>92</ele>
        <time>2026-08-20T07:18:03Z</time>
      </trkpt>
      <trkpt lat="49.21495" lon="3.99927">
        <ele>92</ele>
        <time>2026-08-20T07:18:08Z</time>
      </trkpt>
      <trkpt lat="49.21499" lon="3.99938">
        <ele>91.8</ele>
        <time>2026-08-20T07:18:14Z</time>
      </trkpt>
      <trkpt lat="49.215" lon="3.99949">
        <ele>91.6</ele>
        <time>2026-08-20T07:18:19Z</time>
      </trkpt>
      <trkpt lat="49.215" lon="3.99959">
        <ele>91.5</ele>
        <time>2026-08-20T07:18:24Z</time>
      </trkpt>
      <trkpt lat="49.21502" lon="3.99971">
        <ele>91.3</ele>
        <time>2026-08-20T07:18:30Z</time>
      </trkpt>
      <trkpt lat="49.21502" lon="3.99981">
        <ele>91.2</ele>
        <time>2026-08-20T07:18:35Z</time>
      </trkpt>
      <trkpt lat="49.21504" lon="3.9999">
        <ele>91</ele>
        <time>2026-08-20T07:18:40Z</time>
      </trkpt>
      <trkpt lat="49.21505" lon="4.00002">
        <ele>90.9</ele>
        <time>2026-08-20T07:18:46Z</time>
      </trkpt>
      <trkpt lat="49.21506" lon="4.00013">
        <ele>91</ele>
        <time>2026-08-20T07:18:51Z</time>
      </trkpt>
      <trkpt lat="49.21507" lon="4.00021">
        <ele>91.1</ele>
        <time>2026-08-20T07:18:56Z</time>
      </trkpt>
      <trkpt lat="49.21508" lon="4.00032">
        <ele>91.2</ele>
        <time>2026-08-20T07:19:02Z</time>
      </trkpt>
      <trkpt lat="49.21509" lon="4.00042">
        <ele>91.3</ele>
        <time>2026-08-20T07:19:07Z</time>
      </trkpt>
      <trkpt lat="49.21509" lon="4.00051">
        <ele>91.4</ele>
        <time>2026-08-20T07:19:12Z</time>
      </trkpt>
      <trkpt lat="49.2151" lon="4.00061">
        <ele>91.5</ele>
        <time>2026-08-20T07:19:18Z</time>
      </trkpt>
      <trkpt lat="49.21511" lon="4.0007">
        <ele>91.6</ele>
        <time>2026-08-20T07:19:23Z</time>
      </trkpt>
      <trkpt lat="49.21512" lon="4.00079">
        <ele>91.7</ele>
        <time>2026-08-20T07:19:28Z</time>
      </trkpt>
      <trkpt lat="49.21513" lon="4.00089">
        <ele>91.8</ele>
        <time>2026-08-20T07:19:34Z</time>
      </trkpt>
      <trkpt lat="49.21514" lon="4.00099">
        <ele>92</ele>
        <time>2026-08-20T07:19:39Z</time>
      </trkpt>
      <trkpt lat="49.21515" lon="4.00108">
        <ele>92.1</ele>
        <time>2026-08-20T07:19:44Z</time>
      </trkpt>
      <trkpt lat="49.21515" lon="4.00119">
        <ele>92.3</ele>
        <time>2026-08-20T07:19:50Z</time>
      </trkpt>
      <trkpt lat="49.21513" lon="4.00128">
        <ele>92.6</ele>
        <time>2026-08-20T07:19:55Z</time>
      </trkpt>
      <trkpt lat="49.21509" lon="4.00137">
        <ele>92.9</ele>
        <time>2026-08-20T07:20:00Z</time>
      </trkpt>
      <trkpt lat="49.21506" lon="4.00148">
        <ele>93.3</ele>
        <time>2026-08-20T07:20:06Z</time>
      </trkpt>
      <trkpt lat="49.21506" lon="4.00158">
        <ele>93.5</ele>
        <time>2026-08-20T07:20:11Z</time>
      </trkpt>
      <trkpt lat="49.21509" lon="4.00167">
        <ele>93.6</ele>
        <time>2026-08-20T07:20:16Z</time>
      </trkpt>
      <trkpt lat="49.21512" lon="4.00177">
        <ele>93.4</ele>
        <time>2026-08-20T07:20:22Z</time>
      </trkpt>
      <trkpt lat="49.21515" lon="4.00186">
        <ele>93.3</ele>
        <time>2026-08-20T07:20:27Z</time>
      </trkpt>
      <trkpt lat="49.21513" lon="4.00196">
        <ele>93.4</ele>
        <time>2026-08-20T07:20:32Z</time>
      </trkpt>
      <trkpt lat="49.2151" lon="4.00205">
        <ele>93.5</ele>
        <time>2026-08-20T07:20:38Z</time>
      </trkpt>
      <trkpt lat="49.21507" lon="4.00213">
        <ele>93.7</ele>
        <time>2026-08-20T07:20:43Z</time>
      </trkpt>
      <trkpt lat="49.21505" lon="4.00222">
        <ele>93.8</ele>
        <time>2026-08-20T07:20:48Z</time>
      </trkpt>
      <trkpt lat="49.21502" lon="4.00232">
        <ele>93.9</ele>
        <time>2026-08-20T07:20:54Z</time>
      </trkpt>
      <trkpt lat="49.21499" lon="4.00239">
        <ele>94.1</ele>
        <time>2026-08-20T07:20:59Z</time>
      </trkpt>
      <trkpt lat="49.21497" lon="4.00243">
        <ele>94.2</ele>
        <time>2026-08-20T07:21:04Z</time>
      </trkpt>
      <trkpt lat="49.21497" lon="4.00245">
        <ele>94.2</ele>
        <time>2026-08-20T07:21:10Z</time>
      </trkpt>
      <trkpt lat="49.21494" lon="4.00251">
        <ele>94.4</ele>
        <time>2026-08-20T07:21:15Z</time>
      </trkpt>
      <trkpt lat="49.21491" lon="4.00259">
        <ele>94.6</ele>
        <time>2026-08-20T07:21:20Z</time>
      </trkpt>
      <trkpt lat="49.21488" lon="4.00269">
        <ele>94.9</ele>
        <time>2026-08-20T07:21:26Z</time>
      </trkpt>
      <trkpt lat="49.21485" lon="4.00276">
        <ele>95.2</ele>
        <time>2026-08-20T07:21:31Z</time>
      </trkpt>
      <trkpt lat="49.21483" lon="4.00284">
        <ele>95.4</ele>
        <time>2026-08-20T07:21:36Z</time>
      </trkpt>
      <trkpt lat="49.21479" lon="4.00295">
        <ele>95.8</ele>
        <time>2026-08-20T07:21:42Z</time>
      </trkpt>
      <trkpt lat="49.21479" lon="4.00297">
        <ele>95.8</ele>
        <time>2026-08-20T07:21:47Z</time>
      </trkpt>
      <trkpt lat="49.21479" lon="4.00298">
        <ele>95.8</ele>
        <time>2026-08-20T07:21:52Z</time>
      </trkpt>
      <trkpt lat="49.2148" lon="4.00298">
        <ele>95.8</ele>
        <time>2026-08-20T07:21:58Z</time>
      </trkpt>
      <trkpt lat="49.21478" lon="4.00304">
        <ele>96</ele>
        <time>2026-08-20T07:22:03Z</time>
      </trkpt>
      <trkpt lat="49.21475" lon="4.00311">
        <ele>96.2</ele>
        <time>2026-08-20T07:22:08Z</time>
      </trkpt>
      <trkpt lat="49.21471" lon="4.00319">
        <ele>96.6</ele>
        <time>2026-08-20T07:22:14Z</time>
      </trkpt>
      <trkpt lat="49.21467" lon="4.00327">
        <ele>96.9</ele>
        <time>2026-08-20T07:22:19Z</time>
      </trkpt>
      <trkpt lat="49.21465" lon="4.00334">
        <ele>97.1</ele>
        <time>2026-08-20T07:22:24Z</time>
      </trkpt>
      <trkpt lat="49.21462" lon="4.00344">
        <ele>97.3</ele>
        <time>2026-08-20T07:22:30Z</time>
      </trkpt>
      <trkpt lat="49.21459" lon="4.0035">
        <ele>97.6</ele>
        <time>2026-08-20T07:22:35Z</time>
      </trkpt>
      <trkpt lat="49.21455" lon="4.00357">
        <ele>97.8</ele>
        <time>2026-08-20T07:22:40Z</time>
      </trkpt>
      <trkpt lat="49.21451" lon="4.00368">
        <ele>98.1</ele>
        <time>2026-08-20T07:22:46Z</time>
      </trkpt>
      <trkpt lat="49.21449" lon="4.00377">
        <ele>98.3</ele>
        <time>2026-08-20T07:22:51Z</time>
      </trkpt>
      <trkpt lat="49.21446" lon="4.00385">
        <ele>98.5</ele>
        <time>2026-08-20T07:22:56Z</time>
      </trkpt>
      <trkpt lat="49.21444" lon="4.00392">
        <ele>98.6</ele>
        <time>2026-08-20T07:23:02Z</time>
      </trkpt>
      <trkpt lat="49.21442" lon="4.00396">
        <ele>98.7</ele>
        <time>2026-08-20T07:23:07Z</time>
      </trkpt>
      <trkpt lat="49.21439" lon="4.00405">
        <ele>98.9</ele>
        <time>2026-08-20T07:23:12Z</time>
      </trkpt>
      <trkpt lat="49.21436" lon="4.00415">
        <ele>99.1</ele>
        <time>2026-08-20T07:23:18Z</time>
      </trkpt>
      <trkpt lat="49.21433" lon="4.00423">
        <ele>99.4</ele>
        <time>2026-08-20T07:23:23Z</time>
      </trkpt>
      <trkpt lat="49.2143" lon="4.0043">
        <ele>99.7</ele>
        <time>2026-08-20T07:23:28Z</time>
      </trkpt>
      <trkpt lat="49.21427" lon="4.0044">
        <ele>100</ele>
        <time>2026-08-20T07:23:34Z</time>
      </trkpt>
      <trkpt lat="49.21424" lon="4.00447">
        <ele>100.3</ele>
        <time>2026-08-20T07:23:39Z</time>
      </trkpt>
      <trkpt lat="49.21421" lon="4.00456">
        <ele>100.7</ele>
        <time>2026-08-20T07:23:44Z</time>
      </trkpt>
      <trkpt lat="49.21417" lon="4.00466">
        <ele>101.2</ele>
        <time>2026-08-20T07:23:50Z</time>
      </trkpt>
      <trkpt lat="49.21414" lon="4.00474">
        <ele>101.5</ele>
        <time>2026-08-20T07:23:55Z</time>
      </trkpt>
      <trkpt lat="49.21411" lon="4.00481">
        <ele>101.8</ele>
        <time>2026-08-20T07:24:00Z</time>
      </trkpt>
      <trkpt lat="49.21408" lon="4.00491">
        <ele>102.2</ele>
        <time>2026-08-20T07:24:06Z</time>
      </trkpt>
      <trkpt lat="49.21405" lon="4.005">
        <ele>102.6</ele>
        <time>2026-08-20T07:24:11Z</time>
      </trkpt>
      <trkpt lat="49.21403" lon="4.00507">
        <ele>102.7</ele>
        <time>2026-08-20T07:24:16Z</time>
      </trkpt>
      <trkpt lat="49.21399" lon="4.00518">
        <ele>103.1</ele>
        <time>2026-08-20T07:24:22Z</time>
      </trkpt>
      <trkpt lat="49.21396" lon="4.00525">
        <ele>103.3</ele>
        <time>2026-08-20T07:24:27Z</time>
      </trkpt>
      <trkpt lat="49.21392" lon="4.00535">
        <ele>103.6</ele>
        <time>2026-08-20T07:24:32Z</time>
      </trkpt>
      <trkpt lat="49.21388" lon="4.00546">
        <ele>103.9</ele>
        <time>2026-08-20T07:24:38Z</time>
      </trkpt>
      <trkpt lat="49.21386" lon="4.00553">
        <ele>104.1</ele>
        <time>2026-08-20T07:24:43Z</time>
      </trkpt>
      <trkpt lat="49.21384" lon="4.00561">
        <ele>104.3</ele>
        <time>2026-08-20T07:24:48Z</time>
      </trkpt>
      <trkpt lat="49.21381" lon="4.00571">
        <ele>104.6</ele>
        <time>2026-08-20T07:24:54Z</time>
      </trkpt>
      <trkpt lat="49.21378" lon="4.00579">
        <ele>104.8</ele>
        <time>2026-08-20T07:24:59Z</time>
      </trkpt>
      <trkpt lat="49.21377" lon="4.00582">
        <ele>104.9</ele>
        <time>2026-08-20T07:25:04Z</time>
      </trkpt>
      <trkpt lat="49.21376" lon="4.00583">
        <ele>104.9</ele>
        <time>2026-08-20T07:25:10Z</time>
      </trkpt>
      <trkpt lat="49.21376" lon="4.00583">
        <ele>104.9</ele>
        <time>2026-08-20T07:25:15Z</time>
      </trkpt>
      <trkpt lat="49.21372" lon="4.0059">
        <ele>105.3</ele>
        <time>2026-08-20T07:25:20Z</time>
      </trkpt>
      <trkpt lat="49.21373" lon="4.00595">
        <ele>105.4</ele>
        <time>2026-08-20T07:25:26Z</time>
      </trkpt>
      <trkpt lat="49.21373" lon="4.00598">
        <ele>105.4</ele>
        <time>2026-08-20T07:25:31Z</time>
      </trkpt>
      <trkpt lat="49.21373" lon="4.00598">
        <ele>105.4</ele>
        <time>2026-08-20T07:25:36Z</time>
      </trkpt>
      <trkpt lat="49.21373" lon="4.00598">
        <ele>105.4</ele>
        <time>2026-08-20T07:25:42Z</time>
      </trkpt>
      <trkpt lat="49.21373" lon="4.00598">
        <ele>105.4</ele>
        <time>2026-08-20T07:25:47Z</time>
      </trkpt>
      <trkpt lat="49.21373" lon="4.00598">
        <ele>105.4</ele>
        <time>2026-08-20T07:25:52Z</time>
      </trkpt>
      <trkpt lat="49.21369" lon="4.00604">
        <ele>105.7</ele>
        <time>2026-08-20T07:25:58Z</time>
      </trkpt>
      <trkpt lat="49.21368" lon="4.00606">
        <ele>105.8</ele>
        <time>2026-08-20T07:26:03Z</time>
      </trkpt>
      <trkpt lat="49.21368" lon="4.00606">
        <ele>105.8</ele>
        <time>2026-08-20T07:26:08Z</time>
      </trkpt>
      <trkpt lat="49.21368" lon="4.00606">
        <ele>105.8</ele>
        <time>2026-08-20T07:26:14Z</time>
      </trkpt>
      <trkpt lat="49.21368" lon="4.00606">
        <ele>105.8</ele>
        <time>2026-08-20T07:26:19Z</time>
      </trkpt>
      <trkpt lat="49.21368" lon="4.00608">
        <ele>105.9</ele>
        <time>2026-08-20T07:26:24Z</time>
      </trkpt>
      <trkpt lat="49.21366" lon="4.00611">
        <ele>106</ele>
        <time>2026-08-20T07:26:30Z</time>
      </trkpt>
      <trkpt lat="49.21364" lon="4.00614">
        <ele>106.2</ele>
        <time>2026-08-20T07:26:35Z</time>
      </trkpt>
      <trkpt lat="49.21362" lon="4.00622">
        <ele>106.4</ele>
        <time>2026-08-20T07:26:40Z</time>
      </trkpt>
      <trkpt lat="49.21359" lon="4.00631">
        <ele>106.7</ele>
        <time>2026-08-20T07:26:46Z</time>
      </trkpt>
      <trkpt lat="49.21356" lon="4.00639">
        <ele>106.9</ele>
        <time>2026-08-20T07:26:51Z</time>
      </trkpt>
      <trkpt lat="49.21353" lon="4.00645">
        <ele>107.1</ele>
        <time>2026-08-20T07:26:56Z</time>
      </trkpt>
      <trkpt lat="49.2135" lon="4.00653">
        <ele>107.4</ele>
        <time>2026-08-20T07:27:02Z</time>
      </trkpt>
      <trkpt lat="49.21349" lon="4.00658">
        <ele>107.5</ele>
        <time>2026-08-20T07:27:07Z</time>
      </trkpt>
      <trkpt lat="49.21349" lon="4.00658">
        <ele>107.5</ele>
        <time>2026-08-20T07:27:12Z</time>
      </trkpt>
      <trkpt lat="49.21348" lon="4.0066">
        <ele>107.5</ele>
        <time>2026-08-20T07:27:18Z</time>
      </trkpt>
      <trkpt lat="49.21346" lon="4.00663">
        <ele>107.6</ele>
        <time>2026-08-20T07:27:23Z</time>
      </trkpt>
      <trkpt lat="49.21346" lon="4.00664">
        <ele>107.7</ele>
        <time>2026-08-20T07:27:28Z</time>
      </trkpt>
      <trkpt lat="49.21344" lon="4.00667">
        <ele>107.7</ele>
        <time>2026-08-20T07:27:34Z</time>
      </trkpt>
      <trkpt lat="49.21344" lon="4.00667">
        <ele>107.7</ele>
        <time>2026-08-20T07:27:39Z</time>
      </trkpt>
      <trkpt lat="49.21344" lon="4.00667">
        <ele>107.7</ele>
        <time>2026-08-20T07:27:44Z</time>
      </trkpt>
      <trkpt lat="49.21344" lon="4.00667">
        <ele>107.7</ele>
        <time>2026-08-20T07:27:50Z</time>
      </trkpt>
      <trkpt lat="49.21344" lon="4.00667">
        <ele>107.7</ele>
        <time>2026-08-20T07:27:55Z</time>
      </trkpt>
      <trkpt lat="49.21344" lon="4.00667">
        <ele>107.7</ele>
        <time>2026-08-20T07:28:00Z</time>
      </trkpt>
      <trkpt lat="49.21344" lon="4.00667">
        <ele>107.7</ele>
        <time>2026-08-20T07:28:06Z</time>
      </trkpt>
      <trkpt lat="49.21344" lon="4.00667">
        <ele>107.7</ele>
        <time>2026-08-20T07:28:11Z</time>
      </trkpt>
      <trkpt lat="49.21344" lon="4.00667">
        <ele>107.7</ele>
        <time>2026-08-20T07:28:16Z</time>
      </trkpt>
      <trkpt lat="49.21344" lon="4.00667">
        <ele>107.7</ele>
        <time>2026-08-20T07:28:22Z</time>
      </trkpt>
      <trkpt lat="49.21344" lon="4.00667">
        <ele>107.7</ele>
        <time>2026-08-20T07:28:27Z</time>
      </trkpt>
      <trkpt lat="49.21344" lon="4.00667">
        <ele>107.7</ele>
        <time>2026-08-20T07:28:32Z</time>
      </trkpt>
      <trkpt lat="49.21344" lon="4.00667">
        <ele>107.7</ele>
        <time>2026-08-20T07:28:38Z</time>
      </trkpt>
      <trkpt lat="49.21344" lon="4.00667">
        <ele>107.7</ele>
        <time>2026-08-20T07:28:43Z</time>
      </trkpt>
      <trkpt lat="49.21344" lon="4.00667">
        <ele>107.7</ele>
        <time>2026-08-20T07:28:48Z</time>
      </trkpt>
      <trkpt lat="49.21344" lon="4.00667">
        <ele>107.7</ele>
        <time>2026-08-20T07:28:54Z</time>
      </trkpt>
      <trkpt lat="49.21344" lon="4.00667">
        <ele>107.7</ele>
        <time>2026-08-20T07:28:59Z</time>
      </trkpt>
      <trkpt lat="49.21344" lon="4.00667">
        <ele>107.7</ele>
        <time>2026-08-20T07:29:04Z</time>
      </trkpt>
      <trkpt lat="49.21344" lon="4.00667">
        <ele>107.7</ele>
        <time>2026-08-20T07:29:10Z</time>
      </trkpt>
      <trkpt lat="49.21344" lon="4.00667">
        <ele>107.7</ele>
        <time>2026-08-20T07:29:15Z</time>
      </trkpt>
      <trkpt lat="49.21344" lon="4.00667">
        <ele>107.7</ele>
        <time>2026-08-20T07:29:20Z</time>
      </trkpt>
      <trkpt lat="49.21344" lon="4.00667">
        <ele>107.7</ele>
        <time>2026-08-20T07:29:26Z</time>
      </trkpt>
      <trkpt lat="49.21344" lon="4.00667">
        <ele>107.7</ele>
        <time>2026-08-20T07:29:31Z</time>
      </trkpt>
      <trkpt lat="49.21344" lon="4.00667">
        <ele>107.7</ele>
        <time>2026-08-20T07:29:36Z</time>
      </trkpt>
      <trkpt lat="49.21344" lon="4.00667">
        <ele>107.7</ele>
        <time>2026-08-20T07:29:42Z</time>
      </trkpt>
      <trkpt lat="49.21344" lon="4.00667">
        <ele>107.7</ele>
        <time>2026-08-20T07:29:47Z</time>
      </trkpt>
      <trkpt lat="49.21344" lon="4.00667">
        <ele>107.7</ele>
        <time>2026-08-20T07:29:52Z</time>
      </trkpt>
      <trkpt lat="49.21344" lon="4.00667">
        <ele>107.7</ele>
        <time>2026-08-20T07:29:58Z</time>
      </trkpt>
      <trkpt lat="49.21344" lon="4.00667">
        <ele>107.7</ele>
        <time>2026-08-20T07:30:03Z</time>
      </trkpt>
      <trkpt lat="49.21344" lon="4.00667">
        <ele>107.7</ele>
        <time>2026-08-20T07:30:08Z</time>
      </trkpt>
      <trkpt lat="49.21344" lon="4.00667">
        <ele>107.7</ele>
        <time>2026-08-20T07:30:14Z</time>
      </trkpt>
      <trkpt lat="49.21344" lon="4.00667">
        <ele>107.7</ele>
        <time>2026-08-20T07:30:19Z</time>
      </trkpt>
      <trkpt lat="49.21344" lon="4.00667">
        <ele>107.7</ele>
        <time>2026-08-20T07:30:24Z</time>
      </trkpt>
      <trkpt lat="49.21344" lon="4.00667">
        <ele>107.7</ele>
        <time>2026-08-20T07:30:30Z</time>
      </trkpt>
      <trkpt lat="49.21344" lon="4.00667">
        <ele>107.7</ele>
        <time>2026-08-20T07:30:35Z</time>
      </trkpt>
      <trkpt lat="49.21344" lon="4.00667">
        <ele>107.7</ele>
        <time>2026-08-20T07:30:40Z</time>
      </trkpt>
      <trkpt lat="49.21344" lon="4.00667">
        <ele>107.7</ele>
        <time>2026-08-20T07:30:46Z</time>
      </trkpt>
      <trkpt lat="49.21344" lon="4.00667">
        <ele>107.7</ele>
        <time>2026-08-20T07:30:51Z</time>
      </trkpt>
      <trkpt lat="49.21344" lon="4.00667">
        <ele>107.7</ele>
        <time>2026-08-20T07:30:56Z</time>
      </trkpt>
      <trkpt lat="49.21344" lon="4.00667">
        <ele>107.7</ele>
        <time>2026-08-20T07:31:02Z</time>
      </trkpt>
      <trkpt lat="49.21344" lon="4.00667">
        <ele>107.7</ele>
        <time>2026-08-20T07:31:07Z</time>
      </trkpt>
      <trkpt lat="49.21344" lon="4.00667">
        <ele>107.7</ele>
        <time>2026-08-20T07:31:12Z</time>
      </trkpt>
      <trkpt lat="49.21344" lon="4.00667">
        <ele>107.7</ele>
        <time>2026-08-20T07:31:18Z</time>
      </trkpt>
      <trkpt lat="49.21339" lon="4.0068">
        <ele>107.9</ele>
        <time>2026-08-20T07:31:23Z</time>
      </trkpt>
      <trkpt lat="49.21338" lon="4.00684">
        <ele>107.9</ele>
        <time>2026-08-20T07:31:28Z</time>
      </trkpt>
      <trkpt lat="49.21338" lon="4.00685">
        <ele>107.9</ele>
        <time>2026-08-20T07:31:34Z</time>
      </trkpt>
      <trkpt lat="49.21338" lon="4.00685">
        <ele>107.9</ele>
        <time>2026-08-20T07:31:39Z</time>
      </trkpt>
      <trkpt lat="49.21338" lon="4.00685">
        <ele>107.9</ele>
        <time>2026-08-20T07:31:44Z</time>
      </trkpt>
      <trkpt lat="49.21338" lon="4.00685">
        <ele>107.9</ele>
        <time>2026-08-20T07:31:50Z</time>
      </trkpt>
      <trkpt lat="49.21338" lon="4.00685">
        <ele>107.9</ele>
        <time>2026-08-20T07:31:55Z</time>
      </trkpt>
      <trkpt lat="49.21338" lon="4.00685">
        <ele>107.9</ele>
        <time>2026-08-20T07:32:00Z</time>
      </trkpt>
      <trkpt lat="49.21338" lon="4.00685">
        <ele>107.9</ele>
        <time>2026-08-20T07:32:06Z</time>
      </trkpt>
      <trkpt lat="49.21338" lon="4.00685">
        <ele>107.9</ele>
        <time>2026-08-20T07:32:11Z</time>
      </trkpt>
      <trkpt lat="49.21338" lon="4.00685">
        <ele>107.9</ele>
        <time>2026-08-20T07:32:16Z</time>
      </trkpt>
      <trkpt lat="49.21338" lon="4.00685">
        <ele>107.9</ele>
        <time>2026-08-20T07:32:22Z</time>
      </trkpt>
      <trkpt lat="49.21338" lon="4.00685">
        <ele>107.9</ele>
        <time>2026-08-20T07:32:27Z</time>
      </trkpt>
      <trkpt lat="49.21338" lon="4.00685">
        <ele>107.9</ele>
        <time>2026-08-20T07:32:32Z</time>
      </trkpt>
      <trkpt lat="49.21333" lon="4.00699">
        <ele>108</ele>
        <time>2026-08-20T07:32:38Z</time>
      </trkpt>
      <trkpt lat="49.21333" lon="4.00699">
        <ele>108</ele>
        <time>2026-08-20T07:32:43Z</time>
      </trkpt>
      <trkpt lat="49.21331" lon="4.00702">
        <ele>108</ele>
        <time>2026-08-20T07:32:48Z</time>
      </trkpt>
      <trkpt lat="49.21331" lon="4.00702">
        <ele>108</ele>
        <time>2026-08-20T07:32:54Z</time>
      </trkpt>
      <trkpt lat="49.21331" lon="4.00702">
        <ele>108</ele>
        <time>2026-08-20T07:32:59Z</time>
      </trkpt>
      <trkpt lat="49.21331" lon="4.00702">
        <ele>108</ele>
        <time>2026-08-20T07:33:04Z</time>
      </trkpt>
      <trkpt lat="49.21331" lon="4.00702">
        <ele>108</ele>
        <time>2026-08-20T07:33:10Z</time>
      </trkpt>
      <trkpt lat="49.21331" lon="4.00702">
        <ele>108</ele>
        <time>2026-08-20T07:33:15Z</time>
      </trkpt>
      <trkpt lat="49.21331" lon="4.00702">
        <ele>108</ele>
        <time>2026-08-20T07:33:20Z</time>
      </trkpt>
      <trkpt lat="49.21331" lon="4.00702">
        <ele>108</ele>
        <time>2026-08-20T07:33:26Z</time>
      </trkpt>
      <trkpt lat="49.21331" lon="4.00702">
        <ele>108</ele>
        <time>2026-08-20T07:33:31Z</time>
      </trkpt>
      <trkpt lat="49.21331" lon="4.00702">
        <ele>108</ele>
        <time>2026-08-20T07:33:36Z</time>
      </trkpt>
      <trkpt lat="49.21331" lon="4.00702">
        <ele>108</ele>
        <time>2026-08-20T07:33:42Z</time>
      </trkpt>
      <trkpt lat="49.21331" lon="4.00702">
        <ele>108</ele>
        <time>2026-08-20T07:33:47Z</time>
      </trkpt>
      <trkpt lat="49.21332" lon="4.00706">
        <ele>108</ele>
        <time>2026-08-20T07:33:52Z</time>
      </trkpt>
      <trkpt lat="49.21332" lon="4.00707">
        <ele>108</ele>
        <time>2026-08-20T07:33:58Z</time>
      </trkpt>
      <trkpt lat="49.21332" lon="4.00707">
        <ele>108</ele>
        <time>2026-08-20T07:34:03Z</time>
      </trkpt>
      <trkpt lat="49.21332" lon="4.00707">
        <ele>108</ele>
        <time>2026-08-20T07:34:08Z</time>
      </trkpt>
      <trkpt lat="49.21332" lon="4.00707">
        <ele>108</ele>
        <time>2026-08-20T07:34:14Z</time>
      </trkpt>
      <trkpt lat="49.21332" lon="4.00707">
        <ele>108</ele>
        <time>2026-08-20T07:34:19Z</time>
      </trkpt>
      <trkpt lat="49.21332" lon="4.00707">
        <ele>108</ele>
        <time>2026-08-20T07:34:24Z</time>
      </trkpt>
      <trkpt lat="49.21325" lon="4.00717">
        <ele>107.9</ele>
        <time>2026-08-20T07:34:30Z</time>
      </trkpt>
      <trkpt lat="49.21323" lon="4.00726">
        <ele>107.9</ele>
        <time>2026-08-20T07:34:35Z</time>
      </trkpt>
      <trkpt lat="49.21321" lon="4.00733">
        <ele>107.9</ele>
        <time>2026-08-20T07:34:40Z</time>
      </trkpt>
      <trkpt lat="49.21318" lon="4.00741">
        <ele>107.8</ele>
        <time>2026-08-20T07:34:46Z</time>
      </trkpt>
      <trkpt lat="49.21316" lon="4.0075">
        <ele>107.8</ele>
        <time>2026-08-20T07:34:51Z</time>
      </trkpt>
      <trkpt lat="49.21313" lon="4.00758">
        <ele>107.7</ele>
        <time>2026-08-20T07:34:56Z</time>
      </trkpt>
      <trkpt lat="49.21308" lon="4.00768">
        <ele>107.6</ele>
        <time>2026-08-20T07:35:02Z</time>
      </trkpt>
      <trkpt lat="49.21306" lon="4.00775">
        <ele>107.6</ele>
        <time>2026-08-20T07:35:07Z</time>
      </trkpt>
      <trkpt lat="49.21303" lon="4.00784">
        <ele>107.5</ele>
        <time>2026-08-20T07:35:12Z</time>
      </trkpt>
      <trkpt lat="49.21299" lon="4.00795">
        <ele>107.5</ele>
        <time>2026-08-20T07:35:18Z</time>
      </trkpt>
      <trkpt lat="49.21296" lon="4.00804">
        <ele>107.5</ele>
        <time>2026-08-20T07:35:23Z</time>
      </trkpt>
      <trkpt lat="49.21292" lon="4.00812">
        <ele>107.5</ele>
        <time>2026-08-20T07:35:28Z</time>
      </trkpt>
      <trkpt lat="49.21289" lon="4.00822">
        <ele>107.5</ele>
        <time>2026-08-20T07:35:34Z</time>
      </trkpt>
      <trkpt lat="49.21285" lon="4.00831">
        <ele>107.6</ele>
        <time>2026-08-20T07:35:39Z</time>
      </trkpt>
      <trkpt lat="49.21282" lon="4.00841">
        <ele>107.4</ele>
        <time>2026-08-20T07:35:44Z</time>
      </trkpt>
      <trkpt lat="49.2128" lon="4.00852">
        <ele>107.2</ele>
        <time>2026-08-20T07:35:50Z</time>
      </trkpt>
      <trkpt lat="49.21277" lon="4.0086">
        <ele>107</ele>
        <time>2026-08-20T07:35:55Z</time>
      </trkpt>
      <trkpt lat="49.21273" lon="4.00868">
        <ele>106.8</ele>
        <time>2026-08-20T07:36:00Z</time>
      </trkpt>
      <trkpt lat="49.2127" lon="4.00878">
        <ele>106.5</ele>
        <time>2026-08-20T07:36:06Z</time>
      </trkpt>
      <trkpt lat="49.21267" lon="4.00887">
        <ele>106.3</ele>
        <time>2026-08-20T07:36:11Z</time>
      </trkpt>
      <trkpt lat="49.21264" lon="4.00896">
        <ele>106</ele>
        <time>2026-08-20T07:36:16Z</time>
      </trkpt>
      <trkpt lat="49.21257" lon="4.00905">
        <ele>105.6</ele>
        <time>2026-08-20T07:36:22Z</time>
      </trkpt>
      <trkpt lat="49.21252" lon="4.0091">
        <ele>105.3</ele>
        <time>2026-08-20T07:36:27Z</time>
      </trkpt>
      <trkpt lat="49.21247" lon="4.00915">
        <ele>105</ele>
        <time>2026-08-20T07:36:32Z</time>
      </trkpt>
      <trkpt lat="49.21243" lon="4.00926">
        <ele>104.5</ele>
        <time>2026-08-20T07:36:38Z</time>
      </trkpt>
      <trkpt lat="49.21244" lon="4.00934">
        <ele>104.2</ele>
        <time>2026-08-20T07:36:43Z</time>
      </trkpt>
      <trkpt lat="49.21243" lon="4.00944">
        <ele>103.9</ele>
        <time>2026-08-20T07:36:48Z</time>
      </trkpt>
      <trkpt lat="49.21247" lon="4.00954">
        <ele>103.6</ele>
        <time>2026-08-20T07:36:54Z</time>
      </trkpt>
      <trkpt lat="49.2125" lon="4.00961">
        <ele>103.4</ele>
        <time>2026-08-20T07:36:59Z</time>
      </trkpt>
      <trkpt lat="49.21255" lon="4.00968">
        <ele>103.3</ele>
        <time>2026-08-20T07:37:04Z</time>
      </trkpt>
      <trkpt lat="49.2126" lon="4.00974">
        <ele>103.2</ele>
        <time>2026-08-20T07:37:10Z</time>
      </trkpt>
      <trkpt lat="49.21261" lon="4.00975">
        <ele>103.2</ele>
        <time>2026-08-20T07:37:15Z</time>
      </trkpt>
      <trkpt lat="49.21266" lon="4.00976">
        <ele>103.2</ele>
        <time>2026-08-20T07:37:20Z</time>
      </trkpt>
      <trkpt lat="49.21274" lon="4.00977">
        <ele>103.4</ele>
        <time>2026-08-20T07:37:26Z</time>
      </trkpt>
      <trkpt lat="49.21277" lon="4.00981">
        <ele>103.3</ele>
        <time>2026-08-20T07:37:31Z</time>
      </trkpt>
      <trkpt lat="49.21278" lon="4.0099">
        <ele>103</ele>
        <time>2026-08-20T07:37:36Z</time>
      </trkpt>
      <trkpt lat="49.21277" lon="4.01001">
        <ele>102.6</ele>
        <time>2026-08-20T07:37:42Z</time>
      </trkpt>
      <trkpt lat="49.21278" lon="4.01011">
        <ele>102.5</ele>
        <time>2026-08-20T07:37:47Z</time>
      </trkpt>
      <trkpt lat="49.21278" lon="4.01019">
        <ele>102.4</ele>
        <time>2026-08-20T07:37:52Z</time>
      </trkpt>
      <trkpt lat="49.21279" lon="4.0103">
        <ele>102.2</ele>
        <time>2026-08-20T07:37:58Z</time>
      </trkpt>
      <trkpt lat="49.2128" lon="4.01039">
        <ele>102.1</ele>
        <time>2026-08-20T07:38:03Z</time>
      </trkpt>
      <trkpt lat="49.2128" lon="4.01047">
        <ele>102</ele>
        <time>2026-08-20T07:38:08Z</time>
      </trkpt>
      <trkpt lat="49.21281" lon="4.0106">
        <ele>101.8</ele>
        <time>2026-08-20T07:38:14Z</time>
      </trkpt>
      <trkpt lat="49.21282" lon="4.01069">
        <ele>101.6</ele>
        <time>2026-08-20T07:38:19Z</time>
      </trkpt>
      <trkpt lat="49.21281" lon="4.01078">
        <ele>101.5</ele>
        <time>2026-08-20T07:38:24Z</time>
      </trkpt>
      <trkpt lat="49.21282" lon="4.01088">
        <ele>101.3</ele>
        <time>2026-08-20T07:38:30Z</time>
      </trkpt>
      <trkpt lat="49.21283" lon="4.01098">
        <ele>101.2</ele>
        <time>2026-08-20T07:38:35Z</time>
      </trkpt>
      <trkpt lat="49.21284" lon="4.01107">
        <ele>101.1</ele>
        <time>2026-08-20T07:38:40Z</time>
      </trkpt>
      <trkpt lat="49.21283" lon="4.01109">
        <ele>101.1</ele>
        <time>2026-08-20T07:38:46Z</time>
      </trkpt>
      <trkpt lat="49.21282" lon="4.0111">
        <ele>101.1</ele>
        <time>2026-08-20T07:38:51Z</time>
      </trkpt>
      <trkpt lat="49.21282" lon="4.0111">
        <ele>101.1</ele>
        <time>2026-08-20T07:38:56Z</time>
      </trkpt>
      <trkpt lat="49.21282" lon="4.0111">
        <ele>101.1</ele>
        <time>2026-08-20T07:39:02Z</time>
      </trkpt>
      <trkpt lat="49.21282" lon="4.0111">
        <ele>101.1</ele>
        <time>2026-08-20T07:39:07Z</time>
      </trkpt>
      <trkpt lat="49.21283" lon="4.01115">
        <ele>101</ele>
        <time>2026-08-20T07:39:12Z</time>
      </trkpt>
      <trkpt lat="49.21284" lon="4.01122">
        <ele>100.9</ele>
        <time>2026-08-20T07:39:18Z</time>
      </trkpt>
      <trkpt lat="49.21285" lon="4.01131">
        <ele>100.8</ele>
        <time>2026-08-20T07:39:23Z</time>
      </trkpt>
      <trkpt lat="49.21285" lon="4.0114">
        <ele>100.7</ele>
        <time>2026-08-20T07:39:28Z</time>
      </trkpt>
      <trkpt lat="49.21286" lon="4.0115">
        <ele>100.6</ele>
        <time>2026-08-20T07:39:34Z</time>
      </trkpt>
      <trkpt lat="49.21288" lon="4.0116">
        <ele>100.5</ele>
        <time>2026-08-20T07:39:39Z</time>
      </trkpt>
      <trkpt lat="49.21289" lon="4.01171">
        <ele>100.4</ele>
        <time>2026-08-20T07:39:44Z</time>
      </trkpt>
      <trkpt lat="49.21289" lon="4.01181">
        <ele>100.2</ele>
        <time>2026-08-20T07:39:50Z</time>
      </trkpt>
      <trkpt lat="49.2129" lon="4.01191">
        <ele>100</ele>
        <time>2026-08-20T07:39:55Z</time>
      </trkpt>
      <trkpt lat="49.2129" lon="4.01201">
        <ele>99.9</ele>
        <time>2026-08-20T07:40:00Z</time>
      </trkpt>
      <trkpt lat="49.21291" lon="4.01211">
        <ele>99.7</ele>
        <time>2026-08-20T07:40:06Z</time>
      </trkpt>
      <trkpt lat="49.21292" lon="4.01221">
        <ele>99.5</ele>
        <time>2026-08-20T07:40:11Z</time>
      </trkpt>
      <trkpt lat="49.21293" lon="4.01231">
        <ele>99.4</ele>
        <time>2026-08-20T07:40:16Z</time>
      </trkpt>
      <trkpt lat="49.21293" lon="4.01245">
        <ele>99.1</ele>
        <time>2026-08-20T07:40:22Z</time>
      </trkpt>
      <trkpt lat="49.21294" lon="4.01254">
        <ele>99</ele>
        <time>2026-08-20T07:40:27Z</time>
      </trkpt>
      <trkpt lat="49.21295" lon="4.01263">
        <ele>98.9</ele>
        <time>2026-08-20T07:40:32Z</time>
      </trkpt>
      <trkpt lat="49.21295" lon="4.01275">
        <ele>98.8</ele>
        <time>2026-08-20T07:40:38Z</time>
      </trkpt>
      <trkpt lat="49.21296" lon="4.01284">
        <ele>98.7</ele>
        <time>2026-08-20T07:40:43Z</time>
      </trkpt>
      <trkpt lat="49.21297" lon="4.01292">
        <ele>98.6</ele>
        <time>2026-08-20T07:40:48Z</time>
      </trkpt>
      <trkpt lat="49.21298" lon="4.01304">
        <ele>98.5</ele>
        <time>2026-08-20T07:40:54Z</time>
      </trkpt>
      <trkpt lat="49.213" lon="4.01314">
        <ele>98.4</ele>
        <time>2026-08-20T07:40:59Z</time>
      </trkpt>
      <trkpt lat="49.21302" lon="4.01323">
        <ele>98.4</ele>
        <time>2026-08-20T07:41:04Z</time>
      </trkpt>
      <trkpt lat="49.21302" lon="4.01335">
        <ele>98.2</ele>
        <time>2026-08-20T07:41:10Z</time>
      </trkpt>
      <trkpt lat="49.21303" lon="4.01345">
        <ele>98</ele>
        <time>2026-08-20T07:41:15Z</time>
      </trkpt>
      <trkpt lat="49.21303" lon="4.01356">
        <ele>97.8</ele>
        <time>2026-08-20T07:41:20Z</time>
      </trkpt>
      <trkpt lat="49.21304" lon="4.01371">
        <ele>97.4</ele>
        <time>2026-08-20T07:41:26Z</time>
      </trkpt>
      <trkpt lat="49.21304" lon="4.01381">
        <ele>97.2</ele>
        <time>2026-08-20T07:41:31Z</time>
      </trkpt>
      <trkpt lat="49.21305" lon="4.01391">
        <ele>96.9</ele>
        <time>2026-08-20T07:41:36Z</time>
      </trkpt>
      <trkpt lat="49.21305" lon="4.01403">
        <ele>96.7</ele>
        <time>2026-08-20T07:41:42Z</time>
      </trkpt>
      <trkpt lat="49.21306" lon="4.01412">
        <ele>96.4</ele>
        <time>2026-08-20T07:41:47Z</time>
      </trkpt>
      <trkpt lat="49.21307" lon="4.01423">
        <ele>96.1</ele>
        <time>2026-08-20T07:41:52Z</time>
      </trkpt>
      <trkpt lat="49.21311" lon="4.01434">
        <ele>95.7</ele>
        <time>2026-08-20T07:41:58Z</time>
      </trkpt>
      <trkpt lat="49.21314" lon="4.01442">
        <ele>95.4</ele>
        <time>2026-08-20T07:42:03Z</time>
      </trkpt>
      <trkpt lat="49.21317" lon="4.01448">
        <ele>95.2</ele>
        <time>2026-08-20T07:42:08Z</time>
      </trkpt>
      <trkpt lat="49.21321" lon="4.0145">
        <ele>95.2</ele>
        <time>2026-08-20T07:42:14Z</time>
      </trkpt>
      <trkpt lat="49.21322" lon="4.0145">
        <ele>95.2</ele>
        <time>2026-08-20T07:42:19Z</time>
      </trkpt>
      <trkpt lat="49.21323" lon="4.01449">
        <ele>95.2</ele>
        <time>2026-08-20T07:42:24Z</time>
      </trkpt>
      <trkpt lat="49.21323" lon="4.01449">
        <ele>95.2</ele>
        <time>2026-08-20T07:42:30Z</time>
      </trkpt>
      <trkpt lat="49.21323" lon="4.01449">
        <ele>95.2</ele>
        <time>2026-08-20T07:42:35Z</time>
      </trkpt>
      <trkpt lat="49.21323" lon="4.01449">
        <ele>95.2</ele>
        <time>2026-08-20T07:42:40Z</time>
      </trkpt>
      <trkpt lat="49.21325" lon="4.0145">
        <ele>95.2</ele>
        <time>2026-08-20T07:42:46Z</time>
      </trkpt>
      <trkpt lat="49.2133" lon="4.01453">
        <ele>95.1</ele>
        <time>2026-08-20T07:42:51Z</time>
      </trkpt>
      <trkpt lat="49.21334" lon="4.01456">
        <ele>95.1</ele>
        <time>2026-08-20T07:42:56Z</time>
      </trkpt>
      <trkpt lat="49.2134" lon="4.01464">
        <ele>94.9</ele>
        <time>2026-08-20T07:43:02Z</time>
      </trkpt>
      <trkpt lat="49.21346" lon="4.01469">
        <ele>94.9</ele>
        <time>2026-08-20T07:43:07Z</time>
      </trkpt>
      <trkpt lat="49.21351" lon="4.01473">
        <ele>94.8</ele>
        <time>2026-08-20T07:43:12Z</time>
      </trkpt>
      <trkpt lat="49.21356" lon="4.0148">
        <ele>94.6</ele>
        <time>2026-08-20T07:43:18Z</time>
      </trkpt>
      <trkpt lat="49.21358" lon="4.01488">
        <ele>94.4</ele>
        <time>2026-08-20T07:43:23Z</time>
      </trkpt>
      <trkpt lat="49.21361" lon="4.01495">
        <ele>94.2</ele>
        <time>2026-08-20T07:43:28Z</time>
      </trkpt>
      <trkpt lat="49.21363" lon="4.01508">
        <ele>93.7</ele>
        <time>2026-08-20T07:43:34Z</time>
      </trkpt>
      <trkpt lat="49.21365" lon="4.01516">
        <ele>93.4</ele>
        <time>2026-08-20T07:43:39Z</time>
      </trkpt>
      <trkpt lat="49.21367" lon="4.01526">
        <ele>92.9</ele>
        <time>2026-08-20T07:43:44Z</time>
      </trkpt>
      <trkpt lat="49.21369" lon="4.01539">
        <ele>92.4</ele>
        <time>2026-08-20T07:43:50Z</time>
      </trkpt>
      <trkpt lat="49.21371" lon="4.0155">
        <ele>91.9</ele>
        <time>2026-08-20T07:43:55Z</time>
      </trkpt>
      <trkpt lat="49.21372" lon="4.0156">
        <ele>91.5</ele>
        <time>2026-08-20T07:44:00Z</time>
      </trkpt>
      <trkpt lat="49.2137" lon="4.01566">
        <ele>91.3</ele>
        <time>2026-08-20T07:44:06Z</time>
      </trkpt>
      <trkpt lat="49.21365" lon="4.01576">
        <ele>90.9</ele>
        <time>2026-08-20T07:44:11Z</time>
      </trkpt>
      <trkpt lat="49.21363" lon="4.01586">
        <ele>90.6</ele>
        <time>2026-08-20T07:44:16Z</time>
      </trkpt>
      <trkpt lat="49.21359" lon="4.01597">
        <ele>90.4</ele>
        <time>2026-08-20T07:44:22Z</time>
      </trkpt>
      <trkpt lat="49.21356" lon="4.01607">
        <ele>90.2</ele>
        <time>2026-08-20T07:44:27Z</time>
      </trkpt>
      <trkpt lat="49.2135" lon="4.01613">
        <ele>90.2</ele>
        <time>2026-08-20T07:44:32Z</time>
      </trkpt>
      <trkpt lat="49.21342" lon="4.01617">
        <ele>90.1</ele>
        <time>2026-08-20T07:44:38Z</time>
      </trkpt>
      <trkpt lat="49.21335" lon="4.0162">
        <ele>90.1</ele>
        <time>2026-08-20T07:44:43Z</time>
      </trkpt>
      <trkpt lat="49.21328" lon="4.01623">
        <ele>90.1</ele>
        <time>2026-08-20T07:44:48Z</time>
      </trkpt>
      <trkpt lat="49.2132" lon="4.01627">
        <ele>90.1</ele>
        <time>2026-08-20T07:44:54Z</time>
      </trkpt>
      <trkpt lat="49.21313" lon="4.01629">
        <ele>90.2</ele>
        <time>2026-08-20T07:44:59Z</time>
      </trkpt>
      <trkpt lat="49.21307" lon="4.0163">
        <ele>90.2</ele>
        <time>2026-08-20T07:45:04Z</time>
      </trkpt>
      <trkpt lat="49.21298" lon="4.01633">
        <ele>90.3</ele>
        <time>2026-08-20T07:45:10Z</time>
      </trkpt>
      <trkpt lat="49.21291" lon="4.01635">
        <ele>90.4</ele>
        <time>2026-08-20T07:45:15Z</time>
      </trkpt>
      <trkpt lat="49.21284" lon="4.01634">
        <ele>90.5</ele>
        <time>2026-08-20T07:45:20Z</time>
      </trkpt>
      <trkpt lat="49.21281" lon="4.01633">
        <ele>90.6</ele>
        <time>2026-08-20T07:45:26Z</time>
      </trkpt>
      <trkpt lat="49.21281" lon="4.01632">
        <ele>90.6</ele>
        <time>2026-08-20T07:45:31Z</time>
      </trkpt>
      <trkpt lat="49.21281" lon="4.01631">
        <ele>90.6</ele>
        <time>2026-08-20T07:45:36Z</time>
      </trkpt>
      <trkpt lat="49.21281" lon="4.01631">
        <ele>90.6</ele>
        <time>2026-08-20T07:45:42Z</time>
      </trkpt>
      <trkpt lat="49.21279" lon="4.0163">
        <ele>90.6</ele>
        <time>2026-08-20T07:45:47Z</time>
      </trkpt>
      <trkpt lat="49.21273" lon="4.01626">
        <ele>90.7</ele>
        <time>2026-08-20T07:45:52Z</time>
      </trkpt>
      <trkpt lat="49.21266" lon="4.01622">
        <ele>90.8</ele>
        <time>2026-08-20T07:45:58Z</time>
      </trkpt>
      <trkpt lat="49.21262" lon="4.01616">
        <ele>90.9</ele>
        <time>2026-08-20T07:46:03Z</time>
      </trkpt>
      <trkpt lat="49.21259" lon="4.01605">
        <ele>90.9</ele>
        <time>2026-08-20T07:46:08Z</time>
      </trkpt>
      <trkpt lat="49.21254" lon="4.01596">
        <ele>91</ele>
        <time>2026-08-20T07:46:14Z</time>
      </trkpt>
      <trkpt lat="49.21251" lon="4.01586">
        <ele>91</ele>
        <time>2026-08-20T07:46:19Z</time>
      </trkpt>
      <trkpt lat="49.21249" lon="4.01577">
        <ele>91.1</ele>
        <time>2026-08-20T07:46:24Z</time>
      </trkpt>
      <trkpt lat="49.21246" lon="4.01565">
        <ele>91.2</ele>
        <time>2026-08-20T07:46:30Z</time>
      </trkpt>
      <trkpt lat="49.21244" lon="4.01555">
        <ele>91.3</ele>
        <time>2026-08-20T07:46:35Z</time>
      </trkpt>
      <trkpt lat="49.21243" lon="4.01546">
        <ele>91.4</ele>
        <time>2026-08-20T07:46:40Z</time>
      </trkpt>
      <trkpt lat="49.21241" lon="4.01534">
        <ele>91.5</ele>
        <time>2026-08-20T07:46:46Z</time>
      </trkpt>
      <trkpt lat="49.21238" lon="4.01523">
        <ele>91.6</ele>
        <time>2026-08-20T07:46:51Z</time>
      </trkpt>
      <trkpt lat="49.21233" lon="4.01517">
        <ele>91.6</ele>
        <time>2026-08-20T07:46:56Z</time>
      </trkpt>
      <trkpt lat="49.21227" lon="4.01511">
        <ele>91.6</ele>
        <time>2026-08-20T07:47:02Z</time>
      </trkpt>
      <trkpt lat="49.21222" lon="4.01506">
        <ele>91.6</ele>
        <time>2026-08-20T07:47:07Z</time>
      </trkpt>
      <trkpt lat="49.21216" lon="4.01502">
        <ele>91.6</ele>
        <time>2026-08-20T07:47:12Z</time>
      </trkpt>
      <trkpt lat="49.21207" lon="4.01497">
        <ele>91.6</ele>
        <time>2026-08-20T07:47:18Z</time>
      </trkpt>
      <trkpt lat="49.21202" lon="4.01494">
        <ele>91.7</ele>
        <time>2026-08-20T07:47:23Z</time>
      </trkpt>
      <trkpt lat="49.21195" lon="4.0149">
        <ele>91.8</ele>
        <time>2026-08-20T07:47:28Z</time>
      </trkpt>
      <trkpt lat="49.21188" lon="4.01486">
        <ele>91.8</ele>
        <time>2026-08-20T07:47:34Z</time>
      </trkpt>
      <trkpt lat="49.21182" lon="4.01483">
        <ele>91.9</ele>
        <time>2026-08-20T07:47:39Z</time>
      </trkpt>
      <trkpt lat="49.21175" lon="4.01479">
        <ele>91.9</ele>
        <time>2026-08-20T07:47:44Z</time>
      </trkpt>
      <trkpt lat="49.21169" lon="4.01475">
        <ele>91.9</ele>
        <time>2026-08-20T07:47:50Z</time>
      </trkpt>
      <trkpt lat="49.21162" lon="4.01471">
        <ele>92</ele>
        <time>2026-08-20T07:47:55Z</time>
      </trkpt>
      <trkpt lat="49.21156" lon="4.01466">
        <ele>92</ele>
        <time>2026-08-20T07:48:00Z</time>
      </trkpt>
      <trkpt lat="49.21151" lon="4.01463">
        <ele>92.1</ele>
        <time>2026-08-20T07:48:06Z</time>
      </trkpt>
      <trkpt lat="49.21145" lon="4.01458">
        <ele>92.1</ele>
        <time>2026-08-20T07:48:11Z</time>
      </trkpt>
      <trkpt lat="49.2114" lon="4.01455">
        <ele>92.1</ele>
        <time>2026-08-20T07:48:16Z</time>
      </trkpt>
      <trkpt lat="49.21132" lon="4.01449">
        <ele>92.2</ele>
        <time>2026-08-20T07:48:22Z</time>
      </trkpt>
      <trkpt lat="49.21126" lon="4.01446">
        <ele>92.1</ele>
        <time>2026-08-20T07:48:27Z</time>
      </trkpt>
      <trkpt lat="49.2112" lon="4.01441">
        <ele>92.2</ele>
        <time>2026-08-20T07:48:32Z</time>
      </trkpt>
      <trkpt lat="49.21113" lon="4.01436">
        <ele>92.2</ele>
        <time>2026-08-20T07:48:38Z</time>
      </trkpt>
      <trkpt lat="49.21107" lon="4.01432">
        <ele>92.1</ele>
        <time>2026-08-20T07:48:43Z</time>
      </trkpt>
      <trkpt lat="49.21101" lon="4.01426">
        <ele>92.2</ele>
        <time>2026-08-20T07:48:48Z</time>
      </trkpt>
      <trkpt lat="49.21094" lon="4.01421">
        <ele>92.1</ele>
        <time>2026-08-20T07:48:54Z</time>
      </trkpt>
      <trkpt lat="49.21088" lon="4.01418">
        <ele>92.1</ele>
        <time>2026-08-20T07:48:59Z</time>
      </trkpt>
      <trkpt lat="49.21082" lon="4.01413">
        <ele>92</ele>
        <time>2026-08-20T07:49:04Z</time>
      </trkpt>
      <trkpt lat="49.21074" lon="4.01408">
        <ele>91.9</ele>
        <time>2026-08-20T07:49:10Z</time>
      </trkpt>
      <trkpt lat="49.21069" lon="4.01404">
        <ele>91.8</ele>
        <time>2026-08-20T07:49:15Z</time>
      </trkpt>
      <trkpt lat="49.21062" lon="4.014">
        <ele>91.6</ele>
        <time>2026-08-20T07:49:20Z</time>
      </trkpt>
      <trkpt lat="49.21055" lon="4.01395">
        <ele>91.5</ele>
        <time>2026-08-20T07:49:26Z</time>
      </trkpt>
      <trkpt lat="49.21049" lon="4.01392">
        <ele>91.4</ele>
        <time>2026-08-20T07:49:31Z</time>
      </trkpt>
      <trkpt lat="49.21043" lon="4.01387">
        <ele>91.3</ele>
        <time>2026-08-20T07:49:36Z</time>
      </trkpt>
      <trkpt lat="49.2104" lon="4.01384">
        <ele>91.2</ele>
        <time>2026-08-20T07:49:42Z</time>
      </trkpt>
      <trkpt lat="49.21034" lon="4.01381">
        <ele>91.1</ele>
        <time>2026-08-20T07:49:47Z</time>
      </trkpt>
      <trkpt lat="49.21028" lon="4.01376">
        <ele>91</ele>
        <time>2026-08-20T07:49:52Z</time>
      </trkpt>
      <trkpt lat="49.21021" lon="4.01372">
        <ele>90.8</ele>
        <time>2026-08-20T07:49:58Z</time>
      </trkpt>
      <trkpt lat="49.21015" lon="4.01368">
        <ele>90.7</ele>
        <time>2026-08-20T07:50:03Z</time>
      </trkpt>
      <trkpt lat="49.21009" lon="4.01363">
        <ele>90.6</ele>
        <time>2026-08-20T07:50:08Z</time>
      </trkpt>
      <trkpt lat="49.21001" lon="4.01358">
        <ele>90.4</ele>
        <time>2026-08-20T07:50:14Z</time>
      </trkpt>
      <trkpt lat="49.20995" lon="4.01354">
        <ele>90.4</ele>
        <time>2026-08-20T07:50:19Z</time>
      </trkpt>
      <trkpt lat="49.20988" lon="4.0135">
        <ele>90.3</ele>
        <time>2026-08-20T07:50:24Z</time>
      </trkpt>
      <trkpt lat="49.20981" lon="4.01346">
        <ele>90.2</ele>
        <time>2026-08-20T07:50:30Z</time>
      </trkpt>
      <trkpt lat="49.20975" lon="4.01345">
        <ele>90.1</ele>
        <time>2026-08-20T07:50:35Z</time>
      </trkpt>
      <trkpt lat="49.20969" lon="4.01343">
        <ele>90</ele>
        <time>2026-08-20T07:50:40Z</time>
      </trkpt>
      <trkpt lat="49.20961" lon="4.0134">
        <ele>89.9</ele>
        <time>2026-08-20T07:50:46Z</time>
      </trkpt>
      <trkpt lat="49.20953" lon="4.0134">
        <ele>89.7</ele>
        <time>2026-08-20T07:50:51Z</time>
      </trkpt>
      <trkpt lat="49.20947" lon="4.01339">
        <ele>89.6</ele>
        <time>2026-08-20T07:50:56Z</time>
      </trkpt>
      <trkpt lat="49.2094" lon="4.0134">
        <ele>89.4</ele>
        <time>2026-08-20T07:51:02Z</time>
      </trkpt>
      <trkpt lat="49.20933" lon="4.0134">
        <ele>89.2</ele>
        <time>2026-08-20T07:51:07Z</time>
      </trkpt>
      <trkpt lat="49.20927" lon="4.01335">
        <ele>89.2</ele>
        <time>2026-08-20T07:51:12Z</time>
      </trkpt>
      <trkpt lat="49.20921" lon="4.01328">
        <ele>89</ele>
        <time>2026-08-20T07:51:18Z</time>
      </trkpt>
      <trkpt lat="49.20916" lon="4.01324">
        <ele>88.9</ele>
        <time>2026-08-20T07:51:23Z</time>
      </trkpt>
      <trkpt lat="49.20911" lon="4.01318">
        <ele>88.8</ele>
        <time>2026-08-20T07:51:28Z</time>
      </trkpt>
      <trkpt lat="49.20905" lon="4.01312">
        <ele>88.6</ele>
        <time>2026-08-20T07:51:34Z</time>
      </trkpt>
      <trkpt lat="49.209" lon="4.01308">
        <ele>88.6</ele>
        <time>2026-08-20T07:51:39Z</time>
      </trkpt>
      <trkpt lat="49.20895" lon="4.01304">
        <ele>88.5</ele>
        <time>2026-08-20T07:51:44Z</time>
      </trkpt>
      <trkpt lat="49.20888" lon="4.01299">
        <ele>88.4</ele>
        <time>2026-08-20T07:51:50Z</time>
      </trkpt>
      <trkpt lat="49.20883" lon="4.01295">
        <ele>88.3</ele>
        <time>2026-08-20T07:51:55Z</time>
      </trkpt>
      <trkpt lat="49.20878" lon="4.01289">
        <ele>88.3</ele>
        <time>2026-08-20T07:52:00Z</time>
      </trkpt>
      <trkpt lat="49.20873" lon="4.01284">
        <ele>88.2</ele>
        <time>2026-08-20T07:52:06Z</time>
      </trkpt>
      <trkpt lat="49.20868" lon="4.01279">
        <ele>88.1</ele>
        <time>2026-08-20T07:52:11Z</time>
      </trkpt>
      <trkpt lat="49.20863" lon="4.01273">
        <ele>88.1</ele>
        <time>2026-08-20T07:52:16Z</time>
      </trkpt>
      <trkpt lat="49.20862" lon="4.01271">
        <ele>88.1</ele>
        <time>2026-08-20T07:52:22Z</time>
      </trkpt>
      <trkpt lat="49.2086" lon="4.01269">
        <ele>88.1</ele>
        <time>2026-08-20T07:52:27Z</time>
      </trkpt>
      <trkpt lat="49.20856" lon="4.01265">
        <ele>88</ele>
        <time>2026-08-20T07:52:32Z</time>
      </trkpt>
      <trkpt lat="49.20854" lon="4.01264">
        <ele>88</ele>
        <time>2026-08-20T07:52:38Z</time>
      </trkpt>
      <trkpt lat="49.20854" lon="4.01263">
        <ele>88</ele>
        <time>2026-08-20T07:52:43Z</time>
      </trkpt>
      <trkpt lat="49.20849" lon="4.01257">
        <ele>88</ele>
        <time>2026-08-20T07:52:48Z</time>
      </trkpt>
      <trkpt lat="49.20843" lon="4.0125">
        <ele>88</ele>
        <time>2026-08-20T07:52:54Z</time>
      </trkpt>
      <trkpt lat="49.20838" lon="4.01247">
        <ele>88</ele>
        <time>2026-08-20T07:52:59Z</time>
      </trkpt>
      <trkpt lat="49.20832" lon="4.01243">
        <ele>88</ele>
        <time>2026-08-20T07:53:04Z</time>
      </trkpt>
      <trkpt lat="49.20825" lon="4.01238">
        <ele>88.2</ele>
        <time>2026-08-20T07:53:10Z</time>
      </trkpt>
      <trkpt lat="49.20822" lon="4.01235">
        <ele>88.2</ele>
        <time>2026-08-20T07:53:15Z</time>
      </trkpt>
      <trkpt lat="49.20821" lon="4.01235">
        <ele>88.3</ele>
        <time>2026-08-20T07:53:20Z</time>
      </trkpt>
      <trkpt lat="49.2082" lon="4.01234">
        <ele>88.3</ele>
        <time>2026-08-20T07:53:26Z</time>
      </trkpt>
      <trkpt lat="49.2082" lon="4.01234">
        <ele>88.3</ele>
        <time>2026-08-20T07:53:31Z</time>
      </trkpt>
      <trkpt lat="49.20816" lon="4.01234">
        <ele>88.4</ele>
        <time>2026-08-20T07:53:36Z</time>
      </trkpt>
      <trkpt lat="49.20813" lon="4.01234">
        <ele>88.4</ele>
        <time>2026-08-20T07:53:42Z</time>
      </trkpt>
      <trkpt lat="49.20813" lon="4.01234">
        <ele>88.4</ele>
        <time>2026-08-20T07:53:47Z</time>
      </trkpt>
      <trkpt lat="49.20813" lon="4.01234">
        <ele>88.4</ele>
        <time>2026-08-20T07:53:52Z</time>
      </trkpt>
      <trkpt lat="49.20813" lon="4.01234">
        <ele>88.4</ele>
        <time>2026-08-20T07:53:58Z</time>
      </trkpt>
      <trkpt lat="49.2081" lon="4.01233">
        <ele>88.5</ele>
        <time>2026-08-20T07:54:03Z</time>
      </trkpt>
      <trkpt lat="49.20808" lon="4.01231">
        <ele>88.5</ele>
        <time>2026-08-20T07:54:08Z</time>
      </trkpt>
      <trkpt lat="49.20804" lon="4.0123">
        <ele>88.6</ele>
        <time>2026-08-20T07:54:14Z</time>
      </trkpt>
      <trkpt lat="49.20803" lon="4.01228">
        <ele>88.6</ele>
        <time>2026-08-20T07:54:19Z</time>
      </trkpt>
      <trkpt lat="49.20802" lon="4.01228">
        <ele>88.7</ele>
        <time>2026-08-20T07:54:24Z</time>
      </trkpt>
      <trkpt lat="49.20799" lon="4.01226">
        <ele>88.7</ele>
        <time>2026-08-20T07:54:30Z</time>
      </trkpt>
      <trkpt lat="49.20798" lon="4.01226">
        <ele>88.7</ele>
        <time>2026-08-20T07:54:35Z</time>
      </trkpt>
      <trkpt lat="49.20796" lon="4.01225">
        <ele>88.8</ele>
        <time>2026-08-20T07:54:40Z</time>
      </trkpt>
      <trkpt lat="49.20795" lon="4.01225">
        <ele>88.8</ele>
        <time>2026-08-20T07:54:46Z</time>
      </trkpt>
      <trkpt lat="49.20795" lon="4.01225">
        <ele>88.8</ele>
        <time>2026-08-20T07:54:51Z</time>
      </trkpt>
      <trkpt lat="49.20795" lon="4.01225">
        <ele>88.8</ele>
        <time>2026-08-20T07:54:56Z</time>
      </trkpt>
      <trkpt lat="49.20795" lon="4.01225">
        <ele>88.8</ele>
        <time>2026-08-20T07:55:02Z</time>
      </trkpt>
      <trkpt lat="49.20795" lon="4.01225">
        <ele>88.8</ele>
        <time>2026-08-20T07:55:07Z</time>
      </trkpt>
      <trkpt lat="49.20795" lon="4.01225">
        <ele>88.8</ele>
        <time>2026-08-20T07:55:12Z</time>
      </trkpt>
      <trkpt lat="49.20785" lon="4.01222">
        <ele>89</ele>
        <time>2026-08-20T07:55:18Z</time>
      </trkpt>
      <trkpt lat="49.20785" lon="4.01222">
        <ele>89</ele>
        <time>2026-08-20T07:55:23Z</time>
      </trkpt>
      <trkpt lat="49.20781" lon="4.01221">
        <ele>89</ele>
        <time>2026-08-20T07:55:28Z</time>
      </trkpt>
      <trkpt lat="49.20781" lon="4.01221">
        <ele>89</ele>
        <time>2026-08-20T07:55:34Z</time>
      </trkpt>
      <trkpt lat="49.20781" lon="4.01221">
        <ele>89</ele>
        <time>2026-08-20T07:55:39Z</time>
      </trkpt>
      <trkpt lat="49.20781" lon="4.01221">
        <ele>89</ele>
        <time>2026-08-20T07:55:44Z</time>
      </trkpt>
      <trkpt lat="49.20781" lon="4.01221">
        <ele>89</ele>
        <time>2026-08-20T07:55:50Z</time>
      </trkpt>
      <trkpt lat="49.20781" lon="4.01221">
        <ele>89</ele>
        <time>2026-08-20T07:55:55Z</time>
      </trkpt>
      <trkpt lat="49.20781" lon="4.01221">
        <ele>89</ele>
        <time>2026-08-20T07:56:00Z</time>
      </trkpt>
      <trkpt lat="49.20781" lon="4.01221">
        <ele>89</ele>
        <time>2026-08-20T07:56:06Z</time>
      </trkpt>
      <trkpt lat="49.20781" lon="4.01221">
        <ele>89</ele>
        <time>2026-08-20T07:56:11Z</time>
      </trkpt>
      <trkpt lat="49.20781" lon="4.01221">
        <ele>89</ele>
        <time>2026-08-20T07:56:16Z</time>
      </trkpt>
      <trkpt lat="49.20781" lon="4.01221">
        <ele>89</ele>
        <time>2026-08-20T07:56:22Z</time>
      </trkpt>
      <trkpt lat="49.20771" lon="4.01221">
        <ele>89.2</ele>
        <time>2026-08-20T07:56:27Z</time>
      </trkpt>
      <trkpt lat="49.2077" lon="4.01221">
        <ele>89.3</ele>
        <time>2026-08-20T07:56:32Z</time>
      </trkpt>
      <trkpt lat="49.2077" lon="4.01221">
        <ele>89.3</ele>
        <time>2026-08-20T07:56:38Z</time>
      </trkpt>
      <trkpt lat="49.2077" lon="4.01221">
        <ele>89.3</ele>
        <time>2026-08-20T07:56:43Z</time>
      </trkpt>
      <trkpt lat="49.2077" lon="4.01221">
        <ele>89.3</ele>
        <time>2026-08-20T07:56:48Z</time>
      </trkpt>
      <trkpt lat="49.2077" lon="4.01221">
        <ele>89.3</ele>
        <time>2026-08-20T07:56:54Z</time>
      </trkpt>
      <trkpt lat="49.20763" lon="4.01217">
        <ele>89.4</ele>
        <time>2026-08-20T07:56:59Z</time>
      </trkpt>
      <trkpt lat="49.20757" lon="4.01217">
        <ele>89.5</ele>
        <time>2026-08-20T07:57:04Z</time>
      </trkpt>
      <trkpt lat="49.2075" lon="4.01213">
        <ele>89.6</ele>
        <time>2026-08-20T07:57:10Z</time>
      </trkpt>
      <trkpt lat="49.20744" lon="4.01212">
        <ele>89.7</ele>
        <time>2026-08-20T07:57:15Z</time>
      </trkpt>
      <trkpt lat="49.20739" lon="4.01209">
        <ele>89.8</ele>
        <time>2026-08-20T07:57:20Z</time>
      </trkpt>
      <trkpt lat="49.20731" lon="4.01207">
        <ele>90.1</ele>
        <time>2026-08-20T07:57:26Z</time>
      </trkpt>
      <trkpt lat="49.20725" lon="4.01206">
        <ele>90.2</ele>
        <time>2026-08-20T07:57:31Z</time>
      </trkpt>
      <trkpt lat="49.20719" lon="4.01205">
        <ele>90.4</ele>
        <time>2026-08-20T07:57:36Z</time>
      </trkpt>
      <trkpt lat="49.20712" lon="4.01204">
        <ele>90.6</ele>
        <time>2026-08-20T07:57:42Z</time>
      </trkpt>
      <trkpt lat="49.20706" lon="4.01202">
        <ele>90.7</ele>
        <time>2026-08-20T07:57:47Z</time>
      </trkpt>
      <trkpt lat="49.207" lon="4.01201">
        <ele>90.9</ele>
        <time>2026-08-20T07:57:52Z</time>
      </trkpt>
      <trkpt lat="49.20694" lon="4.01198">
        <ele>91</ele>
        <time>2026-08-20T07:57:58Z</time>
      </trkpt>
      <trkpt lat="49.20693" lon="4.01198">
        <ele>91</ele>
        <time>2026-08-20T07:58:03Z</time>
      </trkpt>
      <trkpt lat="49.20689" lon="4.01198">
        <ele>91.1</ele>
        <time>2026-08-20T07:58:08Z</time>
      </trkpt>
      <trkpt lat="49.20683" lon="4.01196">
        <ele>91.2</ele>
        <time>2026-08-20T07:58:14Z</time>
      </trkpt>
      <trkpt lat="49.20679" lon="4.01197">
        <ele>91.4</ele>
        <time>2026-08-20T07:58:19Z</time>
      </trkpt>
      <trkpt lat="49.20679" lon="4.01197">
        <ele>91.4</ele>
        <time>2026-08-20T07:58:24Z</time>
      </trkpt>
      <trkpt lat="49.20674" lon="4.01196">
        <ele>91.5</ele>
        <time>2026-08-20T07:58:30Z</time>
      </trkpt>
      <trkpt lat="49.20668" lon="4.01194">
        <ele>91.6</ele>
        <time>2026-08-20T07:58:35Z</time>
      </trkpt>
      <trkpt lat="49.20662" lon="4.01192">
        <ele>91.8</ele>
        <time>2026-08-20T07:58:40Z</time>
      </trkpt>
      <trkpt lat="49.20655" lon="4.01192">
        <ele>92.2</ele>
        <time>2026-08-20T07:58:46Z</time>
      </trkpt>
      <trkpt lat="49.20649" lon="4.01192">
        <ele>92.5</ele>
        <time>2026-08-20T07:58:51Z</time>
      </trkpt>
      <trkpt lat="49.20642" lon="4.01191">
        <ele>92.9</ele>
        <time>2026-08-20T07:58:56Z</time>
      </trkpt>
      <trkpt lat="49.20635" lon="4.01189">
        <ele>93.2</ele>
        <time>2026-08-20T07:59:02Z</time>
      </trkpt>
      <trkpt lat="49.20627" lon="4.01187">
        <ele>93.5</ele>
        <time>2026-08-20T07:59:07Z</time>
      </trkpt>
      <trkpt lat="49.20621" lon="4.01185">
        <ele>93.8</ele>
        <time>2026-08-20T07:59:12Z</time>
      </trkpt>
      <trkpt lat="49.20613" lon="4.01182">
        <ele>94.1</ele>
        <time>2026-08-20T07:59:18Z</time>
      </trkpt>
      <trkpt lat="49.20606" lon="4.01181">
        <ele>94.4</ele>
        <time>2026-08-20T07:59:23Z</time>
      </trkpt>
      <trkpt lat="49.20599" lon="4.01179">
        <ele>94.7</ele>
        <time>2026-08-20T07:59:28Z</time>
      </trkpt>
      <trkpt lat="49.20592" lon="4.01178">
        <ele>95</ele>
        <time>2026-08-20T07:59:34Z</time>
      </trkpt>
      <trkpt lat="49.20585" lon="4.01177">
        <ele>95.3</ele>
        <time>2026-08-20T07:59:39Z</time>
      </trkpt>
      <trkpt lat="49.20579" lon="4.01175">
        <ele>95.5</ele>
        <time>2026-08-20T07:59:44Z</time>
      </trkpt>
      <trkpt lat="49.20571" lon="4.01173">
        <ele>95.8</ele>
        <time>2026-08-20T07:59:50Z</time>
      </trkpt>
      <trkpt lat="49.20564" lon="4.01171">
        <ele>96.1</ele>
        <time>2026-08-20T07:59:55Z</time>
      </trkpt>
      <trkpt lat="49.20558" lon="4.01169">
        <ele>96.3</ele>
        <time>2026-08-20T08:00:00Z</time>
      </trkpt>
      <trkpt lat="49.20551" lon="4.01167">
        <ele>96.6</ele>
        <time>2026-08-20T08:00:06Z</time>
      </trkpt>
      <trkpt lat="49.20545" lon="4.01165">
        <ele>96.8</ele>
        <time>2026-08-20T08:00:11Z</time>
      </trkpt>
      <trkpt lat="49.20538" lon="4.01164">
        <ele>97.1</ele>
        <time>2026-08-20T08:00:16Z</time>
      </trkpt>
      <trkpt lat="49.2053" lon="4.01165">
        <ele>97.5</ele>
        <time>2026-08-20T08:00:22Z</time>
      </trkpt>
      <trkpt lat="49.20524" lon="4.01165">
        <ele>97.8</ele>
        <time>2026-08-20T08:00:27Z</time>
      </trkpt>
      <trkpt lat="49.20517" lon="4.01166">
        <ele>98.2</ele>
        <time>2026-08-20T08:00:32Z</time>
      </trkpt>
      <trkpt lat="49.2051" lon="4.01171">
        <ele>98.6</ele>
        <time>2026-08-20T08:00:38Z</time>
      </trkpt>
      <trkpt lat="49.20505" lon="4.01176">
        <ele>98.9</ele>
        <time>2026-08-20T08:00:43Z</time>
      </trkpt>
      <trkpt lat="49.205" lon="4.01182">
        <ele>99.2</ele>
        <time>2026-08-20T08:00:48Z</time>
      </trkpt>
      <trkpt lat="49.20494" lon="4.0119">
        <ele>99.4</ele>
        <time>2026-08-20T08:00:54Z</time>
      </trkpt>
      <trkpt lat="49.2049" lon="4.01195">
        <ele>99.6</ele>
        <time>2026-08-20T08:00:59Z</time>
      </trkpt>
      <trkpt lat="49.20485" lon="4.01201">
        <ele>99.8</ele>
        <time>2026-08-20T08:01:04Z</time>
      </trkpt>
      <trkpt lat="49.2048" lon="4.01209">
        <ele>100</ele>
        <time>2026-08-20T08:01:10Z</time>
      </trkpt>
      <trkpt lat="49.20475" lon="4.01214">
        <ele>100.2</ele>
        <time>2026-08-20T08:01:15Z</time>
      </trkpt>
      <trkpt lat="49.20474" lon="4.01214">
        <ele>100.2</ele>
        <time>2026-08-20T08:01:20Z</time>
      </trkpt>
      <trkpt lat="49.20471" lon="4.01215">
        <ele>100.3</ele>
        <time>2026-08-20T08:01:26Z</time>
      </trkpt>
      <trkpt lat="49.20466" lon="4.01216">
        <ele>100.4</ele>
        <time>2026-08-20T08:01:31Z</time>
      </trkpt>
      <trkpt lat="49.2046" lon="4.01215">
        <ele>100.5</ele>
        <time>2026-08-20T08:01:36Z</time>
      </trkpt>
      <trkpt lat="49.20453" lon="4.01213">
        <ele>100.7</ele>
        <time>2026-08-20T08:01:42Z</time>
      </trkpt>
      <trkpt lat="49.20447" lon="4.01212">
        <ele>100.8</ele>
        <time>2026-08-20T08:01:47Z</time>
      </trkpt>
      <trkpt lat="49.2044" lon="4.0121">
        <ele>101</ele>
        <time>2026-08-20T08:01:52Z</time>
      </trkpt>
      <trkpt lat="49.20432" lon="4.01208">
        <ele>101.1</ele>
        <time>2026-08-20T08:01:58Z</time>
      </trkpt>
      <trkpt lat="49.2043" lon="4.01206">
        <ele>101.2</ele>
        <time>2026-08-20T08:02:03Z</time>
      </trkpt>
      <trkpt lat="49.20427" lon="4.01205">
        <ele>101.2</ele>
        <time>2026-08-20T08:02:08Z</time>
      </trkpt>
      <trkpt lat="49.2042" lon="4.01202">
        <ele>101.3</ele>
        <time>2026-08-20T08:02:14Z</time>
      </trkpt>
      <trkpt lat="49.20414" lon="4.012">
        <ele>101.5</ele>
        <time>2026-08-20T08:02:19Z</time>
      </trkpt>
      <trkpt lat="49.20408" lon="4.01198">
        <ele>101.8</ele>
        <time>2026-08-20T08:02:24Z</time>
      </trkpt>
      <trkpt lat="49.20406" lon="4.01199">
        <ele>101.9</ele>
        <time>2026-08-20T08:02:30Z</time>
      </trkpt>
      <trkpt lat="49.20401" lon="4.01202">
        <ele>102.2</ele>
        <time>2026-08-20T08:02:35Z</time>
      </trkpt>
      <trkpt lat="49.20399" lon="4.01203">
        <ele>102.3</ele>
        <time>2026-08-20T08:02:40Z</time>
      </trkpt>
      <trkpt lat="49.20393" lon="4.01201">
        <ele>102.6</ele>
        <time>2026-08-20T08:02:46Z</time>
      </trkpt>
      <trkpt lat="49.20388" lon="4.012">
        <ele>102.8</ele>
        <time>2026-08-20T08:02:51Z</time>
      </trkpt>
      <trkpt lat="49.20385" lon="4.01199">
        <ele>103</ele>
        <time>2026-08-20T08:02:56Z</time>
      </trkpt>
      <trkpt lat="49.20381" lon="4.01198">
        <ele>103.2</ele>
        <time>2026-08-20T08:03:02Z</time>
      </trkpt>
      <trkpt lat="49.20381" lon="4.01198">
        <ele>103.2</ele>
        <time>2026-08-20T08:03:07Z</time>
      </trkpt>
      <trkpt lat="49.2038" lon="4.01197">
        <ele>103.2</ele>
        <time>2026-08-20T08:03:12Z</time>
      </trkpt>
      <trkpt lat="49.20378" lon="4.01196">
        <ele>103.3</ele>
        <time>2026-08-20T08:03:18Z</time>
      </trkpt>
      <trkpt lat="49.20376" lon="4.01196">
        <ele>103.4</ele>
        <time>2026-08-20T08:03:23Z</time>
      </trkpt>
      <trkpt lat="49.20374" lon="4.01196">
        <ele>103.6</ele>
        <time>2026-08-20T08:03:28Z</time>
      </trkpt>
      <trkpt lat="49.20372" lon="4.01196">
        <ele>103.7</ele>
        <time>2026-08-20T08:03:34Z</time>
      </trkpt>
      <trkpt lat="49.20371" lon="4.01196">
        <ele>103.7</ele>
        <time>2026-08-20T08:03:39Z</time>
      </trkpt>
      <trkpt lat="49.20371" lon="4.01196">
        <ele>103.7</ele>
        <time>2026-08-20T08:03:44Z</time>
      </trkpt>
      <trkpt lat="49.20369" lon="4.01197">
        <ele>103.8</ele>
        <time>2026-08-20T08:03:50Z</time>
      </trkpt>
      <trkpt lat="49.20368" lon="4.01197">
        <ele>103.9</ele>
        <time>2026-08-20T08:03:55Z</time>
      </trkpt>
      <trkpt lat="49.20368" lon="4.01197">
        <ele>103.9</ele>
        <time>2026-08-20T08:04:00Z</time>
      </trkpt>
      <trkpt lat="49.20367" lon="4.01195">
        <ele>103.9</ele>
        <time>2026-08-20T08:04:06Z</time>
      </trkpt>
      <trkpt lat="49.20367" lon="4.01195">
        <ele>103.9</ele>
        <time>2026-08-20T08:04:11Z</time>
      </trkpt>
      <trkpt lat="49.20367" lon="4.01195">
        <ele>103.9</ele>
        <time>2026-08-20T08:04:16Z</time>
      </trkpt>
      <trkpt lat="49.20367" lon="4.01195">
        <ele>103.9</ele>
        <time>2026-08-20T08:04:22Z</time>
      </trkpt>
      <trkpt lat="49.20367" lon="4.01195">
        <ele>103.9</ele>
        <time>2026-08-20T08:04:27Z</time>
      </trkpt>
      <trkpt lat="49.20367" lon="4.01195">
        <ele>103.9</ele>
        <time>2026-08-20T08:04:32Z</time>
      </trkpt>
      <trkpt lat="49.20365" lon="4.01195">
        <ele>104</ele>
        <time>2026-08-20T08:04:38Z</time>
      </trkpt>
      <trkpt lat="49.20363" lon="4.01196">
        <ele>104.1</ele>
        <time>2026-08-20T08:04:43Z</time>
      </trkpt>
      <trkpt lat="49.20361" lon="4.01196">
        <ele>104.2</ele>
        <time>2026-08-20T08:04:48Z</time>
      </trkpt>
      <trkpt lat="49.20354" lon="4.01196">
        <ele>104.6</ele>
        <time>2026-08-20T08:04:54Z</time>
      </trkpt>
      <trkpt lat="49.20349" lon="4.01198">
        <ele>104.8</ele>
        <time>2026-08-20T08:04:59Z</time>
      </trkpt>
      <trkpt lat="49.20343" lon="4.012">
        <ele>105.1</ele>
        <time>2026-08-20T08:05:04Z</time>
      </trkpt>
      <trkpt lat="49.20336" lon="4.01201">
        <ele>105.5</ele>
        <time>2026-08-20T08:05:10Z</time>
      </trkpt>
      <trkpt lat="49.20331" lon="4.01201">
        <ele>105.7</ele>
        <time>2026-08-20T08:05:15Z</time>
      </trkpt>
      <trkpt lat="49.20326" lon="4.01199">
        <ele>105.9</ele>
        <time>2026-08-20T08:05:20Z</time>
      </trkpt>
      <trkpt lat="49.2032" lon="4.01199">
        <ele>106.1</ele>
        <time>2026-08-20T08:05:26Z</time>
      </trkpt>
      <trkpt lat="49.20315" lon="4.01198">
        <ele>106.3</ele>
        <time>2026-08-20T08:05:31Z</time>
      </trkpt>
      <trkpt lat="49.20312" lon="4.01197">
        <ele>106.4</ele>
        <time>2026-08-20T08:05:36Z</time>
      </trkpt>
      <trkpt lat="49.20305" lon="4.01192">
        <ele>106.7</ele>
        <time>2026-08-20T08:05:42Z</time>
      </trkpt>
      <trkpt lat="49.20301" lon="4.01188">
        <ele>106.9</ele>
        <time>2026-08-20T08:05:47Z</time>
      </trkpt>
      <trkpt lat="49.20299" lon="4.01189">
        <ele>107</ele>
        <time>2026-08-20T08:05:52Z</time>
      </trkpt>
      <trkpt lat="49.20299" lon="4.01189">
        <ele>107</ele>
        <time>2026-08-20T08:05:58Z</time>
      </trkpt>
      <trkpt lat="49.20299" lon="4.01189">
        <ele>107</ele>
        <time>2026-08-20T08:06:03Z</time>
      </trkpt>
      <trkpt lat="49.20299" lon="4.01189">
        <ele>107</ele>
        <time>2026-08-20T08:06:08Z</time>
      </trkpt>
      <trkpt lat="49.20299" lon="4.01189">
        <ele>107</ele>
        <time>2026-08-20T08:06:14Z</time>
      </trkpt>
      <trkpt lat="49.20299" lon="4.01189">
        <ele>107</ele>
        <time>2026-08-20T08:06:19Z</time>
      </trkpt>
      <trkpt lat="49.20299" lon="4.01189">
        <ele>107</ele>
        <time>2026-08-20T08:06:24Z</time>
      </trkpt>
      <trkpt lat="49.20299" lon="4.01189">
        <ele>107</ele>
        <time>2026-08-20T08:06:30Z</time>
      </trkpt>
      <trkpt lat="49.20299" lon="4.01189">
        <ele>107</ele>
        <time>2026-08-20T08:06:35Z</time>
      </trkpt>
      <trkpt lat="49.20299" lon="4.01189">
        <ele>107</ele>
        <time>2026-08-20T08:06:40Z</time>
      </trkpt>
      <trkpt lat="49.20299" lon="4.01189">
        <ele>107</ele>
        <time>2026-08-20T08:06:46Z</time>
      </trkpt>
      <trkpt lat="49.20297" lon="4.01192">
        <ele>107</ele>
        <time>2026-08-20T08:06:51Z</time>
      </trkpt>
      <trkpt lat="49.20296" lon="4.01195">
        <ele>107</ele>
        <time>2026-08-20T08:06:56Z</time>
      </trkpt>
      <trkpt lat="49.20294" lon="4.01206">
        <ele>106.9</ele>
        <time>2026-08-20T08:07:02Z</time>
      </trkpt>
      <trkpt lat="49.20292" lon="4.01214">
        <ele>106.9</ele>
        <time>2026-08-20T08:07:07Z</time>
      </trkpt>
      <trkpt lat="49.20291" lon="4.01222">
        <ele>106.9</ele>
        <time>2026-08-20T08:07:12Z</time>
      </trkpt>
      <trkpt lat="49.20289" lon="4.01231">
        <ele>106.8</ele>
        <time>2026-08-20T08:07:18Z</time>
      </trkpt>
      <trkpt lat="49.20288" lon="4.01239">
        <ele>106.8</ele>
        <time>2026-08-20T08:07:23Z</time>
      </trkpt>
      <trkpt lat="49.20284" lon="4.01247">
        <ele>106.8</ele>
        <time>2026-08-20T08:07:28Z</time>
      </trkpt>
      <trkpt lat="49.20283" lon="4.01248">
        <ele>106.8</ele>
        <time>2026-08-20T08:07:34Z</time>
      </trkpt>
      <trkpt lat="49.20281" lon="4.01253">
        <ele>106.8</ele>
        <time>2026-08-20T08:07:39Z</time>
      </trkpt>
      <trkpt lat="49.20276" lon="4.01256">
        <ele>107</ele>
        <time>2026-08-20T08:07:44Z</time>
      </trkpt>
      <trkpt lat="49.2027" lon="4.01261">
        <ele>107.1</ele>
        <time>2026-08-20T08:07:50Z</time>
      </trkpt>
      <trkpt lat="49.20266" lon="4.01267">
        <ele>107.2</ele>
        <time>2026-08-20T08:07:55Z</time>
      </trkpt>
      <trkpt lat="49.20263" lon="4.01273">
        <ele>107.2</ele>
        <time>2026-08-20T08:08:00Z</time>
      </trkpt>
      <trkpt lat="49.20261" lon="4.01283">
        <ele>107.2</ele>
        <time>2026-08-20T08:08:06Z</time>
      </trkpt>
      <trkpt lat="49.20261" lon="4.01289">
        <ele>107.1</ele>
        <time>2026-08-20T08:08:11Z</time>
      </trkpt>
      <trkpt lat="49.20261" lon="4.01292">
        <ele>107</ele>
        <time>2026-08-20T08:08:16Z</time>
      </trkpt>
      <trkpt lat="49.20262" lon="4.01296">
        <ele>106.9</ele>
        <time>2026-08-20T08:08:22Z</time>
      </trkpt>
      <trkpt lat="49.20263" lon="4.01302">
        <ele>106.8</ele>
        <time>2026-08-20T08:08:27Z</time>
      </trkpt>
      <trkpt lat="49.20263" lon="4.01306">
        <ele>106.8</ele>
        <time>2026-08-20T08:08:32Z</time>
      </trkpt>
      <trkpt lat="49.20263" lon="4.01309">
        <ele>106.7</ele>
        <time>2026-08-20T08:08:38Z</time>
      </trkpt>
      <trkpt lat="49.20266" lon="4.01313">
        <ele>106.5</ele>
        <time>2026-08-20T08:08:43Z</time>
      </trkpt>
      <trkpt lat="49.20269" lon="4.01318">
        <ele>106.3</ele>
        <time>2026-08-20T08:08:48Z</time>
      </trkpt>
      <trkpt lat="49.20269" lon="4.01325">
        <ele>106.2</ele>
        <time>2026-08-20T08:08:54Z</time>
      </trkpt>
      <trkpt lat="49.20269" lon="4.01328">
        <ele>106.2</ele>
        <time>2026-08-20T08:08:59Z</time>
      </trkpt>
      <trkpt lat="49.20268" lon="4.01328">
        <ele>106.2</ele>
        <time>2026-08-20T08:09:04Z</time>
      </trkpt>
      <trkpt lat="49.20268" lon="4.01328">
        <ele>106.2</ele>
        <time>2026-08-20T08:09:10Z</time>
      </trkpt>
      <trkpt lat="49.20268" lon="4.01334">
        <ele>106.1</ele>
        <time>2026-08-20T08:09:15Z</time>
      </trkpt>
      <trkpt lat="49.20267" lon="4.01343">
        <ele>106.1</ele>
        <time>2026-08-20T08:09:20Z</time>
      </trkpt>
      <trkpt lat="49.20261" lon="4.01348">
        <ele>106.3</ele>
        <time>2026-08-20T08:09:26Z</time>
      </trkpt>
      <trkpt lat="49.20254" lon="4.01348">
        <ele>106.6</ele>
        <time>2026-08-20T08:09:31Z</time>
      </trkpt>
      <trkpt lat="49.20248" lon="4.01348">
        <ele>106.9</ele>
        <time>2026-08-20T08:09:36Z</time>
      </trkpt>
      <trkpt lat="49.2024" lon="4.01351">
        <ele>107.1</ele>
        <time>2026-08-20T08:09:42Z</time>
      </trkpt>
      <trkpt lat="49.20234" lon="4.0135">
        <ele>107.3</ele>
        <time>2026-08-20T08:09:47Z</time>
      </trkpt>
      <trkpt lat="49.20227" lon="4.01348">
        <ele>107.6</ele>
        <time>2026-08-20T08:09:52Z</time>
      </trkpt>
      <trkpt lat="49.20221" lon="4.01353">
        <ele>107.7</ele>
        <time>2026-08-20T08:09:58Z</time>
      </trkpt>
      <trkpt lat="49.20218" lon="4.01357">
        <ele>107.8</ele>
        <time>2026-08-20T08:10:03Z</time>
      </trkpt>
      <trkpt lat="49.20218" lon="4.01358">
        <ele>107.7</ele>
        <time>2026-08-20T08:10:08Z</time>
      </trkpt>
      <trkpt lat="49.20217" lon="4.01361">
        <ele>107.7</ele>
        <time>2026-08-20T08:10:14Z</time>
      </trkpt>
      <trkpt lat="49.20216" lon="4.01365">
        <ele>107.7</ele>
        <time>2026-08-20T08:10:19Z</time>
      </trkpt>
      <trkpt lat="49.20216" lon="4.01368">
        <ele>107.6</ele>
        <time>2026-08-20T08:10:24Z</time>
      </trkpt>
      <trkpt lat="49.20213" lon="4.01374">
        <ele>107.6</ele>
        <time>2026-08-20T08:10:30Z</time>
      </trkpt>
      <trkpt lat="49.20211" lon="4.01379">
        <ele>107.6</ele>
        <time>2026-08-20T08:10:35Z</time>
      </trkpt>
      <trkpt lat="49.20209" lon="4.01388">
        <ele>107.5</ele>
        <time>2026-08-20T08:10:40Z</time>
      </trkpt>
      <trkpt lat="49.20206" lon="4.01396">
        <ele>107.4</ele>
        <time>2026-08-20T08:10:46Z</time>
      </trkpt>
      <trkpt lat="49.20203" lon="4.01404">
        <ele>107.4</ele>
        <time>2026-08-20T08:10:51Z</time>
      </trkpt>
      <trkpt lat="49.20199" lon="4.01413">
        <ele>107.3</ele>
        <time>2026-08-20T08:10:56Z</time>
      </trkpt>
      <trkpt lat="49.20194" lon="4.01422">
        <ele>107.3</ele>
        <time>2026-08-20T08:11:02Z</time>
      </trkpt>
      <trkpt lat="49.20189" lon="4.01427">
        <ele>107.3</ele>
        <time>2026-08-20T08:11:07Z</time>
      </trkpt>
      <trkpt lat="49.20184" lon="4.01428">
        <ele>107.4</ele>
        <time>2026-08-20T08:11:12Z</time>
      </trkpt>
      <trkpt lat="49.20177" lon="4.01432">
        <ele>107.6</ele>
        <time>2026-08-20T08:11:18Z</time>
      </trkpt>
      <trkpt lat="49.20172" lon="4.01436">
        <ele>107.6</ele>
        <time>2026-08-20T08:11:23Z</time>
      </trkpt>
      <trkpt lat="49.20166" lon="4.01441">
        <ele>107.7</ele>
        <time>2026-08-20T08:11:28Z</time>
      </trkpt>
      <trkpt lat="49.20164" lon="4.01451">
        <ele>107.6</ele>
        <time>2026-08-20T08:11:34Z</time>
      </trkpt>
      <trkpt lat="49.20165" lon="4.01459">
        <ele>107.5</ele>
        <time>2026-08-20T08:11:39Z</time>
      </trkpt>
      <trkpt lat="49.20164" lon="4.0146">
        <ele>107.5</ele>
        <time>2026-08-20T08:11:44Z</time>
      </trkpt>
      <trkpt lat="49.20164" lon="4.0146">
        <ele>107.5</ele>
        <time>2026-08-20T08:11:50Z</time>
      </trkpt>
      <trkpt lat="49.20164" lon="4.01463">
        <ele>107.5</ele>
        <time>2026-08-20T08:11:55Z</time>
      </trkpt>
      <trkpt lat="49.20163" lon="4.01471">
        <ele>107.4</ele>
        <time>2026-08-20T08:12:00Z</time>
      </trkpt>
      <trkpt lat="49.20164" lon="4.01476">
        <ele>107.3</ele>
        <time>2026-08-20T08:12:06Z</time>
      </trkpt>
      <trkpt lat="49.20163" lon="4.01479">
        <ele>107.3</ele>
        <time>2026-08-20T08:12:11Z</time>
      </trkpt>
      <trkpt lat="49.20163" lon="4.01479">
        <ele>107.3</ele>
        <time>2026-08-20T08:12:16Z</time>
      </trkpt>
      <trkpt lat="49.20163" lon="4.01479">
        <ele>107.3</ele>
        <time>2026-08-20T08:12:22Z</time>
      </trkpt>
      <trkpt lat="49.20163" lon="4.01479">
        <ele>107.3</ele>
        <time>2026-08-20T08:12:27Z</time>
      </trkpt>
      <trkpt lat="49.20163" lon="4.01479">
        <ele>107.3</ele>
        <time>2026-08-20T08:12:32Z</time>
      </trkpt>
      <trkpt lat="49.20163" lon="4.01479">
        <ele>107.3</ele>
        <time>2026-08-20T08:12:38Z</time>
      </trkpt>
      <trkpt lat="49.20163" lon="4.01479">
        <ele>107.3</ele>
        <time>2026-08-20T08:12:43Z</time>
      </trkpt>
      <trkpt lat="49.20163" lon="4.01479">
        <ele>107.3</ele>
        <time>2026-08-20T08:12:48Z</time>
      </trkpt>
      <trkpt lat="49.20163" lon="4.01479">
        <ele>107.3</ele>
        <time>2026-08-20T08:12:54Z</time>
      </trkpt>
      <trkpt lat="49.20163" lon="4.01479">
        <ele>107.3</ele>
        <time>2026-08-20T08:12:59Z</time>
      </trkpt>
      <trkpt lat="49.20163" lon="4.01479">
        <ele>107.3</ele>
        <time>2026-08-20T08:13:04Z</time>
      </trkpt>
      <trkpt lat="49.20163" lon="4.01479">
        <ele>107.3</ele>
        <time>2026-08-20T08:13:10Z</time>
      </trkpt>
      <trkpt lat="49.20163" lon="4.01479">
        <ele>107.3</ele>
        <time>2026-08-20T08:13:15Z</time>
      </trkpt>
      <trkpt lat="49.20163" lon="4.01479">
        <ele>107.3</ele>
        <time>2026-08-20T08:13:20Z</time>
      </trkpt>
      <trkpt lat="49.20162" lon="4.01484">
        <ele>107.2</ele>
        <time>2026-08-20T08:13:26Z</time>
      </trkpt>
      <trkpt lat="49.20162" lon="4.01484">
        <ele>107.2</ele>
        <time>2026-08-20T08:13:31Z</time>
      </trkpt>
      <trkpt lat="49.20162" lon="4.01484">
        <ele>107.2</ele>
        <time>2026-08-20T08:13:36Z</time>
      </trkpt>
      <trkpt lat="49.20162" lon="4.01484">
        <ele>107.2</ele>
        <time>2026-08-20T08:13:42Z</time>
      </trkpt>
      <trkpt lat="49.20162" lon="4.01484">
        <ele>107.2</ele>
        <time>2026-08-20T08:13:47Z</time>
      </trkpt>
      <trkpt lat="49.20162" lon="4.01484">
        <ele>107.2</ele>
        <time>2026-08-20T08:13:52Z</time>
      </trkpt>
      <trkpt lat="49.20162" lon="4.01484">
        <ele>107.2</ele>
        <time>2026-08-20T08:13:58Z</time>
      </trkpt>
      <trkpt lat="49.20162" lon="4.01484">
        <ele>107.2</ele>
        <time>2026-08-20T08:14:03Z</time>
      </trkpt>
      <trkpt lat="49.20162" lon="4.01484">
        <ele>107.2</ele>
        <time>2026-08-20T08:14:08Z</time>
      </trkpt>
      <trkpt lat="49.2016" lon="4.01495">
        <ele>107.1</ele>
        <time>2026-08-20T08:14:14Z</time>
      </trkpt>
      <trkpt lat="49.20159" lon="4.01505">
        <ele>107.1</ele>
        <time>2026-08-20T08:14:19Z</time>
      </trkpt>
      <trkpt lat="49.20158" lon="4.01513">
        <ele>107.1</ele>
        <time>2026-08-20T08:14:24Z</time>
      </trkpt>
      <trkpt lat="49.20157" lon="4.01525">
        <ele>107.1</ele>
        <time>2026-08-20T08:14:30Z</time>
      </trkpt>
      <trkpt lat="49.20155" lon="4.01534">
        <ele>107.1</ele>
        <time>2026-08-20T08:14:35Z</time>
      </trkpt>
      <trkpt lat="49.20154" lon="4.01544">
        <ele>107.1</ele>
        <time>2026-08-20T08:14:40Z</time>
      </trkpt>
      <trkpt lat="49.20153" lon="4.01555">
        <ele>107.1</ele>
        <time>2026-08-20T08:14:46Z</time>
      </trkpt>
      <trkpt lat="49.20152" lon="4.01563">
        <ele>107</ele>
        <time>2026-08-20T08:14:51Z</time>
      </trkpt>
      <trkpt lat="49.20151" lon="4.01566">
        <ele>107</ele>
        <time>2026-08-20T08:14:56Z</time>
      </trkpt>
      <trkpt lat="49.20151" lon="4.01567">
        <ele>107</ele>
        <time>2026-08-20T08:15:02Z</time>
      </trkpt>
      <trkpt lat="49.2015" lon="4.01576">
        <ele>107</ele>
        <time>2026-08-20T08:15:07Z</time>
      </trkpt>
      <trkpt lat="49.2015" lon="4.01579">
        <ele>107</ele>
        <time>2026-08-20T08:15:12Z</time>
      </trkpt>
      <trkpt lat="49.20148" lon="4.01588">
        <ele>106.9</ele>
        <time>2026-08-20T08:15:18Z</time>
      </trkpt>
      <trkpt lat="49.20148" lon="4.01597">
        <ele>106.8</ele>
        <time>2026-08-20T08:15:23Z</time>
      </trkpt>
      <trkpt lat="49.20146" lon="4.01607">
        <ele>106.7</ele>
        <time>2026-08-20T08:15:28Z</time>
      </trkpt>
      <trkpt lat="49.20145" lon="4.01618">
        <ele>106.6</ele>
        <time>2026-08-20T08:15:34Z</time>
      </trkpt>
      <trkpt lat="49.20145" lon="4.01626">
        <ele>106.5</ele>
        <time>2026-08-20T08:15:39Z</time>
      </trkpt>
      <trkpt lat="49.20144" lon="4.01636">
        <ele>106.4</ele>
        <time>2026-08-20T08:15:44Z</time>
      </trkpt>
      <trkpt lat="49.20142" lon="4.01648">
        <ele>106.2</ele>
        <time>2026-08-20T08:15:50Z</time>
      </trkpt>
      <trkpt lat="49.2014" lon="4.01658">
        <ele>106.1</ele>
        <time>2026-08-20T08:15:55Z</time>
      </trkpt>
      <trkpt lat="49.20142" lon="4.01667">
        <ele>106</ele>
        <time>2026-08-20T08:16:00Z</time>
      </trkpt>
      <trkpt lat="49.20141" lon="4.0168">
        <ele>105.4</ele>
        <time>2026-08-20T08:16:06Z</time>
      </trkpt>
      <trkpt lat="49.20138" lon="4.01688">
        <ele>105.1</ele>
        <time>2026-08-20T08:16:11Z</time>
      </trkpt>
      <trkpt lat="49.20135" lon="4.01696">
        <ele>104.7</ele>
        <time>2026-08-20T08:16:16Z</time>
      </trkpt>
      <trkpt lat="49.20136" lon="4.01708">
        <ele>104.1</ele>
        <time>2026-08-20T08:16:22Z</time>
      </trkpt>
      <trkpt lat="49.20136" lon="4.01716">
        <ele>103.8</ele>
        <time>2026-08-20T08:16:27Z</time>
      </trkpt>
      <trkpt lat="49.20136" lon="4.01722">
        <ele>103.5</ele>
        <time>2026-08-20T08:16:32Z</time>
      </trkpt>
      <trkpt lat="49.20136" lon="4.01724">
        <ele>103.4</ele>
        <time>2026-08-20T08:16:38Z</time>
      </trkpt>
      <trkpt lat="49.20136" lon="4.01725">
        <ele>103.4</ele>
        <time>2026-08-20T08:16:43Z</time>
      </trkpt>
      <trkpt lat="49.20136" lon="4.01725">
        <ele>103.4</ele>
        <time>2026-08-20T08:16:48Z</time>
      </trkpt>
      <trkpt lat="49.20136" lon="4.01725">
        <ele>103.4</ele>
        <time>2026-08-20T08:16:54Z</time>
      </trkpt>
      <trkpt lat="49.20136" lon="4.01725">
        <ele>103.4</ele>
        <time>2026-08-20T08:16:59Z</time>
      </trkpt>
      <trkpt lat="49.20136" lon="4.01725">
        <ele>103.4</ele>
        <time>2026-08-20T08:17:04Z</time>
      </trkpt>
      <trkpt lat="49.20136" lon="4.01725">
        <ele>103.4</ele>
        <time>2026-08-20T08:17:10Z</time>
      </trkpt>
      <trkpt lat="49.20136" lon="4.01725">
        <ele>103.4</ele>
        <time>2026-08-20T08:17:15Z</time>
      </trkpt>
      <trkpt lat="49.20136" lon="4.01725">
        <ele>103.4</ele>
        <time>2026-08-20T08:17:20Z</time>
      </trkpt>
      <trkpt lat="49.20136" lon="4.01725">
        <ele>103.4</ele>
        <time>2026-08-20T08:17:26Z</time>
      </trkpt>
      <trkpt lat="49.20136" lon="4.01725">
        <ele>103.4</ele>
        <time>2026-08-20T08:17:31Z</time>
      </trkpt>
      <trkpt lat="49.20136" lon="4.01725">
        <ele>103.4</ele>
        <time>2026-08-20T08:17:36Z</time>
      </trkpt>
      <trkpt lat="49.20136" lon="4.01725">
        <ele>103.4</ele>
        <time>2026-08-20T08:17:42Z</time>
      </trkpt>
      <trkpt lat="49.20136" lon="4.01725">
        <ele>103.4</ele>
        <time>2026-08-20T08:17:47Z</time>
      </trkpt>
      <trkpt lat="49.20136" lon="4.01725">
        <ele>103.4</ele>
        <time>2026-08-20T08:17:52Z</time>
      </trkpt>
      <trkpt lat="49.20136" lon="4.01725">
        <ele>103.4</ele>
        <time>2026-08-20T08:17:58Z</time>
      </trkpt>
      <trkpt lat="49.20136" lon="4.01725">
        <ele>103.4</ele>
        <time>2026-08-20T08:18:03Z</time>
      </trkpt>
      <trkpt lat="49.20136" lon="4.01725">
        <ele>103.4</ele>
        <time>2026-08-20T08:18:08Z</time>
      </trkpt>
      <trkpt lat="49.20136" lon="4.01725">
        <ele>103.4</ele>
        <time>2026-08-20T08:18:14Z</time>
      </trkpt>
      <trkpt lat="49.20136" lon="4.01725">
        <ele>103.4</ele>
        <time>2026-08-20T08:18:19Z</time>
      </trkpt>
      <trkpt lat="49.20136" lon="4.01725">
        <ele>103.4</ele>
        <time>2026-08-20T08:18:24Z</time>
      </trkpt>
      <trkpt lat="49.20136" lon="4.01725">
        <ele>103.4</ele>
        <time>2026-08-20T08:18:30Z</time>
      </trkpt>
      <trkpt lat="49.20136" lon="4.01725">
        <ele>103.4</ele>
        <time>2026-08-20T08:18:35Z</time>
      </trkpt>
      <trkpt lat="49.20136" lon="4.01725">
        <ele>103.4</ele>
        <time>2026-08-20T08:18:40Z</time>
      </trkpt>
      <trkpt lat="49.20136" lon="4.01725">
        <ele>103.4</ele>
        <time>2026-08-20T08:18:46Z</time>
      </trkpt>
      <trkpt lat="49.20136" lon="4.01725">
        <ele>103.4</ele>
        <time>2026-08-20T08:18:51Z</time>
      </trkpt>
      <trkpt lat="49.20136" lon="4.01725">
        <ele>103.4</ele>
        <time>2026-08-20T08:18:56Z</time>
      </trkpt>
      <trkpt lat="49.20136" lon="4.01725">
        <ele>103.4</ele>
        <time>2026-08-20T08:19:02Z</time>
      </trkpt>
      <trkpt lat="49.20136" lon="4.01725">
        <ele>103.4</ele>
        <time>2026-08-20T08:19:07Z</time>
      </trkpt>
      <trkpt lat="49.20136" lon="4.01725">
        <ele>103.4</ele>
        <time>2026-08-20T08:19:12Z</time>
      </trkpt>
      <trkpt lat="49.20136" lon="4.01725">
        <ele>103.4</ele>
        <time>2026-08-20T08:19:18Z</time>
      </trkpt>
      <trkpt lat="49.20136" lon="4.01725">
        <ele>103.4</ele>
        <time>2026-08-20T08:19:23Z</time>
      </trkpt>
      <trkpt lat="49.20136" lon="4.01725">
        <ele>103.4</ele>
        <time>2026-08-20T08:19:28Z</time>
      </trkpt>
      <trkpt lat="49.20136" lon="4.01725">
        <ele>103.4</ele>
        <time>2026-08-20T08:19:34Z</time>
      </trkpt>
      <trkpt lat="49.20136" lon="4.01725">
        <ele>103.4</ele>
        <time>2026-08-20T08:19:39Z</time>
      </trkpt>
      <trkpt lat="49.20136" lon="4.01725">
        <ele>103.4</ele>
        <time>2026-08-20T08:19:44Z</time>
      </trkpt>
      <trkpt lat="49.20136" lon="4.01725">
        <ele>103.4</ele>
        <time>2026-08-20T08:19:50Z</time>
      </trkpt>
      <trkpt lat="49.20136" lon="4.01725">
        <ele>103.4</ele>
        <time>2026-08-20T08:19:55Z</time>
      </trkpt>
      <trkpt lat="49.20136" lon="4.01725">
        <ele>103.4</ele>
        <time>2026-08-20T08:20:00Z</time>
      </trkpt>
      <trkpt lat="49.20136" lon="4.01725">
        <ele>103.4</ele>
        <time>2026-08-20T08:20:06Z</time>
      </trkpt>
      <trkpt lat="49.20136" lon="4.01725">
        <ele>103.4</ele>
        <time>2026-08-20T08:20:11Z</time>
      </trkpt>
      <trkpt lat="49.20136" lon="4.01725">
        <ele>103.4</ele>
        <time>2026-08-20T08:20:16Z</time>
      </trkpt>
      <trkpt lat="49.20136" lon="4.01725">
        <ele>103.4</ele>
        <time>2026-08-20T08:20:22Z</time>
      </trkpt>
      <trkpt lat="49.20136" lon="4.01725">
        <ele>103.4</ele>
        <time>2026-08-20T08:20:27Z</time>
      </trkpt>
      <trkpt lat="49.20136" lon="4.01725">
        <ele>103.4</ele>
        <time>2026-08-20T08:20:32Z</time>
      </trkpt>
      <trkpt lat="49.20136" lon="4.01725">
        <ele>103.4</ele>
        <time>2026-08-20T08:20:38Z</time>
      </trkpt>
      <trkpt lat="49.20136" lon="4.01725">
        <ele>103.4</ele>
        <time>2026-08-20T08:20:43Z</time>
      </trkpt>
      <trkpt lat="49.20136" lon="4.01725">
        <ele>103.4</ele>
        <time>2026-08-20T08:20:48Z</time>
      </trkpt>
      <trkpt lat="49.20136" lon="4.01725">
        <ele>103.4</ele>
        <time>2026-08-20T08:20:54Z</time>
      </trkpt>
      <trkpt lat="49.20136" lon="4.01725">
        <ele>103.4</ele>
        <time>2026-08-20T08:20:59Z</time>
      </trkpt>
      <trkpt lat="49.20136" lon="4.01725">
        <ele>103.4</ele>
        <time>2026-08-20T08:21:04Z</time>
      </trkpt>
      <trkpt lat="49.20136" lon="4.01725">
        <ele>103.4</ele>
        <time>2026-08-20T08:21:10Z</time>
      </trkpt>
      <trkpt lat="49.20136" lon="4.01725">
        <ele>103.4</ele>
        <time>2026-08-20T08:21:15Z</time>
      </trkpt>
      <trkpt lat="49.20136" lon="4.01725">
        <ele>103.4</ele>
        <time>2026-08-20T08:21:20Z</time>
      </trkpt>
      <trkpt lat="49.20136" lon="4.01725">
        <ele>103.4</ele>
        <time>2026-08-20T08:21:26Z</time>
      </trkpt>
      <trkpt lat="49.20136" lon="4.01725">
        <ele>103.4</ele>
        <time>2026-08-20T08:21:31Z</time>
      </trkpt>
      <trkpt lat="49.20136" lon="4.01725">
        <ele>103.4</ele>
        <time>2026-08-20T08:21:36Z</time>
      </trkpt>
      <trkpt lat="49.20136" lon="4.01725">
        <ele>103.4</ele>
        <time>2026-08-20T08:21:42Z</time>
      </trkpt>
      <trkpt lat="49.20136" lon="4.01725">
        <ele>103.4</ele>
        <time>2026-08-20T08:21:47Z</time>
      </trkpt>
      <trkpt lat="49.20136" lon="4.01725">
        <ele>103.4</ele>
        <time>2026-08-20T08:21:52Z</time>
      </trkpt>
      <trkpt lat="49.20136" lon="4.01725">
        <ele>103.4</ele>
        <time>2026-08-20T08:21:58Z</time>
      </trkpt>
      <trkpt lat="49.20136" lon="4.01725">
        <ele>103.4</ele>
        <time>2026-08-20T08:22:03Z</time>
      </trkpt>
      <trkpt lat="49.20136" lon="4.01725">
        <ele>103.4</ele>
        <time>2026-08-20T08:22:08Z</time>
      </trkpt>
      <trkpt lat="49.20136" lon="4.01725">
        <ele>103.4</ele>
        <time>2026-08-20T08:22:14Z</time>
      </trkpt>
      <trkpt lat="49.20136" lon="4.01725">
        <ele>103.4</ele>
        <time>2026-08-20T08:22:19Z</time>
      </trkpt>
      <trkpt lat="49.20136" lon="4.01725">
        <ele>103.4</ele>
        <time>2026-08-20T08:22:24Z</time>
      </trkpt>
      <trkpt lat="49.20136" lon="4.01725">
        <ele>103.4</ele>
        <time>2026-08-20T08:22:30Z</time>
      </trkpt>
      <trkpt lat="49.20136" lon="4.01725">
        <ele>103.4</ele>
        <time>2026-08-20T08:22:35Z</time>
      </trkpt>
      <trkpt lat="49.20136" lon="4.01725">
        <ele>103.4</ele>
        <time>2026-08-20T08:22:40Z</time>
      </trkpt>
      <trkpt lat="49.20136" lon="4.01725">
        <ele>103.4</ele>
        <time>2026-08-20T08:22:46Z</time>
      </trkpt>
      <trkpt lat="49.20136" lon="4.01725">
        <ele>103.4</ele>
        <time>2026-08-20T08:22:51Z</time>
      </trkpt>
      <trkpt lat="49.20136" lon="4.01725">
        <ele>103.4</ele>
        <time>2026-08-20T08:22:56Z</time>
      </trkpt>
      <trkpt lat="49.20136" lon="4.01725">
        <ele>103.4</ele>
        <time>2026-08-20T08:23:02Z</time>
      </trkpt>
      <trkpt lat="49.20132" lon="4.01737">
        <ele>102.8</ele>
        <time>2026-08-20T08:23:07Z</time>
      </trkpt>
      <trkpt lat="49.20132" lon="4.01745">
        <ele>102.4</ele>
        <time>2026-08-20T08:23:12Z</time>
      </trkpt>
      <trkpt lat="49.20131" lon="4.01754">
        <ele>102</ele>
        <time>2026-08-20T08:23:18Z</time>
      </trkpt>
      <trkpt lat="49.20131" lon="4.01754">
        <ele>102</ele>
        <time>2026-08-20T08:23:23Z</time>
      </trkpt>
      <trkpt lat="49.20131" lon="4.01754">
        <ele>102</ele>
        <time>2026-08-20T08:23:28Z</time>
      </trkpt>
      <trkpt lat="49.2013" lon="4.01758">
        <ele>101.8</ele>
        <time>2026-08-20T08:23:34Z</time>
      </trkpt>
      <trkpt lat="49.2013" lon="4.01763">
        <ele>101.6</ele>
        <time>2026-08-20T08:23:39Z</time>
      </trkpt>
      <trkpt lat="49.2013" lon="4.01766">
        <ele>101.4</ele>
        <time>2026-08-20T08:23:44Z</time>
      </trkpt>
      <trkpt lat="49.2013" lon="4.01767">
        <ele>101.4</ele>
        <time>2026-08-20T08:23:50Z</time>
      </trkpt>
      <trkpt lat="49.2013" lon="4.01767">
        <ele>101.4</ele>
        <time>2026-08-20T08:23:55Z</time>
      </trkpt>
      <trkpt lat="49.2013" lon="4.01767">
        <ele>101.4</ele>
        <time>2026-08-20T08:24:00Z</time>
      </trkpt>
      <trkpt lat="49.20129" lon="4.01776">
        <ele>101</ele>
        <time>2026-08-20T08:24:06Z</time>
      </trkpt>
      <trkpt lat="49.20127" lon="4.01782">
        <ele>100.7</ele>
        <time>2026-08-20T08:24:11Z</time>
      </trkpt>
      <trkpt lat="49.20124" lon="4.01787">
        <ele>100.4</ele>
        <time>2026-08-20T08:24:16Z</time>
      </trkpt>
      <trkpt lat="49.20122" lon="4.01793">
        <ele>100.1</ele>
        <time>2026-08-20T08:24:22Z</time>
      </trkpt>
      <trkpt lat="49.20119" lon="4.01799">
        <ele>99.8</ele>
        <time>2026-08-20T08:24:27Z</time>
      </trkpt>
      <trkpt lat="49.20117" lon="4.01801">
        <ele>99.7</ele>
        <time>2026-08-20T08:24:32Z</time>
      </trkpt>
      <trkpt lat="49.20117" lon="4.01802">
        <ele>99.7</ele>
        <time>2026-08-20T08:24:38Z</time>
      </trkpt>
      <trkpt lat="49.20113" lon="4.01808">
        <ele>99.4</ele>
        <time>2026-08-20T08:24:43Z</time>
      </trkpt>
      <trkpt lat="49.2011" lon="4.01815">
        <ele>99.1</ele>
        <time>2026-08-20T08:24:48Z</time>
      </trkpt>
      <trkpt lat="49.20105" lon="4.01823">
        <ele>98.7</ele>
        <time>2026-08-20T08:24:54Z</time>
      </trkpt>
      <trkpt lat="49.201" lon="4.01827">
        <ele>98.4</ele>
        <time>2026-08-20T08:24:59Z</time>
      </trkpt>
      <trkpt lat="49.20095" lon="4.01832">
        <ele>98.2</ele>
        <time>2026-08-20T08:25:04Z</time>
      </trkpt>
      <trkpt lat="49.20089" lon="4.01839">
        <ele>97.9</ele>
        <time>2026-08-20T08:25:10Z</time>
      </trkpt>
      <trkpt lat="49.20089" lon="4.01845">
        <ele>97.8</ele>
        <time>2026-08-20T08:25:15Z</time>
      </trkpt>
      <trkpt lat="49.20089" lon="4.01846">
        <ele>97.7</ele>
        <time>2026-08-20T08:25:20Z</time>
      </trkpt>
      <trkpt lat="49.20089" lon="4.01846">
        <ele>97.7</ele>
        <time>2026-08-20T08:25:26Z</time>
      </trkpt>
      <trkpt lat="49.20089" lon="4.01846">
        <ele>97.7</ele>
        <time>2026-08-20T08:25:31Z</time>
      </trkpt>
      <trkpt lat="49.20091" lon="4.01857">
        <ele>97.4</ele>
        <time>2026-08-20T08:25:36Z</time>
      </trkpt>
      <trkpt lat="49.20087" lon="4.01863">
        <ele>97.3</ele>
        <time>2026-08-20T08:25:42Z</time>
      </trkpt>
      <trkpt lat="49.20082" lon="4.01869">
        <ele>97.1</ele>
        <time>2026-08-20T08:25:47Z</time>
      </trkpt>
      <trkpt lat="49.20077" lon="4.01876">
        <ele>97</ele>
        <time>2026-08-20T08:25:52Z</time>
      </trkpt>
      <trkpt lat="49.20073" lon="4.0188">
        <ele>96.9</ele>
        <time>2026-08-20T08:25:58Z</time>
      </trkpt>
      <trkpt lat="49.20073" lon="4.0188">
        <ele>96.9</ele>
        <time>2026-08-20T08:26:03Z</time>
      </trkpt>
      <trkpt lat="49.20069" lon="4.01885">
        <ele>96.8</ele>
        <time>2026-08-20T08:26:08Z</time>
      </trkpt>
      <trkpt lat="49.20063" lon="4.01892">
        <ele>96.6</ele>
        <time>2026-08-20T08:26:14Z</time>
      </trkpt>
      <trkpt lat="49.20058" lon="4.01897">
        <ele>96.5</ele>
        <time>2026-08-20T08:26:19Z</time>
      </trkpt>
      <trkpt lat="49.20053" lon="4.01903">
        <ele>96.3</ele>
        <time>2026-08-20T08:26:24Z</time>
      </trkpt>
      <trkpt lat="49.20045" lon="4.01908">
        <ele>96.2</ele>
        <time>2026-08-20T08:26:30Z</time>
      </trkpt>
      <trkpt lat="49.20039" lon="4.01912">
        <ele>96.1</ele>
        <time>2026-08-20T08:26:35Z</time>
      </trkpt>
      <trkpt lat="49.20033" lon="4.01916">
        <ele>96</ele>
        <time>2026-08-20T08:26:40Z</time>
      </trkpt>
      <trkpt lat="49.20026" lon="4.01917">
        <ele>96</ele>
        <time>2026-08-20T08:26:46Z</time>
      </trkpt>
      <trkpt lat="49.2002" lon="4.01917">
        <ele>96</ele>
        <time>2026-08-20T08:26:51Z</time>
      </trkpt>
      <trkpt lat="49.20014" lon="4.01917">
        <ele>96</ele>
        <time>2026-08-20T08:26:56Z</time>
      </trkpt>
      <trkpt lat="49.20006" lon="4.01917">
        <ele>96</ele>
        <time>2026-08-20T08:27:02Z</time>
      </trkpt>
      <trkpt lat="49.19999" lon="4.01917">
        <ele>96</ele>
        <time>2026-08-20T08:27:07Z</time>
      </trkpt>
      <trkpt lat="49.19992" lon="4.01917">
        <ele>96</ele>
        <time>2026-08-20T08:27:12Z</time>
      </trkpt>
      <trkpt lat="49.19985" lon="4.01917">
        <ele>96</ele>
        <time>2026-08-20T08:27:18Z</time>
      </trkpt>
      <trkpt lat="49.19978" lon="4.01918">
        <ele>96</ele>
        <time>2026-08-20T08:27:23Z</time>
      </trkpt>
      <trkpt lat="49.19971" lon="4.01916">
        <ele>96</ele>
        <time>2026-08-20T08:27:28Z</time>
      </trkpt>
      <trkpt lat="49.19962" lon="4.01917">
        <ele>96</ele>
        <time>2026-08-20T08:27:34Z</time>
      </trkpt>
      <trkpt lat="49.19955" lon="4.01917">
        <ele>96</ele>
        <time>2026-08-20T08:27:39Z</time>
      </trkpt>
      <trkpt lat="49.19948" lon="4.01916">
        <ele>96</ele>
        <time>2026-08-20T08:27:44Z</time>
      </trkpt>
      <trkpt lat="49.1994" lon="4.01915">
        <ele>96</ele>
        <time>2026-08-20T08:27:50Z</time>
      </trkpt>
      <trkpt lat="49.19933" lon="4.01914">
        <ele>96.1</ele>
        <time>2026-08-20T08:27:55Z</time>
      </trkpt>
      <trkpt lat="49.19926" lon="4.01914">
        <ele>96.1</ele>
        <time>2026-08-20T08:28:00Z</time>
      </trkpt>
      <trkpt lat="49.19917" lon="4.01913">
        <ele>96.1</ele>
        <time>2026-08-20T08:28:06Z</time>
      </trkpt>
      <trkpt lat="49.1991" lon="4.01911">
        <ele>96.1</ele>
        <time>2026-08-20T08:28:11Z</time>
      </trkpt>
      <trkpt lat="49.19904" lon="4.01916">
        <ele>95.9</ele>
        <time>2026-08-20T08:28:16Z</time>
      </trkpt>
      <trkpt lat="49.19899" lon="4.01916">
        <ele>95.8</ele>
        <time>2026-08-20T08:28:22Z</time>
      </trkpt>
      <trkpt lat="49.19895" lon="4.01913">
        <ele>95.8</ele>
        <time>2026-08-20T08:28:27Z</time>
      </trkpt>
      <trkpt lat="49.1989" lon="4.01912">
        <ele>95.8</ele>
        <time>2026-08-20T08:28:32Z</time>
      </trkpt>
      <trkpt lat="49.19882" lon="4.01911">
        <ele>95.7</ele>
        <time>2026-08-20T08:28:38Z</time>
      </trkpt>
      <trkpt lat="49.19876" lon="4.01909">
        <ele>95.7</ele>
        <time>2026-08-20T08:28:43Z</time>
      </trkpt>
      <trkpt lat="49.19869" lon="4.01906">
        <ele>95.7</ele>
        <time>2026-08-20T08:28:48Z</time>
      </trkpt>
      <trkpt lat="49.19862" lon="4.01904">
        <ele>95.6</ele>
        <time>2026-08-20T08:28:54Z</time>
      </trkpt>
      <trkpt lat="49.19855" lon="4.01901">
        <ele>95.6</ele>
        <time>2026-08-20T08:28:59Z</time>
      </trkpt>
      <trkpt lat="49.19849" lon="4.01897">
        <ele>95.7</ele>
        <time>2026-08-20T08:29:04Z</time>
      </trkpt>
      <trkpt lat="49.19841" lon="4.01893">
        <ele>95.7</ele>
        <time>2026-08-20T08:29:10Z</time>
      </trkpt>
      <trkpt lat="49.19836" lon="4.01892">
        <ele>95.6</ele>
        <time>2026-08-20T08:29:15Z</time>
      </trkpt>
      <trkpt lat="49.1983" lon="4.0189">
        <ele>95.6</ele>
        <time>2026-08-20T08:29:20Z</time>
      </trkpt>
      <trkpt lat="49.19822" lon="4.01888">
        <ele>95.5</ele>
        <time>2026-08-20T08:29:26Z</time>
      </trkpt>
      <trkpt lat="49.19815" lon="4.01886">
        <ele>95.4</ele>
        <time>2026-08-20T08:29:31Z</time>
      </trkpt>
      <trkpt lat="49.19809" lon="4.01884">
        <ele>95.4</ele>
        <time>2026-08-20T08:29:36Z</time>
      </trkpt>
      <trkpt lat="49.19802" lon="4.01881">
        <ele>95.3</ele>
        <time>2026-08-20T08:29:42Z</time>
      </trkpt>
      <trkpt lat="49.19795" lon="4.01878">
        <ele>95.3</ele>
        <time>2026-08-20T08:29:47Z</time>
      </trkpt>
      <trkpt lat="49.19789" lon="4.01876">
        <ele>95.2</ele>
        <time>2026-08-20T08:29:52Z</time>
      </trkpt>
      <trkpt lat="49.19782" lon="4.01872">
        <ele>95.1</ele>
        <time>2026-08-20T08:29:58Z</time>
      </trkpt>
      <trkpt lat="49.19775" lon="4.0187">
        <ele>95</ele>
        <time>2026-08-20T08:30:03Z</time>
      </trkpt>
      <trkpt lat="49.19767" lon="4.01867">
        <ele>94.9</ele>
        <time>2026-08-20T08:30:08Z</time>
      </trkpt>
      <trkpt lat="49.19759" lon="4.01865">
        <ele>94.8</ele>
        <time>2026-08-20T08:30:14Z</time>
      </trkpt>
      <trkpt lat="49.19753" lon="4.01864">
        <ele>94.7</ele>
        <time>2026-08-20T08:30:19Z</time>
      </trkpt>
      <trkpt lat="49.19747" lon="4.01862">
        <ele>94.7</ele>
        <time>2026-08-20T08:30:24Z</time>
      </trkpt>
      <trkpt lat="49.19739" lon="4.01859">
        <ele>94.7</ele>
        <time>2026-08-20T08:30:30Z</time>
      </trkpt>
      <trkpt lat="49.19733" lon="4.01856">
        <ele>94.8</ele>
        <time>2026-08-20T08:30:35Z</time>
      </trkpt>
      <trkpt lat="49.19726" lon="4.01853">
        <ele>94.8</ele>
        <time>2026-08-20T08:30:40Z</time>
      </trkpt>
      <trkpt lat="49.19724" lon="4.01852">
        <ele>94.8</ele>
        <time>2026-08-20T08:30:46Z</time>
      </trkpt>
      <trkpt lat="49.19724" lon="4.01852">
        <ele>94.8</ele>
        <time>2026-08-20T08:30:51Z</time>
      </trkpt>
      <trkpt lat="49.19724" lon="4.01852">
        <ele>94.8</ele>
        <time>2026-08-20T08:30:56Z</time>
      </trkpt>
      <trkpt lat="49.19724" lon="4.01852">
        <ele>94.8</ele>
        <time>2026-08-20T08:31:02Z</time>
      </trkpt>
      <trkpt lat="49.19724" lon="4.01852">
        <ele>94.8</ele>
        <time>2026-08-20T08:31:07Z</time>
      </trkpt>
      <trkpt lat="49.19724" lon="4.01852">
        <ele>94.8</ele>
        <time>2026-08-20T08:31:12Z</time>
      </trkpt>
      <trkpt lat="49.19719" lon="4.0185">
        <ele>94.9</ele>
        <time>2026-08-20T08:31:18Z</time>
      </trkpt>
      <trkpt lat="49.19715" lon="4.01853">
        <ele>94.9</ele>
        <time>2026-08-20T08:31:23Z</time>
      </trkpt>
      <trkpt lat="49.19714" lon="4.01862">
        <ele>94.8</ele>
        <time>2026-08-20T08:31:28Z</time>
      </trkpt>
      <trkpt lat="49.19712" lon="4.01873">
        <ele>94.7</ele>
        <time>2026-08-20T08:31:34Z</time>
      </trkpt>
      <trkpt lat="49.1971" lon="4.01881">
        <ele>94.7</ele>
        <time>2026-08-20T08:31:39Z</time>
      </trkpt>
      <trkpt lat="49.19708" lon="4.01883">
        <ele>94.7</ele>
        <time>2026-08-20T08:31:44Z</time>
      </trkpt>
      <trkpt lat="49.19701" lon="4.01886">
        <ele>94.7</ele>
        <time>2026-08-20T08:31:50Z</time>
      </trkpt>
      <trkpt lat="49.19698" lon="4.01894">
        <ele>94.7</ele>
        <time>2026-08-20T08:31:55Z</time>
      </trkpt>
      <trkpt lat="49.19697" lon="4.01903">
        <ele>94.7</ele>
        <time>2026-08-20T08:32:00Z</time>
      </trkpt>
      <trkpt lat="49.19694" lon="4.01913">
        <ele>94.7</ele>
        <time>2026-08-20T08:32:06Z</time>
      </trkpt>
      <trkpt lat="49.19693" lon="4.01921">
        <ele>94.7</ele>
        <time>2026-08-20T08:32:11Z</time>
      </trkpt>
      <trkpt lat="49.19693" lon="4.01926">
        <ele>94.7</ele>
        <time>2026-08-20T08:32:16Z</time>
      </trkpt>
      <trkpt lat="49.19693" lon="4.01926">
        <ele>94.7</ele>
        <time>2026-08-20T08:32:22Z</time>
      </trkpt>
      <trkpt lat="49.19692" lon="4.01927">
        <ele>94.7</ele>
        <time>2026-08-20T08:32:27Z</time>
      </trkpt>
      <trkpt lat="49.19691" lon="4.01927">
        <ele>94.7</ele>
        <time>2026-08-20T08:32:32Z</time>
      </trkpt>
      <trkpt lat="49.19691" lon="4.01927">
        <ele>94.7</ele>
        <time>2026-08-20T08:32:38Z</time>
      </trkpt>
      <trkpt lat="49.19691" lon="4.0193">
        <ele>94.7</ele>
        <time>2026-08-20T08:32:43Z</time>
      </trkpt>
      <trkpt lat="49.19689" lon="4.01939">
        <ele>94.7</ele>
        <time>2026-08-20T08:32:48Z</time>
      </trkpt>
      <trkpt lat="49.19687" lon="4.01947">
        <ele>94.8</ele>
        <time>2026-08-20T08:32:54Z</time>
      </trkpt>
      <trkpt lat="49.19685" lon="4.01955">
        <ele>94.8</ele>
        <time>2026-08-20T08:32:59Z</time>
      </trkpt>
      <trkpt lat="49.19683" lon="4.01963">
        <ele>94.8</ele>
        <time>2026-08-20T08:33:04Z</time>
      </trkpt>
      <trkpt lat="49.1968" lon="4.01973">
        <ele>94.8</ele>
        <time>2026-08-20T08:33:10Z</time>
      </trkpt>
      <trkpt lat="49.19679" lon="4.01979">
        <ele>94.9</ele>
        <time>2026-08-20T08:33:15Z</time>
      </trkpt>
      <trkpt lat="49.19678" lon="4.01983">
        <ele>94.9</ele>
        <time>2026-08-20T08:33:20Z</time>
      </trkpt>
      <trkpt lat="49.19676" lon="4.01993">
        <ele>94.9</ele>
        <time>2026-08-20T08:33:26Z</time>
      </trkpt>
      <trkpt lat="49.19674" lon="4.02001">
        <ele>94.9</ele>
        <time>2026-08-20T08:33:31Z</time>
      </trkpt>
      <trkpt lat="49.19672" lon="4.0201">
        <ele>94.9</ele>
        <time>2026-08-20T08:33:36Z</time>
      </trkpt>
      <trkpt lat="49.19669" lon="4.0202">
        <ele>95</ele>
        <time>2026-08-20T08:33:42Z</time>
      </trkpt>
      <trkpt lat="49.19668" lon="4.02029">
        <ele>95</ele>
        <time>2026-08-20T08:33:47Z</time>
      </trkpt>
      <trkpt lat="49.19667" lon="4.02034">
        <ele>95</ele>
        <time>2026-08-20T08:33:52Z</time>
      </trkpt>
      <trkpt lat="49.19666" lon="4.02035">
        <ele>95</ele>
        <time>2026-08-20T08:33:58Z</time>
      </trkpt>
      <trkpt lat="49.19664" lon="4.02042">
        <ele>95.1</ele>
        <time>2026-08-20T08:34:03Z</time>
      </trkpt>
      <trkpt lat="49.19663" lon="4.02048">
        <ele>95.1</ele>
        <time>2026-08-20T08:34:08Z</time>
      </trkpt>
      <trkpt lat="49.19661" lon="4.02057">
        <ele>95.1</ele>
        <time>2026-08-20T08:34:14Z</time>
      </trkpt>
      <trkpt lat="49.1966" lon="4.02063">
        <ele>95.2</ele>
        <time>2026-08-20T08:34:19Z</time>
      </trkpt>
      <trkpt lat="49.19661" lon="4.02069">
        <ele>95.1</ele>
        <time>2026-08-20T08:34:24Z</time>
      </trkpt>
      <trkpt lat="49.19662" lon="4.0208">
        <ele>95.1</ele>
        <time>2026-08-20T08:34:30Z</time>
      </trkpt>
      <trkpt lat="49.1966" lon="4.0209">
        <ele>95.2</ele>
        <time>2026-08-20T08:34:35Z</time>
      </trkpt>
      <trkpt lat="49.19658" lon="4.02096">
        <ele>95.3</ele>
        <time>2026-08-20T08:34:40Z</time>
      </trkpt>
      <trkpt lat="49.19657" lon="4.02105">
        <ele>95.5</ele>
        <time>2026-08-20T08:34:46Z</time>
      </trkpt>
      <trkpt lat="49.19655" lon="4.02114">
        <ele>95.6</ele>
        <time>2026-08-20T08:34:51Z</time>
      </trkpt>
      <trkpt lat="49.19654" lon="4.02122">
        <ele>95.7</ele>
        <time>2026-08-20T08:34:56Z</time>
      </trkpt>
      <trkpt lat="49.19652" lon="4.02133">
        <ele>95.8</ele>
        <time>2026-08-20T08:35:02Z</time>
      </trkpt>
      <trkpt lat="49.19651" lon="4.02142">
        <ele>95.9</ele>
        <time>2026-08-20T08:35:07Z</time>
      </trkpt>
      <trkpt lat="49.19649" lon="4.02152">
        <ele>96.1</ele>
        <time>2026-08-20T08:35:12Z</time>
      </trkpt>
      <trkpt lat="49.19646" lon="4.02163">
        <ele>96.2</ele>
        <time>2026-08-20T08:35:18Z</time>
      </trkpt>
      <trkpt lat="49.19645" lon="4.02172">
        <ele>96.4</ele>
        <time>2026-08-20T08:35:23Z</time>
      </trkpt>
      <trkpt lat="49.19643" lon="4.0218">
        <ele>96.7</ele>
        <time>2026-08-20T08:35:28Z</time>
      </trkpt>
      <trkpt lat="49.19642" lon="4.02187">
        <ele>97</ele>
        <time>2026-08-20T08:35:34Z</time>
      </trkpt>
      <trkpt lat="49.19642" lon="4.02192">
        <ele>97.1</ele>
        <time>2026-08-20T08:35:39Z</time>
      </trkpt>
      <trkpt lat="49.19641" lon="4.02196">
        <ele>97.3</ele>
        <time>2026-08-20T08:35:44Z</time>
      </trkpt>
      <trkpt lat="49.19638" lon="4.02208">
        <ele>97.7</ele>
        <time>2026-08-20T08:35:50Z</time>
      </trkpt>
      <trkpt lat="49.19637" lon="4.02216">
        <ele>97.9</ele>
        <time>2026-08-20T08:35:55Z</time>
      </trkpt>
      <trkpt lat="49.19635" lon="4.02226">
        <ele>98.2</ele>
        <time>2026-08-20T08:36:00Z</time>
      </trkpt>
      <trkpt lat="49.19633" lon="4.02236">
        <ele>98.6</ele>
        <time>2026-08-20T08:36:06Z</time>
      </trkpt>
      <trkpt lat="49.19631" lon="4.02246">
        <ele>98.9</ele>
        <time>2026-08-20T08:36:11Z</time>
      </trkpt>
      <trkpt lat="49.1963" lon="4.02255">
        <ele>99.2</ele>
        <time>2026-08-20T08:36:16Z</time>
      </trkpt>
      <trkpt lat="49.19627" lon="4.02265">
        <ele>99.6</ele>
        <time>2026-08-20T08:36:22Z</time>
      </trkpt>
      <trkpt lat="49.19626" lon="4.02275">
        <ele>100.1</ele>
        <time>2026-08-20T08:36:27Z</time>
      </trkpt>
      <trkpt lat="49.19624" lon="4.02284">
        <ele>100.4</ele>
        <time>2026-08-20T08:36:32Z</time>
      </trkpt>
      <trkpt lat="49.19622" lon="4.02295">
        <ele>100.9</ele>
        <time>2026-08-20T08:36:38Z</time>
      </trkpt>
      <trkpt lat="49.19621" lon="4.02304">
        <ele>101.2</ele>
        <time>2026-08-20T08:36:43Z</time>
      </trkpt>
      <trkpt lat="49.19619" lon="4.02313">
        <ele>101.6</ele>
        <time>2026-08-20T08:36:48Z</time>
      </trkpt>
      <trkpt lat="49.19617" lon="4.02324">
        <ele>102</ele>
        <time>2026-08-20T08:36:54Z</time>
      </trkpt>
      <trkpt lat="49.19615" lon="4.02334">
        <ele>102.4</ele>
        <time>2026-08-20T08:36:59Z</time>
      </trkpt>
      <trkpt lat="49.19614" lon="4.02343">
        <ele>102.7</ele>
        <time>2026-08-20T08:37:04Z</time>
      </trkpt>
      <trkpt lat="49.19612" lon="4.02355">
        <ele>103</ele>
        <time>2026-08-20T08:37:10Z</time>
      </trkpt>
      <trkpt lat="49.1961" lon="4.02364">
        <ele>103.3</ele>
        <time>2026-08-20T08:37:15Z</time>
      </trkpt>
      <trkpt lat="49.19608" lon="4.02373">
        <ele>103.6</ele>
        <time>2026-08-20T08:37:20Z</time>
      </trkpt>
      <trkpt lat="49.19606" lon="4.02385">
        <ele>104</ele>
        <time>2026-08-20T08:37:26Z</time>
      </trkpt>
      <trkpt lat="49.19605" lon="4.02392">
        <ele>104.2</ele>
        <time>2026-08-20T08:37:31Z</time>
      </trkpt>
      <trkpt lat="49.19603" lon="4.02401">
        <ele>104.5</ele>
        <time>2026-08-20T08:37:36Z</time>
      </trkpt>
      <trkpt lat="49.19603" lon="4.02405">
        <ele>104.6</ele>
        <time>2026-08-20T08:37:42Z</time>
      </trkpt>
      <trkpt lat="49.19603" lon="4.02405">
        <ele>104.6</ele>
        <time>2026-08-20T08:37:47Z</time>
      </trkpt>
      <trkpt lat="49.19603" lon="4.02405">
        <ele>104.6</ele>
        <time>2026-08-20T08:37:52Z</time>
      </trkpt>
      <trkpt lat="49.196" lon="4.02415">
        <ele>104.9</ele>
        <time>2026-08-20T08:37:58Z</time>
      </trkpt>
      <trkpt lat="49.19599" lon="4.02424">
        <ele>105.3</ele>
        <time>2026-08-20T08:38:03Z</time>
      </trkpt>
      <trkpt lat="49.19598" lon="4.02432">
        <ele>105.6</ele>
        <time>2026-08-20T08:38:08Z</time>
      </trkpt>
      <trkpt lat="49.19597" lon="4.02433">
        <ele>105.6</ele>
        <time>2026-08-20T08:38:14Z</time>
      </trkpt>
      <trkpt lat="49.19593" lon="4.02435">
        <ele>105.7</ele>
        <time>2026-08-20T08:38:19Z</time>
      </trkpt>
      <trkpt lat="49.19593" lon="4.02438">
        <ele>105.8</ele>
        <time>2026-08-20T08:38:24Z</time>
      </trkpt>
      <trkpt lat="49.19591" lon="4.02445">
        <ele>106</ele>
        <time>2026-08-20T08:38:30Z</time>
      </trkpt>
      <trkpt lat="49.1959" lon="4.02454">
        <ele>106.3</ele>
        <time>2026-08-20T08:38:35Z</time>
      </trkpt>
      <trkpt lat="49.19588" lon="4.02462">
        <ele>106.6</ele>
        <time>2026-08-20T08:38:40Z</time>
      </trkpt>
      <trkpt lat="49.19586" lon="4.02473">
        <ele>107</ele>
        <time>2026-08-20T08:38:46Z</time>
      </trkpt>
      <trkpt lat="49.19584" lon="4.02482">
        <ele>107.4</ele>
        <time>2026-08-20T08:38:51Z</time>
      </trkpt>
      <trkpt lat="49.19583" lon="4.02491">
        <ele>107.7</ele>
        <time>2026-08-20T08:38:56Z</time>
      </trkpt>
      <trkpt lat="49.19582" lon="4.02501">
        <ele>108.1</ele>
        <time>2026-08-20T08:39:02Z</time>
      </trkpt>
      <trkpt lat="49.1958" lon="4.02509">
        <ele>108.4</ele>
        <time>2026-08-20T08:39:07Z</time>
      </trkpt>
      <trkpt lat="49.19578" lon="4.02517">
        <ele>108.7</ele>
        <time>2026-08-20T08:39:12Z</time>
      </trkpt>
      <trkpt lat="49.19576" lon="4.02527">
        <ele>109.1</ele>
        <time>2026-08-20T08:39:18Z</time>
      </trkpt>
      <trkpt lat="49.19575" lon="4.02533">
        <ele>109.3</ele>
        <time>2026-08-20T08:39:23Z</time>
      </trkpt>
      <trkpt lat="49.19575" lon="4.02536">
        <ele>109.4</ele>
        <time>2026-08-20T08:39:28Z</time>
      </trkpt>
      <trkpt lat="49.19574" lon="4.02539">
        <ele>109.5</ele>
        <time>2026-08-20T08:39:34Z</time>
      </trkpt>
      <trkpt lat="49.19574" lon="4.02539">
        <ele>109.5</ele>
        <time>2026-08-20T08:39:39Z</time>
      </trkpt>
      <trkpt lat="49.19573" lon="4.02548">
        <ele>109.8</ele>
        <time>2026-08-20T08:39:44Z</time>
      </trkpt>
      <trkpt lat="49.19571" lon="4.02558">
        <ele>110.2</ele>
        <time>2026-08-20T08:39:50Z</time>
      </trkpt>
      <trkpt lat="49.19569" lon="4.02566">
        <ele>110.4</ele>
        <time>2026-08-20T08:39:55Z</time>
      </trkpt>
      <trkpt lat="49.19568" lon="4.02573">
        <ele>110.7</ele>
        <time>2026-08-20T08:40:00Z</time>
      </trkpt>
      <trkpt lat="49.19567" lon="4.02577">
        <ele>110.8</ele>
        <time>2026-08-20T08:40:06Z</time>
      </trkpt>
      <trkpt lat="49.19567" lon="4.02577">
        <ele>110.8</ele>
        <time>2026-08-20T08:40:11Z</time>
      </trkpt>
      <trkpt lat="49.19567" lon="4.02578">
        <ele>110.8</ele>
        <time>2026-08-20T08:40:16Z</time>
      </trkpt>
      <trkpt lat="49.19569" lon="4.02587">
        <ele>111.1</ele>
        <time>2026-08-20T08:40:22Z</time>
      </trkpt>
      <trkpt lat="49.19568" lon="4.02592">
        <ele>111.2</ele>
        <time>2026-08-20T08:40:27Z</time>
      </trkpt>
      <trkpt lat="49.19568" lon="4.02595">
        <ele>111.3</ele>
        <time>2026-08-20T08:40:32Z</time>
      </trkpt>
      <trkpt lat="49.19567" lon="4.02596">
        <ele>111.3</ele>
        <time>2026-08-20T08:40:38Z</time>
      </trkpt>
      <trkpt lat="49.19566" lon="4.02601">
        <ele>111.4</ele>
        <time>2026-08-20T08:40:43Z</time>
      </trkpt>
      <trkpt lat="49.19564" lon="4.02609">
        <ele>111.5</ele>
        <time>2026-08-20T08:40:48Z</time>
      </trkpt>
      <trkpt lat="49.19564" lon="4.02617">
        <ele>111.7</ele>
        <time>2026-08-20T08:40:54Z</time>
      </trkpt>
      <trkpt lat="49.19562" lon="4.0262">
        <ele>111.8</ele>
        <time>2026-08-20T08:40:59Z</time>
      </trkpt>
      <trkpt lat="49.19563" lon="4.02621">
        <ele>111.8</ele>
        <time>2026-08-20T08:41:04Z</time>
      </trkpt>
      <trkpt lat="49.1956" lon="4.0263">
        <ele>112</ele>
        <time>2026-08-20T08:41:10Z</time>
      </trkpt>
      <trkpt lat="49.19558" lon="4.02639">
        <ele>112.1</ele>
        <time>2026-08-20T08:41:15Z</time>
      </trkpt>
      <trkpt lat="49.19556" lon="4.02647">
        <ele>112.3</ele>
        <time>2026-08-20T08:41:20Z</time>
      </trkpt>
      <trkpt lat="49.19554" lon="4.02657">
        <ele>112.5</ele>
        <time>2026-08-20T08:41:26Z</time>
      </trkpt>
      <trkpt lat="49.19552" lon="4.02665">
        <ele>112.6</ele>
        <time>2026-08-20T08:41:31Z</time>
      </trkpt>
      <trkpt lat="49.19551" lon="4.02674">
        <ele>112.9</ele>
        <time>2026-08-20T08:41:36Z</time>
      </trkpt>
      <trkpt lat="49.19548" lon="4.02685">
        <ele>113.2</ele>
        <time>2026-08-20T08:41:42Z</time>
      </trkpt>
      <trkpt lat="49.19546" lon="4.02694">
        <ele>113.5</ele>
        <time>2026-08-20T08:41:47Z</time>
      </trkpt>
      <trkpt lat="49.19544" lon="4.02702">
        <ele>113.8</ele>
        <time>2026-08-20T08:41:52Z</time>
      </trkpt>
      <trkpt lat="49.19542" lon="4.02713">
        <ele>114.2</ele>
        <time>2026-08-20T08:41:58Z</time>
      </trkpt>
      <trkpt lat="49.1954" lon="4.02722">
        <ele>114.5</ele>
        <time>2026-08-20T08:42:03Z</time>
      </trkpt>
      <trkpt lat="49.19537" lon="4.02731">
        <ele>114.8</ele>
        <time>2026-08-20T08:42:08Z</time>
      </trkpt>
      <trkpt lat="49.19535" lon="4.02741">
        <ele>115.1</ele>
        <time>2026-08-20T08:42:14Z</time>
      </trkpt>
      <trkpt lat="49.19533" lon="4.02749">
        <ele>115.4</ele>
        <time>2026-08-20T08:42:19Z</time>
      </trkpt>
      <trkpt lat="49.19531" lon="4.02759">
        <ele>115.7</ele>
        <time>2026-08-20T08:42:24Z</time>
      </trkpt>
      <trkpt lat="49.19529" lon="4.02769">
        <ele>116</ele>
        <time>2026-08-20T08:42:30Z</time>
      </trkpt>
      <trkpt lat="49.19528" lon="4.02777">
        <ele>116.3</ele>
        <time>2026-08-20T08:42:35Z</time>
      </trkpt>
      <trkpt lat="49.19525" lon="4.02785">
        <ele>116.6</ele>
        <time>2026-08-20T08:42:40Z</time>
      </trkpt>
      <trkpt lat="49.19523" lon="4.02796">
        <ele>116.9</ele>
        <time>2026-08-20T08:42:46Z</time>
      </trkpt>
      <trkpt lat="49.19521" lon="4.02804">
        <ele>117.2</ele>
        <time>2026-08-20T08:42:51Z</time>
      </trkpt>
      <trkpt lat="49.19519" lon="4.02813">
        <ele>117.5</ele>
        <time>2026-08-20T08:42:56Z</time>
      </trkpt>
      <trkpt lat="49.19517" lon="4.02823">
        <ele>117.8</ele>
        <time>2026-08-20T08:43:02Z</time>
      </trkpt>
      <trkpt lat="49.19514" lon="4.02832">
        <ele>118.1</ele>
        <time>2026-08-20T08:43:07Z</time>
      </trkpt>
      <trkpt lat="49.19512" lon="4.02841">
        <ele>118.3</ele>
        <time>2026-08-20T08:43:12Z</time>
      </trkpt>
      <trkpt lat="49.1951" lon="4.02851">
        <ele>118.4</ele>
        <time>2026-08-20T08:43:18Z</time>
      </trkpt>
      <trkpt lat="49.19508" lon="4.02859">
        <ele>118.5</ele>
        <time>2026-08-20T08:43:23Z</time>
      </trkpt>
      <trkpt lat="49.19505" lon="4.02868">
        <ele>118.6</ele>
        <time>2026-08-20T08:43:28Z</time>
      </trkpt>
      <trkpt lat="49.19502" lon="4.02878">
        <ele>118.6</ele>
        <time>2026-08-20T08:43:34Z</time>
      </trkpt>
      <trkpt lat="49.195" lon="4.02888">
        <ele>118.7</ele>
        <time>2026-08-20T08:43:39Z</time>
      </trkpt>
      <trkpt lat="49.19497" lon="4.02896">
        <ele>118.7</ele>
        <time>2026-08-20T08:43:44Z</time>
      </trkpt>
      <trkpt lat="49.19494" lon="4.02907">
        <ele>118.7</ele>
        <time>2026-08-20T08:43:50Z</time>
      </trkpt>
      <trkpt lat="49.19492" lon="4.02912">
        <ele>118.7</ele>
        <time>2026-08-20T08:43:55Z</time>
      </trkpt>
      <trkpt lat="49.1949" lon="4.0292">
        <ele>118.8</ele>
        <time>2026-08-20T08:44:00Z</time>
      </trkpt>
      <trkpt lat="49.19488" lon="4.02931">
        <ele>119</ele>
        <time>2026-08-20T08:44:06Z</time>
      </trkpt>
      <trkpt lat="49.19487" lon="4.02939">
        <ele>119.2</ele>
        <time>2026-08-20T08:44:11Z</time>
      </trkpt>
      <trkpt lat="49.19486" lon="4.02948">
        <ele>119.4</ele>
        <time>2026-08-20T08:44:16Z</time>
      </trkpt>
      <trkpt lat="49.19485" lon="4.02959">
        <ele>119.6</ele>
        <time>2026-08-20T08:44:22Z</time>
      </trkpt>
      <trkpt lat="49.19484" lon="4.02967">
        <ele>119.7</ele>
        <time>2026-08-20T08:44:27Z</time>
      </trkpt>
      <trkpt lat="49.19482" lon="4.02977">
        <ele>119.9</ele>
        <time>2026-08-20T08:44:32Z</time>
      </trkpt>
      <trkpt lat="49.1948" lon="4.02989">
        <ele>120</ele>
        <time>2026-08-20T08:44:38Z</time>
      </trkpt>
      <trkpt lat="49.19479" lon="4.02997">
        <ele>120.2</ele>
        <time>2026-08-20T08:44:43Z</time>
      </trkpt>
      <trkpt lat="49.19478" lon="4.03007">
        <ele>120.5</ele>
        <time>2026-08-20T08:44:48Z</time>
      </trkpt>
      <trkpt lat="49.19477" lon="4.03018">
        <ele>120.8</ele>
        <time>2026-08-20T08:44:54Z</time>
      </trkpt>
      <trkpt lat="49.19476" lon="4.03026">
        <ele>121.1</ele>
        <time>2026-08-20T08:44:59Z</time>
      </trkpt>
      <trkpt lat="49.19475" lon="4.03035">
        <ele>121.4</ele>
        <time>2026-08-20T08:45:04Z</time>
      </trkpt>
      <trkpt lat="49.19474" lon="4.03045">
        <ele>121.7</ele>
        <time>2026-08-20T08:45:10Z</time>
      </trkpt>
      <trkpt lat="49.19473" lon="4.03053">
        <ele>121.9</ele>
        <time>2026-08-20T08:45:15Z</time>
      </trkpt>
      <trkpt lat="49.19472" lon="4.03062">
        <ele>122.2</ele>
        <time>2026-08-20T08:45:20Z</time>
      </trkpt>
      <trkpt lat="49.19471" lon="4.03073">
        <ele>122.6</ele>
        <time>2026-08-20T08:45:26Z</time>
      </trkpt>
      <trkpt lat="49.1947" lon="4.03082">
        <ele>122.9</ele>
        <time>2026-08-20T08:45:31Z</time>
      </trkpt>
      <trkpt lat="49.19469" lon="4.03093">
        <ele>123.3</ele>
        <time>2026-08-20T08:45:36Z</time>
      </trkpt>
      <trkpt lat="49.19468" lon="4.03103">
        <ele>123.8</ele>
        <time>2026-08-20T08:45:42Z</time>
      </trkpt>
      <trkpt lat="49.19467" lon="4.03113">
        <ele>124.2</ele>
        <time>2026-08-20T08:45:47Z</time>
      </trkpt>
      <trkpt lat="49.19465" lon="4.03121">
        <ele>124.5</ele>
        <time>2026-08-20T08:45:52Z</time>
      </trkpt>
      <trkpt lat="49.19464" lon="4.03132">
        <ele>125</ele>
        <time>2026-08-20T08:45:58Z</time>
      </trkpt>
      <trkpt lat="49.19464" lon="4.0314">
        <ele>125.4</ele>
        <time>2026-08-20T08:46:03Z</time>
      </trkpt>
      <trkpt lat="49.19463" lon="4.03148">
        <ele>125.8</ele>
        <time>2026-08-20T08:46:08Z</time>
      </trkpt>
      <trkpt lat="49.19461" lon="4.03159">
        <ele>126.2</ele>
        <time>2026-08-20T08:46:14Z</time>
      </trkpt>
      <trkpt lat="49.1946" lon="4.03167">
        <ele>126.6</ele>
        <time>2026-08-20T08:46:19Z</time>
      </trkpt>
      <trkpt lat="49.19459" lon="4.03176">
        <ele>126.9</ele>
        <time>2026-08-20T08:46:24Z</time>
      </trkpt>
      <trkpt lat="49.19458" lon="4.03185">
        <ele>127.3</ele>
        <time>2026-08-20T08:46:30Z</time>
      </trkpt>
      <trkpt lat="49.19457" lon="4.03193">
        <ele>127.6</ele>
        <time>2026-08-20T08:46:35Z</time>
      </trkpt>
      <trkpt lat="49.19458" lon="4.03194">
        <ele>127.6</ele>
        <time>2026-08-20T08:46:40Z</time>
      </trkpt>
      <trkpt lat="49.19456" lon="4.03201">
        <ele>127.8</ele>
        <time>2026-08-20T08:46:46Z</time>
      </trkpt>
      <trkpt lat="49.19455" lon="4.03208">
        <ele>128.1</ele>
        <time>2026-08-20T08:46:51Z</time>
      </trkpt>
      <trkpt lat="49.19455" lon="4.03217">
        <ele>128.5</ele>
        <time>2026-08-20T08:46:56Z</time>
      </trkpt>
      <trkpt lat="49.19454" lon="4.03227">
        <ele>128.8</ele>
        <time>2026-08-20T08:47:02Z</time>
      </trkpt>
      <trkpt lat="49.19452" lon="4.03235">
        <ele>129.1</ele>
        <time>2026-08-20T08:47:07Z</time>
      </trkpt>
      <trkpt lat="49.19452" lon="4.03244">
        <ele>129.4</ele>
        <time>2026-08-20T08:47:12Z</time>
      </trkpt>
      <trkpt lat="49.19451" lon="4.03254">
        <ele>129.8</ele>
        <time>2026-08-20T08:47:18Z</time>
      </trkpt>
      <trkpt lat="49.1945" lon="4.03258">
        <ele>130</ele>
        <time>2026-08-20T08:47:23Z</time>
      </trkpt>
      <trkpt lat="49.19449" lon="4.03266">
        <ele>130.4</ele>
        <time>2026-08-20T08:47:28Z</time>
      </trkpt>
      <trkpt lat="49.19448" lon="4.03277">
        <ele>130.9</ele>
        <time>2026-08-20T08:47:34Z</time>
      </trkpt>
      <trkpt lat="49.19447" lon="4.03286">
        <ele>131.3</ele>
        <time>2026-08-20T08:47:39Z</time>
      </trkpt>
      <trkpt lat="49.19446" lon="4.03294">
        <ele>131.7</ele>
        <time>2026-08-20T08:47:44Z</time>
      </trkpt>
      <trkpt lat="49.19445" lon="4.03305">
        <ele>132.2</ele>
        <time>2026-08-20T08:47:50Z</time>
      </trkpt>
      <trkpt lat="49.19444" lon="4.03314">
        <ele>132.6</ele>
        <time>2026-08-20T08:47:55Z</time>
      </trkpt>
      <trkpt lat="49.19443" lon="4.03319">
        <ele>132.9</ele>
        <time>2026-08-20T08:48:00Z</time>
      </trkpt>
      <trkpt lat="49.19443" lon="4.03328">
        <ele>133.4</ele>
        <time>2026-08-20T08:48:06Z</time>
      </trkpt>
      <trkpt lat="49.19442" lon="4.03336">
        <ele>133.8</ele>
        <time>2026-08-20T08:48:11Z</time>
      </trkpt>
      <trkpt lat="49.19441" lon="4.03344">
        <ele>134.3</ele>
        <time>2026-08-20T08:48:16Z</time>
      </trkpt>
      <trkpt lat="49.19439" lon="4.03355">
        <ele>135</ele>
        <time>2026-08-20T08:48:22Z</time>
      </trkpt>
      <trkpt lat="49.19439" lon="4.03363">
        <ele>135.5</ele>
        <time>2026-08-20T08:48:27Z</time>
      </trkpt>
      <trkpt lat="49.19437" lon="4.03372">
        <ele>136</ele>
        <time>2026-08-20T08:48:32Z</time>
      </trkpt>
      <trkpt lat="49.19437" lon="4.03382">
        <ele>136.7</ele>
        <time>2026-08-20T08:48:38Z</time>
      </trkpt>
      <trkpt lat="49.19436" lon="4.0339">
        <ele>137.2</ele>
        <time>2026-08-20T08:48:43Z</time>
      </trkpt>
      <trkpt lat="49.19435" lon="4.03399">
        <ele>137.8</ele>
        <time>2026-08-20T08:48:48Z</time>
      </trkpt>
      <trkpt lat="49.19434" lon="4.03409">
        <ele>138.5</ele>
        <time>2026-08-20T08:48:54Z</time>
      </trkpt>
      <trkpt lat="49.19433" lon="4.03413">
        <ele>138.8</ele>
        <time>2026-08-20T08:48:59Z</time>
      </trkpt>
      <trkpt lat="49.19432" lon="4.03422">
        <ele>139.2</ele>
        <time>2026-08-20T08:49:04Z</time>
      </trkpt>
      <trkpt lat="49.19432" lon="4.03433">
        <ele>139.6</ele>
        <time>2026-08-20T08:49:10Z</time>
      </trkpt>
      <trkpt lat="49.1943" lon="4.03439">
        <ele>139.8</ele>
        <time>2026-08-20T08:49:15Z</time>
      </trkpt>
      <trkpt lat="49.1943" lon="4.03442">
        <ele>139.9</ele>
        <time>2026-08-20T08:49:20Z</time>
      </trkpt>
      <trkpt lat="49.19429" lon="4.03446">
        <ele>140</ele>
        <time>2026-08-20T08:49:26Z</time>
      </trkpt>
      <trkpt lat="49.19427" lon="4.03456">
        <ele>140.4</ele>
        <time>2026-08-20T08:49:31Z</time>
      </trkpt>
      <trkpt lat="49.19425" lon="4.03466">
        <ele>140.7</ele>
        <time>2026-08-20T08:49:36Z</time>
      </trkpt>
      <trkpt lat="49.19424" lon="4.03477">
        <ele>141.1</ele>
        <time>2026-08-20T08:49:42Z</time>
      </trkpt>
      <trkpt lat="49.19422" lon="4.03485">
        <ele>141.4</ele>
        <time>2026-08-20T08:49:47Z</time>
      </trkpt>
      <trkpt lat="49.1942" lon="4.03494">
        <ele>141.7</ele>
        <time>2026-08-20T08:49:52Z</time>
      </trkpt>
      <trkpt lat="49.19418" lon="4.03506">
        <ele>141.9</ele>
        <time>2026-08-20T08:49:58Z</time>
      </trkpt>
      <trkpt lat="49.19416" lon="4.03516">
        <ele>141.8</ele>
        <time>2026-08-20T08:50:03Z</time>
      </trkpt>
      <trkpt lat="49.19414" lon="4.03526">
        <ele>141.6</ele>
        <time>2026-08-20T08:50:08Z</time>
      </trkpt>
      <trkpt lat="49.19411" lon="4.03537">
        <ele>141.5</ele>
        <time>2026-08-20T08:50:14Z</time>
      </trkpt>
      <trkpt lat="49.1941" lon="4.03547">
        <ele>141.4</ele>
        <time>2026-08-20T08:50:19Z</time>
      </trkpt>
      <trkpt lat="49.19408" lon="4.03555">
        <ele>141.3</ele>
        <time>2026-08-20T08:50:24Z</time>
      </trkpt>
      <trkpt lat="49.19406" lon="4.03566">
        <ele>141.2</ele>
        <time>2026-08-20T08:50:30Z</time>
      </trkpt>
      <trkpt lat="49.19404" lon="4.03575">
        <ele>141.1</ele>
        <time>2026-08-20T08:50:35Z</time>
      </trkpt>
      <trkpt lat="49.19402" lon="4.03584">
        <ele>141</ele>
        <time>2026-08-20T08:50:40Z</time>
      </trkpt>
      <trkpt lat="49.194" lon="4.03594">
        <ele>140.6</ele>
        <time>2026-08-20T08:50:46Z</time>
      </trkpt>
      <trkpt lat="49.19398" lon="4.03602">
        <ele>140.4</ele>
        <time>2026-08-20T08:50:51Z</time>
      </trkpt>
      <trkpt lat="49.19396" lon="4.03611">
        <ele>140.1</ele>
        <time>2026-08-20T08:50:56Z</time>
      </trkpt>
      <trkpt lat="49.19393" lon="4.03623">
        <ele>139.7</ele>
        <time>2026-08-20T08:51:02Z</time>
      </trkpt>
      <trkpt lat="49.19391" lon="4.03632">
        <ele>139.4</ele>
        <time>2026-08-20T08:51:07Z</time>
      </trkpt>
      <trkpt lat="49.19391" lon="4.03633">
        <ele>139.4</ele>
        <time>2026-08-20T08:51:12Z</time>
      </trkpt>
      <trkpt lat="49.1939" lon="4.03636">
        <ele>139.3</ele>
        <time>2026-08-20T08:51:18Z</time>
      </trkpt>
      <trkpt lat="49.19388" lon="4.03644">
        <ele>139.1</ele>
        <time>2026-08-20T08:51:23Z</time>
      </trkpt>
      <trkpt lat="49.19388" lon="4.03647">
        <ele>139</ele>
        <time>2026-08-20T08:51:28Z</time>
      </trkpt>
      <trkpt lat="49.19388" lon="4.03647">
        <ele>139</ele>
        <time>2026-08-20T08:51:34Z</time>
      </trkpt>
      <trkpt lat="49.19388" lon="4.03647">
        <ele>139</ele>
        <time>2026-08-20T08:51:39Z</time>
      </trkpt>
      <trkpt lat="49.19388" lon="4.03647">
        <ele>139</ele>
        <time>2026-08-20T08:51:44Z</time>
      </trkpt>
      <trkpt lat="49.19388" lon="4.03647">
        <ele>139</ele>
        <time>2026-08-20T08:51:50Z</time>
      </trkpt>
      <trkpt lat="49.19388" lon="4.03647">
        <ele>139</ele>
        <time>2026-08-20T08:51:55Z</time>
      </trkpt>
      <trkpt lat="49.19388" lon="4.03647">
        <ele>139</ele>
        <time>2026-08-20T08:52:00Z</time>
      </trkpt>
      <trkpt lat="49.19386" lon="4.03651">
        <ele>138.9</ele>
        <time>2026-08-20T08:52:06Z</time>
      </trkpt>
      <trkpt lat="49.19385" lon="4.0366">
        <ele>138.6</ele>
        <time>2026-08-20T08:52:11Z</time>
      </trkpt>
      <trkpt lat="49.19383" lon="4.03668">
        <ele>138.3</ele>
        <time>2026-08-20T08:52:16Z</time>
      </trkpt>
      <trkpt lat="49.1938" lon="4.03679">
        <ele>137.9</ele>
        <time>2026-08-20T08:52:22Z</time>
      </trkpt>
      <trkpt lat="49.19378" lon="4.03689">
        <ele>137.5</ele>
        <time>2026-08-20T08:52:27Z</time>
      </trkpt>
      <trkpt lat="49.19375" lon="4.03699">
        <ele>137.1</ele>
        <time>2026-08-20T08:52:32Z</time>
      </trkpt>
      <trkpt lat="49.19373" lon="4.0371">
        <ele>136.7</ele>
        <time>2026-08-20T08:52:38Z</time>
      </trkpt>
      <trkpt lat="49.1937" lon="4.03718">
        <ele>136.4</ele>
        <time>2026-08-20T08:52:43Z</time>
      </trkpt>
      <trkpt lat="49.19369" lon="4.03728">
        <ele>135.9</ele>
        <time>2026-08-20T08:52:48Z</time>
      </trkpt>
      <trkpt lat="49.19368" lon="4.03741">
        <ele>135.4</ele>
        <time>2026-08-20T08:52:54Z</time>
      </trkpt>
      <trkpt lat="49.19368" lon="4.03751">
        <ele>135</ele>
        <time>2026-08-20T08:52:59Z</time>
      </trkpt>
      <trkpt lat="49.19368" lon="4.03762">
        <ele>134.6</ele>
        <time>2026-08-20T08:53:04Z</time>
      </trkpt>
      <trkpt lat="49.19368" lon="4.03774">
        <ele>134.3</ele>
        <time>2026-08-20T08:53:10Z</time>
      </trkpt>
      <trkpt lat="49.19369" lon="4.03784">
        <ele>134</ele>
        <time>2026-08-20T08:53:15Z</time>
      </trkpt>
      <trkpt lat="49.19369" lon="4.03794">
        <ele>133.6</ele>
        <time>2026-08-20T08:53:20Z</time>
      </trkpt>
      <trkpt lat="49.19369" lon="4.03806">
        <ele>133.3</ele>
        <time>2026-08-20T08:53:26Z</time>
      </trkpt>
      <trkpt lat="49.19369" lon="4.03816">
        <ele>133</ele>
        <time>2026-08-20T08:53:31Z</time>
      </trkpt>
      <trkpt lat="49.19369" lon="4.03826">
        <ele>132.7</ele>
        <time>2026-08-20T08:53:36Z</time>
      </trkpt>
      <trkpt lat="49.1937" lon="4.03839">
        <ele>132.2</ele>
        <time>2026-08-20T08:53:42Z</time>
      </trkpt>
      <trkpt lat="49.1937" lon="4.03848">
        <ele>131.9</ele>
        <time>2026-08-20T08:53:47Z</time>
      </trkpt>
      <trkpt lat="49.19369" lon="4.0386">
        <ele>131.5</ele>
        <time>2026-08-20T08:53:52Z</time>
      </trkpt>
      <trkpt lat="49.19369" lon="4.03873">
        <ele>131</ele>
        <time>2026-08-20T08:53:58Z</time>
      </trkpt>
      <trkpt lat="49.19368" lon="4.03883">
        <ele>130.6</ele>
        <time>2026-08-20T08:54:03Z</time>
      </trkpt>
      <trkpt lat="49.19369" lon="4.03892">
        <ele>130.3</ele>
        <time>2026-08-20T08:54:08Z</time>
      </trkpt>
      <trkpt lat="49.19369" lon="4.03904">
        <ele>129.9</ele>
        <time>2026-08-20T08:54:14Z</time>
      </trkpt>
      <trkpt lat="49.19368" lon="4.03914">
        <ele>129.5</ele>
        <time>2026-08-20T08:54:19Z</time>
      </trkpt>
      <trkpt lat="49.19367" lon="4.03922">
        <ele>129</ele>
        <time>2026-08-20T08:54:24Z</time>
      </trkpt>
      <trkpt lat="49.19365" lon="4.03928">
        <ele>128.5</ele>
        <time>2026-08-20T08:54:30Z</time>
      </trkpt>
      <trkpt lat="49.19361" lon="4.03936">
        <ele>127.9</ele>
        <time>2026-08-20T08:54:35Z</time>
      </trkpt>
      <trkpt lat="49.19357" lon="4.03943">
        <ele>127.3</ele>
        <time>2026-08-20T08:54:40Z</time>
      </trkpt>
      <trkpt lat="49.19351" lon="4.03953">
        <ele>126.3</ele>
        <time>2026-08-20T08:54:46Z</time>
      </trkpt>
      <trkpt lat="49.19346" lon="4.03961">
        <ele>125.6</ele>
        <time>2026-08-20T08:54:51Z</time>
      </trkpt>
      <trkpt lat="49.19341" lon="4.03968">
        <ele>124.9</ele>
        <time>2026-08-20T08:54:56Z</time>
      </trkpt>
      <trkpt lat="49.19335" lon="4.03977">
        <ele>124</ele>
        <time>2026-08-20T08:55:02Z</time>
      </trkpt>
      <trkpt lat="49.1933" lon="4.03985">
        <ele>123.3</ele>
        <time>2026-08-20T08:55:07Z</time>
      </trkpt>
      <trkpt lat="49.19325" lon="4.03991">
        <ele>122.9</ele>
        <time>2026-08-20T08:55:12Z</time>
      </trkpt>
      <trkpt lat="49.19319" lon="4.04001">
        <ele>122.3</ele>
        <time>2026-08-20T08:55:18Z</time>
      </trkpt>
      <trkpt lat="49.19316" lon="4.04004">
        <ele>122.3</ele>
        <time>2026-08-20T08:55:23Z</time>
      </trkpt>
      <trkpt lat="49.19316" lon="4.04005">
        <ele>122.2</ele>
        <time>2026-08-20T08:55:28Z</time>
      </trkpt>
      <trkpt lat="49.19316" lon="4.04005">
        <ele>122.2</ele>
        <time>2026-08-20T08:55:34Z</time>
      </trkpt>
      <trkpt lat="49.19316" lon="4.04005">
        <ele>122.2</ele>
        <time>2026-08-20T08:55:39Z</time>
      </trkpt>
      <trkpt lat="49.19316" lon="4.04005">
        <ele>122.2</ele>
        <time>2026-08-20T08:55:44Z</time>
      </trkpt>
      <trkpt lat="49.19316" lon="4.04005">
        <ele>122.2</ele>
        <time>2026-08-20T08:55:50Z</time>
      </trkpt>
      <trkpt lat="49.19316" lon="4.04005">
        <ele>122.2</ele>
        <time>2026-08-20T08:55:55Z</time>
      </trkpt>
      <trkpt lat="49.1931" lon="4.0401">
        <ele>122.2</ele>
        <time>2026-08-20T08:56:00Z</time>
      </trkpt>
      <trkpt lat="49.19305" lon="4.04018">
        <ele>122.1</ele>
        <time>2026-08-20T08:56:06Z</time>
      </trkpt>
      <trkpt lat="49.19301" lon="4.04026">
        <ele>122</ele>
        <time>2026-08-20T08:56:11Z</time>
      </trkpt>
      <trkpt lat="49.19298" lon="4.04032">
        <ele>122</ele>
        <time>2026-08-20T08:56:16Z</time>
      </trkpt>
      <trkpt lat="49.19292" lon="4.04037">
        <ele>122.1</ele>
        <time>2026-08-20T08:56:22Z</time>
      </trkpt>
      <trkpt lat="49.19287" lon="4.04045">
        <ele>122.2</ele>
        <time>2026-08-20T08:56:27Z</time>
      </trkpt>
      <trkpt lat="49.19282" lon="4.04052">
        <ele>122.3</ele>
        <time>2026-08-20T08:56:32Z</time>
      </trkpt>
      <trkpt lat="49.19277" lon="4.04061">
        <ele>122.4</ele>
        <time>2026-08-20T08:56:38Z</time>
      </trkpt>
      <trkpt lat="49.19272" lon="4.04069">
        <ele>122.6</ele>
        <time>2026-08-20T08:56:43Z</time>
      </trkpt>
      <trkpt lat="49.19268" lon="4.04076">
        <ele>122.8</ele>
        <time>2026-08-20T08:56:48Z</time>
      </trkpt>
      <trkpt lat="49.19262" lon="4.04081">
        <ele>123.2</ele>
        <time>2026-08-20T08:56:54Z</time>
      </trkpt>
      <trkpt lat="49.19258" lon="4.04088">
        <ele>123.3</ele>
        <time>2026-08-20T08:56:59Z</time>
      </trkpt>
      <trkpt lat="49.19253" lon="4.04096">
        <ele>123.5</ele>
        <time>2026-08-20T08:57:04Z</time>
      </trkpt>
      <trkpt lat="49.1925" lon="4.04106">
        <ele>123.5</ele>
        <time>2026-08-20T08:57:10Z</time>
      </trkpt>
      <trkpt lat="49.19247" lon="4.04113">
        <ele>123.5</ele>
        <time>2026-08-20T08:57:15Z</time>
      </trkpt>
      <trkpt lat="49.19244" lon="4.04122">
        <ele>123.5</ele>
        <time>2026-08-20T08:57:20Z</time>
      </trkpt>
      <trkpt lat="49.1924" lon="4.04132">
        <ele>123.6</ele>
        <time>2026-08-20T08:57:26Z</time>
      </trkpt>
      <trkpt lat="49.19236" lon="4.04142">
        <ele>123.8</ele>
        <time>2026-08-20T08:57:31Z</time>
      </trkpt>
      <trkpt lat="49.19232" lon="4.04147">
        <ele>124</ele>
        <time>2026-08-20T08:57:36Z</time>
      </trkpt>
      <trkpt lat="49.19227" lon="4.04156">
        <ele>124.4</ele>
        <time>2026-08-20T08:57:42Z</time>
      </trkpt>
      <trkpt lat="49.19224" lon="4.04163">
        <ele>124.5</ele>
        <time>2026-08-20T08:57:47Z</time>
      </trkpt>
      <trkpt lat="49.19223" lon="4.04164">
        <ele>124.6</ele>
        <time>2026-08-20T08:57:52Z</time>
      </trkpt>
      <trkpt lat="49.19223" lon="4.04166">
        <ele>124.6</ele>
        <time>2026-08-20T08:57:58Z</time>
      </trkpt>
      <trkpt lat="49.19223" lon="4.04166">
        <ele>124.6</ele>
        <time>2026-08-20T08:58:03Z</time>
      </trkpt>
      <trkpt lat="49.19221" lon="4.04166">
        <ele>124.8</ele>
        <time>2026-08-20T08:58:08Z</time>
      </trkpt>
      <trkpt lat="49.19218" lon="4.04172">
        <ele>125.1</ele>
        <time>2026-08-20T08:58:14Z</time>
      </trkpt>
      <trkpt lat="49.19214" lon="4.04176">
        <ele>125.5</ele>
        <time>2026-08-20T08:58:19Z</time>
      </trkpt>
      <trkpt lat="49.19209" lon="4.0418">
        <ele>125.9</ele>
        <time>2026-08-20T08:58:24Z</time>
      </trkpt>
      <trkpt lat="49.19203" lon="4.04186">
        <ele>126.5</ele>
        <time>2026-08-20T08:58:30Z</time>
      </trkpt>
      <trkpt lat="49.192" lon="4.04192">
        <ele>126.8</ele>
        <time>2026-08-20T08:58:35Z</time>
      </trkpt>
      <trkpt lat="49.19197" lon="4.04197">
        <ele>127.1</ele>
        <time>2026-08-20T08:58:40Z</time>
      </trkpt>
      <trkpt lat="49.19193" lon="4.04207">
        <ele>127.5</ele>
        <time>2026-08-20T08:58:46Z</time>
      </trkpt>
      <trkpt lat="49.19189" lon="4.04212">
        <ele>127.9</ele>
        <time>2026-08-20T08:58:51Z</time>
      </trkpt>
      <trkpt lat="49.19183" lon="4.04218">
        <ele>128.4</ele>
        <time>2026-08-20T08:58:56Z</time>
      </trkpt>
      <trkpt lat="49.19177" lon="4.04226">
        <ele>129</ele>
        <time>2026-08-20T08:59:02Z</time>
      </trkpt>
      <trkpt lat="49.19173" lon="4.0423">
        <ele>129.4</ele>
        <time>2026-08-20T08:59:07Z</time>
      </trkpt>
      <trkpt lat="49.19169" lon="4.04234">
        <ele>129.8</ele>
        <time>2026-08-20T08:59:12Z</time>
      </trkpt>
      <trkpt lat="49.19164" lon="4.04243">
        <ele>130.2</ele>
        <time>2026-08-20T08:59:18Z</time>
      </trkpt>
      <trkpt lat="49.19161" lon="4.04248">
        <ele>130.3</ele>
        <time>2026-08-20T08:59:23Z</time>
      </trkpt>
      <trkpt lat="49.19155" lon="4.04254">
        <ele>130.7</ele>
        <time>2026-08-20T08:59:28Z</time>
      </trkpt>
      <trkpt lat="49.19149" lon="4.04263">
        <ele>130.9</ele>
        <time>2026-08-20T08:59:34Z</time>
      </trkpt>
      <trkpt lat="49.19146" lon="4.04271">
        <ele>131.1</ele>
        <time>2026-08-20T08:59:39Z</time>
      </trkpt>
      <trkpt lat="49.19143" lon="4.04278">
        <ele>131.2</ele>
        <time>2026-08-20T08:59:44Z</time>
      </trkpt>
      <trkpt lat="49.19137" lon="4.04285">
        <ele>131.5</ele>
        <time>2026-08-20T08:59:50Z</time>
      </trkpt>
      <trkpt lat="49.19133" lon="4.04291">
        <ele>131.7</ele>
        <time>2026-08-20T08:59:55Z</time>
      </trkpt>
      <trkpt lat="49.19131" lon="4.043">
        <ele>131.8</ele>
        <time>2026-08-20T09:00:00Z</time>
      </trkpt>
      <trkpt lat="49.19126" lon="4.04307">
        <ele>132.1</ele>
        <time>2026-08-20T09:00:06Z</time>
      </trkpt>
      <trkpt lat="49.19121" lon="4.04316">
        <ele>132.4</ele>
        <time>2026-08-20T09:00:11Z</time>
      </trkpt>
      <trkpt lat="49.19117" lon="4.04324">
        <ele>132.6</ele>
        <time>2026-08-20T09:00:16Z</time>
      </trkpt>
      <trkpt lat="49.19112" lon="4.04331">
        <ele>132.9</ele>
        <time>2026-08-20T09:00:22Z</time>
      </trkpt>
      <trkpt lat="49.1911" lon="4.04331">
        <ele>133.1</ele>
        <time>2026-08-20T09:00:27Z</time>
      </trkpt>
      <trkpt lat="49.19106" lon="4.04333">
        <ele>133.4</ele>
        <time>2026-08-20T09:00:32Z</time>
      </trkpt>
      <trkpt lat="49.19102" lon="4.04337">
        <ele>133.6</ele>
        <time>2026-08-20T09:00:38Z</time>
      </trkpt>
      <trkpt lat="49.19098" lon="4.04343">
        <ele>133.9</ele>
        <time>2026-08-20T09:00:43Z</time>
      </trkpt>
      <trkpt lat="49.19092" lon="4.0435">
        <ele>134.3</ele>
        <time>2026-08-20T09:00:48Z</time>
      </trkpt>
      <trkpt lat="49.19087" lon="4.04357">
        <ele>134.7</ele>
        <time>2026-08-20T09:00:54Z</time>
      </trkpt>
      <trkpt lat="49.19081" lon="4.04362">
        <ele>135.2</ele>
        <time>2026-08-20T09:00:59Z</time>
      </trkpt>
      <trkpt lat="49.19076" lon="4.04365">
        <ele>135.6</ele>
        <time>2026-08-20T09:01:04Z</time>
      </trkpt>
      <trkpt lat="49.19073" lon="4.0437">
        <ele>135.9</ele>
        <time>2026-08-20T09:01:10Z</time>
      </trkpt>
      <trkpt lat="49.19071" lon="4.04375">
        <ele>136.1</ele>
        <time>2026-08-20T09:01:15Z</time>
      </trkpt>
      <trkpt lat="49.19066" lon="4.04378">
        <ele>136.6</ele>
        <time>2026-08-20T09:01:20Z</time>
      </trkpt>
      <trkpt lat="49.19058" lon="4.04382">
        <ele>137.3</ele>
        <time>2026-08-20T09:01:26Z</time>
      </trkpt>
      <trkpt lat="49.19053" lon="4.04384">
        <ele>137.8</ele>
        <time>2026-08-20T09:01:31Z</time>
      </trkpt>
      <trkpt lat="49.19048" lon="4.04387">
        <ele>138.2</ele>
        <time>2026-08-20T09:01:36Z</time>
      </trkpt>
      <trkpt lat="49.19041" lon="4.04392">
        <ele>138.9</ele>
        <time>2026-08-20T09:01:42Z</time>
      </trkpt>
      <trkpt lat="49.19039" lon="4.04394">
        <ele>139.1</ele>
        <time>2026-08-20T09:01:47Z</time>
      </trkpt>
      <trkpt lat="49.19037" lon="4.04395">
        <ele>139.3</ele>
        <time>2026-08-20T09:01:52Z</time>
      </trkpt>
      <trkpt lat="49.19032" lon="4.04402">
        <ele>139.8</ele>
        <time>2026-08-20T09:01:58Z</time>
      </trkpt>
      <trkpt lat="49.19027" lon="4.04406">
        <ele>140.3</ele>
        <time>2026-08-20T09:02:03Z</time>
      </trkpt>
      <trkpt lat="49.19023" lon="4.04411">
        <ele>140.7</ele>
        <time>2026-08-20T09:02:08Z</time>
      </trkpt>
      <trkpt lat="49.19018" lon="4.04419">
        <ele>141.2</ele>
        <time>2026-08-20T09:02:14Z</time>
      </trkpt>
      <trkpt lat="49.19014" lon="4.04425">
        <ele>141.5</ele>
        <time>2026-08-20T09:02:19Z</time>
      </trkpt>
      <trkpt lat="49.19009" lon="4.04431">
        <ele>141.9</ele>
        <time>2026-08-20T09:02:24Z</time>
      </trkpt>
      <trkpt lat="49.19005" lon="4.04439">
        <ele>142.2</ele>
        <time>2026-08-20T09:02:30Z</time>
      </trkpt>
      <trkpt lat="49.19002" lon="4.04443">
        <ele>142.5</ele>
        <time>2026-08-20T09:02:35Z</time>
      </trkpt>
      <trkpt lat="49.19002" lon="4.04443">
        <ele>142.5</ele>
        <time>2026-08-20T09:02:40Z</time>
      </trkpt>
      <trkpt lat="49.18999" lon="4.04447">
        <ele>142.7</ele>
        <time>2026-08-20T09:02:46Z</time>
      </trkpt>
      <trkpt lat="49.18995" lon="4.04454">
        <ele>142.8</ele>
        <time>2026-08-20T09:02:51Z</time>
      </trkpt>
      <trkpt lat="49.18991" lon="4.0446">
        <ele>142.9</ele>
        <time>2026-08-20T09:02:56Z</time>
      </trkpt>
      <trkpt lat="49.18987" lon="4.04467">
        <ele>143.1</ele>
        <time>2026-08-20T09:03:02Z</time>
      </trkpt>
      <trkpt lat="49.18983" lon="4.04472">
        <ele>143.2</ele>
        <time>2026-08-20T09:03:07Z</time>
      </trkpt>
      <trkpt lat="49.1898" lon="4.04477">
        <ele>143.3</ele>
        <time>2026-08-20T09:03:12Z</time>
      </trkpt>
      <trkpt lat="49.18976" lon="4.04484">
        <ele>143.5</ele>
        <time>2026-08-20T09:03:18Z</time>
      </trkpt>
      <trkpt lat="49.18972" lon="4.0449">
        <ele>143.7</ele>
        <time>2026-08-20T09:03:23Z</time>
      </trkpt>
      <trkpt lat="49.18969" lon="4.04497">
        <ele>143.9</ele>
        <time>2026-08-20T09:03:28Z</time>
      </trkpt>
      <trkpt lat="49.18963" lon="4.04504">
        <ele>144.2</ele>
        <time>2026-08-20T09:03:34Z</time>
      </trkpt>
      <trkpt lat="49.18961" lon="4.04509">
        <ele>144.4</ele>
        <time>2026-08-20T09:03:39Z</time>
      </trkpt>
      <trkpt lat="49.18957" lon="4.04513">
        <ele>144.7</ele>
        <time>2026-08-20T09:03:44Z</time>
      </trkpt>
      <trkpt lat="49.18953" lon="4.04521">
        <ele>145</ele>
        <time>2026-08-20T09:03:50Z</time>
      </trkpt>
      <trkpt lat="49.1895" lon="4.04526">
        <ele>145.2</ele>
        <time>2026-08-20T09:03:55Z</time>
      </trkpt>
      <trkpt lat="49.18946" lon="4.04532">
        <ele>145.5</ele>
        <time>2026-08-20T09:04:00Z</time>
      </trkpt>
      <trkpt lat="49.18941" lon="4.04539">
        <ele>145.9</ele>
        <time>2026-08-20T09:04:06Z</time>
      </trkpt>
      <trkpt lat="49.18937" lon="4.04544">
        <ele>146.2</ele>
        <time>2026-08-20T09:04:11Z</time>
      </trkpt>
      <trkpt lat="49.18934" lon="4.0455">
        <ele>146.4</ele>
        <time>2026-08-20T09:04:16Z</time>
      </trkpt>
      <trkpt lat="49.1893" lon="4.04556">
        <ele>146.8</ele>
        <time>2026-08-20T09:04:22Z</time>
      </trkpt>
      <trkpt lat="49.18926" lon="4.04563">
        <ele>147.1</ele>
        <time>2026-08-20T09:04:27Z</time>
      </trkpt>
      <trkpt lat="49.18922" lon="4.0457">
        <ele>147.5</ele>
        <time>2026-08-20T09:04:32Z</time>
      </trkpt>
      <trkpt lat="49.18917" lon="4.04577">
        <ele>147.9</ele>
        <time>2026-08-20T09:04:38Z</time>
      </trkpt>
      <trkpt lat="49.18913" lon="4.04583">
        <ele>148.2</ele>
        <time>2026-08-20T09:04:43Z</time>
      </trkpt>
      <trkpt lat="49.18909" lon="4.0459">
        <ele>148.2</ele>
        <time>2026-08-20T09:04:48Z</time>
      </trkpt>
      <trkpt lat="49.18905" lon="4.04598">
        <ele>148.2</ele>
        <time>2026-08-20T09:04:54Z</time>
      </trkpt>
      <trkpt lat="49.18901" lon="4.04604">
        <ele>148.3</ele>
        <time>2026-08-20T09:04:59Z</time>
      </trkpt>
      <trkpt lat="49.18897" lon="4.04611">
        <ele>148.4</ele>
        <time>2026-08-20T09:05:04Z</time>
      </trkpt>
      <trkpt lat="49.18892" lon="4.04618">
        <ele>148.5</ele>
        <time>2026-08-20T09:05:10Z</time>
      </trkpt>
      <trkpt lat="49.18889" lon="4.04625">
        <ele>148.5</ele>
        <time>2026-08-20T09:05:15Z</time>
      </trkpt>
      <trkpt lat="49.18887" lon="4.04627">
        <ele>148.6</ele>
        <time>2026-08-20T09:05:20Z</time>
      </trkpt>
      <trkpt lat="49.18882" lon="4.04633">
        <ele>148.7</ele>
        <time>2026-08-20T09:05:26Z</time>
      </trkpt>
      <trkpt lat="49.18878" lon="4.0464">
        <ele>148.8</ele>
        <time>2026-08-20T09:05:31Z</time>
      </trkpt>
      <trkpt lat="49.18874" lon="4.04648">
        <ele>148.9</ele>
        <time>2026-08-20T09:05:36Z</time>
      </trkpt>
      <trkpt lat="49.18869" lon="4.04656">
        <ele>149</ele>
        <time>2026-08-20T09:05:42Z</time>
      </trkpt>
      <trkpt lat="49.18865" lon="4.04663">
        <ele>149.2</ele>
        <time>2026-08-20T09:05:47Z</time>
      </trkpt>
      <trkpt lat="49.18861" lon="4.0467">
        <ele>149.3</ele>
        <time>2026-08-20T09:05:52Z</time>
      </trkpt>
      <trkpt lat="49.18855" lon="4.04678">
        <ele>149.5</ele>
        <time>2026-08-20T09:05:58Z</time>
      </trkpt>
      <trkpt lat="49.18852" lon="4.04684">
        <ele>149.5</ele>
        <time>2026-08-20T09:06:03Z</time>
      </trkpt>
      <trkpt lat="49.18851" lon="4.04687">
        <ele>149.5</ele>
        <time>2026-08-20T09:06:08Z</time>
      </trkpt>
      <trkpt lat="49.18846" lon="4.04694">
        <ele>149.8</ele>
        <time>2026-08-20T09:06:14Z</time>
      </trkpt>
      <trkpt lat="49.18842" lon="4.04702">
        <ele>149.9</ele>
        <time>2026-08-20T09:06:19Z</time>
      </trkpt>
      <trkpt lat="49.18839" lon="4.04707">
        <ele>150.1</ele>
        <time>2026-08-20T09:06:24Z</time>
      </trkpt>
      <trkpt lat="49.18837" lon="4.0471">
        <ele>150.2</ele>
        <time>2026-08-20T09:06:30Z</time>
      </trkpt>
      <trkpt lat="49.18837" lon="4.0471">
        <ele>150.2</ele>
        <time>2026-08-20T09:06:35Z</time>
      </trkpt>
      <trkpt lat="49.18837" lon="4.0471">
        <ele>150.2</ele>
        <time>2026-08-20T09:06:40Z</time>
      </trkpt>
      <trkpt lat="49.18835" lon="4.04713">
        <ele>150.3</ele>
        <time>2026-08-20T09:06:46Z</time>
      </trkpt>
      <trkpt lat="49.18834" lon="4.04715">
        <ele>150.4</ele>
        <time>2026-08-20T09:06:51Z</time>
      </trkpt>
      <trkpt lat="49.18834" lon="4.04716">
        <ele>150.4</ele>
        <time>2026-08-20T09:06:56Z</time>
      </trkpt>
      <trkpt lat="49.1883" lon="4.04722">
        <ele>150.5</ele>
        <time>2026-08-20T09:07:02Z</time>
      </trkpt>
      <trkpt lat="49.18828" lon="4.04725">
        <ele>150.6</ele>
        <time>2026-08-20T09:07:07Z</time>
      </trkpt>
      <trkpt lat="49.18827" lon="4.04726">
        <ele>150.6</ele>
        <time>2026-08-20T09:07:12Z</time>
      </trkpt>
      <trkpt lat="49.18827" lon="4.04727">
        <ele>150.6</ele>
        <time>2026-08-20T09:07:18Z</time>
      </trkpt>
      <trkpt lat="49.18824" lon="4.04732">
        <ele>150.7</ele>
        <time>2026-08-20T09:07:23Z</time>
      </trkpt>
      <trkpt lat="49.18824" lon="4.04733">
        <ele>150.7</ele>
        <time>2026-08-20T09:07:28Z</time>
      </trkpt>
      <trkpt lat="49.18823" lon="4.04735">
        <ele>150.7</ele>
        <time>2026-08-20T09:07:34Z</time>
      </trkpt>
      <trkpt lat="49.1882" lon="4.04738">
        <ele>150.8</ele>
        <time>2026-08-20T09:07:39Z</time>
      </trkpt>
      <trkpt lat="49.18816" lon="4.04746">
        <ele>150.9</ele>
        <time>2026-08-20T09:07:44Z</time>
      </trkpt>
      <trkpt lat="49.18811" lon="4.04753">
        <ele>151</ele>
        <time>2026-08-20T09:07:50Z</time>
      </trkpt>
      <trkpt lat="49.18807" lon="4.04759">
        <ele>151</ele>
        <time>2026-08-20T09:07:55Z</time>
      </trkpt>
      <trkpt lat="49.18804" lon="4.04765">
        <ele>150.9</ele>
        <time>2026-08-20T09:08:00Z</time>
      </trkpt>
      <trkpt lat="49.18798" lon="4.04774">
        <ele>151</ele>
        <time>2026-08-20T09:08:06Z</time>
      </trkpt>
      <trkpt lat="49.18795" lon="4.04781">
        <ele>150.9</ele>
        <time>2026-08-20T09:08:11Z</time>
      </trkpt>
      <trkpt lat="49.18791" lon="4.04787">
        <ele>150.9</ele>
        <time>2026-08-20T09:08:16Z</time>
      </trkpt>
      <trkpt lat="49.18786" lon="4.04795">
        <ele>151</ele>
        <time>2026-08-20T09:08:22Z</time>
      </trkpt>
      <trkpt lat="49.18782" lon="4.04801">
        <ele>151</ele>
        <time>2026-08-20T09:08:27Z</time>
      </trkpt>
      <trkpt lat="49.18779" lon="4.04809">
        <ele>150.9</ele>
        <time>2026-08-20T09:08:32Z</time>
      </trkpt>
      <trkpt lat="49.18774" lon="4.04818">
        <ele>151</ele>
        <time>2026-08-20T09:08:38Z</time>
      </trkpt>
      <trkpt lat="49.18771" lon="4.04823">
        <ele>151</ele>
        <time>2026-08-20T09:08:43Z</time>
      </trkpt>
      <trkpt lat="49.18767" lon="4.0483">
        <ele>151.1</ele>
        <time>2026-08-20T09:08:48Z</time>
      </trkpt>
      <trkpt lat="49.18762" lon="4.04838">
        <ele>151</ele>
        <time>2026-08-20T09:08:54Z</time>
      </trkpt>
      <trkpt lat="49.18758" lon="4.04845">
        <ele>150.9</ele>
        <time>2026-08-20T09:08:59Z</time>
      </trkpt>
      <trkpt lat="49.18755" lon="4.04851">
        <ele>150.7</ele>
        <time>2026-08-20T09:09:04Z</time>
      </trkpt>
      <trkpt lat="49.18749" lon="4.04859">
        <ele>150.5</ele>
        <time>2026-08-20T09:09:10Z</time>
      </trkpt>
      <trkpt lat="49.18745" lon="4.04866">
        <ele>150.2</ele>
        <time>2026-08-20T09:09:15Z</time>
      </trkpt>
      <trkpt lat="49.18741" lon="4.04873">
        <ele>149.9</ele>
        <time>2026-08-20T09:09:20Z</time>
      </trkpt>
      <trkpt lat="49.18737" lon="4.04882">
        <ele>149.6</ele>
        <time>2026-08-20T09:09:26Z</time>
      </trkpt>
      <trkpt lat="49.18733" lon="4.04888">
        <ele>149.4</ele>
        <time>2026-08-20T09:09:31Z</time>
      </trkpt>
      <trkpt lat="49.18728" lon="4.04895">
        <ele>149.2</ele>
        <time>2026-08-20T09:09:36Z</time>
      </trkpt>
      <trkpt lat="49.18724" lon="4.04903">
        <ele>149</ele>
        <time>2026-08-20T09:09:42Z</time>
      </trkpt>
      <trkpt lat="49.1872" lon="4.0491">
        <ele>148.8</ele>
        <time>2026-08-20T09:09:47Z</time>
      </trkpt>
      <trkpt lat="49.18716" lon="4.04917">
        <ele>148.6</ele>
        <time>2026-08-20T09:09:52Z</time>
      </trkpt>
      <trkpt lat="49.18711" lon="4.04925">
        <ele>148.5</ele>
        <time>2026-08-20T09:09:58Z</time>
      </trkpt>
      <trkpt lat="49.18707" lon="4.0493">
        <ele>148.5</ele>
        <time>2026-08-20T09:10:03Z</time>
      </trkpt>
      <trkpt lat="49.18704" lon="4.04936">
        <ele>148.4</ele>
        <time>2026-08-20T09:10:08Z</time>
      </trkpt>
      <trkpt lat="49.18699" lon="4.04944">
        <ele>148.3</ele>
        <time>2026-08-20T09:10:14Z</time>
      </trkpt>
      <trkpt lat="49.18695" lon="4.04952">
        <ele>148.2</ele>
        <time>2026-08-20T09:10:19Z</time>
      </trkpt>
      <trkpt lat="49.18692" lon="4.04956">
        <ele>148.2</ele>
        <time>2026-08-20T09:10:24Z</time>
      </trkpt>
      <trkpt lat="49.18692" lon="4.04956">
        <ele>148.2</ele>
        <time>2026-08-20T09:10:30Z</time>
      </trkpt>
      <trkpt lat="49.18692" lon="4.04956">
        <ele>148.2</ele>
        <time>2026-08-20T09:10:35Z</time>
      </trkpt>
      <trkpt lat="49.18692" lon="4.04956">
        <ele>148.2</ele>
        <time>2026-08-20T09:10:40Z</time>
      </trkpt>
      <trkpt lat="49.18692" lon="4.04956">
        <ele>148.2</ele>
        <time>2026-08-20T09:10:46Z</time>
      </trkpt>
      <trkpt lat="49.18692" lon="4.04956">
        <ele>148.2</ele>
        <time>2026-08-20T09:10:51Z</time>
      </trkpt>
      <trkpt lat="49.18691" lon="4.04959">
        <ele>148.2</ele>
        <time>2026-08-20T09:10:56Z</time>
      </trkpt>
      <trkpt lat="49.18686" lon="4.04968">
        <ele>148.1</ele>
        <time>2026-08-20T09:11:02Z</time>
      </trkpt>
      <trkpt lat="49.18681" lon="4.04975">
        <ele>148.1</ele>
        <time>2026-08-20T09:11:07Z</time>
      </trkpt>
      <trkpt lat="49.18678" lon="4.04982">
        <ele>148</ele>
        <time>2026-08-20T09:11:12Z</time>
      </trkpt>
      <trkpt lat="49.18672" lon="4.0499">
        <ele>148</ele>
        <time>2026-08-20T09:11:18Z</time>
      </trkpt>
      <trkpt lat="49.18668" lon="4.04997">
        <ele>148</ele>
        <time>2026-08-20T09:11:23Z</time>
      </trkpt>
      <trkpt lat="49.18663" lon="4.05004">
        <ele>148.3</ele>
        <time>2026-08-20T09:11:28Z</time>
      </trkpt>
      <trkpt lat="49.1866" lon="4.05012">
        <ele>148.5</ele>
        <time>2026-08-20T09:11:34Z</time>
      </trkpt>
      <trkpt lat="49.18656" lon="4.05018">
        <ele>148.7</ele>
        <time>2026-08-20T09:11:39Z</time>
      </trkpt>
      <trkpt lat="49.18653" lon="4.05024">
        <ele>148.9</ele>
        <time>2026-08-20T09:11:44Z</time>
      </trkpt>
      <trkpt lat="49.18653" lon="4.05024">
        <ele>148.9</ele>
        <time>2026-08-20T09:11:50Z</time>
      </trkpt>
      <trkpt lat="49.18653" lon="4.05024">
        <ele>148.9</ele>
        <time>2026-08-20T09:11:55Z</time>
      </trkpt>
      <trkpt lat="49.18653" lon="4.05024">
        <ele>148.9</ele>
        <time>2026-08-20T09:12:00Z</time>
      </trkpt>
      <trkpt lat="49.18653" lon="4.05024">
        <ele>148.9</ele>
        <time>2026-08-20T09:12:06Z</time>
      </trkpt>
      <trkpt lat="49.1865" lon="4.0503">
        <ele>149.1</ele>
        <time>2026-08-20T09:12:11Z</time>
      </trkpt>
      <trkpt lat="49.18646" lon="4.05036">
        <ele>149.3</ele>
        <time>2026-08-20T09:12:16Z</time>
      </trkpt>
      <trkpt lat="49.18644" lon="4.0504">
        <ele>149.4</ele>
        <time>2026-08-20T09:12:22Z</time>
      </trkpt>
      <trkpt lat="49.18644" lon="4.0504">
        <ele>149.4</ele>
        <time>2026-08-20T09:12:27Z</time>
      </trkpt>
      <trkpt lat="49.18644" lon="4.0504">
        <ele>149.4</ele>
        <time>2026-08-20T09:12:32Z</time>
      </trkpt>
      <trkpt lat="49.18644" lon="4.0504">
        <ele>149.4</ele>
        <time>2026-08-20T09:12:38Z</time>
      </trkpt>
      <trkpt lat="49.18644" lon="4.0504">
        <ele>149.4</ele>
        <time>2026-08-20T09:12:43Z</time>
      </trkpt>
      <trkpt lat="49.18644" lon="4.0504">
        <ele>149.4</ele>
        <time>2026-08-20T09:12:48Z</time>
      </trkpt>
      <trkpt lat="49.1864" lon="4.05048">
        <ele>149.6</ele>
        <time>2026-08-20T09:12:54Z</time>
      </trkpt>
      <trkpt lat="49.18635" lon="4.05056">
        <ele>149.8</ele>
        <time>2026-08-20T09:12:59Z</time>
      </trkpt>
      <trkpt lat="49.18631" lon="4.05063">
        <ele>149.9</ele>
        <time>2026-08-20T09:13:04Z</time>
      </trkpt>
      <trkpt lat="49.18626" lon="4.05073">
        <ele>150.1</ele>
        <time>2026-08-20T09:13:10Z</time>
      </trkpt>
      <trkpt lat="49.18622" lon="4.0508">
        <ele>150.2</ele>
        <time>2026-08-20T09:13:15Z</time>
      </trkpt>
      <trkpt lat="49.18618" lon="4.05087">
        <ele>150.3</ele>
        <time>2026-08-20T09:13:20Z</time>
      </trkpt>
      <trkpt lat="49.18615" lon="4.05095">
        <ele>150.4</ele>
        <time>2026-08-20T09:13:26Z</time>
      </trkpt>
      <trkpt lat="49.18614" lon="4.05096">
        <ele>150.4</ele>
        <time>2026-08-20T09:13:31Z</time>
      </trkpt>
      <trkpt lat="49.18614" lon="4.05096">
        <ele>150.4</ele>
        <time>2026-08-20T09:13:36Z</time>
      </trkpt>
      <trkpt lat="49.1861" lon="4.05103">
        <ele>150.6</ele>
        <time>2026-08-20T09:13:42Z</time>
      </trkpt>
      <trkpt lat="49.18605" lon="4.05111">
        <ele>150.7</ele>
        <time>2026-08-20T09:13:47Z</time>
      </trkpt>
      <trkpt lat="49.18601" lon="4.05119">
        <ele>150.8</ele>
        <time>2026-08-20T09:13:52Z</time>
      </trkpt>
      <trkpt lat="49.18596" lon="4.05128">
        <ele>150.9</ele>
        <time>2026-08-20T09:13:58Z</time>
      </trkpt>
      <trkpt lat="49.18592" lon="4.05136">
        <ele>151</ele>
        <time>2026-08-20T09:14:03Z</time>
      </trkpt>
      <trkpt lat="49.18588" lon="4.05143">
        <ele>151.1</ele>
        <time>2026-08-20T09:14:08Z</time>
      </trkpt>
      <trkpt lat="49.18584" lon="4.05152">
        <ele>151.2</ele>
        <time>2026-08-20T09:14:14Z</time>
      </trkpt>
      <trkpt lat="49.18582" lon="4.05155">
        <ele>151.1</ele>
        <time>2026-08-20T09:14:19Z</time>
      </trkpt>
      <trkpt lat="49.18579" lon="4.0516">
        <ele>151</ele>
        <time>2026-08-20T09:14:24Z</time>
      </trkpt>
      <trkpt lat="49.18575" lon="4.05169">
        <ele>150.7</ele>
        <time>2026-08-20T09:14:30Z</time>
      </trkpt>
      <trkpt lat="49.1857" lon="4.05176">
        <ele>150.4</ele>
        <time>2026-08-20T09:14:35Z</time>
      </trkpt>
      <trkpt lat="49.18567" lon="4.05183">
        <ele>150.2</ele>
        <time>2026-08-20T09:14:40Z</time>
      </trkpt>
      <trkpt lat="49.18562" lon="4.05192">
        <ele>149.8</ele>
        <time>2026-08-20T09:14:46Z</time>
      </trkpt>
      <trkpt lat="49.18557" lon="4.05199">
        <ele>149.5</ele>
        <time>2026-08-20T09:14:51Z</time>
      </trkpt>
      <trkpt lat="49.18552" lon="4.05204">
        <ele>149.2</ele>
        <time>2026-08-20T09:14:56Z</time>
      </trkpt>
      <trkpt lat="49.18549" lon="4.0521">
        <ele>148.9</ele>
        <time>2026-08-20T09:15:02Z</time>
      </trkpt>
      <trkpt lat="49.18547" lon="4.0521">
        <ele>148.9</ele>
        <time>2026-08-20T09:15:07Z</time>
      </trkpt>
      <trkpt lat="49.18541" lon="4.05214">
        <ele>148.6</ele>
        <time>2026-08-20T09:15:12Z</time>
      </trkpt>
      <trkpt lat="49.18534" lon="4.0522">
        <ele>148.2</ele>
        <time>2026-08-20T09:15:18Z</time>
      </trkpt>
      <trkpt lat="49.18529" lon="4.05224">
        <ele>147.9</ele>
        <time>2026-08-20T09:15:23Z</time>
      </trkpt>
      <trkpt lat="49.18523" lon="4.05229">
        <ele>147.5</ele>
        <time>2026-08-20T09:15:28Z</time>
      </trkpt>
      <trkpt lat="49.18516" lon="4.05234">
        <ele>147.1</ele>
        <time>2026-08-20T09:15:34Z</time>
      </trkpt>
      <trkpt lat="49.1851" lon="4.05239">
        <ele>146.7</ele>
        <time>2026-08-20T09:15:39Z</time>
      </trkpt>
      <trkpt lat="49.18505" lon="4.05244">
        <ele>146.4</ele>
        <time>2026-08-20T09:15:44Z</time>
      </trkpt>
      <trkpt lat="49.18498" lon="4.0525">
        <ele>145.8</ele>
        <time>2026-08-20T09:15:50Z</time>
      </trkpt>
      <trkpt lat="49.18492" lon="4.05255">
        <ele>145.2</ele>
        <time>2026-08-20T09:15:55Z</time>
      </trkpt>
      <trkpt lat="49.18491" lon="4.05256">
        <ele>145.1</ele>
        <time>2026-08-20T09:16:00Z</time>
      </trkpt>
      <trkpt lat="49.18488" lon="4.0526">
        <ele>144.8</ele>
        <time>2026-08-20T09:16:06Z</time>
      </trkpt>
      <trkpt lat="49.18483" lon="4.05264">
        <ele>144.3</ele>
        <time>2026-08-20T09:16:11Z</time>
      </trkpt>
      <trkpt lat="49.18478" lon="4.05268">
        <ele>143.8</ele>
        <time>2026-08-20T09:16:16Z</time>
      </trkpt>
      <trkpt lat="49.18475" lon="4.0527">
        <ele>143.6</ele>
        <time>2026-08-20T09:16:22Z</time>
      </trkpt>
      <trkpt lat="49.18471" lon="4.05269">
        <ele>143.3</ele>
        <time>2026-08-20T09:16:27Z</time>
      </trkpt>
      <trkpt lat="49.18469" lon="4.05268">
        <ele>143.1</ele>
        <time>2026-08-20T09:16:32Z</time>
      </trkpt>
      <trkpt lat="49.18468" lon="4.05268">
        <ele>143</ele>
        <time>2026-08-20T09:16:38Z</time>
      </trkpt>
      <trkpt lat="49.1847" lon="4.0527">
        <ele>143.2</ele>
        <time>2026-08-20T09:16:43Z</time>
      </trkpt>
      <trkpt lat="49.18471" lon="4.05275">
        <ele>143.2</ele>
        <time>2026-08-20T09:16:48Z</time>
      </trkpt>
      <trkpt lat="49.18466" lon="4.0528">
        <ele>142.7</ele>
        <time>2026-08-20T09:16:54Z</time>
      </trkpt>
      <trkpt lat="49.18461" lon="4.05286">
        <ele>142.3</ele>
        <time>2026-08-20T09:16:59Z</time>
      </trkpt>
      <trkpt lat="49.18457" lon="4.05291">
        <ele>141.9</ele>
        <time>2026-08-20T09:17:04Z</time>
      </trkpt>
      <trkpt lat="49.18452" lon="4.05298">
        <ele>141.5</ele>
        <time>2026-08-20T09:17:10Z</time>
      </trkpt>
      <trkpt lat="49.18448" lon="4.05304">
        <ele>141.1</ele>
        <time>2026-08-20T09:17:15Z</time>
      </trkpt>
      <trkpt lat="49.18446" lon="4.05308">
        <ele>141</ele>
        <time>2026-08-20T09:17:20Z</time>
      </trkpt>
      <trkpt lat="49.18446" lon="4.05308">
        <ele>141</ele>
        <time>2026-08-20T09:17:26Z</time>
      </trkpt>
      <trkpt lat="49.18446" lon="4.05308">
        <ele>141</ele>
        <time>2026-08-20T09:17:31Z</time>
      </trkpt>
      <trkpt lat="49.18446" lon="4.05308">
        <ele>141</ele>
        <time>2026-08-20T09:17:36Z</time>
      </trkpt>
      <trkpt lat="49.18446" lon="4.05308">
        <ele>141</ele>
        <time>2026-08-20T09:17:42Z</time>
      </trkpt>
      <trkpt lat="49.18446" lon="4.05308">
        <ele>141</ele>
        <time>2026-08-20T09:17:47Z</time>
      </trkpt>
      <trkpt lat="49.18446" lon="4.05308">
        <ele>141</ele>
        <time>2026-08-20T09:17:52Z</time>
      </trkpt>
      <trkpt lat="49.18446" lon="4.05308">
        <ele>141</ele>
        <time>2026-08-20T09:17:58Z</time>
      </trkpt>
      <trkpt lat="49.18446" lon="4.05308">
        <ele>141</ele>
        <time>2026-08-20T09:18:03Z</time>
      </trkpt>
      <trkpt lat="49.18446" lon="4.05308">
        <ele>141</ele>
        <time>2026-08-20T09:18:08Z</time>
      </trkpt>
      <trkpt lat="49.18442" lon="4.05314">
        <ele>140.7</ele>
        <time>2026-08-20T09:18:14Z</time>
      </trkpt>
      <trkpt lat="49.18437" lon="4.0532">
        <ele>140.3</ele>
        <time>2026-08-20T09:18:19Z</time>
      </trkpt>
      <trkpt lat="49.18433" lon="4.05328">
        <ele>140</ele>
        <time>2026-08-20T09:18:24Z</time>
      </trkpt>
      <trkpt lat="49.18428" lon="4.05336">
        <ele>139.7</ele>
        <time>2026-08-20T09:18:30Z</time>
      </trkpt>
      <trkpt lat="49.18425" lon="4.05342">
        <ele>139.5</ele>
        <time>2026-08-20T09:18:35Z</time>
      </trkpt>
      <trkpt lat="49.18421" lon="4.05349">
        <ele>139.3</ele>
        <time>2026-08-20T09:18:40Z</time>
      </trkpt>
      <trkpt lat="49.18416" lon="4.05357">
        <ele>139</ele>
        <time>2026-08-20T09:18:46Z</time>
      </trkpt>
      <trkpt lat="49.18412" lon="4.05364">
        <ele>138.7</ele>
        <time>2026-08-20T09:18:51Z</time>
      </trkpt>
      <trkpt lat="49.18409" lon="4.05372">
        <ele>138.5</ele>
        <time>2026-08-20T09:18:56Z</time>
      </trkpt>
      <trkpt lat="49.18404" lon="4.0538">
        <ele>138.2</ele>
        <time>2026-08-20T09:19:02Z</time>
      </trkpt>
      <trkpt lat="49.18401" lon="4.05386">
        <ele>137.9</ele>
        <time>2026-08-20T09:19:07Z</time>
      </trkpt>
      <trkpt lat="49.18396" lon="4.05394">
        <ele>137.6</ele>
        <time>2026-08-20T09:19:12Z</time>
      </trkpt>
      <trkpt lat="49.18392" lon="4.05402">
        <ele>137.3</ele>
        <time>2026-08-20T09:19:18Z</time>
      </trkpt>
      <trkpt lat="49.18389" lon="4.05407">
        <ele>137</ele>
        <time>2026-08-20T09:19:23Z</time>
      </trkpt>
      <trkpt lat="49.18384" lon="4.05415">
        <ele>136.7</ele>
        <time>2026-08-20T09:19:28Z</time>
      </trkpt>
      <trkpt lat="49.1838" lon="4.05423">
        <ele>136.3</ele>
        <time>2026-08-20T09:19:34Z</time>
      </trkpt>
      <trkpt lat="49.18375" lon="4.05431">
        <ele>135.8</ele>
        <time>2026-08-20T09:19:39Z</time>
      </trkpt>
      <trkpt lat="49.18371" lon="4.05439">
        <ele>135.4</ele>
        <time>2026-08-20T09:19:44Z</time>
      </trkpt>
      <trkpt lat="49.18366" lon="4.05448">
        <ele>135</ele>
        <time>2026-08-20T09:19:50Z</time>
      </trkpt>
      <trkpt lat="49.18362" lon="4.05455">
        <ele>134.6</ele>
        <time>2026-08-20T09:19:55Z</time>
      </trkpt>
      <trkpt lat="49.18356" lon="4.0546">
        <ele>134.1</ele>
        <time>2026-08-20T09:20:00Z</time>
      </trkpt>
      <trkpt lat="49.18351" lon="4.05467">
        <ele>133.7</ele>
        <time>2026-08-20T09:20:06Z</time>
      </trkpt>
      <trkpt lat="49.1835" lon="4.05469">
        <ele>133.6</ele>
        <time>2026-08-20T09:20:11Z</time>
      </trkpt>
      <trkpt lat="49.18349" lon="4.05468">
        <ele>133.5</ele>
        <time>2026-08-20T09:20:16Z</time>
      </trkpt>
      <trkpt lat="49.18346" lon="4.05475">
        <ele>133.2</ele>
        <time>2026-08-20T09:20:22Z</time>
      </trkpt>
      <trkpt lat="49.18343" lon="4.05482">
        <ele>132.9</ele>
        <time>2026-08-20T09:20:27Z</time>
      </trkpt>
      <trkpt lat="49.18342" lon="4.05491">
        <ele>132.7</ele>
        <time>2026-08-20T09:20:32Z</time>
      </trkpt>
      <trkpt lat="49.18338" lon="4.05499">
        <ele>132.3</ele>
        <time>2026-08-20T09:20:38Z</time>
      </trkpt>
      <trkpt lat="49.18333" lon="4.05505">
        <ele>132</ele>
        <time>2026-08-20T09:20:43Z</time>
      </trkpt>
      <trkpt lat="49.18328" lon="4.0551">
        <ele>131.7</ele>
        <time>2026-08-20T09:20:48Z</time>
      </trkpt>
      <trkpt lat="49.18322" lon="4.05515">
        <ele>131.3</ele>
        <time>2026-08-20T09:20:54Z</time>
      </trkpt>
      <trkpt lat="49.18316" lon="4.0552">
        <ele>131</ele>
        <time>2026-08-20T09:20:59Z</time>
      </trkpt>
      <trkpt lat="49.18311" lon="4.05526">
        <ele>130.7</ele>
        <time>2026-08-20T09:21:04Z</time>
      </trkpt>
      <trkpt lat="49.18305" lon="4.05531">
        <ele>130.3</ele>
        <time>2026-08-20T09:21:10Z</time>
      </trkpt>
      <trkpt lat="49.18299" lon="4.05534">
        <ele>129.9</ele>
        <time>2026-08-20T09:21:15Z</time>
      </trkpt>
      <trkpt lat="49.18293" lon="4.05538">
        <ele>129.6</ele>
        <time>2026-08-20T09:21:20Z</time>
      </trkpt>
      <trkpt lat="49.18286" lon="4.05543">
        <ele>129.2</ele>
        <time>2026-08-20T09:21:26Z</time>
      </trkpt>
      <trkpt lat="49.18282" lon="4.05548">
        <ele>128.9</ele>
        <time>2026-08-20T09:21:31Z</time>
      </trkpt>
      <trkpt lat="49.18277" lon="4.0555">
        <ele>128.6</ele>
        <time>2026-08-20T09:21:36Z</time>
      </trkpt>
      <trkpt lat="49.1827" lon="4.05552">
        <ele>128.2</ele>
        <time>2026-08-20T09:21:42Z</time>
      </trkpt>
      <trkpt lat="49.18264" lon="4.05553">
        <ele>127.8</ele>
        <time>2026-08-20T09:21:47Z</time>
      </trkpt>
      <trkpt lat="49.18258" lon="4.05555">
        <ele>127.5</ele>
        <time>2026-08-20T09:21:52Z</time>
      </trkpt>
      <trkpt lat="49.1825" lon="4.0556">
        <ele>127</ele>
        <time>2026-08-20T09:21:58Z</time>
      </trkpt>
      <trkpt lat="49.18247" lon="4.05566">
        <ele>126.8</ele>
        <time>2026-08-20T09:22:03Z</time>
      </trkpt>
      <trkpt lat="49.18242" lon="4.05572">
        <ele>126.5</ele>
        <time>2026-08-20T09:22:08Z</time>
      </trkpt>
      <trkpt lat="49.18239" lon="4.05583">
        <ele>126.3</ele>
        <time>2026-08-20T09:22:14Z</time>
      </trkpt>
      <trkpt lat="49.18236" lon="4.05589">
        <ele>126.1</ele>
        <time>2026-08-20T09:22:19Z</time>
      </trkpt>
      <trkpt lat="49.18236" lon="4.05589">
        <ele>126.1</ele>
        <time>2026-08-20T09:22:24Z</time>
      </trkpt>
      <trkpt lat="49.18237" lon="4.0559">
        <ele>126.1</ele>
        <time>2026-08-20T09:22:30Z</time>
      </trkpt>
      <trkpt lat="49.18237" lon="4.0559">
        <ele>126.1</ele>
        <time>2026-08-20T09:22:35Z</time>
      </trkpt>
      <trkpt lat="49.18237" lon="4.0559">
        <ele>126.1</ele>
        <time>2026-08-20T09:22:40Z</time>
      </trkpt>
      <trkpt lat="49.18237" lon="4.0559">
        <ele>126.1</ele>
        <time>2026-08-20T09:22:46Z</time>
      </trkpt>
      <trkpt lat="49.18237" lon="4.0559">
        <ele>126.1</ele>
        <time>2026-08-20T09:22:51Z</time>
      </trkpt>
      <trkpt lat="49.18237" lon="4.0559">
        <ele>126.1</ele>
        <time>2026-08-20T09:22:56Z</time>
      </trkpt>
      <trkpt lat="49.18237" lon="4.0559">
        <ele>126.1</ele>
        <time>2026-08-20T09:23:02Z</time>
      </trkpt>
      <trkpt lat="49.18235" lon="4.05595">
        <ele>126</ele>
        <time>2026-08-20T09:23:07Z</time>
      </trkpt>
      <trkpt lat="49.18235" lon="4.05595">
        <ele>126</ele>
        <time>2026-08-20T09:23:12Z</time>
      </trkpt>
      <trkpt lat="49.18235" lon="4.05595">
        <ele>126</ele>
        <time>2026-08-20T09:23:18Z</time>
      </trkpt>
      <trkpt lat="49.18235" lon="4.05595">
        <ele>126</ele>
        <time>2026-08-20T09:23:23Z</time>
      </trkpt>
      <trkpt lat="49.18235" lon="4.05595">
        <ele>126</ele>
        <time>2026-08-20T09:23:28Z</time>
      </trkpt>
      <trkpt lat="49.18235" lon="4.05595">
        <ele>126</ele>
        <time>2026-08-20T09:23:34Z</time>
      </trkpt>
      <trkpt lat="49.18235" lon="4.05595">
        <ele>126</ele>
        <time>2026-08-20T09:23:39Z</time>
      </trkpt>
      <trkpt lat="49.18235" lon="4.05595">
        <ele>126</ele>
        <time>2026-08-20T09:23:44Z</time>
      </trkpt>
      <trkpt lat="49.18235" lon="4.05595">
        <ele>126</ele>
        <time>2026-08-20T09:23:50Z</time>
      </trkpt>
      <trkpt lat="49.18235" lon="4.05595">
        <ele>126</ele>
        <time>2026-08-20T09:23:55Z</time>
      </trkpt>
      <trkpt lat="49.18235" lon="4.05595">
        <ele>126</ele>
        <time>2026-08-20T09:24:00Z</time>
      </trkpt>
      <trkpt lat="49.18234" lon="4.05601">
        <ele>125.8</ele>
        <time>2026-08-20T09:24:06Z</time>
      </trkpt>
      <trkpt lat="49.18232" lon="4.05609">
        <ele>125.6</ele>
        <time>2026-08-20T09:24:11Z</time>
      </trkpt>
      <trkpt lat="49.18229" lon="4.05617">
        <ele>125.3</ele>
        <time>2026-08-20T09:24:16Z</time>
      </trkpt>
      <trkpt lat="49.18229" lon="4.05618">
        <ele>125.3</ele>
        <time>2026-08-20T09:24:22Z</time>
      </trkpt>
      <trkpt lat="49.18228" lon="4.05623">
        <ele>125.2</ele>
        <time>2026-08-20T09:24:27Z</time>
      </trkpt>
      <trkpt lat="49.18226" lon="4.05631">
        <ele>125</ele>
        <time>2026-08-20T09:24:32Z</time>
      </trkpt>
      <trkpt lat="49.18223" lon="4.05642">
        <ele>124.7</ele>
        <time>2026-08-20T09:24:38Z</time>
      </trkpt>
      <trkpt lat="49.1822" lon="4.05649">
        <ele>124.4</ele>
        <time>2026-08-20T09:24:43Z</time>
      </trkpt>
      <trkpt lat="49.1822" lon="4.05652">
        <ele>124.4</ele>
        <time>2026-08-20T09:24:48Z</time>
      </trkpt>
      <trkpt lat="49.1822" lon="4.05652">
        <ele>124.4</ele>
        <time>2026-08-20T09:24:54Z</time>
      </trkpt>
      <trkpt lat="49.1822" lon="4.05652">
        <ele>124.4</ele>
        <time>2026-08-20T09:24:59Z</time>
      </trkpt>
      <trkpt lat="49.1822" lon="4.05652">
        <ele>124.4</ele>
        <time>2026-08-20T09:25:04Z</time>
      </trkpt>
      <trkpt lat="49.1822" lon="4.05652">
        <ele>124.4</ele>
        <time>2026-08-20T09:25:10Z</time>
      </trkpt>
      <trkpt lat="49.1822" lon="4.05652">
        <ele>124.4</ele>
        <time>2026-08-20T09:25:15Z</time>
      </trkpt>
      <trkpt lat="49.1822" lon="4.05652">
        <ele>124.4</ele>
        <time>2026-08-20T09:25:20Z</time>
      </trkpt>
      <trkpt lat="49.1822" lon="4.05652">
        <ele>124.4</ele>
        <time>2026-08-20T09:25:26Z</time>
      </trkpt>
      <trkpt lat="49.1822" lon="4.05652">
        <ele>124.4</ele>
        <time>2026-08-20T09:25:31Z</time>
      </trkpt>
      <trkpt lat="49.1822" lon="4.05652">
        <ele>124.4</ele>
        <time>2026-08-20T09:25:36Z</time>
      </trkpt>
      <trkpt lat="49.1822" lon="4.05652">
        <ele>124.4</ele>
        <time>2026-08-20T09:25:42Z</time>
      </trkpt>
      <trkpt lat="49.1822" lon="4.05652">
        <ele>124.4</ele>
        <time>2026-08-20T09:25:47Z</time>
      </trkpt>
      <trkpt lat="49.1822" lon="4.05652">
        <ele>124.4</ele>
        <time>2026-08-20T09:25:52Z</time>
      </trkpt>
      <trkpt lat="49.1822" lon="4.05652">
        <ele>124.4</ele>
        <time>2026-08-20T09:25:58Z</time>
      </trkpt>
      <trkpt lat="49.18215" lon="4.0567">
        <ele>123.9</ele>
        <time>2026-08-20T09:26:03Z</time>
      </trkpt>
      <trkpt lat="49.18212" lon="4.05678">
        <ele>123.6</ele>
        <time>2026-08-20T09:26:08Z</time>
      </trkpt>
      <trkpt lat="49.18209" lon="4.05688">
        <ele>123.4</ele>
        <time>2026-08-20T09:26:14Z</time>
      </trkpt>
      <trkpt lat="49.18209" lon="4.05689">
        <ele>123.4</ele>
        <time>2026-08-20T09:26:19Z</time>
      </trkpt>
      <trkpt lat="49.18209" lon="4.05689">
        <ele>123.4</ele>
        <time>2026-08-20T09:26:24Z</time>
      </trkpt>
      <trkpt lat="49.18209" lon="4.05689">
        <ele>123.4</ele>
        <time>2026-08-20T09:26:30Z</time>
      </trkpt>
      <trkpt lat="49.18209" lon="4.05689">
        <ele>123.4</ele>
        <time>2026-08-20T09:26:35Z</time>
      </trkpt>
      <trkpt lat="49.18209" lon="4.05689">
        <ele>123.4</ele>
        <time>2026-08-20T09:26:40Z</time>
      </trkpt>
      <trkpt lat="49.18209" lon="4.05689">
        <ele>123.4</ele>
        <time>2026-08-20T09:26:46Z</time>
      </trkpt>
      <trkpt lat="49.18209" lon="4.05689">
        <ele>123.4</ele>
        <time>2026-08-20T09:26:51Z</time>
      </trkpt>
      <trkpt lat="49.18209" lon="4.05689">
        <ele>123.4</ele>
        <time>2026-08-20T09:26:56Z</time>
      </trkpt>
      <trkpt lat="49.18207" lon="4.05696">
        <ele>123.2</ele>
        <time>2026-08-20T09:27:02Z</time>
      </trkpt>
      <trkpt lat="49.18204" lon="4.05705">
        <ele>123</ele>
        <time>2026-08-20T09:27:07Z</time>
      </trkpt>
      <trkpt lat="49.18202" lon="4.05713">
        <ele>122.9</ele>
        <time>2026-08-20T09:27:12Z</time>
      </trkpt>
      <trkpt lat="49.18199" lon="4.05723">
        <ele>122.7</ele>
        <time>2026-08-20T09:27:18Z</time>
      </trkpt>
      <trkpt lat="49.18197" lon="4.05732">
        <ele>122.5</ele>
        <time>2026-08-20T09:27:23Z</time>
      </trkpt>
      <trkpt lat="49.18194" lon="4.0574">
        <ele>122.4</ele>
        <time>2026-08-20T09:27:28Z</time>
      </trkpt>
      <trkpt lat="49.18191" lon="4.05751">
        <ele>122.1</ele>
        <time>2026-08-20T09:27:34Z</time>
      </trkpt>
      <trkpt lat="49.18188" lon="4.05759">
        <ele>121.8</ele>
        <time>2026-08-20T09:27:39Z</time>
      </trkpt>
      <trkpt lat="49.18186" lon="4.05768">
        <ele>121.5</ele>
        <time>2026-08-20T09:27:44Z</time>
      </trkpt>
      <trkpt lat="49.18185" lon="4.05775">
        <ele>121.3</ele>
        <time>2026-08-20T09:27:50Z</time>
      </trkpt>
      <trkpt lat="49.18186" lon="4.05778">
        <ele>121.3</ele>
        <time>2026-08-20T09:27:55Z</time>
      </trkpt>
      <trkpt lat="49.18185" lon="4.05781">
        <ele>121.1</ele>
        <time>2026-08-20T09:28:00Z</time>
      </trkpt>
      <trkpt lat="49.18186" lon="4.05787">
        <ele>121</ele>
        <time>2026-08-20T09:28:06Z</time>
      </trkpt>
      <trkpt lat="49.18185" lon="4.05788">
        <ele>121</ele>
        <time>2026-08-20T09:28:11Z</time>
      </trkpt>
      <trkpt lat="49.18185" lon="4.05788">
        <ele>121</ele>
        <time>2026-08-20T09:28:16Z</time>
      </trkpt>
      <trkpt lat="49.18185" lon="4.05788">
        <ele>121</ele>
        <time>2026-08-20T09:28:22Z</time>
      </trkpt>
      <trkpt lat="49.18185" lon="4.05788">
        <ele>121</ele>
        <time>2026-08-20T09:28:27Z</time>
      </trkpt>
      <trkpt lat="49.18177" lon="4.05776">
        <ele>120.9</ele>
        <time>2026-08-20T09:28:32Z</time>
      </trkpt>
      <trkpt lat="49.18177" lon="4.05776">
        <ele>120.9</ele>
        <time>2026-08-20T09:28:38Z</time>
      </trkpt>
      <trkpt lat="49.18177" lon="4.05776">
        <ele>120.9</ele>
        <time>2026-08-20T09:28:43Z</time>
      </trkpt>
      <trkpt lat="49.18177" lon="4.05776">
        <ele>120.9</ele>
        <time>2026-08-20T09:28:48Z</time>
      </trkpt>
      <trkpt lat="49.18177" lon="4.05776">
        <ele>120.9</ele>
        <time>2026-08-20T09:28:54Z</time>
      </trkpt>
      <trkpt lat="49.18174" lon="4.05779">
        <ele>120.7</ele>
        <time>2026-08-20T09:28:59Z</time>
      </trkpt>
      <trkpt lat="49.1817" lon="4.05782">
        <ele>120.4</ele>
        <time>2026-08-20T09:29:04Z</time>
      </trkpt>
      <trkpt lat="49.18164" lon="4.05788">
        <ele>120</ele>
        <time>2026-08-20T09:29:10Z</time>
      </trkpt>
      <trkpt lat="49.18159" lon="4.05793">
        <ele>119.7</ele>
        <time>2026-08-20T09:29:15Z</time>
      </trkpt>
      <trkpt lat="49.18154" lon="4.05798">
        <ele>119.4</ele>
        <time>2026-08-20T09:29:20Z</time>
      </trkpt>
      <trkpt lat="49.18148" lon="4.05803">
        <ele>119.1</ele>
        <time>2026-08-20T09:29:26Z</time>
      </trkpt>
      <trkpt lat="49.18143" lon="4.05807">
        <ele>118.8</ele>
        <time>2026-08-20T09:29:31Z</time>
      </trkpt>
      <trkpt lat="49.18137" lon="4.05812">
        <ele>118.4</ele>
        <time>2026-08-20T09:29:36Z</time>
      </trkpt>
      <trkpt lat="49.1813" lon="4.05817">
        <ele>118.1</ele>
        <time>2026-08-20T09:29:42Z</time>
      </trkpt>
      <trkpt lat="49.18126" lon="4.05821">
        <ele>117.8</ele>
        <time>2026-08-20T09:29:47Z</time>
      </trkpt>
      <trkpt lat="49.1812" lon="4.05827">
        <ele>117.5</ele>
        <time>2026-08-20T09:29:52Z</time>
      </trkpt>
      <trkpt lat="49.18114" lon="4.05832">
        <ele>117.1</ele>
        <time>2026-08-20T09:29:58Z</time>
      </trkpt>
      <trkpt lat="49.18109" lon="4.05836">
        <ele>116.9</ele>
        <time>2026-08-20T09:30:03Z</time>
      </trkpt>
      <trkpt lat="49.18104" lon="4.0584">
        <ele>116.7</ele>
        <time>2026-08-20T09:30:08Z</time>
      </trkpt>
      <trkpt lat="49.18098" lon="4.05844">
        <ele>116.4</ele>
        <time>2026-08-20T09:30:14Z</time>
      </trkpt>
      <trkpt lat="49.18092" lon="4.05849">
        <ele>116.1</ele>
        <time>2026-08-20T09:30:19Z</time>
      </trkpt>
      <trkpt lat="49.18087" lon="4.05853">
        <ele>115.9</ele>
        <time>2026-08-20T09:30:24Z</time>
      </trkpt>
      <trkpt lat="49.18081" lon="4.05859">
        <ele>115.7</ele>
        <time>2026-08-20T09:30:30Z</time>
      </trkpt>
      <trkpt lat="49.18076" lon="4.05863">
        <ele>115.6</ele>
        <time>2026-08-20T09:30:35Z</time>
      </trkpt>
      <trkpt lat="49.1807" lon="4.05867">
        <ele>115.5</ele>
        <time>2026-08-20T09:30:40Z</time>
      </trkpt>
      <trkpt lat="49.18064" lon="4.05873">
        <ele>115.4</ele>
        <time>2026-08-20T09:30:46Z</time>
      </trkpt>
      <trkpt lat="49.18058" lon="4.05877">
        <ele>115.3</ele>
        <time>2026-08-20T09:30:51Z</time>
      </trkpt>
      <trkpt lat="49.18053" lon="4.05881">
        <ele>115.3</ele>
        <time>2026-08-20T09:30:56Z</time>
      </trkpt>
      <trkpt lat="49.18052" lon="4.05881">
        <ele>115.3</ele>
        <time>2026-08-20T09:31:02Z</time>
      </trkpt>
      <trkpt lat="49.18048" lon="4.05886">
        <ele>115.2</ele>
        <time>2026-08-20T09:31:07Z</time>
      </trkpt>
      <trkpt lat="49.18043" lon="4.0589">
        <ele>115.2</ele>
        <time>2026-08-20T09:31:12Z</time>
      </trkpt>
      <trkpt lat="49.18037" lon="4.05895">
        <ele>115.1</ele>
        <time>2026-08-20T09:31:18Z</time>
      </trkpt>
      <trkpt lat="49.18032" lon="4.059">
        <ele>115.1</ele>
        <time>2026-08-20T09:31:23Z</time>
      </trkpt>
      <trkpt lat="49.18027" lon="4.05904">
        <ele>115</ele>
        <time>2026-08-20T09:31:28Z</time>
      </trkpt>
      <trkpt lat="49.18021" lon="4.05909">
        <ele>115</ele>
        <time>2026-08-20T09:31:34Z</time>
      </trkpt>
      <trkpt lat="49.18016" lon="4.05913">
        <ele>115</ele>
        <time>2026-08-20T09:31:39Z</time>
      </trkpt>
      <trkpt lat="49.1801" lon="4.05918">
        <ele>115</ele>
        <time>2026-08-20T09:31:44Z</time>
      </trkpt>
      <trkpt lat="49.18003" lon="4.05923">
        <ele>115</ele>
        <time>2026-08-20T09:31:50Z</time>
      </trkpt>
      <trkpt lat="49.17997" lon="4.05928">
        <ele>115</ele>
        <time>2026-08-20T09:31:55Z</time>
      </trkpt>
      <trkpt lat="49.17992" lon="4.05933">
        <ele>115.1</ele>
        <time>2026-08-20T09:32:00Z</time>
      </trkpt>
      <trkpt lat="49.17985" lon="4.05937">
        <ele>115.2</ele>
        <time>2026-08-20T09:32:06Z</time>
      </trkpt>
      <trkpt lat="49.1798" lon="4.05942">
        <ele>115.3</ele>
        <time>2026-08-20T09:32:11Z</time>
      </trkpt>
      <trkpt lat="49.17975" lon="4.05947">
        <ele>115.4</ele>
        <time>2026-08-20T09:32:16Z</time>
      </trkpt>
      <trkpt lat="49.17969" lon="4.05952">
        <ele>115.5</ele>
        <time>2026-08-20T09:32:22Z</time>
      </trkpt>
      <trkpt lat="49.17964" lon="4.05956">
        <ele>115.6</ele>
        <time>2026-08-20T09:32:27Z</time>
      </trkpt>
      <trkpt lat="49.17958" lon="4.05961">
        <ele>115.8</ele>
        <time>2026-08-20T09:32:32Z</time>
      </trkpt>
      <trkpt lat="49.17951" lon="4.05966">
        <ele>115.9</ele>
        <time>2026-08-20T09:32:38Z</time>
      </trkpt>
      <trkpt lat="49.17945" lon="4.0597">
        <ele>116.1</ele>
        <time>2026-08-20T09:32:43Z</time>
      </trkpt>
      <trkpt lat="49.17941" lon="4.05974">
        <ele>116.2</ele>
        <time>2026-08-20T09:32:48Z</time>
      </trkpt>
      <trkpt lat="49.17934" lon="4.0598">
        <ele>116.4</ele>
        <time>2026-08-20T09:32:54Z</time>
      </trkpt>
      <trkpt lat="49.17933" lon="4.05983">
        <ele>116.4</ele>
        <time>2026-08-20T09:32:59Z</time>
      </trkpt>
      <trkpt lat="49.17933" lon="4.05984">
        <ele>116.5</ele>
        <time>2026-08-20T09:33:04Z</time>
      </trkpt>
      <trkpt lat="49.17933" lon="4.05984">
        <ele>116.5</ele>
        <time>2026-08-20T09:33:10Z</time>
      </trkpt>
      <trkpt lat="49.17933" lon="4.05984">
        <ele>116.5</ele>
        <time>2026-08-20T09:33:15Z</time>
      </trkpt>
      <trkpt lat="49.17933" lon="4.05984">
        <ele>116.5</ele>
        <time>2026-08-20T09:33:20Z</time>
      </trkpt>
      <trkpt lat="49.17933" lon="4.05984">
        <ele>116.5</ele>
        <time>2026-08-20T09:33:26Z</time>
      </trkpt>
      <trkpt lat="49.17933" lon="4.05984">
        <ele>116.5</ele>
        <time>2026-08-20T09:33:31Z</time>
      </trkpt>
      <trkpt lat="49.17933" lon="4.05984">
        <ele>116.5</ele>
        <time>2026-08-20T09:33:36Z</time>
      </trkpt>
      <trkpt lat="49.17933" lon="4.05984">
        <ele>116.5</ele>
        <time>2026-08-20T09:33:42Z</time>
      </trkpt>
      <trkpt lat="49.17933" lon="4.05984">
        <ele>116.5</ele>
        <time>2026-08-20T09:33:47Z</time>
      </trkpt>
      <trkpt lat="49.17933" lon="4.05984">
        <ele>116.5</ele>
        <time>2026-08-20T09:33:52Z</time>
      </trkpt>
      <trkpt lat="49.17928" lon="4.05987">
        <ele>116.6</ele>
        <time>2026-08-20T09:33:58Z</time>
      </trkpt>
      <trkpt lat="49.17924" lon="4.0599">
        <ele>116.7</ele>
        <time>2026-08-20T09:34:03Z</time>
      </trkpt>
      <trkpt lat="49.17919" lon="4.05994">
        <ele>116.9</ele>
        <time>2026-08-20T09:34:08Z</time>
      </trkpt>
      <trkpt lat="49.17912" lon="4.05999">
        <ele>117</ele>
        <time>2026-08-20T09:34:14Z</time>
      </trkpt>
      <trkpt lat="49.17907" lon="4.06004">
        <ele>117</ele>
        <time>2026-08-20T09:34:19Z</time>
      </trkpt>
      <trkpt lat="49.17903" lon="4.06008">
        <ele>117.1</ele>
        <time>2026-08-20T09:34:24Z</time>
      </trkpt>
      <trkpt lat="49.17897" lon="4.06013">
        <ele>117.1</ele>
        <time>2026-08-20T09:34:30Z</time>
      </trkpt>
      <trkpt lat="49.17893" lon="4.06016">
        <ele>117.1</ele>
        <time>2026-08-20T09:34:35Z</time>
      </trkpt>
      <trkpt lat="49.17888" lon="4.06021">
        <ele>117.1</ele>
        <time>2026-08-20T09:34:40Z</time>
      </trkpt>
      <trkpt lat="49.17882" lon="4.06025">
        <ele>117.1</ele>
        <time>2026-08-20T09:34:46Z</time>
      </trkpt>
      <trkpt lat="49.17877" lon="4.06029">
        <ele>117</ele>
        <time>2026-08-20T09:34:51Z</time>
      </trkpt>
      <trkpt lat="49.17872" lon="4.06033">
        <ele>117</ele>
        <time>2026-08-20T09:34:56Z</time>
      </trkpt>
      <trkpt lat="49.17865" lon="4.06038">
        <ele>116.9</ele>
        <time>2026-08-20T09:35:02Z</time>
      </trkpt>
      <trkpt lat="49.1786" lon="4.06041">
        <ele>116.8</ele>
        <time>2026-08-20T09:35:07Z</time>
      </trkpt>
      <trkpt lat="49.17854" lon="4.06047">
        <ele>116.7</ele>
        <time>2026-08-20T09:35:12Z</time>
      </trkpt>
      <trkpt lat="49.17848" lon="4.06051">
        <ele>116.6</ele>
        <time>2026-08-20T09:35:18Z</time>
      </trkpt>
      <trkpt lat="49.17844" lon="4.06054">
        <ele>116.5</ele>
        <time>2026-08-20T09:35:23Z</time>
      </trkpt>
      <trkpt lat="49.17839" lon="4.06059">
        <ele>116.4</ele>
        <time>2026-08-20T09:35:28Z</time>
      </trkpt>
      <trkpt lat="49.17833" lon="4.06064">
        <ele>116.2</ele>
        <time>2026-08-20T09:35:34Z</time>
      </trkpt>
      <trkpt lat="49.17827" lon="4.06069">
        <ele>116.1</ele>
        <time>2026-08-20T09:35:39Z</time>
      </trkpt>
      <trkpt lat="49.17821" lon="4.06074">
        <ele>116</ele>
        <time>2026-08-20T09:35:44Z</time>
      </trkpt>
      <trkpt lat="49.17814" lon="4.0608">
        <ele>115.8</ele>
        <time>2026-08-20T09:35:50Z</time>
      </trkpt>
      <trkpt lat="49.17809" lon="4.06085">
        <ele>115.7</ele>
        <time>2026-08-20T09:35:55Z</time>
      </trkpt>
      <trkpt lat="49.17804" lon="4.0609">
        <ele>115.6</ele>
        <time>2026-08-20T09:36:00Z</time>
      </trkpt>
      <trkpt lat="49.17798" lon="4.06095">
        <ele>115.6</ele>
        <time>2026-08-20T09:36:06Z</time>
      </trkpt>
      <trkpt lat="49.17793" lon="4.06099">
        <ele>115.5</ele>
        <time>2026-08-20T09:36:11Z</time>
      </trkpt>
      <trkpt lat="49.17788" lon="4.06103">
        <ele>115.5</ele>
        <time>2026-08-20T09:36:16Z</time>
      </trkpt>
      <trkpt lat="49.17783" lon="4.06107">
        <ele>115.4</ele>
        <time>2026-08-20T09:36:22Z</time>
      </trkpt>
      <trkpt lat="49.17778" lon="4.06109">
        <ele>115.3</ele>
        <time>2026-08-20T09:36:27Z</time>
      </trkpt>
      <trkpt lat="49.17775" lon="4.06112">
        <ele>115.3</ele>
        <time>2026-08-20T09:36:32Z</time>
      </trkpt>
      <trkpt lat="49.17772" lon="4.06116">
        <ele>115.3</ele>
        <time>2026-08-20T09:36:38Z</time>
      </trkpt>
      <trkpt lat="49.17768" lon="4.0612">
        <ele>115.2</ele>
        <time>2026-08-20T09:36:43Z</time>
      </trkpt>
      <trkpt lat="49.17764" lon="4.06124">
        <ele>115.2</ele>
        <time>2026-08-20T09:36:48Z</time>
      </trkpt>
      <trkpt lat="49.17759" lon="4.06128">
        <ele>115.1</ele>
        <time>2026-08-20T09:36:54Z</time>
      </trkpt>
      <trkpt lat="49.17755" lon="4.06133">
        <ele>115.1</ele>
        <time>2026-08-20T09:36:59Z</time>
      </trkpt>
      <trkpt lat="49.17751" lon="4.06139">
        <ele>115</ele>
        <time>2026-08-20T09:37:04Z</time>
      </trkpt>
      <trkpt lat="49.17746" lon="4.06147">
        <ele>114.8</ele>
        <time>2026-08-20T09:37:10Z</time>
      </trkpt>
      <trkpt lat="49.17744" lon="4.06154">
        <ele>114.7</ele>
        <time>2026-08-20T09:37:15Z</time>
      </trkpt>
      <trkpt lat="49.17742" lon="4.06162">
        <ele>114.6</ele>
        <time>2026-08-20T09:37:20Z</time>
      </trkpt>
      <trkpt lat="49.17739" lon="4.06171">
        <ele>114.4</ele>
        <time>2026-08-20T09:37:26Z</time>
      </trkpt>
      <trkpt lat="49.17736" lon="4.0618">
        <ele>114.1</ele>
        <time>2026-08-20T09:37:31Z</time>
      </trkpt>
      <trkpt lat="49.17733" lon="4.06189">
        <ele>113.8</ele>
        <time>2026-08-20T09:37:36Z</time>
      </trkpt>
      <trkpt lat="49.1773" lon="4.06197">
        <ele>113.5</ele>
        <time>2026-08-20T09:37:42Z</time>
      </trkpt>
      <trkpt lat="49.1773" lon="4.06201">
        <ele>113.4</ele>
        <time>2026-08-20T09:37:47Z</time>
      </trkpt>
      <trkpt lat="49.17728" lon="4.06209">
        <ele>113.2</ele>
        <time>2026-08-20T09:37:52Z</time>
      </trkpt>
      <trkpt lat="49.17724" lon="4.06219">
        <ele>112.9</ele>
        <time>2026-08-20T09:37:58Z</time>
      </trkpt>
      <trkpt lat="49.17722" lon="4.06227">
        <ele>112.7</ele>
        <time>2026-08-20T09:38:03Z</time>
      </trkpt>
      <trkpt lat="49.17719" lon="4.06235">
        <ele>112.5</ele>
        <time>2026-08-20T09:38:08Z</time>
      </trkpt>
      <trkpt lat="49.17716" lon="4.06246">
        <ele>112.2</ele>
        <time>2026-08-20T09:38:14Z</time>
      </trkpt>
      <trkpt lat="49.17714" lon="4.06254">
        <ele>112.1</ele>
        <time>2026-08-20T09:38:19Z</time>
      </trkpt>
      <trkpt lat="49.17711" lon="4.06263">
        <ele>112</ele>
        <time>2026-08-20T09:38:24Z</time>
      </trkpt>
      <trkpt lat="49.17708" lon="4.06273">
        <ele>111.9</ele>
        <time>2026-08-20T09:38:30Z</time>
      </trkpt>
      <trkpt lat="49.17705" lon="4.06282">
        <ele>111.7</ele>
        <time>2026-08-20T09:38:35Z</time>
      </trkpt>
      <trkpt lat="49.17703" lon="4.06289">
        <ele>111.7</ele>
        <time>2026-08-20T09:38:40Z</time>
      </trkpt>
      <trkpt lat="49.17701" lon="4.06299">
        <ele>111.6</ele>
        <time>2026-08-20T09:38:46Z</time>
      </trkpt>
      <trkpt lat="49.17698" lon="4.06308">
        <ele>111.5</ele>
        <time>2026-08-20T09:38:51Z</time>
      </trkpt>
      <trkpt lat="49.17695" lon="4.06316">
        <ele>111.4</ele>
        <time>2026-08-20T09:38:56Z</time>
      </trkpt>
      <trkpt lat="49.17692" lon="4.06326">
        <ele>111.3</ele>
        <time>2026-08-20T09:39:02Z</time>
      </trkpt>
      <trkpt lat="49.1769" lon="4.06335">
        <ele>111.3</ele>
        <time>2026-08-20T09:39:07Z</time>
      </trkpt>
      <trkpt lat="49.17687" lon="4.06343">
        <ele>111.1</ele>
        <time>2026-08-20T09:39:12Z</time>
      </trkpt>
      <trkpt lat="49.17683" lon="4.06352">
        <ele>111</ele>
        <time>2026-08-20T09:39:18Z</time>
      </trkpt>
      <trkpt lat="49.17681" lon="4.0636">
        <ele>110.9</ele>
        <time>2026-08-20T09:39:23Z</time>
      </trkpt>
      <trkpt lat="49.17678" lon="4.06369">
        <ele>110.7</ele>
        <time>2026-08-20T09:39:28Z</time>
      </trkpt>
      <trkpt lat="49.17676" lon="4.06375">
        <ele>110.6</ele>
        <time>2026-08-20T09:39:34Z</time>
      </trkpt>
      <trkpt lat="49.17676" lon="4.06376">
        <ele>110.6</ele>
        <time>2026-08-20T09:39:39Z</time>
      </trkpt>
      <trkpt lat="49.17676" lon="4.06376">
        <ele>110.6</ele>
        <time>2026-08-20T09:39:44Z</time>
      </trkpt>
      <trkpt lat="49.17676" lon="4.06376">
        <ele>110.6</ele>
        <time>2026-08-20T09:39:50Z</time>
      </trkpt>
      <trkpt lat="49.17676" lon="4.06376">
        <ele>110.6</ele>
        <time>2026-08-20T09:39:55Z</time>
      </trkpt>
      <trkpt lat="49.17676" lon="4.06376">
        <ele>110.6</ele>
        <time>2026-08-20T09:40:00Z</time>
      </trkpt>
      <trkpt lat="49.17676" lon="4.06376">
        <ele>110.6</ele>
        <time>2026-08-20T09:40:06Z</time>
      </trkpt>
      <trkpt lat="49.17676" lon="4.06376">
        <ele>110.6</ele>
        <time>2026-08-20T09:40:11Z</time>
      </trkpt>
      <trkpt lat="49.17676" lon="4.06376">
        <ele>110.6</ele>
        <time>2026-08-20T09:40:16Z</time>
      </trkpt>
      <trkpt lat="49.17676" lon="4.06376">
        <ele>110.6</ele>
        <time>2026-08-20T09:40:22Z</time>
      </trkpt>
      <trkpt lat="49.17676" lon="4.06376">
        <ele>110.6</ele>
        <time>2026-08-20T09:40:27Z</time>
      </trkpt>
      <trkpt lat="49.17676" lon="4.06376">
        <ele>110.6</ele>
        <time>2026-08-20T09:40:32Z</time>
      </trkpt>
      <trkpt lat="49.17676" lon="4.06376">
        <ele>110.6</ele>
        <time>2026-08-20T09:40:38Z</time>
      </trkpt>
      <trkpt lat="49.17676" lon="4.06376">
        <ele>110.6</ele>
        <time>2026-08-20T09:40:43Z</time>
      </trkpt>
      <trkpt lat="49.17676" lon="4.06376">
        <ele>110.6</ele>
        <time>2026-08-20T09:40:48Z</time>
      </trkpt>
      <trkpt lat="49.17674" lon="4.06379">
        <ele>110.5</ele>
        <time>2026-08-20T09:40:54Z</time>
      </trkpt>
      <trkpt lat="49.17673" lon="4.06385">
        <ele>110.5</ele>
        <time>2026-08-20T09:40:59Z</time>
      </trkpt>
      <trkpt lat="49.17671" lon="4.0639">
        <ele>110.4</ele>
        <time>2026-08-20T09:41:04Z</time>
      </trkpt>
      <trkpt lat="49.1767" lon="4.06398">
        <ele>110.3</ele>
        <time>2026-08-20T09:41:10Z</time>
      </trkpt>
      <trkpt lat="49.17668" lon="4.06405">
        <ele>110.2</ele>
        <time>2026-08-20T09:41:15Z</time>
      </trkpt>
      <trkpt lat="49.17666" lon="4.0641">
        <ele>110.1</ele>
        <time>2026-08-20T09:41:20Z</time>
      </trkpt>
      <trkpt lat="49.17664" lon="4.06417">
        <ele>110</ele>
        <time>2026-08-20T09:41:26Z</time>
      </trkpt>
      <trkpt lat="49.17662" lon="4.06424">
        <ele>110</ele>
        <time>2026-08-20T09:41:31Z</time>
      </trkpt>
      <trkpt lat="49.1766" lon="4.06431">
        <ele>109.9</ele>
        <time>2026-08-20T09:41:36Z</time>
      </trkpt>
      <trkpt lat="49.17657" lon="4.0644">
        <ele>109.8</ele>
        <time>2026-08-20T09:41:42Z</time>
      </trkpt>
      <trkpt lat="49.17655" lon="4.06447">
        <ele>109.8</ele>
        <time>2026-08-20T09:41:47Z</time>
      </trkpt>
      <trkpt lat="49.17653" lon="4.06455">
        <ele>109.7</ele>
        <time>2026-08-20T09:41:52Z</time>
      </trkpt>
      <trkpt lat="49.17649" lon="4.06464">
        <ele>109.6</ele>
        <time>2026-08-20T09:41:58Z</time>
      </trkpt>
      <trkpt lat="49.17647" lon="4.06473">
        <ele>109.6</ele>
        <time>2026-08-20T09:42:03Z</time>
      </trkpt>
      <trkpt lat="49.17645" lon="4.06479">
        <ele>109.5</ele>
        <time>2026-08-20T09:42:08Z</time>
      </trkpt>
      <trkpt lat="49.17642" lon="4.06489">
        <ele>109.4</ele>
        <time>2026-08-20T09:42:14Z</time>
      </trkpt>
      <trkpt lat="49.17639" lon="4.06498">
        <ele>109.4</ele>
        <time>2026-08-20T09:42:19Z</time>
      </trkpt>
      <trkpt lat="49.17636" lon="4.06507">
        <ele>109.4</ele>
        <time>2026-08-20T09:42:24Z</time>
      </trkpt>
      <trkpt lat="49.17632" lon="4.06518">
        <ele>109.5</ele>
        <time>2026-08-20T09:42:30Z</time>
      </trkpt>
      <trkpt lat="49.1763" lon="4.06525">
        <ele>109.6</ele>
        <time>2026-08-20T09:42:35Z</time>
      </trkpt>
      <trkpt lat="49.17628" lon="4.06535">
        <ele>109.7</ele>
        <time>2026-08-20T09:42:40Z</time>
      </trkpt>
      <trkpt lat="49.17626" lon="4.06543">
        <ele>109.7</ele>
        <time>2026-08-20T09:42:46Z</time>
      </trkpt>
      <trkpt lat="49.17623" lon="4.0655">
        <ele>109.8</ele>
        <time>2026-08-20T09:42:51Z</time>
      </trkpt>
      <trkpt lat="49.17621" lon="4.06557">
        <ele>109.9</ele>
        <time>2026-08-20T09:42:56Z</time>
      </trkpt>
      <trkpt lat="49.17619" lon="4.06566">
        <ele>110</ele>
        <time>2026-08-20T09:43:02Z</time>
      </trkpt>
      <trkpt lat="49.17616" lon="4.06573">
        <ele>110.1</ele>
        <time>2026-08-20T09:43:07Z</time>
      </trkpt>
      <trkpt lat="49.17613" lon="4.06581">
        <ele>110.3</ele>
        <time>2026-08-20T09:43:12Z</time>
      </trkpt>
      <trkpt lat="49.17611" lon="4.0659">
        <ele>110.4</ele>
        <time>2026-08-20T09:43:18Z</time>
      </trkpt>
      <trkpt lat="49.17608" lon="4.06598">
        <ele>110.7</ele>
        <time>2026-08-20T09:43:23Z</time>
      </trkpt>
      <trkpt lat="49.17605" lon="4.06607">
        <ele>110.9</ele>
        <time>2026-08-20T09:43:28Z</time>
      </trkpt>
      <trkpt lat="49.17603" lon="4.06616">
        <ele>111.1</ele>
        <time>2026-08-20T09:43:34Z</time>
      </trkpt>
      <trkpt lat="49.17601" lon="4.06624">
        <ele>111.3</ele>
        <time>2026-08-20T09:43:39Z</time>
      </trkpt>
      <trkpt lat="49.17599" lon="4.06631">
        <ele>111.6</ele>
        <time>2026-08-20T09:43:44Z</time>
      </trkpt>
      <trkpt lat="49.17596" lon="4.06642">
        <ele>111.9</ele>
        <time>2026-08-20T09:43:50Z</time>
      </trkpt>
      <trkpt lat="49.17594" lon="4.06649">
        <ele>112.1</ele>
        <time>2026-08-20T09:43:55Z</time>
      </trkpt>
      <trkpt lat="49.1759" lon="4.06657">
        <ele>112.5</ele>
        <time>2026-08-20T09:44:00Z</time>
      </trkpt>
      <trkpt lat="49.17588" lon="4.06665">
        <ele>112.7</ele>
        <time>2026-08-20T09:44:06Z</time>
      </trkpt>
      <trkpt lat="49.17583" lon="4.0667">
        <ele>113.1</ele>
        <time>2026-08-20T09:44:11Z</time>
      </trkpt>
      <trkpt lat="49.17578" lon="4.06669">
        <ele>113.3</ele>
        <time>2026-08-20T09:44:16Z</time>
      </trkpt>
      <trkpt lat="49.17571" lon="4.06665">
        <ele>113.6</ele>
        <time>2026-08-20T09:44:22Z</time>
      </trkpt>
      <trkpt lat="49.17566" lon="4.06661">
        <ele>113.7</ele>
        <time>2026-08-20T09:44:27Z</time>
      </trkpt>
      <trkpt lat="49.17561" lon="4.0666">
        <ele>113.9</ele>
        <time>2026-08-20T09:44:32Z</time>
      </trkpt>
      <trkpt lat="49.17555" lon="4.06655">
        <ele>114.1</ele>
        <time>2026-08-20T09:44:38Z</time>
      </trkpt>
      <trkpt lat="49.1755" lon="4.0665">
        <ele>114.2</ele>
        <time>2026-08-20T09:44:43Z</time>
      </trkpt>
      <trkpt lat="49.17546" lon="4.06649">
        <ele>114.4</ele>
        <time>2026-08-20T09:44:48Z</time>
      </trkpt>
      <trkpt lat="49.17541" lon="4.06645">
        <ele>114.5</ele>
        <time>2026-08-20T09:44:54Z</time>
      </trkpt>
      <trkpt lat="49.17535" lon="4.06642">
        <ele>114.7</ele>
        <time>2026-08-20T09:44:59Z</time>
      </trkpt>
      <trkpt lat="49.1753" lon="4.06637">
        <ele>114.8</ele>
        <time>2026-08-20T09:45:04Z</time>
      </trkpt>
      <trkpt lat="49.17523" lon="4.06634">
        <ele>115.1</ele>
        <time>2026-08-20T09:45:10Z</time>
      </trkpt>
      <trkpt lat="49.17517" lon="4.06629">
        <ele>115.3</ele>
        <time>2026-08-20T09:45:15Z</time>
      </trkpt>
      <trkpt lat="49.17511" lon="4.06625">
        <ele>115.5</ele>
        <time>2026-08-20T09:45:20Z</time>
      </trkpt>
      <trkpt lat="49.17504" lon="4.0662">
        <ele>115.7</ele>
        <time>2026-08-20T09:45:26Z</time>
      </trkpt>
      <trkpt lat="49.17499" lon="4.06616">
        <ele>115.8</ele>
        <time>2026-08-20T09:45:31Z</time>
      </trkpt>
      <trkpt lat="49.17494" lon="4.06613">
        <ele>116.1</ele>
        <time>2026-08-20T09:45:36Z</time>
      </trkpt>
      <trkpt lat="49.17487" lon="4.06609">
        <ele>116.5</ele>
        <time>2026-08-20T09:45:42Z</time>
      </trkpt>
      <trkpt lat="49.17484" lon="4.06605">
        <ele>116.6</ele>
        <time>2026-08-20T09:45:47Z</time>
      </trkpt>
      <trkpt lat="49.17478" lon="4.06602">
        <ele>116.9</ele>
        <time>2026-08-20T09:45:52Z</time>
      </trkpt>
      <trkpt lat="49.17472" lon="4.06598">
        <ele>117.2</ele>
        <time>2026-08-20T09:45:58Z</time>
      </trkpt>
      <trkpt lat="49.17468" lon="4.06597">
        <ele>117.5</ele>
        <time>2026-08-20T09:46:03Z</time>
      </trkpt>
      <trkpt lat="49.17465" lon="4.06594">
        <ele>117.7</ele>
        <time>2026-08-20T09:46:08Z</time>
      </trkpt>
      <trkpt lat="49.17459" lon="4.06589">
        <ele>118</ele>
        <time>2026-08-20T09:46:14Z</time>
      </trkpt>
      <trkpt lat="49.17454" lon="4.06586">
        <ele>118.3</ele>
        <time>2026-08-20T09:46:19Z</time>
      </trkpt>
      <trkpt lat="49.17448" lon="4.06581">
        <ele>118.7</ele>
        <time>2026-08-20T09:46:24Z</time>
      </trkpt>
      <trkpt lat="49.17444" lon="4.06577">
        <ele>118.9</ele>
        <time>2026-08-20T09:46:30Z</time>
      </trkpt>
      <trkpt lat="49.17438" lon="4.06574">
        <ele>119.3</ele>
        <time>2026-08-20T09:46:35Z</time>
      </trkpt>
      <trkpt lat="49.17433" lon="4.06571">
        <ele>119.6</ele>
        <time>2026-08-20T09:46:40Z</time>
      </trkpt>
      <trkpt lat="49.17428" lon="4.06567">
        <ele>119.8</ele>
        <time>2026-08-20T09:46:46Z</time>
      </trkpt>
      <trkpt lat="49.17423" lon="4.06563">
        <ele>120.1</ele>
        <time>2026-08-20T09:46:51Z</time>
      </trkpt>
      <trkpt lat="49.17419" lon="4.0656">
        <ele>120.3</ele>
        <time>2026-08-20T09:46:56Z</time>
      </trkpt>
      <trkpt lat="49.17414" lon="4.06554">
        <ele>120.4</ele>
        <time>2026-08-20T09:47:02Z</time>
      </trkpt>
      <trkpt lat="49.17412" lon="4.06551">
        <ele>120.4</ele>
        <time>2026-08-20T09:47:07Z</time>
      </trkpt>
      <trkpt lat="49.17409" lon="4.06547">
        <ele>120.4</ele>
        <time>2026-08-20T09:47:12Z</time>
      </trkpt>
      <trkpt lat="49.17406" lon="4.06542">
        <ele>120.4</ele>
        <time>2026-08-20T09:47:18Z</time>
      </trkpt>
      <trkpt lat="49.17404" lon="4.06539">
        <ele>120.4</ele>
        <time>2026-08-20T09:47:23Z</time>
      </trkpt>
      <trkpt lat="49.174" lon="4.06535">
        <ele>120.5</ele>
        <time>2026-08-20T09:47:28Z</time>
      </trkpt>
      <trkpt lat="49.17395" lon="4.06529">
        <ele>120.6</ele>
        <time>2026-08-20T09:47:34Z</time>
      </trkpt>
      <trkpt lat="49.17393" lon="4.06525">
        <ele>120.6</ele>
        <time>2026-08-20T09:47:39Z</time>
      </trkpt>
      <trkpt lat="49.1739" lon="4.06521">
        <ele>120.6</ele>
        <time>2026-08-20T09:47:44Z</time>
      </trkpt>
      <trkpt lat="49.17386" lon="4.06515">
        <ele>120.7</ele>
        <time>2026-08-20T09:47:50Z</time>
      </trkpt>
      <trkpt lat="49.17382" lon="4.0651">
        <ele>120.8</ele>
        <time>2026-08-20T09:47:55Z</time>
      </trkpt>
      <trkpt lat="49.17378" lon="4.06505">
        <ele>120.9</ele>
        <time>2026-08-20T09:48:00Z</time>
      </trkpt>
      <trkpt lat="49.17371" lon="4.06499">
        <ele>121.2</ele>
        <time>2026-08-20T09:48:06Z</time>
      </trkpt>
      <trkpt lat="49.17366" lon="4.06493">
        <ele>121.2</ele>
        <time>2026-08-20T09:48:11Z</time>
      </trkpt>
      <trkpt lat="49.17361" lon="4.06489">
        <ele>121.3</ele>
        <time>2026-08-20T09:48:16Z</time>
      </trkpt>
      <trkpt lat="49.17355" lon="4.06485">
        <ele>121.5</ele>
        <time>2026-08-20T09:48:22Z</time>
      </trkpt>
      <trkpt lat="49.1735" lon="4.06485">
        <ele>121.8</ele>
        <time>2026-08-20T09:48:27Z</time>
      </trkpt>
      <trkpt lat="49.17346" lon="4.06489">
        <ele>122.1</ele>
        <time>2026-08-20T09:48:32Z</time>
      </trkpt>
      <trkpt lat="49.17344" lon="4.06495">
        <ele>122.4</ele>
        <time>2026-08-20T09:48:38Z</time>
      </trkpt>
      <trkpt lat="49.17342" lon="4.06501">
        <ele>122.6</ele>
        <time>2026-08-20T09:48:43Z</time>
      </trkpt>
      <trkpt lat="49.17339" lon="4.06509">
        <ele>122.7</ele>
        <time>2026-08-20T09:48:48Z</time>
      </trkpt>
      <trkpt lat="49.17336" lon="4.06517">
        <ele>122.9</ele>
        <time>2026-08-20T09:48:54Z</time>
      </trkpt>
      <trkpt lat="49.17334" lon="4.06524">
        <ele>123</ele>
        <time>2026-08-20T09:48:59Z</time>
      </trkpt>
      <trkpt lat="49.17332" lon="4.06531">
        <ele>123</ele>
        <time>2026-08-20T09:49:04Z</time>
      </trkpt>
      <trkpt lat="49.17329" lon="4.06539">
        <ele>123.1</ele>
        <time>2026-08-20T09:49:10Z</time>
      </trkpt>
      <trkpt lat="49.17327" lon="4.06546">
        <ele>123.2</ele>
        <time>2026-08-20T09:49:15Z</time>
      </trkpt>
      <trkpt lat="49.17324" lon="4.06554">
        <ele>123.2</ele>
        <time>2026-08-20T09:49:20Z</time>
      </trkpt>
      <trkpt lat="49.17321" lon="4.06562">
        <ele>123.3</ele>
        <time>2026-08-20T09:49:26Z</time>
      </trkpt>
      <trkpt lat="49.17319" lon="4.0657">
        <ele>123.3</ele>
        <time>2026-08-20T09:49:31Z</time>
      </trkpt>
      <trkpt lat="49.17317" lon="4.06578">
        <ele>123.4</ele>
        <time>2026-08-20T09:49:36Z</time>
      </trkpt>
      <trkpt lat="49.17314" lon="4.06587">
        <ele>123.4</ele>
        <time>2026-08-20T09:49:42Z</time>
      </trkpt>
      <trkpt lat="49.17311" lon="4.06595">
        <ele>123.3</ele>
        <time>2026-08-20T09:49:47Z</time>
      </trkpt>
      <trkpt lat="49.17309" lon="4.06601">
        <ele>123.2</ele>
        <time>2026-08-20T09:49:52Z</time>
      </trkpt>
      <trkpt lat="49.17307" lon="4.0661">
        <ele>123.1</ele>
        <time>2026-08-20T09:49:58Z</time>
      </trkpt>
      <trkpt lat="49.17305" lon="4.06618">
        <ele>123</ele>
        <time>2026-08-20T09:50:03Z</time>
      </trkpt>
      <trkpt lat="49.17303" lon="4.06624">
        <ele>122.9</ele>
        <time>2026-08-20T09:50:08Z</time>
      </trkpt>
      <trkpt lat="49.173" lon="4.06635">
        <ele>122.7</ele>
        <time>2026-08-20T09:50:14Z</time>
      </trkpt>
      <trkpt lat="49.17297" lon="4.06643">
        <ele>122.5</ele>
        <time>2026-08-20T09:50:19Z</time>
      </trkpt>
      <trkpt lat="49.17296" lon="4.0665">
        <ele>122.4</ele>
        <time>2026-08-20T09:50:24Z</time>
      </trkpt>
      <trkpt lat="49.17293" lon="4.0666">
        <ele>122.2</ele>
        <time>2026-08-20T09:50:30Z</time>
      </trkpt>
      <trkpt lat="49.1729" lon="4.06668">
        <ele>122</ele>
        <time>2026-08-20T09:50:35Z</time>
      </trkpt>
      <trkpt lat="49.17288" lon="4.06677">
        <ele>121.7</ele>
        <time>2026-08-20T09:50:40Z</time>
      </trkpt>
      <trkpt lat="49.17285" lon="4.06687">
        <ele>121.5</ele>
        <time>2026-08-20T09:50:46Z</time>
      </trkpt>
      <trkpt lat="49.17282" lon="4.06695">
        <ele>121.2</ele>
        <time>2026-08-20T09:50:51Z</time>
      </trkpt>
      <trkpt lat="49.1728" lon="4.06703">
        <ele>121</ele>
        <time>2026-08-20T09:50:56Z</time>
      </trkpt>
      <trkpt lat="49.17277" lon="4.06713">
        <ele>120.7</ele>
        <time>2026-08-20T09:51:02Z</time>
      </trkpt>
      <trkpt lat="49.17274" lon="4.06721">
        <ele>120.4</ele>
        <time>2026-08-20T09:51:07Z</time>
      </trkpt>
      <trkpt lat="49.17272" lon="4.06727">
        <ele>120.2</ele>
        <time>2026-08-20T09:51:12Z</time>
      </trkpt>
      <trkpt lat="49.1727" lon="4.06736">
        <ele>119.9</ele>
        <time>2026-08-20T09:51:18Z</time>
      </trkpt>
      <trkpt lat="49.17267" lon="4.06744">
        <ele>119.6</ele>
        <time>2026-08-20T09:51:23Z</time>
      </trkpt>
      <trkpt lat="49.17265" lon="4.0675">
        <ele>119.4</ele>
        <time>2026-08-20T09:51:28Z</time>
      </trkpt>
      <trkpt lat="49.17262" lon="4.0676">
        <ele>118.9</ele>
        <time>2026-08-20T09:51:34Z</time>
      </trkpt>
      <trkpt lat="49.1726" lon="4.06769">
        <ele>118.6</ele>
        <time>2026-08-20T09:51:39Z</time>
      </trkpt>
      <trkpt lat="49.17258" lon="4.06777">
        <ele>118.3</ele>
        <time>2026-08-20T09:51:44Z</time>
      </trkpt>
      <trkpt lat="49.17255" lon="4.06787">
        <ele>117.8</ele>
        <time>2026-08-20T09:51:50Z</time>
      </trkpt>
      <trkpt lat="49.17252" lon="4.06795">
        <ele>117.4</ele>
        <time>2026-08-20T09:51:55Z</time>
      </trkpt>
      <trkpt lat="49.1725" lon="4.06803">
        <ele>117.1</ele>
        <time>2026-08-20T09:52:00Z</time>
      </trkpt>
      <trkpt lat="49.17247" lon="4.06812">
        <ele>116.8</ele>
        <time>2026-08-20T09:52:06Z</time>
      </trkpt>
      <trkpt lat="49.17245" lon="4.0682">
        <ele>116.5</ele>
        <time>2026-08-20T09:52:11Z</time>
      </trkpt>
      <trkpt lat="49.17242" lon="4.06828">
        <ele>116.2</ele>
        <time>2026-08-20T09:52:16Z</time>
      </trkpt>
      <trkpt lat="49.17239" lon="4.06837">
        <ele>116</ele>
        <time>2026-08-20T09:52:22Z</time>
      </trkpt>
      <trkpt lat="49.17235" lon="4.06842">
        <ele>115.9</ele>
        <time>2026-08-20T09:52:27Z</time>
      </trkpt>
      <trkpt lat="49.17232" lon="4.06847">
        <ele>115.8</ele>
        <time>2026-08-20T09:52:32Z</time>
      </trkpt>
      <trkpt lat="49.17226" lon="4.06848">
        <ele>115.8</ele>
        <time>2026-08-20T09:52:38Z</time>
      </trkpt>
      <trkpt lat="49.1722" lon="4.0685">
        <ele>115.7</ele>
        <time>2026-08-20T09:52:43Z</time>
      </trkpt>
      <trkpt lat="49.1722" lon="4.0685">
        <ele>115.7</ele>
        <time>2026-08-20T09:52:48Z</time>
      </trkpt>
      <trkpt lat="49.17221" lon="4.06852">
        <ele>115.7</ele>
        <time>2026-08-20T09:52:54Z</time>
      </trkpt>
      <trkpt lat="49.17221" lon="4.06852">
        <ele>115.7</ele>
        <time>2026-08-20T09:52:59Z</time>
      </trkpt>
      <trkpt lat="49.17221" lon="4.06852">
        <ele>115.7</ele>
        <time>2026-08-20T09:53:04Z</time>
      </trkpt>
      <trkpt lat="49.17221" lon="4.06852">
        <ele>115.7</ele>
        <time>2026-08-20T09:53:10Z</time>
      </trkpt>
      <trkpt lat="49.17221" lon="4.06852">
        <ele>115.7</ele>
        <time>2026-08-20T09:53:15Z</time>
      </trkpt>
      <trkpt lat="49.17217" lon="4.06849">
        <ele>115.7</ele>
        <time>2026-08-20T09:53:20Z</time>
      </trkpt>
      <trkpt lat="49.1721" lon="4.06853">
        <ele>115.7</ele>
        <time>2026-08-20T09:53:26Z</time>
      </trkpt>
      <trkpt lat="49.17204" lon="4.06856">
        <ele>115.6</ele>
        <time>2026-08-20T09:53:31Z</time>
      </trkpt>
      <trkpt lat="49.17199" lon="4.0686">
        <ele>115.5</ele>
        <time>2026-08-20T09:53:36Z</time>
      </trkpt>
      <trkpt lat="49.17192" lon="4.06863">
        <ele>115.4</ele>
        <time>2026-08-20T09:53:42Z</time>
      </trkpt>
      <trkpt lat="49.17186" lon="4.06867">
        <ele>115.3</ele>
        <time>2026-08-20T09:53:47Z</time>
      </trkpt>
      <trkpt lat="49.17181" lon="4.06871">
        <ele>115.2</ele>
        <time>2026-08-20T09:53:52Z</time>
      </trkpt>
      <trkpt lat="49.17175" lon="4.06876">
        <ele>115</ele>
        <time>2026-08-20T09:53:58Z</time>
      </trkpt>
      <trkpt lat="49.17169" lon="4.06879">
        <ele>114.9</ele>
        <time>2026-08-20T09:54:03Z</time>
      </trkpt>
      <trkpt lat="49.17167" lon="4.06881">
        <ele>114.9</ele>
        <time>2026-08-20T09:54:08Z</time>
      </trkpt>
      <trkpt lat="49.17165" lon="4.06883">
        <ele>114.8</ele>
        <time>2026-08-20T09:54:14Z</time>
      </trkpt>
      <trkpt lat="49.17162" lon="4.06886">
        <ele>114.8</ele>
        <time>2026-08-20T09:54:19Z</time>
      </trkpt>
      <trkpt lat="49.17157" lon="4.06889">
        <ele>114.7</ele>
        <time>2026-08-20T09:54:24Z</time>
      </trkpt>
      <trkpt lat="49.17152" lon="4.06894">
        <ele>114.6</ele>
        <time>2026-08-20T09:54:30Z</time>
      </trkpt>
      <trkpt lat="49.17147" lon="4.06897">
        <ele>114.6</ele>
        <time>2026-08-20T09:54:35Z</time>
      </trkpt>
      <trkpt lat="49.17142" lon="4.06902">
        <ele>114.5</ele>
        <time>2026-08-20T09:54:40Z</time>
      </trkpt>
      <trkpt lat="49.17139" lon="4.06903">
        <ele>114.6</ele>
        <time>2026-08-20T09:54:46Z</time>
      </trkpt>
      <trkpt lat="49.17139" lon="4.06903">
        <ele>114.6</ele>
        <time>2026-08-20T09:54:51Z</time>
      </trkpt>
      <trkpt lat="49.17139" lon="4.06903">
        <ele>114.6</ele>
        <time>2026-08-20T09:54:56Z</time>
      </trkpt>
      <trkpt lat="49.17139" lon="4.06903">
        <ele>114.6</ele>
        <time>2026-08-20T09:55:02Z</time>
      </trkpt>
      <trkpt lat="49.17139" lon="4.06903">
        <ele>114.6</ele>
        <time>2026-08-20T09:55:07Z</time>
      </trkpt>
      <trkpt lat="49.17139" lon="4.06903">
        <ele>114.6</ele>
        <time>2026-08-20T09:55:12Z</time>
      </trkpt>
      <trkpt lat="49.17139" lon="4.06903">
        <ele>114.6</ele>
        <time>2026-08-20T09:55:18Z</time>
      </trkpt>
      <trkpt lat="49.17139" lon="4.06903">
        <ele>114.6</ele>
        <time>2026-08-20T09:55:23Z</time>
      </trkpt>
      <trkpt lat="49.17134" lon="4.06907">
        <ele>114.5</ele>
        <time>2026-08-20T09:55:28Z</time>
      </trkpt>
      <trkpt lat="49.17127" lon="4.06911">
        <ele>114.5</ele>
        <time>2026-08-20T09:55:34Z</time>
      </trkpt>
      <trkpt lat="49.17122" lon="4.06915">
        <ele>114.6</ele>
        <time>2026-08-20T09:55:39Z</time>
      </trkpt>
      <trkpt lat="49.17118" lon="4.0692">
        <ele>114.5</ele>
        <time>2026-08-20T09:55:44Z</time>
      </trkpt>
      <trkpt lat="49.17111" lon="4.06925">
        <ele>114.4</ele>
        <time>2026-08-20T09:55:50Z</time>
      </trkpt>
      <trkpt lat="49.17106" lon="4.06928">
        <ele>114.4</ele>
        <time>2026-08-20T09:55:55Z</time>
      </trkpt>
      <trkpt lat="49.17101" lon="4.06933">
        <ele>114.4</ele>
        <time>2026-08-20T09:56:00Z</time>
      </trkpt>
      <trkpt lat="49.17095" lon="4.06938">
        <ele>114.3</ele>
        <time>2026-08-20T09:56:06Z</time>
      </trkpt>
      <trkpt lat="49.17089" lon="4.06942">
        <ele>114.3</ele>
        <time>2026-08-20T09:56:11Z</time>
      </trkpt>
      <trkpt lat="49.17083" lon="4.06946">
        <ele>114.3</ele>
        <time>2026-08-20T09:56:16Z</time>
      </trkpt>
      <trkpt lat="49.17077" lon="4.0695">
        <ele>114.1</ele>
        <time>2026-08-20T09:56:22Z</time>
      </trkpt>
      <trkpt lat="49.17072" lon="4.06952">
        <ele>114.1</ele>
        <time>2026-08-20T09:56:27Z</time>
      </trkpt>
      <trkpt lat="49.17067" lon="4.06957">
        <ele>113.9</ele>
        <time>2026-08-20T09:56:32Z</time>
      </trkpt>
      <trkpt lat="49.17061" lon="4.06962">
        <ele>113.8</ele>
        <time>2026-08-20T09:56:38Z</time>
      </trkpt>
      <trkpt lat="49.17057" lon="4.06966">
        <ele>113.7</ele>
        <time>2026-08-20T09:56:43Z</time>
      </trkpt>
      <trkpt lat="49.17052" lon="4.06967">
        <ele>113.7</ele>
        <time>2026-08-20T09:56:48Z</time>
      </trkpt>
      <trkpt lat="49.17045" lon="4.06973">
        <ele>113.7</ele>
        <time>2026-08-20T09:56:54Z</time>
      </trkpt>
      <trkpt lat="49.17039" lon="4.06977">
        <ele>113.6</ele>
        <time>2026-08-20T09:56:59Z</time>
      </trkpt>
      <trkpt lat="49.17034" lon="4.0698">
        <ele>113.6</ele>
        <time>2026-08-20T09:57:04Z</time>
      </trkpt>
      <trkpt lat="49.17027" lon="4.06986">
        <ele>113.7</ele>
        <time>2026-08-20T09:57:10Z</time>
      </trkpt>
      <trkpt lat="49.17022" lon="4.0699">
        <ele>113.7</ele>
        <time>2026-08-20T09:57:15Z</time>
      </trkpt>
      <trkpt lat="49.17017" lon="4.06994">
        <ele>113.8</ele>
        <time>2026-08-20T09:57:20Z</time>
      </trkpt>
      <trkpt lat="49.17011" lon="4.06997">
        <ele>113.8</ele>
        <time>2026-08-20T09:57:26Z</time>
      </trkpt>
      <trkpt lat="49.17006" lon="4.07">
        <ele>113.9</ele>
        <time>2026-08-20T09:57:31Z</time>
      </trkpt>
      <trkpt lat="49.17002" lon="4.07003">
        <ele>113.9</ele>
        <time>2026-08-20T09:57:36Z</time>
      </trkpt>
      <trkpt lat="49.16996" lon="4.07007">
        <ele>114</ele>
        <time>2026-08-20T09:57:42Z</time>
      </trkpt>
      <trkpt lat="49.16991" lon="4.0701">
        <ele>114</ele>
        <time>2026-08-20T09:57:47Z</time>
      </trkpt>
      <trkpt lat="49.16986" lon="4.07015">
        <ele>114</ele>
        <time>2026-08-20T09:57:52Z</time>
      </trkpt>
      <trkpt lat="49.16981" lon="4.0702">
        <ele>114</ele>
        <time>2026-08-20T09:57:58Z</time>
      </trkpt>
      <trkpt lat="49.16975" lon="4.07024">
        <ele>114.1</ele>
        <time>2026-08-20T09:58:03Z</time>
      </trkpt>
      <trkpt lat="49.1697" lon="4.07027">
        <ele>114.2</ele>
        <time>2026-08-20T09:58:08Z</time>
      </trkpt>
      <trkpt lat="49.16964" lon="4.07031">
        <ele>114.2</ele>
        <time>2026-08-20T09:58:14Z</time>
      </trkpt>
      <trkpt lat="49.16959" lon="4.07035">
        <ele>114.3</ele>
        <time>2026-08-20T09:58:19Z</time>
      </trkpt>
      <trkpt lat="49.16954" lon="4.07039">
        <ele>114.3</ele>
        <time>2026-08-20T09:58:24Z</time>
      </trkpt>
      <trkpt lat="49.16948" lon="4.07043">
        <ele>114.4</ele>
        <time>2026-08-20T09:58:30Z</time>
      </trkpt>
      <trkpt lat="49.16942" lon="4.07047">
        <ele>114.5</ele>
        <time>2026-08-20T09:58:35Z</time>
      </trkpt>
      <trkpt lat="49.16937" lon="4.07051">
        <ele>114.6</ele>
        <time>2026-08-20T09:58:40Z</time>
      </trkpt>
      <trkpt lat="49.16931" lon="4.07056">
        <ele>114.7</ele>
        <time>2026-08-20T09:58:46Z</time>
      </trkpt>
      <trkpt lat="49.16926" lon="4.0706">
        <ele>114.8</ele>
        <time>2026-08-20T09:58:51Z</time>
      </trkpt>
      <trkpt lat="49.16921" lon="4.07061">
        <ele>114.9</ele>
        <time>2026-08-20T09:58:56Z</time>
      </trkpt>
      <trkpt lat="49.16916" lon="4.07061">
        <ele>115</ele>
        <time>2026-08-20T09:59:02Z</time>
      </trkpt>
      <trkpt lat="49.1691" lon="4.07066">
        <ele>115.1</ele>
        <time>2026-08-20T09:59:07Z</time>
      </trkpt>
      <trkpt lat="49.16904" lon="4.07069">
        <ele>115.2</ele>
        <time>2026-08-20T09:59:12Z</time>
      </trkpt>
      <trkpt lat="49.16898" lon="4.07075">
        <ele>115.2</ele>
        <time>2026-08-20T09:59:18Z</time>
      </trkpt>
      <trkpt lat="49.16895" lon="4.07075">
        <ele>115.3</ele>
        <time>2026-08-20T09:59:23Z</time>
      </trkpt>
      <trkpt lat="49.16894" lon="4.07074">
        <ele>115.3</ele>
        <time>2026-08-20T09:59:28Z</time>
      </trkpt>
      <trkpt lat="49.16888" lon="4.07075">
        <ele>115.3</ele>
        <time>2026-08-20T09:59:34Z</time>
      </trkpt>
      <trkpt lat="49.16883" lon="4.07074">
        <ele>115.4</ele>
        <time>2026-08-20T09:59:39Z</time>
      </trkpt>
      <trkpt lat="49.16878" lon="4.0707">
        <ele>115.5</ele>
        <time>2026-08-20T09:59:44Z</time>
      </trkpt>
      <trkpt lat="49.16874" lon="4.07065">
        <ele>115.5</ele>
        <time>2026-08-20T09:59:50Z</time>
      </trkpt>
      <trkpt lat="49.16874" lon="4.07063">
        <ele>115.5</ele>
        <time>2026-08-20T09:59:55Z</time>
      </trkpt>
      <trkpt lat="49.16873" lon="4.07062">
        <ele>115.5</ele>
        <time>2026-08-20T10:00:00Z</time>
      </trkpt>
      <trkpt lat="49.16873" lon="4.07062">
        <ele>115.5</ele>
        <time>2026-08-20T10:00:06Z</time>
      </trkpt>
      <trkpt lat="49.16873" lon="4.07062">
        <ele>115.5</ele>
        <time>2026-08-20T10:00:11Z</time>
      </trkpt>
      <trkpt lat="49.16873" lon="4.07062">
        <ele>115.5</ele>
        <time>2026-08-20T10:00:16Z</time>
      </trkpt>
      <trkpt lat="49.16873" lon="4.07062">
        <ele>115.5</ele>
        <time>2026-08-20T10:00:22Z</time>
      </trkpt>
      <trkpt lat="49.16873" lon="4.07062">
        <ele>115.5</ele>
        <time>2026-08-20T10:00:27Z</time>
      </trkpt>
      <trkpt lat="49.16873" lon="4.07062">
        <ele>115.5</ele>
        <time>2026-08-20T10:00:32Z</time>
      </trkpt>
      <trkpt lat="49.16873" lon="4.07062">
        <ele>115.5</ele>
        <time>2026-08-20T10:00:38Z</time>
      </trkpt>
      <trkpt lat="49.16873" lon="4.07062">
        <ele>115.5</ele>
        <time>2026-08-20T10:00:43Z</time>
      </trkpt>
      <trkpt lat="49.16873" lon="4.07062">
        <ele>115.5</ele>
        <time>2026-08-20T10:00:48Z</time>
      </trkpt>
      <trkpt lat="49.16873" lon="4.07062">
        <ele>115.5</ele>
        <time>2026-08-20T10:00:54Z</time>
      </trkpt>
      <trkpt lat="49.16873" lon="4.07062">
        <ele>115.5</ele>
        <time>2026-08-20T10:00:59Z</time>
      </trkpt>
      <trkpt lat="49.16873" lon="4.07062">
        <ele>115.5</ele>
        <time>2026-08-20T10:01:04Z</time>
      </trkpt>
      <trkpt lat="49.16873" lon="4.07062">
        <ele>115.5</ele>
        <time>2026-08-20T10:01:10Z</time>
      </trkpt>
      <trkpt lat="49.16873" lon="4.07062">
        <ele>115.5</ele>
        <time>2026-08-20T10:01:15Z</time>
      </trkpt>
      <trkpt lat="49.16873" lon="4.07062">
        <ele>115.5</ele>
        <time>2026-08-20T10:01:20Z</time>
      </trkpt>
      <trkpt lat="49.16873" lon="4.07062">
        <ele>115.5</ele>
        <time>2026-08-20T10:01:26Z</time>
      </trkpt>
      <trkpt lat="49.16873" lon="4.07062">
        <ele>115.5</ele>
        <time>2026-08-20T10:01:31Z</time>
      </trkpt>
      <trkpt lat="49.16873" lon="4.07062">
        <ele>115.5</ele>
        <time>2026-08-20T10:01:36Z</time>
      </trkpt>
      <trkpt lat="49.16873" lon="4.07062">
        <ele>115.5</ele>
        <time>2026-08-20T10:01:42Z</time>
      </trkpt>
      <trkpt lat="49.16873" lon="4.07062">
        <ele>115.5</ele>
        <time>2026-08-20T10:01:47Z</time>
      </trkpt>
      <trkpt lat="49.16873" lon="4.07062">
        <ele>115.5</ele>
        <time>2026-08-20T10:01:52Z</time>
      </trkpt>
      <trkpt lat="49.16873" lon="4.07062">
        <ele>115.5</ele>
        <time>2026-08-20T10:01:58Z</time>
      </trkpt>
      <trkpt lat="49.16873" lon="4.07062">
        <ele>115.5</ele>
        <time>2026-08-20T10:02:03Z</time>
      </trkpt>
      <trkpt lat="49.16873" lon="4.07062">
        <ele>115.5</ele>
        <time>2026-08-20T10:02:08Z</time>
      </trkpt>
      <trkpt lat="49.16873" lon="4.07062">
        <ele>115.5</ele>
        <time>2026-08-20T10:02:14Z</time>
      </trkpt>
      <trkpt lat="49.16873" lon="4.07062">
        <ele>115.5</ele>
        <time>2026-08-20T10:02:19Z</time>
      </trkpt>
      <trkpt lat="49.16873" lon="4.07062">
        <ele>115.5</ele>
        <time>2026-08-20T10:02:24Z</time>
      </trkpt>
      <trkpt lat="49.16873" lon="4.07062">
        <ele>115.5</ele>
        <time>2026-08-20T10:02:30Z</time>
      </trkpt>
      <trkpt lat="49.16873" lon="4.07062">
        <ele>115.5</ele>
        <time>2026-08-20T10:02:35Z</time>
      </trkpt>
      <trkpt lat="49.16873" lon="4.07062">
        <ele>115.5</ele>
        <time>2026-08-20T10:02:40Z</time>
      </trkpt>
      <trkpt lat="49.16873" lon="4.07062">
        <ele>115.5</ele>
        <time>2026-08-20T10:02:46Z</time>
      </trkpt>
      <trkpt lat="49.16873" lon="4.07062">
        <ele>115.5</ele>
        <time>2026-08-20T10:02:51Z</time>
      </trkpt>
      <trkpt lat="49.16873" lon="4.07062">
        <ele>115.5</ele>
        <time>2026-08-20T10:02:56Z</time>
      </trkpt>
      <trkpt lat="49.16873" lon="4.07062">
        <ele>115.5</ele>
        <time>2026-08-20T10:03:02Z</time>
      </trkpt>
      <trkpt lat="49.16873" lon="4.07062">
        <ele>115.5</ele>
        <time>2026-08-20T10:03:07Z</time>
      </trkpt>
      <trkpt lat="49.16873" lon="4.07062">
        <ele>115.5</ele>
        <time>2026-08-20T10:03:12Z</time>
      </trkpt>
      <trkpt lat="49.16873" lon="4.07062">
        <ele>115.5</ele>
        <time>2026-08-20T10:03:18Z</time>
      </trkpt>
      <trkpt lat="49.16873" lon="4.07062">
        <ele>115.5</ele>
        <time>2026-08-20T10:03:23Z</time>
      </trkpt>
      <trkpt lat="49.16873" lon="4.07062">
        <ele>115.5</ele>
        <time>2026-08-20T10:03:28Z</time>
      </trkpt>
      <trkpt lat="49.16873" lon="4.07062">
        <ele>115.5</ele>
        <time>2026-08-20T10:03:34Z</time>
      </trkpt>
      <trkpt lat="49.16873" lon="4.07062">
        <ele>115.5</ele>
        <time>2026-08-20T10:03:39Z</time>
      </trkpt>
      <trkpt lat="49.16873" lon="4.07062">
        <ele>115.5</ele>
        <time>2026-08-20T10:03:44Z</time>
      </trkpt>
      <trkpt lat="49.16873" lon="4.07062">
        <ele>115.5</ele>
        <time>2026-08-20T10:03:50Z</time>
      </trkpt>
      <trkpt lat="49.16873" lon="4.07062">
        <ele>115.5</ele>
        <time>2026-08-20T10:03:55Z</time>
      </trkpt>
      <trkpt lat="49.16873" lon="4.07062">
        <ele>115.5</ele>
        <time>2026-08-20T10:04:00Z</time>
      </trkpt>
      <trkpt lat="49.16873" lon="4.07062">
        <ele>115.5</ele>
        <time>2026-08-20T10:04:06Z</time>
      </trkpt>
      <trkpt lat="49.16873" lon="4.07062">
        <ele>115.5</ele>
        <time>2026-08-20T10:04:11Z</time>
      </trkpt>
      <trkpt lat="49.16873" lon="4.07062">
        <ele>115.5</ele>
        <time>2026-08-20T10:04:16Z</time>
      </trkpt>
      <trkpt lat="49.16873" lon="4.07062">
        <ele>115.5</ele>
        <time>2026-08-20T10:04:22Z</time>
      </trkpt>
      <trkpt lat="49.16873" lon="4.07062">
        <ele>115.5</ele>
        <time>2026-08-20T10:04:27Z</time>
      </trkpt>
      <trkpt lat="49.16873" lon="4.07062">
        <ele>115.5</ele>
        <time>2026-08-20T10:04:32Z</time>
      </trkpt>
      <trkpt lat="49.16873" lon="4.07062">
        <ele>115.5</ele>
        <time>2026-08-20T10:04:38Z</time>
      </trkpt>
      <trkpt lat="49.16873" lon="4.07062">
        <ele>115.5</ele>
        <time>2026-08-20T10:04:43Z</time>
      </trkpt>
      <trkpt lat="49.16873" lon="4.07062">
        <ele>115.5</ele>
        <time>2026-08-20T10:04:48Z</time>
      </trkpt>
      <trkpt lat="49.16873" lon="4.07062">
        <ele>115.5</ele>
        <time>2026-08-20T10:04:54Z</time>
      </trkpt>
      <trkpt lat="49.16873" lon="4.07062">
        <ele>115.5</ele>
        <time>2026-08-20T10:04:59Z</time>
      </trkpt>
      <trkpt lat="49.16873" lon="4.07062">
        <ele>115.5</ele>
        <time>2026-08-20T10:05:04Z</time>
      </trkpt>
      <trkpt lat="49.16873" lon="4.07062">
        <ele>115.5</ele>
        <time>2026-08-20T10:05:10Z</time>
      </trkpt>
      <trkpt lat="49.16873" lon="4.07062">
        <ele>115.5</ele>
        <time>2026-08-20T10:05:15Z</time>
      </trkpt>
      <trkpt lat="49.16873" lon="4.07062">
        <ele>115.5</ele>
        <time>2026-08-20T10:05:20Z</time>
      </trkpt>
      <trkpt lat="49.16873" lon="4.07062">
        <ele>115.5</ele>
        <time>2026-08-20T10:05:26Z</time>
      </trkpt>
      <trkpt lat="49.16873" lon="4.07062">
        <ele>115.5</ele>
        <time>2026-08-20T10:05:31Z</time>
      </trkpt>
      <trkpt lat="49.16873" lon="4.07062">
        <ele>115.5</ele>
        <time>2026-08-20T10:05:36Z</time>
      </trkpt>
      <trkpt lat="49.16873" lon="4.07062">
        <ele>115.5</ele>
        <time>2026-08-20T10:05:42Z</time>
      </trkpt>
      <trkpt lat="49.16873" lon="4.07062">
        <ele>115.5</ele>
        <time>2026-08-20T10:05:47Z</time>
      </trkpt>
      <trkpt lat="49.16873" lon="4.07062">
        <ele>115.5</ele>
        <time>2026-08-20T10:05:52Z</time>
      </trkpt>
      <trkpt lat="49.16873" lon="4.07062">
        <ele>115.5</ele>
        <time>2026-08-20T10:05:58Z</time>
      </trkpt>
      <trkpt lat="49.16873" lon="4.07062">
        <ele>115.5</ele>
        <time>2026-08-20T10:06:03Z</time>
      </trkpt>
      <trkpt lat="49.16873" lon="4.07062">
        <ele>115.5</ele>
        <time>2026-08-20T10:06:08Z</time>
      </trkpt>
      <trkpt lat="49.16873" lon="4.07062">
        <ele>115.5</ele>
        <time>2026-08-20T10:06:14Z</time>
      </trkpt>
      <trkpt lat="49.16873" lon="4.07062">
        <ele>115.5</ele>
        <time>2026-08-20T10:06:19Z</time>
      </trkpt>
      <trkpt lat="49.16873" lon="4.07062">
        <ele>115.5</ele>
        <time>2026-08-20T10:06:24Z</time>
      </trkpt>
      <trkpt lat="49.16873" lon="4.07062">
        <ele>115.5</ele>
        <time>2026-08-20T10:06:30Z</time>
      </trkpt>
      <trkpt lat="49.16873" lon="4.07062">
        <ele>115.5</ele>
        <time>2026-08-20T10:06:35Z</time>
      </trkpt>
      <trkpt lat="49.16873" lon="4.07062">
        <ele>115.5</ele>
        <time>2026-08-20T10:06:40Z</time>
      </trkpt>
      <trkpt lat="49.16873" lon="4.07062">
        <ele>115.5</ele>
        <time>2026-08-20T10:06:46Z</time>
      </trkpt>
      <trkpt lat="49.16873" lon="4.07062">
        <ele>115.5</ele>
        <time>2026-08-20T10:06:51Z</time>
      </trkpt>
      <trkpt lat="49.16873" lon="4.07062">
        <ele>115.5</ele>
        <time>2026-08-20T10:06:56Z</time>
      </trkpt>
      <trkpt lat="49.16873" lon="4.07062">
        <ele>115.5</ele>
        <time>2026-08-20T10:07:02Z</time>
      </trkpt>
      <trkpt lat="49.16873" lon="4.07062">
        <ele>115.5</ele>
        <time>2026-08-20T10:07:07Z</time>
      </trkpt>
      <trkpt lat="49.16873" lon="4.07062">
        <ele>115.5</ele>
        <time>2026-08-20T10:07:12Z</time>
      </trkpt>
      <trkpt lat="49.16873" lon="4.07062">
        <ele>115.5</ele>
        <time>2026-08-20T10:07:18Z</time>
      </trkpt>
      <trkpt lat="49.16873" lon="4.07062">
        <ele>115.5</ele>
        <time>2026-08-20T10:07:23Z</time>
      </trkpt>
      <trkpt lat="49.16873" lon="4.07062">
        <ele>115.5</ele>
        <time>2026-08-20T10:07:28Z</time>
      </trkpt>
      <trkpt lat="49.16873" lon="4.07062">
        <ele>115.5</ele>
        <time>2026-08-20T10:07:34Z</time>
      </trkpt>
      <trkpt lat="49.16873" lon="4.07062">
        <ele>115.5</ele>
        <time>2026-08-20T10:07:39Z</time>
      </trkpt>
      <trkpt lat="49.16873" lon="4.07062">
        <ele>115.5</ele>
        <time>2026-08-20T10:07:44Z</time>
      </trkpt>
      <trkpt lat="49.16873" lon="4.07062">
        <ele>115.5</ele>
        <time>2026-08-20T10:07:50Z</time>
      </trkpt>
      <trkpt lat="49.16873" lon="4.07062">
        <ele>115.5</ele>
        <time>2026-08-20T10:07:55Z</time>
      </trkpt>
      <trkpt lat="49.16873" lon="4.07062">
        <ele>115.5</ele>
        <time>2026-08-20T10:08:00Z</time>
      </trkpt>
      <trkpt lat="49.16873" lon="4.07062">
        <ele>115.5</ele>
        <time>2026-08-20T10:08:06Z</time>
      </trkpt>
      <trkpt lat="49.16873" lon="4.07062">
        <ele>115.5</ele>
        <time>2026-08-20T10:08:11Z</time>
      </trkpt>
      <trkpt lat="49.16873" lon="4.07062">
        <ele>115.5</ele>
        <time>2026-08-20T10:08:16Z</time>
      </trkpt>
      <trkpt lat="49.16873" lon="4.07062">
        <ele>115.5</ele>
        <time>2026-08-20T10:08:22Z</time>
      </trkpt>
      <trkpt lat="49.16873" lon="4.07062">
        <ele>115.5</ele>
        <time>2026-08-20T10:08:27Z</time>
      </trkpt>
      <trkpt lat="49.16873" lon="4.07062">
        <ele>115.5</ele>
        <time>2026-08-20T10:08:32Z</time>
      </trkpt>
      <trkpt lat="49.16873" lon="4.07062">
        <ele>115.5</ele>
        <time>2026-08-20T10:08:38Z</time>
      </trkpt>
      <trkpt lat="49.16873" lon="4.07062">
        <ele>115.5</ele>
        <time>2026-08-20T10:08:43Z</time>
      </trkpt>
      <trkpt lat="49.16873" lon="4.07062">
        <ele>115.5</ele>
        <time>2026-08-20T10:08:48Z</time>
      </trkpt>
      <trkpt lat="49.16873" lon="4.07062">
        <ele>115.5</ele>
        <time>2026-08-20T10:08:54Z</time>
      </trkpt>
      <trkpt lat="49.16873" lon="4.07062">
        <ele>115.5</ele>
        <time>2026-08-20T10:08:59Z</time>
      </trkpt>
      <trkpt lat="49.16873" lon="4.07062">
        <ele>115.5</ele>
        <time>2026-08-20T10:09:04Z</time>
      </trkpt>
      <trkpt lat="49.16873" lon="4.07062">
        <ele>115.5</ele>
        <time>2026-08-20T10:09:10Z</time>
      </trkpt>
      <trkpt lat="49.16873" lon="4.07062">
        <ele>115.5</ele>
        <time>2026-08-20T10:09:15Z</time>
      </trkpt>
      <trkpt lat="49.16873" lon="4.07062">
        <ele>115.5</ele>
        <time>2026-08-20T10:09:20Z</time>
      </trkpt>
      <trkpt lat="49.16873" lon="4.07062">
        <ele>115.5</ele>
        <time>2026-08-20T10:09:26Z</time>
      </trkpt>
      <trkpt lat="49.16873" lon="4.07062">
        <ele>115.5</ele>
        <time>2026-08-20T10:09:31Z</time>
      </trkpt>
      <trkpt lat="49.16873" lon="4.07062">
        <ele>115.5</ele>
        <time>2026-08-20T10:09:36Z</time>
      </trkpt>
      <trkpt lat="49.16873" lon="4.07062">
        <ele>115.5</ele>
        <time>2026-08-20T10:09:42Z</time>
      </trkpt>
      <trkpt lat="49.16873" lon="4.07062">
        <ele>115.5</ele>
        <time>2026-08-20T10:09:47Z</time>
      </trkpt>
      <trkpt lat="49.16873" lon="4.07062">
        <ele>115.5</ele>
        <time>2026-08-20T10:09:52Z</time>
      </trkpt>
      <trkpt lat="49.16873" lon="4.07062">
        <ele>115.5</ele>
        <time>2026-08-20T10:09:58Z</time>
      </trkpt>
      <trkpt lat="49.16873" lon="4.07062">
        <ele>115.5</ele>
        <time>2026-08-20T10:10:03Z</time>
      </trkpt>
      <trkpt lat="49.16873" lon="4.07062">
        <ele>115.5</ele>
        <time>2026-08-20T10:10:08Z</time>
      </trkpt>
      <trkpt lat="49.16873" lon="4.07062">
        <ele>115.5</ele>
        <time>2026-08-20T10:10:14Z</time>
      </trkpt>
      <trkpt lat="49.16873" lon="4.07062">
        <ele>115.5</ele>
        <time>2026-08-20T10:10:19Z</time>
      </trkpt>
      <trkpt lat="49.16873" lon="4.07062">
        <ele>115.5</ele>
        <time>2026-08-20T10:10:24Z</time>
      </trkpt>
      <trkpt lat="49.16873" lon="4.07062">
        <ele>115.5</ele>
        <time>2026-08-20T10:10:30Z</time>
      </trkpt>
      <trkpt lat="49.16873" lon="4.07062">
        <ele>115.5</ele>
        <time>2026-08-20T10:10:35Z</time>
      </trkpt>
      <trkpt lat="49.16873" lon="4.07062">
        <ele>115.5</ele>
        <time>2026-08-20T10:10:40Z</time>
      </trkpt>
      <trkpt lat="49.16873" lon="4.07062">
        <ele>115.5</ele>
        <time>2026-08-20T10:10:46Z</time>
      </trkpt>
      <trkpt lat="49.16873" lon="4.07062">
        <ele>115.5</ele>
        <time>2026-08-20T10:10:51Z</time>
      </trkpt>
      <trkpt lat="49.16873" lon="4.07062">
        <ele>115.5</ele>
        <time>2026-08-20T10:10:56Z</time>
      </trkpt>
      <trkpt lat="49.16873" lon="4.07062">
        <ele>115.5</ele>
        <time>2026-08-20T10:11:02Z</time>
      </trkpt>
      <trkpt lat="49.16873" lon="4.07062">
        <ele>115.5</ele>
        <time>2026-08-20T10:11:07Z</time>
      </trkpt>
      <trkpt lat="49.16873" lon="4.07062">
        <ele>115.5</ele>
        <time>2026-08-20T10:11:12Z</time>
      </trkpt>
      <trkpt lat="49.16873" lon="4.07062">
        <ele>115.5</ele>
        <time>2026-08-20T10:11:18Z</time>
      </trkpt>
      <trkpt lat="49.16873" lon="4.07062">
        <ele>115.5</ele>
        <time>2026-08-20T10:11:23Z</time>
      </trkpt>
      <trkpt lat="49.16873" lon="4.07062">
        <ele>115.5</ele>
        <time>2026-08-20T10:11:28Z</time>
      </trkpt>
      <trkpt lat="49.16873" lon="4.07062">
        <ele>115.5</ele>
        <time>2026-08-20T10:11:34Z</time>
      </trkpt>
      <trkpt lat="49.16873" lon="4.07062">
        <ele>115.5</ele>
        <time>2026-08-20T10:11:39Z</time>
      </trkpt>
      <trkpt lat="49.16873" lon="4.07062">
        <ele>115.5</ele>
        <time>2026-08-20T10:11:44Z</time>
      </trkpt>
      <trkpt lat="49.16873" lon="4.07062">
        <ele>115.5</ele>
        <time>2026-08-20T10:11:50Z</time>
      </trkpt>
      <trkpt lat="49.16873" lon="4.07062">
        <ele>115.5</ele>
        <time>2026-08-20T10:11:55Z</time>
      </trkpt>
      <trkpt lat="49.16873" lon="4.07062">
        <ele>115.5</ele>
        <time>2026-08-20T10:12:00Z</time>
      </trkpt>
      <trkpt lat="49.16873" lon="4.07062">
        <ele>115.5</ele>
        <time>2026-08-20T10:12:06Z</time>
      </trkpt>
      <trkpt lat="49.16873" lon="4.07062">
        <ele>115.5</ele>
        <time>2026-08-20T10:12:11Z</time>
      </trkpt>
      <trkpt lat="49.16873" lon="4.07062">
        <ele>115.5</ele>
        <time>2026-08-20T10:12:16Z</time>
      </trkpt>
      <trkpt lat="49.16873" lon="4.07062">
        <ele>115.5</ele>
        <time>2026-08-20T10:12:22Z</time>
      </trkpt>
      <trkpt lat="49.16873" lon="4.07062">
        <ele>115.5</ele>
        <time>2026-08-20T10:12:27Z</time>
      </trkpt>
      <trkpt lat="49.16873" lon="4.07062">
        <ele>115.5</ele>
        <time>2026-08-20T10:12:32Z</time>
      </trkpt>
      <trkpt lat="49.16873" lon="4.07062">
        <ele>115.5</ele>
        <time>2026-08-20T10:12:38Z</time>
      </trkpt>
      <trkpt lat="49.16873" lon="4.07062">
        <ele>115.5</ele>
        <time>2026-08-20T10:12:43Z</time>
      </trkpt>
      <trkpt lat="49.16873" lon="4.07062">
        <ele>115.5</ele>
        <time>2026-08-20T10:12:48Z</time>
      </trkpt>
      <trkpt lat="49.16873" lon="4.07062">
        <ele>115.5</ele>
        <time>2026-08-20T10:12:54Z</time>
      </trkpt>
      <trkpt lat="49.16873" lon="4.07062">
        <ele>115.5</ele>
        <time>2026-08-20T10:12:59Z</time>
      </trkpt>
      <trkpt lat="49.16873" lon="4.07062">
        <ele>115.5</ele>
        <time>2026-08-20T10:13:04Z</time>
      </trkpt>
      <trkpt lat="49.16873" lon="4.07062">
        <ele>115.5</ele>
        <time>2026-08-20T10:13:10Z</time>
      </trkpt>
      <trkpt lat="49.16873" lon="4.07062">
        <ele>115.5</ele>
        <time>2026-08-20T10:13:15Z</time>
      </trkpt>
      <trkpt lat="49.16873" lon="4.07062">
        <ele>115.5</ele>
        <time>2026-08-20T10:13:20Z</time>
      </trkpt>
      <trkpt lat="49.16873" lon="4.07062">
        <ele>115.5</ele>
        <time>2026-08-20T10:13:26Z</time>
      </trkpt>
      <trkpt lat="49.16873" lon="4.07062">
        <ele>115.5</ele>
        <time>2026-08-20T10:13:31Z</time>
      </trkpt>
      <trkpt lat="49.16873" lon="4.07062">
        <ele>115.5</ele>
        <time>2026-08-20T10:13:36Z</time>
      </trkpt>
      <trkpt lat="49.16873" lon="4.07062">
        <ele>115.5</ele>
        <time>2026-08-20T10:13:42Z</time>
      </trkpt>
      <trkpt lat="49.16873" lon="4.07062">
        <ele>115.5</ele>
        <time>2026-08-20T10:13:47Z</time>
      </trkpt>
      <trkpt lat="49.16873" lon="4.07062">
        <ele>115.5</ele>
        <time>2026-08-20T10:13:52Z</time>
      </trkpt>
      <trkpt lat="49.16873" lon="4.07062">
        <ele>115.5</ele>
        <time>2026-08-20T10:13:58Z</time>
      </trkpt>
      <trkpt lat="49.16873" lon="4.07062">
        <ele>115.5</ele>
        <time>2026-08-20T10:14:03Z</time>
      </trkpt>
      <trkpt lat="49.16873" lon="4.07062">
        <ele>115.5</ele>
        <time>2026-08-20T10:14:08Z</time>
      </trkpt>
      <trkpt lat="49.16873" lon="4.07062">
        <ele>115.5</ele>
        <time>2026-08-20T10:14:14Z</time>
      </trkpt>
      <trkpt lat="49.16873" lon="4.07062">
        <ele>115.5</ele>
        <time>2026-08-20T10:14:19Z</time>
      </trkpt>
      <trkpt lat="49.16873" lon="4.07062">
        <ele>115.5</ele>
        <time>2026-08-20T10:14:24Z</time>
      </trkpt>
      <trkpt lat="49.16873" lon="4.07062">
        <ele>115.5</ele>
        <time>2026-08-20T10:14:30Z</time>
      </trkpt>
      <trkpt lat="49.16873" lon="4.07062">
        <ele>115.5</ele>
        <time>2026-08-20T10:14:35Z</time>
      </trkpt>
      <trkpt lat="49.16873" lon="4.07062">
        <ele>115.5</ele>
        <time>2026-08-20T10:14:40Z</time>
      </trkpt>
      <trkpt lat="49.16873" lon="4.07062">
        <ele>115.5</ele>
        <time>2026-08-20T10:14:46Z</time>
      </trkpt>
      <trkpt lat="49.16873" lon="4.07062">
        <ele>115.5</ele>
        <time>2026-08-20T10:14:51Z</time>
      </trkpt>
      <trkpt lat="49.16873" lon="4.07062">
        <ele>115.5</ele>
        <time>2026-08-20T10:14:56Z</time>
      </trkpt>
      <trkpt lat="49.16873" lon="4.07062">
        <ele>115.5</ele>
        <time>2026-08-20T10:15:02Z</time>
      </trkpt>
      <trkpt lat="49.16873" lon="4.07062">
        <ele>115.5</ele>
        <time>2026-08-20T10:15:07Z</time>
      </trkpt>
      <trkpt lat="49.16873" lon="4.07062">
        <ele>115.5</ele>
        <time>2026-08-20T10:15:12Z</time>
      </trkpt>
      <trkpt lat="49.16873" lon="4.07062">
        <ele>115.5</ele>
        <time>2026-08-20T10:15:18Z</time>
      </trkpt>
      <trkpt lat="49.16873" lon="4.07062">
        <ele>115.5</ele>
        <time>2026-08-20T10:15:23Z</time>
      </trkpt>
      <trkpt lat="49.16873" lon="4.07062">
        <ele>115.5</ele>
        <time>2026-08-20T10:15:28Z</time>
      </trkpt>
      <trkpt lat="49.16873" lon="4.07062">
        <ele>115.5</ele>
        <time>2026-08-20T10:15:34Z</time>
      </trkpt>
      <trkpt lat="49.16873" lon="4.07062">
        <ele>115.5</ele>
        <time>2026-08-20T10:15:39Z</time>
      </trkpt>
      <trkpt lat="49.16873" lon="4.07062">
        <ele>115.5</ele>
        <time>2026-08-20T10:15:44Z</time>
      </trkpt>
      <trkpt lat="49.16873" lon="4.07062">
        <ele>115.5</ele>
        <time>2026-08-20T10:15:50Z</time>
      </trkpt>
      <trkpt lat="49.16873" lon="4.07062">
        <ele>115.5</ele>
        <time>2026-08-20T10:15:55Z</time>
      </trkpt>
      <trkpt lat="49.16873" lon="4.07062">
        <ele>115.5</ele>
        <time>2026-08-20T10:16:00Z</time>
      </trkpt>
      <trkpt lat="49.16873" lon="4.07062">
        <ele>115.5</ele>
        <time>2026-08-20T10:16:06Z</time>
      </trkpt>
      <trkpt lat="49.16873" lon="4.07062">
        <ele>115.5</ele>
        <time>2026-08-20T10:16:11Z</time>
      </trkpt>
      <trkpt lat="49.16873" lon="4.07062">
        <ele>115.5</ele>
        <time>2026-08-20T10:16:16Z</time>
      </trkpt>
      <trkpt lat="49.16873" lon="4.07062">
        <ele>115.5</ele>
        <time>2026-08-20T10:16:22Z</time>
      </trkpt>
      <trkpt lat="49.16873" lon="4.07062">
        <ele>115.5</ele>
        <time>2026-08-20T10:16:27Z</time>
      </trkpt>
      <trkpt lat="49.16873" lon="4.07062">
        <ele>115.5</ele>
        <time>2026-08-20T10:16:32Z</time>
      </trkpt>
      <trkpt lat="49.16873" lon="4.07062">
        <ele>115.5</ele>
        <time>2026-08-20T10:16:38Z</time>
      </trkpt>
      <trkpt lat="49.16873" lon="4.07062">
        <ele>115.5</ele>
        <time>2026-08-20T10:16:43Z</time>
      </trkpt>
      <trkpt lat="49.16873" lon="4.07062">
        <ele>115.5</ele>
        <time>2026-08-20T10:16:48Z</time>
      </trkpt>
      <trkpt lat="49.16873" lon="4.07062">
        <ele>115.5</ele>
        <time>2026-08-20T10:16:54Z</time>
      </trkpt>
      <trkpt lat="49.16873" lon="4.07062">
        <ele>115.5</ele>
        <time>2026-08-20T10:16:59Z</time>
      </trkpt>
      <trkpt lat="49.16873" lon="4.07062">
        <ele>115.5</ele>
        <time>2026-08-20T10:17:04Z</time>
      </trkpt>
      <trkpt lat="49.16873" lon="4.07062">
        <ele>115.5</ele>
        <time>2026-08-20T10:17:10Z</time>
      </trkpt>
      <trkpt lat="49.16873" lon="4.07062">
        <ele>115.5</ele>
        <time>2026-08-20T10:17:15Z</time>
      </trkpt>
      <trkpt lat="49.16873" lon="4.07062">
        <ele>115.5</ele>
        <time>2026-08-20T10:17:20Z</time>
      </trkpt>
      <trkpt lat="49.16873" lon="4.07062">
        <ele>115.5</ele>
        <time>2026-08-20T10:17:26Z</time>
      </trkpt>
      <trkpt lat="49.16873" lon="4.07062">
        <ele>115.5</ele>
        <time>2026-08-20T10:17:31Z</time>
      </trkpt>
      <trkpt lat="49.16873" lon="4.07062">
        <ele>115.5</ele>
        <time>2026-08-20T10:17:36Z</time>
      </trkpt>
      <trkpt lat="49.16873" lon="4.07062">
        <ele>115.5</ele>
        <time>2026-08-20T10:17:42Z</time>
      </trkpt>
      <trkpt lat="49.16873" lon="4.07062">
        <ele>115.5</ele>
        <time>2026-08-20T10:17:47Z</time>
      </trkpt>
      <trkpt lat="49.16873" lon="4.07062">
        <ele>115.5</ele>
        <time>2026-08-20T10:17:52Z</time>
      </trkpt>
      <trkpt lat="49.16873" lon="4.07062">
        <ele>115.5</ele>
        <time>2026-08-20T10:17:58Z</time>
      </trkpt>
      <trkpt lat="49.16873" lon="4.07062">
        <ele>115.5</ele>
        <time>2026-08-20T10:18:03Z</time>
      </trkpt>
      <trkpt lat="49.16873" lon="4.07062">
        <ele>115.5</ele>
        <time>2026-08-20T10:18:08Z</time>
      </trkpt>
      <trkpt lat="49.16873" lon="4.07062">
        <ele>115.5</ele>
        <time>2026-08-20T10:18:14Z</time>
      </trkpt>
      <trkpt lat="49.16873" lon="4.07062">
        <ele>115.5</ele>
        <time>2026-08-20T10:18:19Z</time>
      </trkpt>
      <trkpt lat="49.16873" lon="4.07062">
        <ele>115.5</ele>
        <time>2026-08-20T10:18:24Z</time>
      </trkpt>
      <trkpt lat="49.16873" lon="4.07062">
        <ele>115.5</ele>
        <time>2026-08-20T10:18:30Z</time>
      </trkpt>
      <trkpt lat="49.16873" lon="4.07062">
        <ele>115.5</ele>
        <time>2026-08-20T10:18:35Z</time>
      </trkpt>
      <trkpt lat="49.16873" lon="4.07062">
        <ele>115.5</ele>
        <time>2026-08-20T10:18:40Z</time>
      </trkpt>
      <trkpt lat="49.16873" lon="4.07062">
        <ele>115.5</ele>
        <time>2026-08-20T10:18:46Z</time>
      </trkpt>
      <trkpt lat="49.16873" lon="4.07062">
        <ele>115.5</ele>
        <time>2026-08-20T10:18:51Z</time>
      </trkpt>
      <trkpt lat="49.16873" lon="4.07062">
        <ele>115.5</ele>
        <time>2026-08-20T10:18:56Z</time>
      </trkpt>
      <trkpt lat="49.16873" lon="4.07062">
        <ele>115.5</ele>
        <time>2026-08-20T10:19:02Z</time>
      </trkpt>
      <trkpt lat="49.16873" lon="4.07062">
        <ele>115.5</ele>
        <time>2026-08-20T10:19:07Z</time>
      </trkpt>
      <trkpt lat="49.16873" lon="4.07062">
        <ele>115.5</ele>
        <time>2026-08-20T10:19:12Z</time>
      </trkpt>
      <trkpt lat="49.16873" lon="4.07062">
        <ele>115.5</ele>
        <time>2026-08-20T10:19:18Z</time>
      </trkpt>
      <trkpt lat="49.16873" lon="4.07062">
        <ele>115.5</ele>
        <time>2026-08-20T10:19:23Z</time>
      </trkpt>
      <trkpt lat="49.16873" lon="4.07062">
        <ele>115.5</ele>
        <time>2026-08-20T10:19:28Z</time>
      </trkpt>
      <trkpt lat="49.16873" lon="4.07062">
        <ele>115.5</ele>
        <time>2026-08-20T10:19:34Z</time>
      </trkpt>
      <trkpt lat="49.16873" lon="4.07062">
        <ele>115.5</ele>
        <time>2026-08-20T10:19:39Z</time>
      </trkpt>
      <trkpt lat="49.16873" lon="4.07062">
        <ele>115.5</ele>
        <time>2026-08-20T10:19:44Z</time>
      </trkpt>
      <trkpt lat="49.16873" lon="4.07062">
        <ele>115.5</ele>
        <time>2026-08-20T10:19:50Z</time>
      </trkpt>
      <trkpt lat="49.16873" lon="4.07062">
        <ele>115.5</ele>
        <time>2026-08-20T10:19:55Z</time>
      </trkpt>
      <trkpt lat="49.16873" lon="4.07062">
        <ele>115.5</ele>
        <time>2026-08-20T10:20:00Z</time>
      </trkpt>
      <trkpt lat="49.16873" lon="4.07062">
        <ele>115.5</ele>
        <time>2026-08-20T10:20:06Z</time>
      </trkpt>
      <trkpt lat="49.16873" lon="4.07062">
        <ele>115.5</ele>
        <time>2026-08-20T10:20:11Z</time>
      </trkpt>
      <trkpt lat="49.16873" lon="4.07062">
        <ele>115.5</ele>
        <time>2026-08-20T10:20:16Z</time>
      </trkpt>
      <trkpt lat="49.16873" lon="4.07062">
        <ele>115.5</ele>
        <time>2026-08-20T10:20:22Z</time>
      </trkpt>
      <trkpt lat="49.16873" lon="4.07062">
        <ele>115.5</ele>
        <time>2026-08-20T10:20:27Z</time>
      </trkpt>
      <trkpt lat="49.16873" lon="4.07062">
        <ele>115.5</ele>
        <time>2026-08-20T10:20:32Z</time>
      </trkpt>
      <trkpt lat="49.16873" lon="4.07062">
        <ele>115.5</ele>
        <time>2026-08-20T10:20:38Z</time>
      </trkpt>
      <trkpt lat="49.16873" lon="4.07062">
        <ele>115.5</ele>
        <time>2026-08-20T10:20:43Z</time>
      </trkpt>
      <trkpt lat="49.16873" lon="4.07062">
        <ele>115.5</ele>
        <time>2026-08-20T10:20:48Z</time>
      </trkpt>
      <trkpt lat="49.16873" lon="4.07062">
        <ele>115.5</ele>
        <time>2026-08-20T10:20:54Z</time>
      </trkpt>
      <trkpt lat="49.16873" lon="4.07062">
        <ele>115.5</ele>
        <time>2026-08-20T10:20:59Z</time>
      </trkpt>
      <trkpt lat="49.16873" lon="4.07062">
        <ele>115.5</ele>
        <time>2026-08-20T10:21:04Z</time>
      </trkpt>
      <trkpt lat="49.16873" lon="4.07062">
        <ele>115.5</ele>
        <time>2026-08-20T10:21:10Z</time>
      </trkpt>
      <trkpt lat="49.16873" lon="4.07062">
        <ele>115.5</ele>
        <time>2026-08-20T10:21:15Z</time>
      </trkpt>
      <trkpt lat="49.16873" lon="4.07062">
        <ele>115.5</ele>
        <time>2026-08-20T10:21:20Z</time>
      </trkpt>
      <trkpt lat="49.16873" lon="4.07062">
        <ele>115.5</ele>
        <time>2026-08-20T10:21:26Z</time>
      </trkpt>
      <trkpt lat="49.16873" lon="4.07062">
        <ele>115.5</ele>
        <time>2026-08-20T10:21:31Z</time>
      </trkpt>
      <trkpt lat="49.16873" lon="4.07062">
        <ele>115.5</ele>
        <time>2026-08-20T10:21:36Z</time>
      </trkpt>
      <trkpt lat="49.16873" lon="4.07062">
        <ele>115.5</ele>
        <time>2026-08-20T10:21:42Z</time>
      </trkpt>
      <trkpt lat="49.16873" lon="4.07062">
        <ele>115.5</ele>
        <time>2026-08-20T10:21:47Z</time>
      </trkpt>
      <trkpt lat="49.16873" lon="4.07062">
        <ele>115.5</ele>
        <time>2026-08-20T10:21:52Z</time>
      </trkpt>
      <trkpt lat="49.16873" lon="4.07062">
        <ele>115.5</ele>
        <time>2026-08-20T10:21:58Z</time>
      </trkpt>
      <trkpt lat="49.16873" lon="4.07062">
        <ele>115.5</ele>
        <time>2026-08-20T10:22:03Z</time>
      </trkpt>
      <trkpt lat="49.16873" lon="4.07062">
        <ele>115.5</ele>
        <time>2026-08-20T10:22:08Z</time>
      </trkpt>
      <trkpt lat="49.16873" lon="4.07062">
        <ele>115.5</ele>
        <time>2026-08-20T10:22:14Z</time>
      </trkpt>
      <trkpt lat="49.16873" lon="4.07062">
        <ele>115.5</ele>
        <time>2026-08-20T10:22:19Z</time>
      </trkpt>
      <trkpt lat="49.16873" lon="4.07062">
        <ele>115.5</ele>
        <time>2026-08-20T10:22:24Z</time>
      </trkpt>
      <trkpt lat="49.16873" lon="4.07062">
        <ele>115.5</ele>
        <time>2026-08-20T10:22:30Z</time>
      </trkpt>
      <trkpt lat="49.16873" lon="4.07062">
        <ele>115.5</ele>
        <time>2026-08-20T10:22:35Z</time>
      </trkpt>
      <trkpt lat="49.16873" lon="4.07062">
        <ele>115.5</ele>
        <time>2026-08-20T10:22:40Z</time>
      </trkpt>
      <trkpt lat="49.16873" lon="4.07062">
        <ele>115.5</ele>
        <time>2026-08-20T10:22:46Z</time>
      </trkpt>
      <trkpt lat="49.16873" lon="4.07062">
        <ele>115.5</ele>
        <time>2026-08-20T10:22:51Z</time>
      </trkpt>
      <trkpt lat="49.16873" lon="4.07062">
        <ele>115.5</ele>
        <time>2026-08-20T10:22:56Z</time>
      </trkpt>
      <trkpt lat="49.16873" lon="4.07062">
        <ele>115.5</ele>
        <time>2026-08-20T10:23:02Z</time>
      </trkpt>
      <trkpt lat="49.16873" lon="4.07062">
        <ele>115.5</ele>
        <time>2026-08-20T10:23:07Z</time>
      </trkpt>
      <trkpt lat="49.16873" lon="4.07062">
        <ele>115.5</ele>
        <time>2026-08-20T10:23:12Z</time>
      </trkpt>
      <trkpt lat="49.16873" lon="4.07062">
        <ele>115.5</ele>
        <time>2026-08-20T10:23:18Z</time>
      </trkpt>
      <trkpt lat="49.16873" lon="4.07062">
        <ele>115.5</ele>
        <time>2026-08-20T10:23:23Z</time>
      </trkpt>
      <trkpt lat="49.16873" lon="4.07062">
        <ele>115.5</ele>
        <time>2026-08-20T10:23:28Z</time>
      </trkpt>
      <trkpt lat="49.16873" lon="4.07062">
        <ele>115.5</ele>
        <time>2026-08-20T10:23:34Z</time>
      </trkpt>
      <trkpt lat="49.16873" lon="4.07062">
        <ele>115.5</ele>
        <time>2026-08-20T10:23:39Z</time>
      </trkpt>
      <trkpt lat="49.16873" lon="4.07062">
        <ele>115.5</ele>
        <time>2026-08-20T10:23:44Z</time>
      </trkpt>
      <trkpt lat="49.16873" lon="4.07062">
        <ele>115.5</ele>
        <time>2026-08-20T10:23:50Z</time>
      </trkpt>
      <trkpt lat="49.16873" lon="4.07062">
        <ele>115.5</ele>
        <time>2026-08-20T10:23:55Z</time>
      </trkpt>
      <trkpt lat="49.16873" lon="4.07062">
        <ele>115.5</ele>
        <time>2026-08-20T10:24:00Z</time>
      </trkpt>
      <trkpt lat="49.16873" lon="4.07062">
        <ele>115.5</ele>
        <time>2026-08-20T10:24:06Z</time>
      </trkpt>
      <trkpt lat="49.16873" lon="4.07062">
        <ele>115.5</ele>
        <time>2026-08-20T10:24:11Z</time>
      </trkpt>
      <trkpt lat="49.16873" lon="4.07062">
        <ele>115.5</ele>
        <time>2026-08-20T10:24:16Z</time>
      </trkpt>
      <trkpt lat="49.16873" lon="4.07062">
        <ele>115.5</ele>
        <time>2026-08-20T10:24:22Z</time>
      </trkpt>
      <trkpt lat="49.16873" lon="4.07062">
        <ele>115.5</ele>
        <time>2026-08-20T10:24:27Z</time>
      </trkpt>
      <trkpt lat="49.16873" lon="4.07062">
        <ele>115.5</ele>
        <time>2026-08-20T10:24:32Z</time>
      </trkpt>
      <trkpt lat="49.16873" lon="4.07062">
        <ele>115.5</ele>
        <time>2026-08-20T10:24:38Z</time>
      </trkpt>
      <trkpt lat="49.16873" lon="4.07062">
        <ele>115.5</ele>
        <time>2026-08-20T10:24:43Z</time>
      </trkpt>
      <trkpt lat="49.16873" lon="4.07062">
        <ele>115.5</ele>
        <time>2026-08-20T10:24:48Z</time>
      </trkpt>
      <trkpt lat="49.16873" lon="4.07062">
        <ele>115.5</ele>
        <time>2026-08-20T10:24:54Z</time>
      </trkpt>
      <trkpt lat="49.16873" lon="4.07062">
        <ele>115.5</ele>
        <time>2026-08-20T10:24:59Z</time>
      </trkpt>
      <trkpt lat="49.16873" lon="4.07062">
        <ele>115.5</ele>
        <time>2026-08-20T10:25:04Z</time>
      </trkpt>
      <trkpt lat="49.16873" lon="4.07062">
        <ele>115.5</ele>
        <time>2026-08-20T10:25:10Z</time>
      </trkpt>
      <trkpt lat="49.16873" lon="4.07062">
        <ele>115.5</ele>
        <time>2026-08-20T10:25:15Z</time>
      </trkpt>
      <trkpt lat="49.16873" lon="4.07062">
        <ele>115.5</ele>
        <time>2026-08-20T10:25:20Z</time>
      </trkpt>
      <trkpt lat="49.16873" lon="4.07062">
        <ele>115.5</ele>
        <time>2026-08-20T10:25:26Z</time>
      </trkpt>
      <trkpt lat="49.16873" lon="4.07062">
        <ele>115.5</ele>
        <time>2026-08-20T10:25:31Z</time>
      </trkpt>
      <trkpt lat="49.16873" lon="4.07062">
        <ele>115.5</ele>
        <time>2026-08-20T10:25:36Z</time>
      </trkpt>
      <trkpt lat="49.16873" lon="4.07062">
        <ele>115.5</ele>
        <time>2026-08-20T10:25:42Z</time>
      </trkpt>
      <trkpt lat="49.16873" lon="4.07062">
        <ele>115.5</ele>
        <time>2026-08-20T10:25:47Z</time>
      </trkpt>
      <trkpt lat="49.16873" lon="4.07062">
        <ele>115.5</ele>
        <time>2026-08-20T10:25:52Z</time>
      </trkpt>
      <trkpt lat="49.16873" lon="4.07062">
        <ele>115.5</ele>
        <time>2026-08-20T10:25:58Z</time>
      </trkpt>
      <trkpt lat="49.16873" lon="4.07062">
        <ele>115.5</ele>
        <time>2026-08-20T10:26:03Z</time>
      </trkpt>
      <trkpt lat="49.16873" lon="4.07062">
        <ele>115.5</ele>
        <time>2026-08-20T10:26:08Z</time>
      </trkpt>
      <trkpt lat="49.16873" lon="4.07062">
        <ele>115.5</ele>
        <time>2026-08-20T10:26:14Z</time>
      </trkpt>
      <trkpt lat="49.16873" lon="4.07062">
        <ele>115.5</ele>
        <time>2026-08-20T10:26:19Z</time>
      </trkpt>
      <trkpt lat="49.16873" lon="4.07062">
        <ele>115.5</ele>
        <time>2026-08-20T10:26:24Z</time>
      </trkpt>
      <trkpt lat="49.16873" lon="4.07062">
        <ele>115.5</ele>
        <time>2026-08-20T10:26:30Z</time>
      </trkpt>
      <trkpt lat="49.16873" lon="4.07062">
        <ele>115.5</ele>
        <time>2026-08-20T10:26:35Z</time>
      </trkpt>
      <trkpt lat="49.16873" lon="4.07062">
        <ele>115.5</ele>
        <time>2026-08-20T10:26:40Z</time>
      </trkpt>
      <trkpt lat="49.16873" lon="4.07062">
        <ele>115.5</ele>
        <time>2026-08-20T10:26:46Z</time>
      </trkpt>
      <trkpt lat="49.16873" lon="4.07062">
        <ele>115.5</ele>
        <time>2026-08-20T10:26:51Z</time>
      </trkpt>
      <trkpt lat="49.16873" lon="4.07062">
        <ele>115.5</ele>
        <time>2026-08-20T10:26:56Z</time>
      </trkpt>
      <trkpt lat="49.16873" lon="4.07062">
        <ele>115.5</ele>
        <time>2026-08-20T10:27:02Z</time>
      </trkpt>
      <trkpt lat="49.16873" lon="4.07062">
        <ele>115.5</ele>
        <time>2026-08-20T10:27:07Z</time>
      </trkpt>
      <trkpt lat="49.16873" lon="4.07062">
        <ele>115.5</ele>
        <time>2026-08-20T10:27:12Z</time>
      </trkpt>
      <trkpt lat="49.16873" lon="4.07062">
        <ele>115.5</ele>
        <time>2026-08-20T10:27:18Z</time>
      </trkpt>
      <trkpt lat="49.16873" lon="4.07062">
        <ele>115.5</ele>
        <time>2026-08-20T10:27:23Z</time>
      </trkpt>
      <trkpt lat="49.16873" lon="4.07062">
        <ele>115.5</ele>
        <time>2026-08-20T10:27:28Z</time>
      </trkpt>
      <trkpt lat="49.16873" lon="4.07062">
        <ele>115.5</ele>
        <time>2026-08-20T10:27:34Z</time>
      </trkpt>
      <trkpt lat="49.16873" lon="4.07062">
        <ele>115.5</ele>
        <time>2026-08-20T10:27:39Z</time>
      </trkpt>
      <trkpt lat="49.16873" lon="4.07062">
        <ele>115.5</ele>
        <time>2026-08-20T10:27:44Z</time>
      </trkpt>
      <trkpt lat="49.16873" lon="4.07062">
        <ele>115.5</ele>
        <time>2026-08-20T10:27:50Z</time>
      </trkpt>
      <trkpt lat="49.16873" lon="4.07062">
        <ele>115.5</ele>
        <time>2026-08-20T10:27:55Z</time>
      </trkpt>
      <trkpt lat="49.16873" lon="4.07062">
        <ele>115.5</ele>
        <time>2026-08-20T10:28:00Z</time>
      </trkpt>
      <trkpt lat="49.16873" lon="4.07062">
        <ele>115.5</ele>
        <time>2026-08-20T10:28:06Z</time>
      </trkpt>
      <trkpt lat="49.16873" lon="4.07062">
        <ele>115.5</ele>
        <time>2026-08-20T10:28:11Z</time>
      </trkpt>
      <trkpt lat="49.16873" lon="4.07062">
        <ele>115.5</ele>
        <time>2026-08-20T10:28:16Z</time>
      </trkpt>
      <trkpt lat="49.16873" lon="4.07062">
        <ele>115.5</ele>
        <time>2026-08-20T10:28:22Z</time>
      </trkpt>
      <trkpt lat="49.16873" lon="4.07062">
        <ele>115.5</ele>
        <time>2026-08-20T10:28:27Z</time>
      </trkpt>
      <trkpt lat="49.16873" lon="4.07062">
        <ele>115.5</ele>
        <time>2026-08-20T10:28:32Z</time>
      </trkpt>
      <trkpt lat="49.16873" lon="4.07062">
        <ele>115.5</ele>
        <time>2026-08-20T10:28:38Z</time>
      </trkpt>
      <trkpt lat="49.16873" lon="4.07062">
        <ele>115.5</ele>
        <time>2026-08-20T10:28:43Z</time>
      </trkpt>
      <trkpt lat="49.16873" lon="4.07062">
        <ele>115.5</ele>
        <time>2026-08-20T10:28:48Z</time>
      </trkpt>
      <trkpt lat="49.16873" lon="4.07062">
        <ele>115.5</ele>
        <time>2026-08-20T10:28:54Z</time>
      </trkpt>
      <trkpt lat="49.16873" lon="4.07062">
        <ele>115.5</ele>
        <time>2026-08-20T10:28:59Z</time>
      </trkpt>
      <trkpt lat="49.16873" lon="4.07062">
        <ele>115.5</ele>
        <time>2026-08-20T10:29:04Z</time>
      </trkpt>
      <trkpt lat="49.16873" lon="4.07062">
        <ele>115.5</ele>
        <time>2026-08-20T10:29:10Z</time>
      </trkpt>
      <trkpt lat="49.16873" lon="4.07062">
        <ele>115.5</ele>
        <time>2026-08-20T10:29:15Z</time>
      </trkpt>
      <trkpt lat="49.16873" lon="4.07062">
        <ele>115.5</ele>
        <time>2026-08-20T10:29:20Z</time>
      </trkpt>
      <trkpt lat="49.16873" lon="4.07062">
        <ele>115.5</ele>
        <time>2026-08-20T10:29:26Z</time>
      </trkpt>
      <trkpt lat="49.16873" lon="4.07062">
        <ele>115.5</ele>
        <time>2026-08-20T10:29:31Z</time>
      </trkpt>
      <trkpt lat="49.16873" lon="4.07062">
        <ele>115.5</ele>
        <time>2026-08-20T10:29:36Z</time>
      </trkpt>
      <trkpt lat="49.16873" lon="4.07062">
        <ele>115.5</ele>
        <time>2026-08-20T10:29:42Z</time>
      </trkpt>
      <trkpt lat="49.16873" lon="4.07062">
        <ele>115.5</ele>
        <time>2026-08-20T10:29:47Z</time>
      </trkpt>
      <trkpt lat="49.16873" lon="4.07062">
        <ele>115.5</ele>
        <time>2026-08-20T10:29:52Z</time>
      </trkpt>
      <trkpt lat="49.16873" lon="4.07062">
        <ele>115.5</ele>
        <time>2026-08-20T10:29:58Z</time>
      </trkpt>
      <trkpt lat="49.16873" lon="4.07062">
        <ele>115.5</ele>
        <time>2026-08-20T10:30:03Z</time>
      </trkpt>
      <trkpt lat="49.16873" lon="4.07062">
        <ele>115.5</ele>
        <time>2026-08-20T10:30:08Z</time>
      </trkpt>
      <trkpt lat="49.16873" lon="4.07062">
        <ele>115.5</ele>
        <time>2026-08-20T10:30:14Z</time>
      </trkpt>
      <trkpt lat="49.16873" lon="4.07062">
        <ele>115.5</ele>
        <time>2026-08-20T10:30:19Z</time>
      </trkpt>
      <trkpt lat="49.16873" lon="4.07062">
        <ele>115.5</ele>
        <time>2026-08-20T10:30:24Z</time>
      </trkpt>
      <trkpt lat="49.16873" lon="4.07062">
        <ele>115.5</ele>
        <time>2026-08-20T10:30:30Z</time>
      </trkpt>
      <trkpt lat="49.16873" lon="4.07062">
        <ele>115.5</ele>
        <time>2026-08-20T10:30:35Z</time>
      </trkpt>
      <trkpt lat="49.16873" lon="4.07062">
        <ele>115.5</ele>
        <time>2026-08-20T10:30:40Z</time>
      </trkpt>
      <trkpt lat="49.16873" lon="4.07062">
        <ele>115.5</ele>
        <time>2026-08-20T10:30:46Z</time>
      </trkpt>
      <trkpt lat="49.16873" lon="4.07062">
        <ele>115.5</ele>
        <time>2026-08-20T10:30:51Z</time>
      </trkpt>
      <trkpt lat="49.16873" lon="4.07062">
        <ele>115.5</ele>
        <time>2026-08-20T10:30:56Z</time>
      </trkpt>
      <trkpt lat="49.16873" lon="4.07062">
        <ele>115.5</ele>
        <time>2026-08-20T10:31:02Z</time>
      </trkpt>
      <trkpt lat="49.16873" lon="4.07062">
        <ele>115.5</ele>
        <time>2026-08-20T10:31:07Z</time>
      </trkpt>
      <trkpt lat="49.16873" lon="4.07062">
        <ele>115.5</ele>
        <time>2026-08-20T10:31:12Z</time>
      </trkpt>
      <trkpt lat="49.16873" lon="4.07062">
        <ele>115.5</ele>
        <time>2026-08-20T10:31:18Z</time>
      </trkpt>
      <trkpt lat="49.16873" lon="4.07062">
        <ele>115.5</ele>
        <time>2026-08-20T10:31:23Z</time>
      </trkpt>
      <trkpt lat="49.16873" lon="4.07062">
        <ele>115.5</ele>
        <time>2026-08-20T10:31:28Z</time>
      </trkpt>
      <trkpt lat="49.16873" lon="4.07062">
        <ele>115.5</ele>
        <time>2026-08-20T10:31:34Z</time>
      </trkpt>
      <trkpt lat="49.16873" lon="4.07062">
        <ele>115.5</ele>
        <time>2026-08-20T10:31:39Z</time>
      </trkpt>
      <trkpt lat="49.16873" lon="4.07062">
        <ele>115.5</ele>
        <time>2026-08-20T10:31:44Z</time>
      </trkpt>
      <trkpt lat="49.16873" lon="4.07062">
        <ele>115.5</ele>
        <time>2026-08-20T10:31:50Z</time>
      </trkpt>
      <trkpt lat="49.16873" lon="4.07062">
        <ele>115.5</ele>
        <time>2026-08-20T10:31:55Z</time>
      </trkpt>
      <trkpt lat="49.16873" lon="4.07062">
        <ele>115.5</ele>
        <time>2026-08-20T10:32:00Z</time>
      </trkpt>
      <trkpt lat="49.16873" lon="4.07062">
        <ele>115.5</ele>
        <time>2026-08-20T10:32:06Z</time>
      </trkpt>
      <trkpt lat="49.16873" lon="4.07062">
        <ele>115.5</ele>
        <time>2026-08-20T10:32:11Z</time>
      </trkpt>
      <trkpt lat="49.16873" lon="4.07062">
        <ele>115.5</ele>
        <time>2026-08-20T10:32:16Z</time>
      </trkpt>
      <trkpt lat="49.16873" lon="4.07062">
        <ele>115.5</ele>
        <time>2026-08-20T10:32:22Z</time>
      </trkpt>
      <trkpt lat="49.16873" lon="4.07062">
        <ele>115.5</ele>
        <time>2026-08-20T10:32:27Z</time>
      </trkpt>
      <trkpt lat="49.16873" lon="4.07062">
        <ele>115.5</ele>
        <time>2026-08-20T10:32:32Z</time>
      </trkpt>
      <trkpt lat="49.16873" lon="4.07062">
        <ele>115.5</ele>
        <time>2026-08-20T10:32:38Z</time>
      </trkpt>
      <trkpt lat="49.16873" lon="4.07062">
        <ele>115.5</ele>
        <time>2026-08-20T10:32:43Z</time>
      </trkpt>
      <trkpt lat="49.16873" lon="4.07062">
        <ele>115.5</ele>
        <time>2026-08-20T10:32:48Z</time>
      </trkpt>
      <trkpt lat="49.16873" lon="4.07062">
        <ele>115.5</ele>
        <time>2026-08-20T10:32:54Z</time>
      </trkpt>
      <trkpt lat="49.16873" lon="4.07062">
        <ele>115.5</ele>
        <time>2026-08-20T10:32:59Z</time>
      </trkpt>
      <trkpt lat="49.16873" lon="4.07062">
        <ele>115.5</ele>
        <time>2026-08-20T10:33:04Z</time>
      </trkpt>
      <trkpt lat="49.16873" lon="4.07062">
        <ele>115.5</ele>
        <time>2026-08-20T10:33:10Z</time>
      </trkpt>
      <trkpt lat="49.16873" lon="4.07062">
        <ele>115.5</ele>
        <time>2026-08-20T10:33:15Z</time>
      </trkpt>
      <trkpt lat="49.16873" lon="4.07062">
        <ele>115.5</ele>
        <time>2026-08-20T10:33:20Z</time>
      </trkpt>
      <trkpt lat="49.16873" lon="4.07062">
        <ele>115.5</ele>
        <time>2026-08-20T10:33:26Z</time>
      </trkpt>
      <trkpt lat="49.16873" lon="4.07062">
        <ele>115.5</ele>
        <time>2026-08-20T10:33:31Z</time>
      </trkpt>
      <trkpt lat="49.16873" lon="4.07062">
        <ele>115.5</ele>
        <time>2026-08-20T10:33:36Z</time>
      </trkpt>
      <trkpt lat="49.16873" lon="4.07062">
        <ele>115.5</ele>
        <time>2026-08-20T10:33:42Z</time>
      </trkpt>
      <trkpt lat="49.16873" lon="4.07062">
        <ele>115.5</ele>
        <time>2026-08-20T10:33:47Z</time>
      </trkpt>
      <trkpt lat="49.16873" lon="4.07062">
        <ele>115.5</ele>
        <time>2026-08-20T10:33:52Z</time>
      </trkpt>
      <trkpt lat="49.16873" lon="4.07062">
        <ele>115.5</ele>
        <time>2026-08-20T10:33:58Z</time>
      </trkpt>
      <trkpt lat="49.16873" lon="4.07062">
        <ele>115.5</ele>
        <time>2026-08-20T10:34:03Z</time>
      </trkpt>
      <trkpt lat="49.16873" lon="4.07062">
        <ele>115.5</ele>
        <time>2026-08-20T10:34:08Z</time>
      </trkpt>
      <trkpt lat="49.16873" lon="4.07062">
        <ele>115.5</ele>
        <time>2026-08-20T10:34:14Z</time>
      </trkpt>
      <trkpt lat="49.16873" lon="4.07062">
        <ele>115.5</ele>
        <time>2026-08-20T10:34:19Z</time>
      </trkpt>
      <trkpt lat="49.16873" lon="4.07062">
        <ele>115.5</ele>
        <time>2026-08-20T10:34:24Z</time>
      </trkpt>
      <trkpt lat="49.16873" lon="4.07062">
        <ele>115.5</ele>
        <time>2026-08-20T10:34:30Z</time>
      </trkpt>
      <trkpt lat="49.16873" lon="4.07062">
        <ele>115.5</ele>
        <time>2026-08-20T10:34:35Z</time>
      </trkpt>
      <trkpt lat="49.16873" lon="4.07062">
        <ele>115.5</ele>
        <time>2026-08-20T10:34:40Z</time>
      </trkpt>
      <trkpt lat="49.16873" lon="4.07062">
        <ele>115.5</ele>
        <time>2026-08-20T10:34:46Z</time>
      </trkpt>
      <trkpt lat="49.16873" lon="4.07062">
        <ele>115.5</ele>
        <time>2026-08-20T10:34:51Z</time>
      </trkpt>
      <trkpt lat="49.16873" lon="4.07062">
        <ele>115.5</ele>
        <time>2026-08-20T10:34:56Z</time>
      </trkpt>
      <trkpt lat="49.16873" lon="4.07062">
        <ele>115.5</ele>
        <time>2026-08-20T10:35:02Z</time>
      </trkpt>
      <trkpt lat="49.16873" lon="4.07062">
        <ele>115.5</ele>
        <time>2026-08-20T10:35:07Z</time>
      </trkpt>
      <trkpt lat="49.16873" lon="4.07062">
        <ele>115.5</ele>
        <time>2026-08-20T10:35:12Z</time>
      </trkpt>
      <trkpt lat="49.16873" lon="4.07062">
        <ele>115.5</ele>
        <time>2026-08-20T10:35:18Z</time>
      </trkpt>
      <trkpt lat="49.16873" lon="4.07062">
        <ele>115.5</ele>
        <time>2026-08-20T10:35:23Z</time>
      </trkpt>
      <trkpt lat="49.16873" lon="4.07062">
        <ele>115.5</ele>
        <time>2026-08-20T10:35:28Z</time>
      </trkpt>
      <trkpt lat="49.16873" lon="4.07062">
        <ele>115.5</ele>
        <time>2026-08-20T10:35:34Z</time>
      </trkpt>
      <trkpt lat="49.16873" lon="4.07062">
        <ele>115.5</ele>
        <time>2026-08-20T10:35:39Z</time>
      </trkpt>
      <trkpt lat="49.16873" lon="4.07062">
        <ele>115.5</ele>
        <time>2026-08-20T10:35:44Z</time>
      </trkpt>
      <trkpt lat="49.16873" lon="4.07062">
        <ele>115.5</ele>
        <time>2026-08-20T10:35:50Z</time>
      </trkpt>
      <trkpt lat="49.16873" lon="4.07062">
        <ele>115.5</ele>
        <time>2026-08-20T10:35:55Z</time>
      </trkpt>
      <trkpt lat="49.16873" lon="4.07062">
        <ele>115.5</ele>
        <time>2026-08-20T10:36:00Z</time>
      </trkpt>
      <trkpt lat="49.16873" lon="4.07062">
        <ele>115.5</ele>
        <time>2026-08-20T10:36:06Z</time>
      </trkpt>
      <trkpt lat="49.16873" lon="4.07062">
        <ele>115.5</ele>
        <time>2026-08-20T10:36:11Z</time>
      </trkpt>
      <trkpt lat="49.16873" lon="4.07062">
        <ele>115.5</ele>
        <time>2026-08-20T10:36:16Z</time>
      </trkpt>
      <trkpt lat="49.16873" lon="4.07062">
        <ele>115.5</ele>
        <time>2026-08-20T10:36:22Z</time>
      </trkpt>
      <trkpt lat="49.16873" lon="4.07062">
        <ele>115.5</ele>
        <time>2026-08-20T10:36:27Z</time>
      </trkpt>
      <trkpt lat="49.16873" lon="4.07062">
        <ele>115.5</ele>
        <time>2026-08-20T10:36:32Z</time>
      </trkpt>
      <trkpt lat="49.16873" lon="4.07062">
        <ele>115.5</ele>
        <time>2026-08-20T10:36:38Z</time>
      </trkpt>
      <trkpt lat="49.16873" lon="4.07062">
        <ele>115.5</ele>
        <time>2026-08-20T10:36:43Z</time>
      </trkpt>
      <trkpt lat="49.16873" lon="4.07062">
        <ele>115.5</ele>
        <time>2026-08-20T10:36:48Z</time>
      </trkpt>
      <trkpt lat="49.16873" lon="4.07062">
        <ele>115.5</ele>
        <time>2026-08-20T10:36:54Z</time>
      </trkpt>
      <trkpt lat="49.16873" lon="4.07062">
        <ele>115.5</ele>
        <time>2026-08-20T10:36:59Z</time>
      </trkpt>
      <trkpt lat="49.16873" lon="4.07062">
        <ele>115.5</ele>
        <time>2026-08-20T10:37:04Z</time>
      </trkpt>
      <trkpt lat="49.16873" lon="4.07062">
        <ele>115.5</ele>
        <time>2026-08-20T10:37:10Z</time>
      </trkpt>
      <trkpt lat="49.16873" lon="4.07062">
        <ele>115.5</ele>
        <time>2026-08-20T10:37:15Z</time>
      </trkpt>
      <trkpt lat="49.16873" lon="4.07062">
        <ele>115.5</ele>
        <time>2026-08-20T10:37:20Z</time>
      </trkpt>
      <trkpt lat="49.16873" lon="4.07064">
        <ele>115.5</ele>
        <time>2026-08-20T10:37:26Z</time>
      </trkpt>
      <trkpt lat="49.16873" lon="4.07064">
        <ele>115.5</ele>
        <time>2026-08-20T10:37:31Z</time>
      </trkpt>
      <trkpt lat="49.16873" lon="4.07064">
        <ele>115.5</ele>
        <time>2026-08-20T10:37:36Z</time>
      </trkpt>
      <trkpt lat="49.16873" lon="4.07064">
        <ele>115.5</ele>
        <time>2026-08-20T10:37:42Z</time>
      </trkpt>
      <trkpt lat="49.16873" lon="4.07064">
        <ele>115.5</ele>
        <time>2026-08-20T10:37:47Z</time>
      </trkpt>
      <trkpt lat="49.16873" lon="4.07064">
        <ele>115.5</ele>
        <time>2026-08-20T10:37:52Z</time>
      </trkpt>
      <trkpt lat="49.16873" lon="4.07064">
        <ele>115.5</ele>
        <time>2026-08-20T10:37:58Z</time>
      </trkpt>
      <trkpt lat="49.16873" lon="4.07064">
        <ele>115.5</ele>
        <time>2026-08-20T10:38:03Z</time>
      </trkpt>
      <trkpt lat="49.16873" lon="4.07064">
        <ele>115.5</ele>
        <time>2026-08-20T10:38:08Z</time>
      </trkpt>
      <trkpt lat="49.16873" lon="4.07064">
        <ele>115.5</ele>
        <time>2026-08-20T10:38:14Z</time>
      </trkpt>
      <trkpt lat="49.16873" lon="4.07064">
        <ele>115.5</ele>
        <time>2026-08-20T10:38:19Z</time>
      </trkpt>
      <trkpt lat="49.16873" lon="4.07064">
        <ele>115.5</ele>
        <time>2026-08-20T10:38:24Z</time>
      </trkpt>
      <trkpt lat="49.16873" lon="4.07064">
        <ele>115.5</ele>
        <time>2026-08-20T10:38:30Z</time>
      </trkpt>
      <trkpt lat="49.16873" lon="4.07064">
        <ele>115.5</ele>
        <time>2026-08-20T10:38:35Z</time>
      </trkpt>
      <trkpt lat="49.16873" lon="4.07064">
        <ele>115.5</ele>
        <time>2026-08-20T10:38:40Z</time>
      </trkpt>
      <trkpt lat="49.16873" lon="4.07064">
        <ele>115.5</ele>
        <time>2026-08-20T10:38:46Z</time>
      </trkpt>
      <trkpt lat="49.16873" lon="4.07064">
        <ele>115.5</ele>
        <time>2026-08-20T10:38:51Z</time>
      </trkpt>
      <trkpt lat="49.16873" lon="4.07064">
        <ele>115.5</ele>
        <time>2026-08-20T10:38:56Z</time>
      </trkpt>
      <trkpt lat="49.16873" lon="4.07064">
        <ele>115.5</ele>
        <time>2026-08-20T10:39:02Z</time>
      </trkpt>
      <trkpt lat="49.16873" lon="4.07064">
        <ele>115.5</ele>
        <time>2026-08-20T10:39:07Z</time>
      </trkpt>
      <trkpt lat="49.16873" lon="4.07064">
        <ele>115.5</ele>
        <time>2026-08-20T10:39:12Z</time>
      </trkpt>
      <trkpt lat="49.16873" lon="4.07064">
        <ele>115.5</ele>
        <time>2026-08-20T10:39:18Z</time>
      </trkpt>
      <trkpt lat="49.16873" lon="4.07064">
        <ele>115.5</ele>
        <time>2026-08-20T10:39:23Z</time>
      </trkpt>
      <trkpt lat="49.16873" lon="4.07064">
        <ele>115.5</ele>
        <time>2026-08-20T10:39:28Z</time>
      </trkpt>
      <trkpt lat="49.16873" lon="4.07064">
        <ele>115.5</ele>
        <time>2026-08-20T10:39:34Z</time>
      </trkpt>
      <trkpt lat="49.16873" lon="4.07064">
        <ele>115.5</ele>
        <time>2026-08-20T10:39:39Z</time>
      </trkpt>
      <trkpt lat="49.16873" lon="4.07064">
        <ele>115.5</ele>
        <time>2026-08-20T10:39:44Z</time>
      </trkpt>
      <trkpt lat="49.16873" lon="4.07064">
        <ele>115.5</ele>
        <time>2026-08-20T10:39:50Z</time>
      </trkpt>
      <trkpt lat="49.16873" lon="4.07064">
        <ele>115.5</ele>
        <time>2026-08-20T10:39:55Z</time>
      </trkpt>
      <trkpt lat="49.16873" lon="4.07064">
        <ele>115.5</ele>
        <time>2026-08-20T10:40:00Z</time>
      </trkpt>
      <trkpt lat="49.16873" lon="4.07064">
        <ele>115.5</ele>
        <time>2026-08-20T10:40:06Z</time>
      </trkpt>
      <trkpt lat="49.16873" lon="4.07064">
        <ele>115.5</ele>
        <time>2026-08-20T10:40:11Z</time>
      </trkpt>
      <trkpt lat="49.16873" lon="4.07064">
        <ele>115.5</ele>
        <time>2026-08-20T10:40:16Z</time>
      </trkpt>
      <trkpt lat="49.16873" lon="4.07064">
        <ele>115.5</ele>
        <time>2026-08-20T10:40:22Z</time>
      </trkpt>
      <trkpt lat="49.16873" lon="4.07064">
        <ele>115.5</ele>
        <time>2026-08-20T10:40:27Z</time>
      </trkpt>
      <trkpt lat="49.16877" lon="4.07073">
        <ele>115.5</ele>
        <time>2026-08-20T10:40:32Z</time>
      </trkpt>
      <trkpt lat="49.16876" lon="4.07079">
        <ele>115.5</ele>
        <time>2026-08-20T10:40:38Z</time>
      </trkpt>
      <trkpt lat="49.16873" lon="4.07088">
        <ele>115.5</ele>
        <time>2026-08-20T10:40:43Z</time>
      </trkpt>
      <trkpt lat="49.1687" lon="4.07095">
        <ele>115.4</ele>
        <time>2026-08-20T10:40:48Z</time>
      </trkpt>
      <trkpt lat="49.16865" lon="4.07101">
        <ele>115.4</ele>
        <time>2026-08-20T10:40:54Z</time>
      </trkpt>
      <trkpt lat="49.16861" lon="4.07106">
        <ele>115.4</ele>
        <time>2026-08-20T10:40:59Z</time>
      </trkpt>
      <trkpt lat="49.16856" lon="4.0711">
        <ele>115.4</ele>
        <time>2026-08-20T10:41:04Z</time>
      </trkpt>
      <trkpt lat="49.1685" lon="4.07115">
        <ele>115.4</ele>
        <time>2026-08-20T10:41:10Z</time>
      </trkpt>
      <trkpt lat="49.16846" lon="4.07118">
        <ele>115.4</ele>
        <time>2026-08-20T10:41:15Z</time>
      </trkpt>
      <trkpt lat="49.16841" lon="4.07121">
        <ele>115.5</ele>
        <time>2026-08-20T10:41:20Z</time>
      </trkpt>
      <trkpt lat="49.16835" lon="4.07127">
        <ele>115.5</ele>
        <time>2026-08-20T10:41:26Z</time>
      </trkpt>
      <trkpt lat="49.1683" lon="4.0713">
        <ele>115.5</ele>
        <time>2026-08-20T10:41:31Z</time>
      </trkpt>
      <trkpt lat="49.16825" lon="4.07134">
        <ele>115.7</ele>
        <time>2026-08-20T10:41:36Z</time>
      </trkpt>
      <trkpt lat="49.16818" lon="4.07138">
        <ele>115.8</ele>
        <time>2026-08-20T10:41:42Z</time>
      </trkpt>
      <trkpt lat="49.16813" lon="4.07141">
        <ele>116</ele>
        <time>2026-08-20T10:41:47Z</time>
      </trkpt>
      <trkpt lat="49.16809" lon="4.07145">
        <ele>116.1</ele>
        <time>2026-08-20T10:41:52Z</time>
      </trkpt>
      <trkpt lat="49.16802" lon="4.0715">
        <ele>116.3</ele>
        <time>2026-08-20T10:41:58Z</time>
      </trkpt>
      <trkpt lat="49.16796" lon="4.07154">
        <ele>116.4</ele>
        <time>2026-08-20T10:42:03Z</time>
      </trkpt>
      <trkpt lat="49.16792" lon="4.07157">
        <ele>116.5</ele>
        <time>2026-08-20T10:42:08Z</time>
      </trkpt>
      <trkpt lat="49.16786" lon="4.07161">
        <ele>116.7</ele>
        <time>2026-08-20T10:42:14Z</time>
      </trkpt>
      <trkpt lat="49.16781" lon="4.07165">
        <ele>116.9</ele>
        <time>2026-08-20T10:42:19Z</time>
      </trkpt>
      <trkpt lat="49.16776" lon="4.07168">
        <ele>117.1</ele>
        <time>2026-08-20T10:42:24Z</time>
      </trkpt>
      <trkpt lat="49.16769" lon="4.07172">
        <ele>117.3</ele>
        <time>2026-08-20T10:42:30Z</time>
      </trkpt>
      <trkpt lat="49.16764" lon="4.07177">
        <ele>117.5</ele>
        <time>2026-08-20T10:42:35Z</time>
      </trkpt>
      <trkpt lat="49.1676" lon="4.0718">
        <ele>117.6</ele>
        <time>2026-08-20T10:42:40Z</time>
      </trkpt>
      <trkpt lat="49.16753" lon="4.07184">
        <ele>117.9</ele>
        <time>2026-08-20T10:42:46Z</time>
      </trkpt>
      <trkpt lat="49.16748" lon="4.07186">
        <ele>118.1</ele>
        <time>2026-08-20T10:42:51Z</time>
      </trkpt>
      <trkpt lat="49.16746" lon="4.07188">
        <ele>118.2</ele>
        <time>2026-08-20T10:42:56Z</time>
      </trkpt>
      <trkpt lat="49.1674" lon="4.07189">
        <ele>118.4</ele>
        <time>2026-08-20T10:43:02Z</time>
      </trkpt>
      <trkpt lat="49.16735" lon="4.07193">
        <ele>118.6</ele>
        <time>2026-08-20T10:43:07Z</time>
      </trkpt>
      <trkpt lat="49.1673" lon="4.07193">
        <ele>118.8</ele>
        <time>2026-08-20T10:43:12Z</time>
      </trkpt>
      <trkpt lat="49.16727" lon="4.07196">
        <ele>118.9</ele>
        <time>2026-08-20T10:43:18Z</time>
      </trkpt>
      <trkpt lat="49.16724" lon="4.07197">
        <ele>119</ele>
        <time>2026-08-20T10:43:23Z</time>
      </trkpt>
      <trkpt lat="49.16722" lon="4.07199">
        <ele>119.1</ele>
        <time>2026-08-20T10:43:28Z</time>
      </trkpt>
      <trkpt lat="49.16716" lon="4.07203">
        <ele>119.4</ele>
        <time>2026-08-20T10:43:34Z</time>
      </trkpt>
      <trkpt lat="49.16711" lon="4.07207">
        <ele>119.6</ele>
        <time>2026-08-20T10:43:39Z</time>
      </trkpt>
      <trkpt lat="49.16705" lon="4.0721">
        <ele>119.9</ele>
        <time>2026-08-20T10:43:44Z</time>
      </trkpt>
      <trkpt lat="49.16699" lon="4.07214">
        <ele>120.2</ele>
        <time>2026-08-20T10:43:50Z</time>
      </trkpt>
      <trkpt lat="49.16693" lon="4.07217">
        <ele>120.5</ele>
        <time>2026-08-20T10:43:55Z</time>
      </trkpt>
      <trkpt lat="49.16687" lon="4.07221">
        <ele>120.8</ele>
        <time>2026-08-20T10:44:00Z</time>
      </trkpt>
      <trkpt lat="49.16681" lon="4.07224">
        <ele>121.1</ele>
        <time>2026-08-20T10:44:06Z</time>
      </trkpt>
      <trkpt lat="49.16675" lon="4.07229">
        <ele>121.4</ele>
        <time>2026-08-20T10:44:11Z</time>
      </trkpt>
      <trkpt lat="49.16673" lon="4.0723">
        <ele>121.5</ele>
        <time>2026-08-20T10:44:16Z</time>
      </trkpt>
      <trkpt lat="49.16673" lon="4.0723">
        <ele>121.5</ele>
        <time>2026-08-20T10:44:22Z</time>
      </trkpt>
      <trkpt lat="49.16671" lon="4.07232">
        <ele>121.6</ele>
        <time>2026-08-20T10:44:27Z</time>
      </trkpt>
      <trkpt lat="49.16666" lon="4.07236">
        <ele>121.9</ele>
        <time>2026-08-20T10:44:32Z</time>
      </trkpt>
      <trkpt lat="49.16663" lon="4.07238">
        <ele>122</ele>
        <time>2026-08-20T10:44:38Z</time>
      </trkpt>
      <trkpt lat="49.16662" lon="4.07238">
        <ele>122.1</ele>
        <time>2026-08-20T10:44:43Z</time>
      </trkpt>
      <trkpt lat="49.16662" lon="4.07238">
        <ele>122.1</ele>
        <time>2026-08-20T10:44:48Z</time>
      </trkpt>
      <trkpt lat="49.16659" lon="4.07239">
        <ele>122.2</ele>
        <time>2026-08-20T10:44:54Z</time>
      </trkpt>
      <trkpt lat="49.16653" lon="4.07243">
        <ele>122.6</ele>
        <time>2026-08-20T10:44:59Z</time>
      </trkpt>
      <trkpt lat="49.16648" lon="4.07246">
        <ele>122.8</ele>
        <time>2026-08-20T10:45:04Z</time>
      </trkpt>
      <trkpt lat="49.16647" lon="4.07244">
        <ele>122.9</ele>
        <time>2026-08-20T10:45:10Z</time>
      </trkpt>
      <trkpt lat="49.16643" lon="4.07248">
        <ele>123.1</ele>
        <time>2026-08-20T10:45:15Z</time>
      </trkpt>
      <trkpt lat="49.16637" lon="4.07252">
        <ele>123.4</ele>
        <time>2026-08-20T10:45:20Z</time>
      </trkpt>
      <trkpt lat="49.16631" lon="4.07257">
        <ele>123.7</ele>
        <time>2026-08-20T10:45:26Z</time>
      </trkpt>
      <trkpt lat="49.16626" lon="4.07261">
        <ele>123.9</ele>
        <time>2026-08-20T10:45:31Z</time>
      </trkpt>
      <trkpt lat="49.1662" lon="4.07264">
        <ele>124.2</ele>
        <time>2026-08-20T10:45:36Z</time>
      </trkpt>
      <trkpt lat="49.16615" lon="4.0727">
        <ele>124.4</ele>
        <time>2026-08-20T10:45:42Z</time>
      </trkpt>
      <trkpt lat="49.16615" lon="4.0727">
        <ele>124.4</ele>
        <time>2026-08-20T10:45:47Z</time>
      </trkpt>
      <trkpt lat="49.16615" lon="4.0727">
        <ele>124.4</ele>
        <time>2026-08-20T10:45:52Z</time>
      </trkpt>
      <trkpt lat="49.16615" lon="4.0727">
        <ele>124.4</ele>
        <time>2026-08-20T10:45:58Z</time>
      </trkpt>
      <trkpt lat="49.16615" lon="4.0727">
        <ele>124.4</ele>
        <time>2026-08-20T10:46:03Z</time>
      </trkpt>
      <trkpt lat="49.16608" lon="4.07276">
        <ele>124.7</ele>
        <time>2026-08-20T10:46:08Z</time>
      </trkpt>
      <trkpt lat="49.16609" lon="4.07277">
        <ele>124.7</ele>
        <time>2026-08-20T10:46:14Z</time>
      </trkpt>
      <trkpt lat="49.16608" lon="4.07277">
        <ele>124.7</ele>
        <time>2026-08-20T10:46:19Z</time>
      </trkpt>
      <trkpt lat="49.16603" lon="4.07278">
        <ele>125</ele>
        <time>2026-08-20T10:46:24Z</time>
      </trkpt>
      <trkpt lat="49.16596" lon="4.07283">
        <ele>125.3</ele>
        <time>2026-08-20T10:46:30Z</time>
      </trkpt>
      <trkpt lat="49.16592" lon="4.07285">
        <ele>125.5</ele>
        <time>2026-08-20T10:46:35Z</time>
      </trkpt>
      <trkpt lat="49.16589" lon="4.07289">
        <ele>125.7</ele>
        <time>2026-08-20T10:46:40Z</time>
      </trkpt>
      <trkpt lat="49.16583" lon="4.07293">
        <ele>126</ele>
        <time>2026-08-20T10:46:46Z</time>
      </trkpt>
      <trkpt lat="49.16578" lon="4.07298">
        <ele>126.3</ele>
        <time>2026-08-20T10:46:51Z</time>
      </trkpt>
      <trkpt lat="49.16573" lon="4.07302">
        <ele>126.5</ele>
        <time>2026-08-20T10:46:56Z</time>
      </trkpt>
      <trkpt lat="49.16568" lon="4.07306">
        <ele>126.7</ele>
        <time>2026-08-20T10:47:02Z</time>
      </trkpt>
      <trkpt lat="49.16564" lon="4.07311">
        <ele>126.9</ele>
        <time>2026-08-20T10:47:07Z</time>
      </trkpt>
      <trkpt lat="49.1656" lon="4.07316">
        <ele>127.1</ele>
        <time>2026-08-20T10:47:12Z</time>
      </trkpt>
      <trkpt lat="49.16554" lon="4.07321">
        <ele>127.4</ele>
        <time>2026-08-20T10:47:18Z</time>
      </trkpt>
      <trkpt lat="49.16549" lon="4.07325">
        <ele>127.6</ele>
        <time>2026-08-20T10:47:23Z</time>
      </trkpt>
      <trkpt lat="49.16545" lon="4.0733">
        <ele>127.8</ele>
        <time>2026-08-20T10:47:28Z</time>
      </trkpt>
      <trkpt lat="49.1654" lon="4.07336">
        <ele>128.1</ele>
        <time>2026-08-20T10:47:34Z</time>
      </trkpt>
      <trkpt lat="49.16534" lon="4.07341">
        <ele>128.3</ele>
        <time>2026-08-20T10:47:39Z</time>
      </trkpt>
      <trkpt lat="49.1653" lon="4.07345">
        <ele>128.5</ele>
        <time>2026-08-20T10:47:44Z</time>
      </trkpt>
      <trkpt lat="49.16524" lon="4.07353">
        <ele>128.7</ele>
        <time>2026-08-20T10:47:50Z</time>
      </trkpt>
      <trkpt lat="49.1652" lon="4.0736">
        <ele>128.8</ele>
        <time>2026-08-20T10:47:55Z</time>
      </trkpt>
      <trkpt lat="49.16516" lon="4.07366">
        <ele>128.9</ele>
        <time>2026-08-20T10:48:00Z</time>
      </trkpt>
      <trkpt lat="49.1651" lon="4.07373">
        <ele>129.1</ele>
        <time>2026-08-20T10:48:06Z</time>
      </trkpt>
      <trkpt lat="49.16505" lon="4.07379">
        <ele>129.2</ele>
        <time>2026-08-20T10:48:11Z</time>
      </trkpt>
      <trkpt lat="49.16501" lon="4.07385">
        <ele>129.3</ele>
        <time>2026-08-20T10:48:16Z</time>
      </trkpt>
      <trkpt lat="49.16496" lon="4.0739">
        <ele>129.5</ele>
        <time>2026-08-20T10:48:22Z</time>
      </trkpt>
      <trkpt lat="49.16491" lon="4.07395">
        <ele>129.7</ele>
        <time>2026-08-20T10:48:27Z</time>
      </trkpt>
      <trkpt lat="49.16487" lon="4.07399">
        <ele>129.8</ele>
        <time>2026-08-20T10:48:32Z</time>
      </trkpt>
      <trkpt lat="49.16481" lon="4.07404">
        <ele>130.1</ele>
        <time>2026-08-20T10:48:38Z</time>
      </trkpt>
      <trkpt lat="49.16477" lon="4.07407">
        <ele>130.2</ele>
        <time>2026-08-20T10:48:43Z</time>
      </trkpt>
      <trkpt lat="49.16473" lon="4.07411">
        <ele>130.4</ele>
        <time>2026-08-20T10:48:48Z</time>
      </trkpt>
      <trkpt lat="49.16472" lon="4.07411">
        <ele>130.4</ele>
        <time>2026-08-20T10:48:54Z</time>
      </trkpt>
      <trkpt lat="49.16471" lon="4.07411">
        <ele>130.5</ele>
        <time>2026-08-20T10:48:59Z</time>
      </trkpt>
      <trkpt lat="49.16471" lon="4.07411">
        <ele>130.5</ele>
        <time>2026-08-20T10:49:04Z</time>
      </trkpt>
      <trkpt lat="49.16471" lon="4.07411">
        <ele>130.5</ele>
        <time>2026-08-20T10:49:10Z</time>
      </trkpt>
      <trkpt lat="49.16471" lon="4.07411">
        <ele>130.5</ele>
        <time>2026-08-20T10:49:15Z</time>
      </trkpt>
      <trkpt lat="49.16471" lon="4.07411">
        <ele>130.5</ele>
        <time>2026-08-20T10:49:20Z</time>
      </trkpt>
      <trkpt lat="49.16471" lon="4.07411">
        <ele>130.5</ele>
        <time>2026-08-20T10:49:26Z</time>
      </trkpt>
      <trkpt lat="49.16471" lon="4.07411">
        <ele>130.5</ele>
        <time>2026-08-20T10:49:31Z</time>
      </trkpt>
      <trkpt lat="49.16471" lon="4.07411">
        <ele>130.5</ele>
        <time>2026-08-20T10:49:36Z</time>
      </trkpt>
      <trkpt lat="49.16471" lon="4.07411">
        <ele>130.5</ele>
        <time>2026-08-20T10:49:42Z</time>
      </trkpt>
      <trkpt lat="49.16471" lon="4.07411">
        <ele>130.5</ele>
        <time>2026-08-20T10:49:47Z</time>
      </trkpt>
      <trkpt lat="49.16471" lon="4.07411">
        <ele>130.5</ele>
        <time>2026-08-20T10:49:52Z</time>
      </trkpt>
      <trkpt lat="49.16471" lon="4.07411">
        <ele>130.5</ele>
        <time>2026-08-20T10:49:58Z</time>
      </trkpt>
      <trkpt lat="49.16471" lon="4.07411">
        <ele>130.5</ele>
        <time>2026-08-20T10:50:03Z</time>
      </trkpt>
      <trkpt lat="49.16471" lon="4.07411">
        <ele>130.5</ele>
        <time>2026-08-20T10:50:08Z</time>
      </trkpt>
      <trkpt lat="49.16471" lon="4.07411">
        <ele>130.5</ele>
        <time>2026-08-20T10:50:14Z</time>
      </trkpt>
      <trkpt lat="49.16471" lon="4.07411">
        <ele>130.5</ele>
        <time>2026-08-20T10:50:19Z</time>
      </trkpt>
      <trkpt lat="49.16471" lon="4.07411">
        <ele>130.5</ele>
        <time>2026-08-20T10:50:24Z</time>
      </trkpt>
      <trkpt lat="49.16471" lon="4.07411">
        <ele>130.5</ele>
        <time>2026-08-20T10:50:30Z</time>
      </trkpt>
      <trkpt lat="49.16471" lon="4.07411">
        <ele>130.5</ele>
        <time>2026-08-20T10:50:35Z</time>
      </trkpt>
      <trkpt lat="49.16471" lon="4.07411">
        <ele>130.5</ele>
        <time>2026-08-20T10:50:40Z</time>
      </trkpt>
      <trkpt lat="49.16471" lon="4.07411">
        <ele>130.5</ele>
        <time>2026-08-20T10:50:46Z</time>
      </trkpt>
      <trkpt lat="49.16471" lon="4.07411">
        <ele>130.5</ele>
        <time>2026-08-20T10:50:51Z</time>
      </trkpt>
      <trkpt lat="49.16471" lon="4.07411">
        <ele>130.5</ele>
        <time>2026-08-20T10:50:56Z</time>
      </trkpt>
      <trkpt lat="49.16471" lon="4.07411">
        <ele>130.5</ele>
        <time>2026-08-20T10:51:02Z</time>
      </trkpt>
      <trkpt lat="49.16471" lon="4.07411">
        <ele>130.5</ele>
        <time>2026-08-20T10:51:07Z</time>
      </trkpt>
      <trkpt lat="49.16471" lon="4.07411">
        <ele>130.5</ele>
        <time>2026-08-20T10:51:12Z</time>
      </trkpt>
      <trkpt lat="49.16471" lon="4.07411">
        <ele>130.5</ele>
        <time>2026-08-20T10:51:18Z</time>
      </trkpt>
      <trkpt lat="49.16471" lon="4.07411">
        <ele>130.5</ele>
        <time>2026-08-20T10:51:23Z</time>
      </trkpt>
      <trkpt lat="49.16471" lon="4.07411">
        <ele>130.5</ele>
        <time>2026-08-20T10:51:28Z</time>
      </trkpt>
      <trkpt lat="49.16471" lon="4.07411">
        <ele>130.5</ele>
        <time>2026-08-20T10:51:34Z</time>
      </trkpt>
      <trkpt lat="49.16471" lon="4.07411">
        <ele>130.5</ele>
        <time>2026-08-20T10:51:39Z</time>
      </trkpt>
      <trkpt lat="49.16471" lon="4.07411">
        <ele>130.5</ele>
        <time>2026-08-20T10:51:44Z</time>
      </trkpt>
      <trkpt lat="49.16471" lon="4.07411">
        <ele>130.5</ele>
        <time>2026-08-20T10:51:50Z</time>
      </trkpt>
      <trkpt lat="49.16471" lon="4.07411">
        <ele>130.5</ele>
        <time>2026-08-20T10:51:55Z</time>
      </trkpt>
      <trkpt lat="49.16471" lon="4.07411">
        <ele>130.5</ele>
        <time>2026-08-20T10:52:00Z</time>
      </trkpt>
      <trkpt lat="49.16467" lon="4.07416">
        <ele>130.6</ele>
        <time>2026-08-20T10:52:06Z</time>
      </trkpt>
      <trkpt lat="49.16466" lon="4.07417">
        <ele>130.6</ele>
        <time>2026-08-20T10:52:11Z</time>
      </trkpt>
      <trkpt lat="49.16466" lon="4.07417">
        <ele>130.6</ele>
        <time>2026-08-20T10:52:16Z</time>
      </trkpt>
      <trkpt lat="49.16463" lon="4.07421">
        <ele>130.7</ele>
        <time>2026-08-20T10:52:22Z</time>
      </trkpt>
      <trkpt lat="49.16459" lon="4.07426">
        <ele>130.8</ele>
        <time>2026-08-20T10:52:27Z</time>
      </trkpt>
      <trkpt lat="49.16454" lon="4.07431">
        <ele>130.9</ele>
        <time>2026-08-20T10:52:32Z</time>
      </trkpt>
      <trkpt lat="49.16449" lon="4.07438">
        <ele>131</ele>
        <time>2026-08-20T10:52:38Z</time>
      </trkpt>
      <trkpt lat="49.16445" lon="4.07444">
        <ele>131</ele>
        <time>2026-08-20T10:52:43Z</time>
      </trkpt>
      <trkpt lat="49.16441" lon="4.0745">
        <ele>131</ele>
        <time>2026-08-20T10:52:48Z</time>
      </trkpt>
      <trkpt lat="49.16436" lon="4.07459">
        <ele>130.9</ele>
        <time>2026-08-20T10:52:54Z</time>
      </trkpt>
      <trkpt lat="49.16431" lon="4.07465">
        <ele>130.9</ele>
        <time>2026-08-20T10:52:59Z</time>
      </trkpt>
      <trkpt lat="49.16426" lon="4.07471">
        <ele>130.8</ele>
        <time>2026-08-20T10:53:04Z</time>
      </trkpt>
      <trkpt lat="49.16419" lon="4.07473">
        <ele>130.9</ele>
        <time>2026-08-20T10:53:10Z</time>
      </trkpt>
      <trkpt lat="49.16413" lon="4.07474">
        <ele>130.9</ele>
        <time>2026-08-20T10:53:15Z</time>
      </trkpt>
      <trkpt lat="49.16408" lon="4.07475">
        <ele>130.8</ele>
        <time>2026-08-20T10:53:20Z</time>
      </trkpt>
      <trkpt lat="49.164" lon="4.07473">
        <ele>130.8</ele>
        <time>2026-08-20T10:53:26Z</time>
      </trkpt>
      <trkpt lat="49.16395" lon="4.07472">
        <ele>130.8</ele>
        <time>2026-08-20T10:53:31Z</time>
      </trkpt>
      <trkpt lat="49.16389" lon="4.07471">
        <ele>130.8</ele>
        <time>2026-08-20T10:53:36Z</time>
      </trkpt>
      <trkpt lat="49.16382" lon="4.07471">
        <ele>130.8</ele>
        <time>2026-08-20T10:53:42Z</time>
      </trkpt>
      <trkpt lat="49.16377" lon="4.07471">
        <ele>130.7</ele>
        <time>2026-08-20T10:53:47Z</time>
      </trkpt>
      <trkpt lat="49.16372" lon="4.07472">
        <ele>130.7</ele>
        <time>2026-08-20T10:53:52Z</time>
      </trkpt>
      <trkpt lat="49.16368" lon="4.07476">
        <ele>130.4</ele>
        <time>2026-08-20T10:53:58Z</time>
      </trkpt>
      <trkpt lat="49.16368" lon="4.07476">
        <ele>130.4</ele>
        <time>2026-08-20T10:54:03Z</time>
      </trkpt>
      <trkpt lat="49.16368" lon="4.07476">
        <ele>130.4</ele>
        <time>2026-08-20T10:54:08Z</time>
      </trkpt>
      <trkpt lat="49.16368" lon="4.07476">
        <ele>130.4</ele>
        <time>2026-08-20T10:54:14Z</time>
      </trkpt>
      <trkpt lat="49.16368" lon="4.07476">
        <ele>130.4</ele>
        <time>2026-08-20T10:54:19Z</time>
      </trkpt>
      <trkpt lat="49.16368" lon="4.07476">
        <ele>130.4</ele>
        <time>2026-08-20T10:54:24Z</time>
      </trkpt>
      <trkpt lat="49.16368" lon="4.07476">
        <ele>130.4</ele>
        <time>2026-08-20T10:54:30Z</time>
      </trkpt>
      <trkpt lat="49.16368" lon="4.07476">
        <ele>130.4</ele>
        <time>2026-08-20T10:54:35Z</time>
      </trkpt>
      <trkpt lat="49.16368" lon="4.07476">
        <ele>130.4</ele>
        <time>2026-08-20T10:54:40Z</time>
      </trkpt>
      <trkpt lat="49.16368" lon="4.07476">
        <ele>130.4</ele>
        <time>2026-08-20T10:54:46Z</time>
      </trkpt>
      <trkpt lat="49.16368" lon="4.07476">
        <ele>130.4</ele>
        <time>2026-08-20T10:54:51Z</time>
      </trkpt>
      <trkpt lat="49.16368" lon="4.07476">
        <ele>130.4</ele>
        <time>2026-08-20T10:54:56Z</time>
      </trkpt>
      <trkpt lat="49.16368" lon="4.07476">
        <ele>130.4</ele>
        <time>2026-08-20T10:55:02Z</time>
      </trkpt>
      <trkpt lat="49.16368" lon="4.07476">
        <ele>130.4</ele>
        <time>2026-08-20T10:55:07Z</time>
      </trkpt>
      <trkpt lat="49.16368" lon="4.07476">
        <ele>130.4</ele>
        <time>2026-08-20T10:55:12Z</time>
      </trkpt>
      <trkpt lat="49.16367" lon="4.07478">
        <ele>130.4</ele>
        <time>2026-08-20T10:55:18Z</time>
      </trkpt>
      <trkpt lat="49.16366" lon="4.07479">
        <ele>130.3</ele>
        <time>2026-08-20T10:55:23Z</time>
      </trkpt>
      <trkpt lat="49.16366" lon="4.07479">
        <ele>130.3</ele>
        <time>2026-08-20T10:55:28Z</time>
      </trkpt>
      <trkpt lat="49.16366" lon="4.07479">
        <ele>130.3</ele>
        <time>2026-08-20T10:55:34Z</time>
      </trkpt>
      <trkpt lat="49.16366" lon="4.07479">
        <ele>130.3</ele>
        <time>2026-08-20T10:55:39Z</time>
      </trkpt>
      <trkpt lat="49.16366" lon="4.07479">
        <ele>130.3</ele>
        <time>2026-08-20T10:55:44Z</time>
      </trkpt>
      <trkpt lat="49.16366" lon="4.07479">
        <ele>130.3</ele>
        <time>2026-08-20T10:55:50Z</time>
      </trkpt>
      <trkpt lat="49.16366" lon="4.07479">
        <ele>130.3</ele>
        <time>2026-08-20T10:55:55Z</time>
      </trkpt>
      <trkpt lat="49.16366" lon="4.07479">
        <ele>130.3</ele>
        <time>2026-08-20T10:56:00Z</time>
      </trkpt>
      <trkpt lat="49.16366" lon="4.07479">
        <ele>130.3</ele>
        <time>2026-08-20T10:56:06Z</time>
      </trkpt>
      <trkpt lat="49.16366" lon="4.07479">
        <ele>130.3</ele>
        <time>2026-08-20T10:56:11Z</time>
      </trkpt>
      <trkpt lat="49.16366" lon="4.07479">
        <ele>130.3</ele>
        <time>2026-08-20T10:56:16Z</time>
      </trkpt>
      <trkpt lat="49.16364" lon="4.07487">
        <ele>129.9</ele>
        <time>2026-08-20T10:56:22Z</time>
      </trkpt>
      <trkpt lat="49.16362" lon="4.07491">
        <ele>129.7</ele>
        <time>2026-08-20T10:56:27Z</time>
      </trkpt>
      <trkpt lat="49.16362" lon="4.07492">
        <ele>129.7</ele>
        <time>2026-08-20T10:56:32Z</time>
      </trkpt>
      <trkpt lat="49.16361" lon="4.07494">
        <ele>129.6</ele>
        <time>2026-08-20T10:56:38Z</time>
      </trkpt>
      <trkpt lat="49.16361" lon="4.07496">
        <ele>129.5</ele>
        <time>2026-08-20T10:56:43Z</time>
      </trkpt>
      <trkpt lat="49.1636" lon="4.07503">
        <ele>129.2</ele>
        <time>2026-08-20T10:56:48Z</time>
      </trkpt>
      <trkpt lat="49.16356" lon="4.07511">
        <ele>128.7</ele>
        <time>2026-08-20T10:56:54Z</time>
      </trkpt>
      <trkpt lat="49.16353" lon="4.07516">
        <ele>128.4</ele>
        <time>2026-08-20T10:56:59Z</time>
      </trkpt>
      <trkpt lat="49.16353" lon="4.07516">
        <ele>128.4</ele>
        <time>2026-08-20T10:57:04Z</time>
      </trkpt>
      <trkpt lat="49.16352" lon="4.07515">
        <ele>128.4</ele>
        <time>2026-08-20T10:57:10Z</time>
      </trkpt>
      <trkpt lat="49.16345" lon="4.07513">
        <ele>128.4</ele>
        <time>2026-08-20T10:57:15Z</time>
      </trkpt>
      <trkpt lat="49.1634" lon="4.0751">
        <ele>128.5</ele>
        <time>2026-08-20T10:57:20Z</time>
      </trkpt>
      <trkpt lat="49.16333" lon="4.07506">
        <ele>128.6</ele>
        <time>2026-08-20T10:57:26Z</time>
      </trkpt>
      <trkpt lat="49.16327" lon="4.07503">
        <ele>128.7</ele>
        <time>2026-08-20T10:57:31Z</time>
      </trkpt>
      <trkpt lat="49.16321" lon="4.07499">
        <ele>128.9</ele>
        <time>2026-08-20T10:57:36Z</time>
      </trkpt>
      <trkpt lat="49.16316" lon="4.07494">
        <ele>129.1</ele>
        <time>2026-08-20T10:57:42Z</time>
      </trkpt>
      <trkpt lat="49.1631" lon="4.07491">
        <ele>129.2</ele>
        <time>2026-08-20T10:57:47Z</time>
      </trkpt>
      <trkpt lat="49.16305" lon="4.07487">
        <ele>129.3</ele>
        <time>2026-08-20T10:57:52Z</time>
      </trkpt>
      <trkpt lat="49.16299" lon="4.07481">
        <ele>129.5</ele>
        <time>2026-08-20T10:57:58Z</time>
      </trkpt>
      <trkpt lat="49.16293" lon="4.07478">
        <ele>129.6</ele>
        <time>2026-08-20T10:58:03Z</time>
      </trkpt>
      <trkpt lat="49.16288" lon="4.07474">
        <ele>129.7</ele>
        <time>2026-08-20T10:58:08Z</time>
      </trkpt>
      <trkpt lat="49.16281" lon="4.0747">
        <ele>129.8</ele>
        <time>2026-08-20T10:58:14Z</time>
      </trkpt>
      <trkpt lat="49.16276" lon="4.07466">
        <ele>129.9</ele>
        <time>2026-08-20T10:58:19Z</time>
      </trkpt>
      <trkpt lat="49.1627" lon="4.07463">
        <ele>130</ele>
        <time>2026-08-20T10:58:24Z</time>
      </trkpt>
      <trkpt lat="49.16264" lon="4.0746">
        <ele>130.1</ele>
        <time>2026-08-20T10:58:30Z</time>
      </trkpt>
      <trkpt lat="49.16257" lon="4.07457">
        <ele>130.1</ele>
        <time>2026-08-20T10:58:35Z</time>
      </trkpt>
      <trkpt lat="49.16251" lon="4.07455">
        <ele>130.2</ele>
        <time>2026-08-20T10:58:40Z</time>
      </trkpt>
      <trkpt lat="49.16244" lon="4.07455">
        <ele>129.9</ele>
        <time>2026-08-20T10:58:46Z</time>
      </trkpt>
      <trkpt lat="49.16238" lon="4.07455">
        <ele>129.7</ele>
        <time>2026-08-20T10:58:51Z</time>
      </trkpt>
      <trkpt lat="49.16231" lon="4.07456">
        <ele>129.3</ele>
        <time>2026-08-20T10:58:56Z</time>
      </trkpt>
      <trkpt lat="49.16224" lon="4.07456">
        <ele>129</ele>
        <time>2026-08-20T10:59:02Z</time>
      </trkpt>
      <trkpt lat="49.16218" lon="4.07458">
        <ele>128.7</ele>
        <time>2026-08-20T10:59:07Z</time>
      </trkpt>
      <trkpt lat="49.16212" lon="4.07459">
        <ele>128.4</ele>
        <time>2026-08-20T10:59:12Z</time>
      </trkpt>
      <trkpt lat="49.16205" lon="4.07463">
        <ele>127.9</ele>
        <time>2026-08-20T10:59:18Z</time>
      </trkpt>
      <trkpt lat="49.16199" lon="4.07465">
        <ele>127.6</ele>
        <time>2026-08-20T10:59:23Z</time>
      </trkpt>
      <trkpt lat="49.16193" lon="4.07468">
        <ele>127.2</ele>
        <time>2026-08-20T10:59:28Z</time>
      </trkpt>
      <trkpt lat="49.16186" lon="4.07471">
        <ele>126.8</ele>
        <time>2026-08-20T10:59:34Z</time>
      </trkpt>
      <trkpt lat="49.1618" lon="4.07473">
        <ele>126.5</ele>
        <time>2026-08-20T10:59:39Z</time>
      </trkpt>
      <trkpt lat="49.16173" lon="4.07474">
        <ele>126.2</ele>
        <time>2026-08-20T10:59:44Z</time>
      </trkpt>
      <trkpt lat="49.16166" lon="4.07474">
        <ele>125.9</ele>
        <time>2026-08-20T10:59:50Z</time>
      </trkpt>
      <trkpt lat="49.16159" lon="4.07475">
        <ele>125.9</ele>
        <time>2026-08-20T10:59:55Z</time>
      </trkpt>
      <trkpt lat="49.16153" lon="4.07478">
        <ele>125.7</ele>
        <time>2026-08-20T11:00:00Z</time>
      </trkpt>
      <trkpt lat="49.16149" lon="4.07478">
        <ele>125.7</ele>
        <time>2026-08-20T11:00:06Z</time>
      </trkpt>
      <trkpt lat="49.16143" lon="4.07478">
        <ele>125.7</ele>
        <time>2026-08-20T11:00:11Z</time>
      </trkpt>
      <trkpt lat="49.16137" lon="4.07478">
        <ele>125.7</ele>
        <time>2026-08-20T11:00:16Z</time>
      </trkpt>
      <trkpt lat="49.1613" lon="4.07479">
        <ele>125.6</ele>
        <time>2026-08-20T11:00:22Z</time>
      </trkpt>
      <trkpt lat="49.16123" lon="4.0748">
        <ele>125.6</ele>
        <time>2026-08-20T11:00:27Z</time>
      </trkpt>
      <trkpt lat="49.16117" lon="4.07481">
        <ele>125.5</ele>
        <time>2026-08-20T11:00:32Z</time>
      </trkpt>
      <trkpt lat="49.16108" lon="4.07482">
        <ele>125.5</ele>
        <time>2026-08-20T11:00:38Z</time>
      </trkpt>
      <trkpt lat="49.16102" lon="4.07482">
        <ele>125.5</ele>
        <time>2026-08-20T11:00:43Z</time>
      </trkpt>
      <trkpt lat="49.16095" lon="4.07482">
        <ele>125.5</ele>
        <time>2026-08-20T11:00:48Z</time>
      </trkpt>
      <trkpt lat="49.16087" lon="4.07485">
        <ele>125.4</ele>
        <time>2026-08-20T11:00:54Z</time>
      </trkpt>
      <trkpt lat="49.1608" lon="4.07488">
        <ele>125.3</ele>
        <time>2026-08-20T11:00:59Z</time>
      </trkpt>
      <trkpt lat="49.16075" lon="4.0749">
        <ele>125.3</ele>
        <time>2026-08-20T11:01:04Z</time>
      </trkpt>
      <trkpt lat="49.16067" lon="4.07494">
        <ele>125.3</ele>
        <time>2026-08-20T11:01:10Z</time>
      </trkpt>
      <trkpt lat="49.16061" lon="4.07497">
        <ele>125.3</ele>
        <time>2026-08-20T11:01:15Z</time>
      </trkpt>
      <trkpt lat="49.16054" lon="4.075">
        <ele>125.4</ele>
        <time>2026-08-20T11:01:20Z</time>
      </trkpt>
      <trkpt lat="49.16047" lon="4.07503">
        <ele>125.5</ele>
        <time>2026-08-20T11:01:26Z</time>
      </trkpt>
      <trkpt lat="49.16041" lon="4.07507">
        <ele>125.6</ele>
        <time>2026-08-20T11:01:31Z</time>
      </trkpt>
      <trkpt lat="49.16036" lon="4.07511">
        <ele>125.7</ele>
        <time>2026-08-20T11:01:36Z</time>
      </trkpt>
      <trkpt lat="49.16028" lon="4.07514">
        <ele>125.9</ele>
        <time>2026-08-20T11:01:42Z</time>
      </trkpt>
      <trkpt lat="49.16022" lon="4.07517">
        <ele>126</ele>
        <time>2026-08-20T11:01:47Z</time>
      </trkpt>
      <trkpt lat="49.16017" lon="4.0752">
        <ele>126.2</ele>
        <time>2026-08-20T11:01:52Z</time>
      </trkpt>
      <trkpt lat="49.16009" lon="4.07524">
        <ele>126.4</ele>
        <time>2026-08-20T11:01:58Z</time>
      </trkpt>
      <trkpt lat="49.16003" lon="4.07527">
        <ele>126.6</ele>
        <time>2026-08-20T11:02:03Z</time>
      </trkpt>
      <trkpt lat="49.15996" lon="4.0753">
        <ele>126.8</ele>
        <time>2026-08-20T11:02:08Z</time>
      </trkpt>
      <trkpt lat="49.1599" lon="4.07534">
        <ele>127.1</ele>
        <time>2026-08-20T11:02:14Z</time>
      </trkpt>
      <trkpt lat="49.15983" lon="4.07538">
        <ele>127.4</ele>
        <time>2026-08-20T11:02:19Z</time>
      </trkpt>
      <trkpt lat="49.15977" lon="4.07542">
        <ele>127.7</ele>
        <time>2026-08-20T11:02:24Z</time>
      </trkpt>
      <trkpt lat="49.1597" lon="4.07546">
        <ele>128</ele>
        <time>2026-08-20T11:02:30Z</time>
      </trkpt>
      <trkpt lat="49.15964" lon="4.0755">
        <ele>128.2</ele>
        <time>2026-08-20T11:02:35Z</time>
      </trkpt>
      <trkpt lat="49.15959" lon="4.07553">
        <ele>128.4</ele>
        <time>2026-08-20T11:02:40Z</time>
      </trkpt>
      <trkpt lat="49.15951" lon="4.07556">
        <ele>128.7</ele>
        <time>2026-08-20T11:02:46Z</time>
      </trkpt>
      <trkpt lat="49.15946" lon="4.07559">
        <ele>128.9</ele>
        <time>2026-08-20T11:02:51Z</time>
      </trkpt>
      <trkpt lat="49.15941" lon="4.07561">
        <ele>129.1</ele>
        <time>2026-08-20T11:02:56Z</time>
      </trkpt>
      <trkpt lat="49.15934" lon="4.07565">
        <ele>129.3</ele>
        <time>2026-08-20T11:03:02Z</time>
      </trkpt>
      <trkpt lat="49.15929" lon="4.07568">
        <ele>129.5</ele>
        <time>2026-08-20T11:03:07Z</time>
      </trkpt>
      <trkpt lat="49.15924" lon="4.07572">
        <ele>129.7</ele>
        <time>2026-08-20T11:03:12Z</time>
      </trkpt>
      <trkpt lat="49.15917" lon="4.07574">
        <ele>129.9</ele>
        <time>2026-08-20T11:03:18Z</time>
      </trkpt>
      <trkpt lat="49.15914" lon="4.07575">
        <ele>130.1</ele>
        <time>2026-08-20T11:03:23Z</time>
      </trkpt>
      <trkpt lat="49.15912" lon="4.07583">
        <ele>130.3</ele>
        <time>2026-08-20T11:03:28Z</time>
      </trkpt>
      <trkpt lat="49.15908" lon="4.07592">
        <ele>130.6</ele>
        <time>2026-08-20T11:03:34Z</time>
      </trkpt>
      <trkpt lat="49.15905" lon="4.07598">
        <ele>130.9</ele>
        <time>2026-08-20T11:03:39Z</time>
      </trkpt>
      <trkpt lat="49.15902" lon="4.07604">
        <ele>131.1</ele>
        <time>2026-08-20T11:03:44Z</time>
      </trkpt>
      <trkpt lat="49.15899" lon="4.07613">
        <ele>131.3</ele>
        <time>2026-08-20T11:03:50Z</time>
      </trkpt>
      <trkpt lat="49.15895" lon="4.07618">
        <ele>131.6</ele>
        <time>2026-08-20T11:03:55Z</time>
      </trkpt>
      <trkpt lat="49.15891" lon="4.07622">
        <ele>131.9</ele>
        <time>2026-08-20T11:04:00Z</time>
      </trkpt>
      <trkpt lat="49.15884" lon="4.07623">
        <ele>132.2</ele>
        <time>2026-08-20T11:04:06Z</time>
      </trkpt>
      <trkpt lat="49.15878" lon="4.07624">
        <ele>132.6</ele>
        <time>2026-08-20T11:04:11Z</time>
      </trkpt>
      <trkpt lat="49.15872" lon="4.07626">
        <ele>132.9</ele>
        <time>2026-08-20T11:04:16Z</time>
      </trkpt>
      <trkpt lat="49.15867" lon="4.07632">
        <ele>133.2</ele>
        <time>2026-08-20T11:04:22Z</time>
      </trkpt>
      <trkpt lat="49.15863" lon="4.07638">
        <ele>133.5</ele>
        <time>2026-08-20T11:04:27Z</time>
      </trkpt>
      <trkpt lat="49.1586" lon="4.07644">
        <ele>133.6</ele>
        <time>2026-08-20T11:04:32Z</time>
      </trkpt>
      <trkpt lat="49.15856" lon="4.07653">
        <ele>133.9</ele>
        <time>2026-08-20T11:04:38Z</time>
      </trkpt>
      <trkpt lat="49.15852" lon="4.07661">
        <ele>134.1</ele>
        <time>2026-08-20T11:04:43Z</time>
      </trkpt>
      <trkpt lat="49.15848" lon="4.07668">
        <ele>134.3</ele>
        <time>2026-08-20T11:04:48Z</time>
      </trkpt>
      <trkpt lat="49.15843" lon="4.07674">
        <ele>134.4</ele>
        <time>2026-08-20T11:04:54Z</time>
      </trkpt>
      <trkpt lat="49.15838" lon="4.07678">
        <ele>134.6</ele>
        <time>2026-08-20T11:04:59Z</time>
      </trkpt>
      <trkpt lat="49.15833" lon="4.07683">
        <ele>134.8</ele>
        <time>2026-08-20T11:05:04Z</time>
      </trkpt>
      <trkpt lat="49.15827" lon="4.07689">
        <ele>134.9</ele>
        <time>2026-08-20T11:05:10Z</time>
      </trkpt>
      <trkpt lat="49.15821" lon="4.07694">
        <ele>135.1</ele>
        <time>2026-08-20T11:05:15Z</time>
      </trkpt>
      <trkpt lat="49.15816" lon="4.07698">
        <ele>135.2</ele>
        <time>2026-08-20T11:05:20Z</time>
      </trkpt>
      <trkpt lat="49.15809" lon="4.07702">
        <ele>135.3</ele>
        <time>2026-08-20T11:05:26Z</time>
      </trkpt>
      <trkpt lat="49.15803" lon="4.07706">
        <ele>135.4</ele>
        <time>2026-08-20T11:05:31Z</time>
      </trkpt>
      <trkpt lat="49.15797" lon="4.0771">
        <ele>135.6</ele>
        <time>2026-08-20T11:05:36Z</time>
      </trkpt>
      <trkpt lat="49.15791" lon="4.07717">
        <ele>135.6</ele>
        <time>2026-08-20T11:05:42Z</time>
      </trkpt>
      <trkpt lat="49.15787" lon="4.07722">
        <ele>135.6</ele>
        <time>2026-08-20T11:05:47Z</time>
      </trkpt>
      <trkpt lat="49.15785" lon="4.0772">
        <ele>135.7</ele>
        <time>2026-08-20T11:05:52Z</time>
      </trkpt>
      <trkpt lat="49.15785" lon="4.0772">
        <ele>135.7</ele>
        <time>2026-08-20T11:05:58Z</time>
      </trkpt>
      <trkpt lat="49.15785" lon="4.0772">
        <ele>135.7</ele>
        <time>2026-08-20T11:06:03Z</time>
      </trkpt>
      <trkpt lat="49.15781" lon="4.07726">
        <ele>135.7</ele>
        <time>2026-08-20T11:06:08Z</time>
      </trkpt>
      <trkpt lat="49.15777" lon="4.07733">
        <ele>135.7</ele>
        <time>2026-08-20T11:06:14Z</time>
      </trkpt>
      <trkpt lat="49.15775" lon="4.07739">
        <ele>135.6</ele>
        <time>2026-08-20T11:06:19Z</time>
      </trkpt>
      <trkpt lat="49.1577" lon="4.07745">
        <ele>135.6</ele>
        <time>2026-08-20T11:06:24Z</time>
      </trkpt>
      <trkpt lat="49.15764" lon="4.07754">
        <ele>135.7</ele>
        <time>2026-08-20T11:06:30Z</time>
      </trkpt>
      <trkpt lat="49.1576" lon="4.0776">
        <ele>135.8</ele>
        <time>2026-08-20T11:06:35Z</time>
      </trkpt>
      <trkpt lat="49.15755" lon="4.07766">
        <ele>136</ele>
        <time>2026-08-20T11:06:40Z</time>
      </trkpt>
      <trkpt lat="49.1575" lon="4.07774">
        <ele>136.3</ele>
        <time>2026-08-20T11:06:46Z</time>
      </trkpt>
      <trkpt lat="49.15745" lon="4.0778">
        <ele>136.7</ele>
        <time>2026-08-20T11:06:51Z</time>
      </trkpt>
      <trkpt lat="49.15741" lon="4.07787">
        <ele>137</ele>
        <time>2026-08-20T11:06:56Z</time>
      </trkpt>
      <trkpt lat="49.15736" lon="4.07795">
        <ele>137.4</ele>
        <time>2026-08-20T11:07:02Z</time>
      </trkpt>
      <trkpt lat="49.15731" lon="4.07801">
        <ele>137.8</ele>
        <time>2026-08-20T11:07:07Z</time>
      </trkpt>
      <trkpt lat="49.15726" lon="4.07806">
        <ele>138.1</ele>
        <time>2026-08-20T11:07:12Z</time>
      </trkpt>
      <trkpt lat="49.15721" lon="4.07814">
        <ele>138.5</ele>
        <time>2026-08-20T11:07:18Z</time>
      </trkpt>
      <trkpt lat="49.15716" lon="4.0782">
        <ele>138.9</ele>
        <time>2026-08-20T11:07:23Z</time>
      </trkpt>
      <trkpt lat="49.15711" lon="4.07826">
        <ele>139.3</ele>
        <time>2026-08-20T11:07:28Z</time>
      </trkpt>
      <trkpt lat="49.15706" lon="4.07834">
        <ele>139.6</ele>
        <time>2026-08-20T11:07:34Z</time>
      </trkpt>
      <trkpt lat="49.15702" lon="4.07843">
        <ele>139.9</ele>
        <time>2026-08-20T11:07:39Z</time>
      </trkpt>
      <trkpt lat="49.15699" lon="4.07851">
        <ele>140.2</ele>
        <time>2026-08-20T11:07:44Z</time>
      </trkpt>
      <trkpt lat="49.15698" lon="4.0786">
        <ele>140.3</ele>
        <time>2026-08-20T11:07:50Z</time>
      </trkpt>
      <trkpt lat="49.15696" lon="4.07868">
        <ele>140.5</ele>
        <time>2026-08-20T11:07:55Z</time>
      </trkpt>
      <trkpt lat="49.15693" lon="4.07877">
        <ele>140.8</ele>
        <time>2026-08-20T11:08:00Z</time>
      </trkpt>
      <trkpt lat="49.15693" lon="4.07887">
        <ele>140.9</ele>
        <time>2026-08-20T11:08:06Z</time>
      </trkpt>
      <trkpt lat="49.15692" lon="4.07895">
        <ele>141</ele>
        <time>2026-08-20T11:08:11Z</time>
      </trkpt>
      <trkpt lat="49.1569" lon="4.07903">
        <ele>141.2</ele>
        <time>2026-08-20T11:08:16Z</time>
      </trkpt>
      <trkpt lat="49.15688" lon="4.07915">
        <ele>141.4</ele>
        <time>2026-08-20T11:08:22Z</time>
      </trkpt>
      <trkpt lat="49.15684" lon="4.07922">
        <ele>141.8</ele>
        <time>2026-08-20T11:08:27Z</time>
      </trkpt>
      <trkpt lat="49.15676" lon="4.07923">
        <ele>142.3</ele>
        <time>2026-08-20T11:08:32Z</time>
      </trkpt>
      <trkpt lat="49.1567" lon="4.07924">
        <ele>142.8</ele>
        <time>2026-08-20T11:08:38Z</time>
      </trkpt>
      <trkpt lat="49.1567" lon="4.07925">
        <ele>142.8</ele>
        <time>2026-08-20T11:08:43Z</time>
      </trkpt>
      <trkpt lat="49.15669" lon="4.07925">
        <ele>142.8</ele>
        <time>2026-08-20T11:08:48Z</time>
      </trkpt>
      <trkpt lat="49.15669" lon="4.07925">
        <ele>142.8</ele>
        <time>2026-08-20T11:08:54Z</time>
      </trkpt>
      <trkpt lat="49.15669" lon="4.07925">
        <ele>142.8</ele>
        <time>2026-08-20T11:08:59Z</time>
      </trkpt>
      <trkpt lat="49.15669" lon="4.07925">
        <ele>142.8</ele>
        <time>2026-08-20T11:09:04Z</time>
      </trkpt>
      <trkpt lat="49.15669" lon="4.07925">
        <ele>142.8</ele>
        <time>2026-08-20T11:09:10Z</time>
      </trkpt>
      <trkpt lat="49.15669" lon="4.07925">
        <ele>142.8</ele>
        <time>2026-08-20T11:09:15Z</time>
      </trkpt>
      <trkpt lat="49.15669" lon="4.07925">
        <ele>142.8</ele>
        <time>2026-08-20T11:09:20Z</time>
      </trkpt>
      <trkpt lat="49.15667" lon="4.07927">
        <ele>143</ele>
        <time>2026-08-20T11:09:26Z</time>
      </trkpt>
      <trkpt lat="49.15661" lon="4.07924">
        <ele>143.3</ele>
        <time>2026-08-20T11:09:31Z</time>
      </trkpt>
      <trkpt lat="49.15655" lon="4.07924">
        <ele>143.6</ele>
        <time>2026-08-20T11:09:36Z</time>
      </trkpt>
      <trkpt lat="49.15649" lon="4.07925">
        <ele>143.9</ele>
        <time>2026-08-20T11:09:42Z</time>
      </trkpt>
      <trkpt lat="49.15643" lon="4.07927">
        <ele>144.2</ele>
        <time>2026-08-20T11:09:47Z</time>
      </trkpt>
      <trkpt lat="49.15638" lon="4.07929">
        <ele>144.4</ele>
        <time>2026-08-20T11:09:52Z</time>
      </trkpt>
      <trkpt lat="49.15631" lon="4.07934">
        <ele>144.8</ele>
        <time>2026-08-20T11:09:58Z</time>
      </trkpt>
      <trkpt lat="49.15625" lon="4.07938">
        <ele>145.1</ele>
        <time>2026-08-20T11:10:03Z</time>
      </trkpt>
      <trkpt lat="49.1562" lon="4.07944">
        <ele>145.4</ele>
        <time>2026-08-20T11:10:08Z</time>
      </trkpt>
      <trkpt lat="49.15615" lon="4.07952">
        <ele>145.7</ele>
        <time>2026-08-20T11:10:14Z</time>
      </trkpt>
      <trkpt lat="49.15611" lon="4.07959">
        <ele>146</ele>
        <time>2026-08-20T11:10:19Z</time>
      </trkpt>
      <trkpt lat="49.15606" lon="4.07962">
        <ele>146.3</ele>
        <time>2026-08-20T11:10:24Z</time>
      </trkpt>
      <trkpt lat="49.15599" lon="4.07965">
        <ele>146.7</ele>
        <time>2026-08-20T11:10:30Z</time>
      </trkpt>
      <trkpt lat="49.15593" lon="4.07966">
        <ele>147.1</ele>
        <time>2026-08-20T11:10:35Z</time>
      </trkpt>
      <trkpt lat="49.15587" lon="4.07968">
        <ele>147.4</ele>
        <time>2026-08-20T11:10:40Z</time>
      </trkpt>
      <trkpt lat="49.15581" lon="4.07975">
        <ele>147.8</ele>
        <time>2026-08-20T11:10:46Z</time>
      </trkpt>
      <trkpt lat="49.15575" lon="4.07977">
        <ele>148.2</ele>
        <time>2026-08-20T11:10:51Z</time>
      </trkpt>
      <trkpt lat="49.15569" lon="4.07979">
        <ele>148.6</ele>
        <time>2026-08-20T11:10:56Z</time>
      </trkpt>
      <trkpt lat="49.15562" lon="4.07981">
        <ele>149.1</ele>
        <time>2026-08-20T11:11:02Z</time>
      </trkpt>
      <trkpt lat="49.15556" lon="4.07983">
        <ele>149.4</ele>
        <time>2026-08-20T11:11:07Z</time>
      </trkpt>
      <trkpt lat="49.1555" lon="4.07985">
        <ele>149.8</ele>
        <time>2026-08-20T11:11:12Z</time>
      </trkpt>
      <trkpt lat="49.15542" lon="4.07987">
        <ele>150.3</ele>
        <time>2026-08-20T11:11:18Z</time>
      </trkpt>
      <trkpt lat="49.15536" lon="4.07989">
        <ele>150.7</ele>
        <time>2026-08-20T11:11:23Z</time>
      </trkpt>
      <trkpt lat="49.15529" lon="4.07989">
        <ele>151.1</ele>
        <time>2026-08-20T11:11:28Z</time>
      </trkpt>
      <trkpt lat="49.15521" lon="4.07992">
        <ele>151.6</ele>
        <time>2026-08-20T11:11:34Z</time>
      </trkpt>
      <trkpt lat="49.15515" lon="4.07996">
        <ele>152.1</ele>
        <time>2026-08-20T11:11:39Z</time>
      </trkpt>
      <trkpt lat="49.1551" lon="4.07999">
        <ele>152.4</ele>
        <time>2026-08-20T11:11:44Z</time>
      </trkpt>
      <trkpt lat="49.15503" lon="4.08003">
        <ele>152.9</ele>
        <time>2026-08-20T11:11:50Z</time>
      </trkpt>
      <trkpt lat="49.15497" lon="4.08006">
        <ele>153.4</ele>
        <time>2026-08-20T11:11:55Z</time>
      </trkpt>
      <trkpt lat="49.15492" lon="4.08009">
        <ele>153.8</ele>
        <time>2026-08-20T11:12:00Z</time>
      </trkpt>
      <trkpt lat="49.15487" lon="4.08007">
        <ele>154</ele>
        <time>2026-08-20T11:12:06Z</time>
      </trkpt>
      <trkpt lat="49.15481" lon="4.08005">
        <ele>154.3</ele>
        <time>2026-08-20T11:12:11Z</time>
      </trkpt>
      <trkpt lat="49.15476" lon="4.08004">
        <ele>154.6</ele>
        <time>2026-08-20T11:12:16Z</time>
      </trkpt>
      <trkpt lat="49.15469" lon="4.08001">
        <ele>154.9</ele>
        <time>2026-08-20T11:12:22Z</time>
      </trkpt>
      <trkpt lat="49.15463" lon="4.08001">
        <ele>155.2</ele>
        <time>2026-08-20T11:12:27Z</time>
      </trkpt>
      <trkpt lat="49.15458" lon="4.07998">
        <ele>155.5</ele>
        <time>2026-08-20T11:12:32Z</time>
      </trkpt>
      <trkpt lat="49.15452" lon="4.07998">
        <ele>155.9</ele>
        <time>2026-08-20T11:12:38Z</time>
      </trkpt>
      <trkpt lat="49.15447" lon="4.07995">
        <ele>156.1</ele>
        <time>2026-08-20T11:12:43Z</time>
      </trkpt>
      <trkpt lat="49.15441" lon="4.07992">
        <ele>156.4</ele>
        <time>2026-08-20T11:12:48Z</time>
      </trkpt>
      <trkpt lat="49.15436" lon="4.07993">
        <ele>156.8</ele>
        <time>2026-08-20T11:12:54Z</time>
      </trkpt>
      <trkpt lat="49.15431" lon="4.07991">
        <ele>157</ele>
        <time>2026-08-20T11:12:59Z</time>
      </trkpt>
      <trkpt lat="49.15427" lon="4.07989">
        <ele>157.2</ele>
        <time>2026-08-20T11:13:04Z</time>
      </trkpt>
      <trkpt lat="49.15421" lon="4.07988">
        <ele>157.6</ele>
        <time>2026-08-20T11:13:10Z</time>
      </trkpt>
      <trkpt lat="49.15416" lon="4.07987">
        <ele>157.9</ele>
        <time>2026-08-20T11:13:15Z</time>
      </trkpt>
      <trkpt lat="49.15411" lon="4.07989">
        <ele>158.5</ele>
        <time>2026-08-20T11:13:20Z</time>
      </trkpt>
      <trkpt lat="49.15406" lon="4.07992">
        <ele>159.2</ele>
        <time>2026-08-20T11:13:26Z</time>
      </trkpt>
      <trkpt lat="49.15403" lon="4.07992">
        <ele>159.5</ele>
        <time>2026-08-20T11:13:31Z</time>
      </trkpt>
      <trkpt lat="49.15401" lon="4.07997">
        <ele>159.8</ele>
        <time>2026-08-20T11:13:36Z</time>
      </trkpt>
      <trkpt lat="49.15396" lon="4.08001">
        <ele>160.5</ele>
        <time>2026-08-20T11:13:42Z</time>
      </trkpt>
      <trkpt lat="49.15392" lon="4.08005">
        <ele>161</ele>
        <time>2026-08-20T11:13:47Z</time>
      </trkpt>
      <trkpt lat="49.15387" lon="4.08009">
        <ele>161.6</ele>
        <time>2026-08-20T11:13:52Z</time>
      </trkpt>
      <trkpt lat="49.1538" lon="4.08012">
        <ele>162.5</ele>
        <time>2026-08-20T11:13:58Z</time>
      </trkpt>
      <trkpt lat="49.15375" lon="4.08009">
        <ele>163.1</ele>
        <time>2026-08-20T11:14:03Z</time>
      </trkpt>
      <trkpt lat="49.15369" lon="4.08011">
        <ele>163.8</ele>
        <time>2026-08-20T11:14:08Z</time>
      </trkpt>
      <trkpt lat="49.15363" lon="4.08013">
        <ele>164.5</ele>
        <time>2026-08-20T11:14:14Z</time>
      </trkpt>
      <trkpt lat="49.15359" lon="4.08016">
        <ele>165</ele>
        <time>2026-08-20T11:14:19Z</time>
      </trkpt>
      <trkpt lat="49.15356" lon="4.08019">
        <ele>165.3</ele>
        <time>2026-08-20T11:14:24Z</time>
      </trkpt>
      <trkpt lat="49.15351" lon="4.08022">
        <ele>165.9</ele>
        <time>2026-08-20T11:14:30Z</time>
      </trkpt>
      <trkpt lat="49.15349" lon="4.08024">
        <ele>166.2</ele>
        <time>2026-08-20T11:14:35Z</time>
      </trkpt>
      <trkpt lat="49.15345" lon="4.08024">
        <ele>166.6</ele>
        <time>2026-08-20T11:14:40Z</time>
      </trkpt>
      <trkpt lat="49.15337" lon="4.08024">
        <ele>167.6</ele>
        <time>2026-08-20T11:14:46Z</time>
      </trkpt>
      <trkpt lat="49.15332" lon="4.08026">
        <ele>168.2</ele>
        <time>2026-08-20T11:14:51Z</time>
      </trkpt>
      <trkpt lat="49.15328" lon="4.08028">
        <ele>168.7</ele>
        <time>2026-08-20T11:14:56Z</time>
      </trkpt>
      <trkpt lat="49.15323" lon="4.08028">
        <ele>169.4</ele>
        <time>2026-08-20T11:15:02Z</time>
      </trkpt>
      <trkpt lat="49.15318" lon="4.08028">
        <ele>170.1</ele>
        <time>2026-08-20T11:15:07Z</time>
      </trkpt>
      <trkpt lat="49.15314" lon="4.0803">
        <ele>170.7</ele>
        <time>2026-08-20T11:15:12Z</time>
      </trkpt>
      <trkpt lat="49.15311" lon="4.08032">
        <ele>171.2</ele>
        <time>2026-08-20T11:15:18Z</time>
      </trkpt>
      <trkpt lat="49.1531" lon="4.08031">
        <ele>171.3</ele>
        <time>2026-08-20T11:15:23Z</time>
      </trkpt>
      <trkpt lat="49.1531" lon="4.0803">
        <ele>171.3</ele>
        <time>2026-08-20T11:15:28Z</time>
      </trkpt>
      <trkpt lat="49.1531" lon="4.0803">
        <ele>171.3</ele>
        <time>2026-08-20T11:15:34Z</time>
      </trkpt>
      <trkpt lat="49.1531" lon="4.0803">
        <ele>171.3</ele>
        <time>2026-08-20T11:15:39Z</time>
      </trkpt>
      <trkpt lat="49.1531" lon="4.0803">
        <ele>171.3</ele>
        <time>2026-08-20T11:15:44Z</time>
      </trkpt>
      <trkpt lat="49.1531" lon="4.0803">
        <ele>171.3</ele>
        <time>2026-08-20T11:15:50Z</time>
      </trkpt>
      <trkpt lat="49.1531" lon="4.0803">
        <ele>171.3</ele>
        <time>2026-08-20T11:15:55Z</time>
      </trkpt>
      <trkpt lat="49.1531" lon="4.0803">
        <ele>171.3</ele>
        <time>2026-08-20T11:16:00Z</time>
      </trkpt>
      <trkpt lat="49.1531" lon="4.0803">
        <ele>171.3</ele>
        <time>2026-08-20T11:16:06Z</time>
      </trkpt>
      <trkpt lat="49.1531" lon="4.0803">
        <ele>171.3</ele>
        <time>2026-08-20T11:16:11Z</time>
      </trkpt>
      <trkpt lat="49.1531" lon="4.0803">
        <ele>171.3</ele>
        <time>2026-08-20T11:16:16Z</time>
      </trkpt>
      <trkpt lat="49.15304" lon="4.08027">
        <ele>172.1</ele>
        <time>2026-08-20T11:16:22Z</time>
      </trkpt>
      <trkpt lat="49.15299" lon="4.08029">
        <ele>172.8</ele>
        <time>2026-08-20T11:16:27Z</time>
      </trkpt>
      <trkpt lat="49.15293" lon="4.0803">
        <ele>173.7</ele>
        <time>2026-08-20T11:16:32Z</time>
      </trkpt>
      <trkpt lat="49.15286" lon="4.08032">
        <ele>174.7</ele>
        <time>2026-08-20T11:16:38Z</time>
      </trkpt>
      <trkpt lat="49.15282" lon="4.08034">
        <ele>175.3</ele>
        <time>2026-08-20T11:16:43Z</time>
      </trkpt>
      <trkpt lat="49.15278" lon="4.08038">
        <ele>175.9</ele>
        <time>2026-08-20T11:16:48Z</time>
      </trkpt>
      <trkpt lat="49.15274" lon="4.08038">
        <ele>176.5</ele>
        <time>2026-08-20T11:16:54Z</time>
      </trkpt>
      <trkpt lat="49.15274" lon="4.08038">
        <ele>176.5</ele>
        <time>2026-08-20T11:16:59Z</time>
      </trkpt>
      <trkpt lat="49.15274" lon="4.08038">
        <ele>176.5</ele>
        <time>2026-08-20T11:17:04Z</time>
      </trkpt>
      <trkpt lat="49.15267" lon="4.08039">
        <ele>177.5</ele>
        <time>2026-08-20T11:17:10Z</time>
      </trkpt>
      <trkpt lat="49.15265" lon="4.08036">
        <ele>177.7</ele>
        <time>2026-08-20T11:17:15Z</time>
      </trkpt>
      <trkpt lat="49.15265" lon="4.08033">
        <ele>177.7</ele>
        <time>2026-08-20T11:17:20Z</time>
      </trkpt>
      <trkpt lat="49.15265" lon="4.08033">
        <ele>177.7</ele>
        <time>2026-08-20T11:17:26Z</time>
      </trkpt>
      <trkpt lat="49.15265" lon="4.08033">
        <ele>177.7</ele>
        <time>2026-08-20T11:17:31Z</time>
      </trkpt>
      <trkpt lat="49.15265" lon="4.08033">
        <ele>177.7</ele>
        <time>2026-08-20T11:17:36Z</time>
      </trkpt>
      <trkpt lat="49.15265" lon="4.08033">
        <ele>177.7</ele>
        <time>2026-08-20T11:17:42Z</time>
      </trkpt>
      <trkpt lat="49.15265" lon="4.08033">
        <ele>177.7</ele>
        <time>2026-08-20T11:17:47Z</time>
      </trkpt>
      <trkpt lat="49.15265" lon="4.08033">
        <ele>177.7</ele>
        <time>2026-08-20T11:17:52Z</time>
      </trkpt>
      <trkpt lat="49.15265" lon="4.08033">
        <ele>177.7</ele>
        <time>2026-08-20T11:17:58Z</time>
      </trkpt>
      <trkpt lat="49.15265" lon="4.08033">
        <ele>177.7</ele>
        <time>2026-08-20T11:18:03Z</time>
      </trkpt>
      <trkpt lat="49.15265" lon="4.08033">
        <ele>177.7</ele>
        <time>2026-08-20T11:18:08Z</time>
      </trkpt>
      <trkpt lat="49.15265" lon="4.08033">
        <ele>177.7</ele>
        <time>2026-08-20T11:18:14Z</time>
      </trkpt>
      <trkpt lat="49.15265" lon="4.08033">
        <ele>177.7</ele>
        <time>2026-08-20T11:18:19Z</time>
      </trkpt>
      <trkpt lat="49.15265" lon="4.08033">
        <ele>177.7</ele>
        <time>2026-08-20T11:18:24Z</time>
      </trkpt>
      <trkpt lat="49.15265" lon="4.08033">
        <ele>177.7</ele>
        <time>2026-08-20T11:18:30Z</time>
      </trkpt>
      <trkpt lat="49.15265" lon="4.08033">
        <ele>177.7</ele>
        <time>2026-08-20T11:18:35Z</time>
      </trkpt>
      <trkpt lat="49.15265" lon="4.08033">
        <ele>177.7</ele>
        <time>2026-08-20T11:18:40Z</time>
      </trkpt>
      <trkpt lat="49.15265" lon="4.08033">
        <ele>177.7</ele>
        <time>2026-08-20T11:18:46Z</time>
      </trkpt>
      <trkpt lat="49.15265" lon="4.08033">
        <ele>177.7</ele>
        <time>2026-08-20T11:18:51Z</time>
      </trkpt>
      <trkpt lat="49.15265" lon="4.08033">
        <ele>177.7</ele>
        <time>2026-08-20T11:18:56Z</time>
      </trkpt>
      <trkpt lat="49.15265" lon="4.08033">
        <ele>177.7</ele>
        <time>2026-08-20T11:19:02Z</time>
      </trkpt>
      <trkpt lat="49.15265" lon="4.08033">
        <ele>177.7</ele>
        <time>2026-08-20T11:19:07Z</time>
      </trkpt>
      <trkpt lat="49.15265" lon="4.08033">
        <ele>177.7</ele>
        <time>2026-08-20T11:19:12Z</time>
      </trkpt>
      <trkpt lat="49.15265" lon="4.08033">
        <ele>177.7</ele>
        <time>2026-08-20T11:19:18Z</time>
      </trkpt>
      <trkpt lat="49.15265" lon="4.08033">
        <ele>177.7</ele>
        <time>2026-08-20T11:19:23Z</time>
      </trkpt>
      <trkpt lat="49.15265" lon="4.08033">
        <ele>177.7</ele>
        <time>2026-08-20T11:19:28Z</time>
      </trkpt>
      <trkpt lat="49.15265" lon="4.08033">
        <ele>177.7</ele>
        <time>2026-08-20T11:19:34Z</time>
      </trkpt>
      <trkpt lat="49.15265" lon="4.08033">
        <ele>177.7</ele>
        <time>2026-08-20T11:19:39Z</time>
      </trkpt>
      <trkpt lat="49.15265" lon="4.08033">
        <ele>177.7</ele>
        <time>2026-08-20T11:19:44Z</time>
      </trkpt>
      <trkpt lat="49.15265" lon="4.08033">
        <ele>177.7</ele>
        <time>2026-08-20T11:19:50Z</time>
      </trkpt>
      <trkpt lat="49.15265" lon="4.08033">
        <ele>177.7</ele>
        <time>2026-08-20T11:19:55Z</time>
      </trkpt>
      <trkpt lat="49.15265" lon="4.08033">
        <ele>177.7</ele>
        <time>2026-08-20T11:20:00Z</time>
      </trkpt>
      <trkpt lat="49.15265" lon="4.08033">
        <ele>177.7</ele>
        <time>2026-08-20T11:20:06Z</time>
      </trkpt>
      <trkpt lat="49.15265" lon="4.08033">
        <ele>177.7</ele>
        <time>2026-08-20T11:20:11Z</time>
      </trkpt>
      <trkpt lat="49.15265" lon="4.08033">
        <ele>177.7</ele>
        <time>2026-08-20T11:20:16Z</time>
      </trkpt>
      <trkpt lat="49.15265" lon="4.08033">
        <ele>177.7</ele>
        <time>2026-08-20T11:20:22Z</time>
      </trkpt>
      <trkpt lat="49.15265" lon="4.08033">
        <ele>177.7</ele>
        <time>2026-08-20T11:20:27Z</time>
      </trkpt>
      <trkpt lat="49.15265" lon="4.08033">
        <ele>177.7</ele>
        <time>2026-08-20T11:20:32Z</time>
      </trkpt>
      <trkpt lat="49.15265" lon="4.08033">
        <ele>177.7</ele>
        <time>2026-08-20T11:20:38Z</time>
      </trkpt>
      <trkpt lat="49.15265" lon="4.08033">
        <ele>177.7</ele>
        <time>2026-08-20T11:20:43Z</time>
      </trkpt>
      <trkpt lat="49.15265" lon="4.08033">
        <ele>177.7</ele>
        <time>2026-08-20T11:20:48Z</time>
      </trkpt>
      <trkpt lat="49.15265" lon="4.08033">
        <ele>177.7</ele>
        <time>2026-08-20T11:20:54Z</time>
      </trkpt>
      <trkpt lat="49.15265" lon="4.08033">
        <ele>177.7</ele>
        <time>2026-08-20T11:20:59Z</time>
      </trkpt>
      <trkpt lat="49.15265" lon="4.08033">
        <ele>177.7</ele>
        <time>2026-08-20T11:21:04Z</time>
      </trkpt>
      <trkpt lat="49.15265" lon="4.08033">
        <ele>177.7</ele>
        <time>2026-08-20T11:21:10Z</time>
      </trkpt>
      <trkpt lat="49.15265" lon="4.08033">
        <ele>177.7</ele>
        <time>2026-08-20T11:21:15Z</time>
      </trkpt>
      <trkpt lat="49.15265" lon="4.08033">
        <ele>177.7</ele>
        <time>2026-08-20T11:21:20Z</time>
      </trkpt>
      <trkpt lat="49.15265" lon="4.08033">
        <ele>177.7</ele>
        <time>2026-08-20T11:21:26Z</time>
      </trkpt>
      <trkpt lat="49.15265" lon="4.08033">
        <ele>177.7</ele>
        <time>2026-08-20T11:21:31Z</time>
      </trkpt>
      <trkpt lat="49.15265" lon="4.08033">
        <ele>177.7</ele>
        <time>2026-08-20T11:21:36Z</time>
      </trkpt>
      <trkpt lat="49.15265" lon="4.08033">
        <ele>177.7</ele>
        <time>2026-08-20T11:21:42Z</time>
      </trkpt>
      <trkpt lat="49.15265" lon="4.08033">
        <ele>177.7</ele>
        <time>2026-08-20T11:21:47Z</time>
      </trkpt>
      <trkpt lat="49.15265" lon="4.08033">
        <ele>177.7</ele>
        <time>2026-08-20T11:21:52Z</time>
      </trkpt>
      <trkpt lat="49.15265" lon="4.08033">
        <ele>177.7</ele>
        <time>2026-08-20T11:21:58Z</time>
      </trkpt>
      <trkpt lat="49.15265" lon="4.08033">
        <ele>177.7</ele>
        <time>2026-08-20T11:22:03Z</time>
      </trkpt>
      <trkpt lat="49.15265" lon="4.08033">
        <ele>177.7</ele>
        <time>2026-08-20T11:22:08Z</time>
      </trkpt>
      <trkpt lat="49.15265" lon="4.08033">
        <ele>177.7</ele>
        <time>2026-08-20T11:22:14Z</time>
      </trkpt>
      <trkpt lat="49.15265" lon="4.08033">
        <ele>177.7</ele>
        <time>2026-08-20T11:22:19Z</time>
      </trkpt>
      <trkpt lat="49.15265" lon="4.08033">
        <ele>177.7</ele>
        <time>2026-08-20T11:22:24Z</time>
      </trkpt>
      <trkpt lat="49.15265" lon="4.08033">
        <ele>177.7</ele>
        <time>2026-08-20T11:22:30Z</time>
      </trkpt>
      <trkpt lat="49.15265" lon="4.08033">
        <ele>177.7</ele>
        <time>2026-08-20T11:22:35Z</time>
      </trkpt>
      <trkpt lat="49.15265" lon="4.08033">
        <ele>177.7</ele>
        <time>2026-08-20T11:22:40Z</time>
      </trkpt>
      <trkpt lat="49.15265" lon="4.08033">
        <ele>177.7</ele>
        <time>2026-08-20T11:22:46Z</time>
      </trkpt>
      <trkpt lat="49.15265" lon="4.08033">
        <ele>177.7</ele>
        <time>2026-08-20T11:22:51Z</time>
      </trkpt>
      <trkpt lat="49.15265" lon="4.08033">
        <ele>177.7</ele>
        <time>2026-08-20T11:22:56Z</time>
      </trkpt>
      <trkpt lat="49.15265" lon="4.08033">
        <ele>177.7</ele>
        <time>2026-08-20T11:23:02Z</time>
      </trkpt>
      <trkpt lat="49.15265" lon="4.08033">
        <ele>177.7</ele>
        <time>2026-08-20T11:23:07Z</time>
      </trkpt>
      <trkpt lat="49.15265" lon="4.08033">
        <ele>177.7</ele>
        <time>2026-08-20T11:23:12Z</time>
      </trkpt>
      <trkpt lat="49.15265" lon="4.08033">
        <ele>177.7</ele>
        <time>2026-08-20T11:23:18Z</time>
      </trkpt>
      <trkpt lat="49.15265" lon="4.08033">
        <ele>177.7</ele>
        <time>2026-08-20T11:23:23Z</time>
      </trkpt>
      <trkpt lat="49.15265" lon="4.08033">
        <ele>177.7</ele>
        <time>2026-08-20T11:23:28Z</time>
      </trkpt>
      <trkpt lat="49.15265" lon="4.08033">
        <ele>177.7</ele>
        <time>2026-08-20T11:23:34Z</time>
      </trkpt>
      <trkpt lat="49.15265" lon="4.08033">
        <ele>177.7</ele>
        <time>2026-08-20T11:23:39Z</time>
      </trkpt>
      <trkpt lat="49.15265" lon="4.08033">
        <ele>177.7</ele>
        <time>2026-08-20T11:23:44Z</time>
      </trkpt>
      <trkpt lat="49.15265" lon="4.08033">
        <ele>177.7</ele>
        <time>2026-08-20T11:23:50Z</time>
      </trkpt>
      <trkpt lat="49.15265" lon="4.08033">
        <ele>177.7</ele>
        <time>2026-08-20T11:23:55Z</time>
      </trkpt>
      <trkpt lat="49.15265" lon="4.08033">
        <ele>177.7</ele>
        <time>2026-08-20T11:24:00Z</time>
      </trkpt>
      <trkpt lat="49.15265" lon="4.08033">
        <ele>177.7</ele>
        <time>2026-08-20T11:24:06Z</time>
      </trkpt>
      <trkpt lat="49.15265" lon="4.08033">
        <ele>177.7</ele>
        <time>2026-08-20T11:24:11Z</time>
      </trkpt>
      <trkpt lat="49.15265" lon="4.08033">
        <ele>177.7</ele>
        <time>2026-08-20T11:24:16Z</time>
      </trkpt>
      <trkpt lat="49.15265" lon="4.08033">
        <ele>177.7</ele>
        <time>2026-08-20T11:24:22Z</time>
      </trkpt>
      <trkpt lat="49.15265" lon="4.08033">
        <ele>177.7</ele>
        <time>2026-08-20T11:24:27Z</time>
      </trkpt>
      <trkpt lat="49.15265" lon="4.08033">
        <ele>177.7</ele>
        <time>2026-08-20T11:24:32Z</time>
      </trkpt>
      <trkpt lat="49.15265" lon="4.08033">
        <ele>177.7</ele>
        <time>2026-08-20T11:24:38Z</time>
      </trkpt>
      <trkpt lat="49.15265" lon="4.08033">
        <ele>177.7</ele>
        <time>2026-08-20T11:24:43Z</time>
      </trkpt>
      <trkpt lat="49.15265" lon="4.08033">
        <ele>177.7</ele>
        <time>2026-08-20T11:24:48Z</time>
      </trkpt>
      <trkpt lat="49.15265" lon="4.08033">
        <ele>177.7</ele>
        <time>2026-08-20T11:24:54Z</time>
      </trkpt>
      <trkpt lat="49.15265" lon="4.08033">
        <ele>177.7</ele>
        <time>2026-08-20T11:24:59Z</time>
      </trkpt>
      <trkpt lat="49.15265" lon="4.08033">
        <ele>177.7</ele>
        <time>2026-08-20T11:25:04Z</time>
      </trkpt>
      <trkpt lat="49.15265" lon="4.08033">
        <ele>177.7</ele>
        <time>2026-08-20T11:25:10Z</time>
      </trkpt>
      <trkpt lat="49.15265" lon="4.08033">
        <ele>177.7</ele>
        <time>2026-08-20T11:25:15Z</time>
      </trkpt>
      <trkpt lat="49.15265" lon="4.08033">
        <ele>177.7</ele>
        <time>2026-08-20T11:25:20Z</time>
      </trkpt>
      <trkpt lat="49.15265" lon="4.08033">
        <ele>177.7</ele>
        <time>2026-08-20T11:25:26Z</time>
      </trkpt>
      <trkpt lat="49.15265" lon="4.08033">
        <ele>177.7</ele>
        <time>2026-08-20T11:25:31Z</time>
      </trkpt>
      <trkpt lat="49.15265" lon="4.08033">
        <ele>177.7</ele>
        <time>2026-08-20T11:25:36Z</time>
      </trkpt>
      <trkpt lat="49.15265" lon="4.08033">
        <ele>177.7</ele>
        <time>2026-08-20T11:25:42Z</time>
      </trkpt>
      <trkpt lat="49.15265" lon="4.08033">
        <ele>177.7</ele>
        <time>2026-08-20T11:25:47Z</time>
      </trkpt>
      <trkpt lat="49.15265" lon="4.08033">
        <ele>177.7</ele>
        <time>2026-08-20T11:25:52Z</time>
      </trkpt>
      <trkpt lat="49.15265" lon="4.08033">
        <ele>177.7</ele>
        <time>2026-08-20T11:25:58Z</time>
      </trkpt>
      <trkpt lat="49.15265" lon="4.08033">
        <ele>177.7</ele>
        <time>2026-08-20T11:26:03Z</time>
      </trkpt>
      <trkpt lat="49.15265" lon="4.08033">
        <ele>177.7</ele>
        <time>2026-08-20T11:26:08Z</time>
      </trkpt>
      <trkpt lat="49.15265" lon="4.08033">
        <ele>177.7</ele>
        <time>2026-08-20T11:26:14Z</time>
      </trkpt>
      <trkpt lat="49.15265" lon="4.08033">
        <ele>177.7</ele>
        <time>2026-08-20T11:26:19Z</time>
      </trkpt>
      <trkpt lat="49.15265" lon="4.08033">
        <ele>177.7</ele>
        <time>2026-08-20T11:26:24Z</time>
      </trkpt>
      <trkpt lat="49.15265" lon="4.08033">
        <ele>177.7</ele>
        <time>2026-08-20T11:26:30Z</time>
      </trkpt>
      <trkpt lat="49.15265" lon="4.08033">
        <ele>177.7</ele>
        <time>2026-08-20T11:26:35Z</time>
      </trkpt>
      <trkpt lat="49.15265" lon="4.08033">
        <ele>177.7</ele>
        <time>2026-08-20T11:26:40Z</time>
      </trkpt>
      <trkpt lat="49.15265" lon="4.08033">
        <ele>177.7</ele>
        <time>2026-08-20T11:26:46Z</time>
      </trkpt>
      <trkpt lat="49.15265" lon="4.08033">
        <ele>177.7</ele>
        <time>2026-08-20T11:26:51Z</time>
      </trkpt>
      <trkpt lat="49.15265" lon="4.08033">
        <ele>177.7</ele>
        <time>2026-08-20T11:26:56Z</time>
      </trkpt>
      <trkpt lat="49.15265" lon="4.08033">
        <ele>177.7</ele>
        <time>2026-08-20T11:27:02Z</time>
      </trkpt>
      <trkpt lat="49.15265" lon="4.08033">
        <ele>177.7</ele>
        <time>2026-08-20T11:27:07Z</time>
      </trkpt>
      <trkpt lat="49.15265" lon="4.08033">
        <ele>177.7</ele>
        <time>2026-08-20T11:27:12Z</time>
      </trkpt>
      <trkpt lat="49.15265" lon="4.08033">
        <ele>177.7</ele>
        <time>2026-08-20T11:27:18Z</time>
      </trkpt>
      <trkpt lat="49.15265" lon="4.08033">
        <ele>177.7</ele>
        <time>2026-08-20T11:27:23Z</time>
      </trkpt>
      <trkpt lat="49.15265" lon="4.08033">
        <ele>177.7</ele>
        <time>2026-08-20T11:27:28Z</time>
      </trkpt>
      <trkpt lat="49.15265" lon="4.08033">
        <ele>177.7</ele>
        <time>2026-08-20T11:27:34Z</time>
      </trkpt>
      <trkpt lat="49.15265" lon="4.08033">
        <ele>177.7</ele>
        <time>2026-08-20T11:27:39Z</time>
      </trkpt>
      <trkpt lat="49.15265" lon="4.08033">
        <ele>177.7</ele>
        <time>2026-08-20T11:27:44Z</time>
      </trkpt>
      <trkpt lat="49.15265" lon="4.08033">
        <ele>177.7</ele>
        <time>2026-08-20T11:27:50Z</time>
      </trkpt>
      <trkpt lat="49.15265" lon="4.08033">
        <ele>177.7</ele>
        <time>2026-08-20T11:27:55Z</time>
      </trkpt>
      <trkpt lat="49.15265" lon="4.08033">
        <ele>177.7</ele>
        <time>2026-08-20T11:28:00Z</time>
      </trkpt>
      <trkpt lat="49.15265" lon="4.08033">
        <ele>177.7</ele>
        <time>2026-08-20T11:28:06Z</time>
      </trkpt>
      <trkpt lat="49.15265" lon="4.08033">
        <ele>177.7</ele>
        <time>2026-08-20T11:28:11Z</time>
      </trkpt>
      <trkpt lat="49.15265" lon="4.08033">
        <ele>177.7</ele>
        <time>2026-08-20T11:28:16Z</time>
      </trkpt>
      <trkpt lat="49.15265" lon="4.08033">
        <ele>177.7</ele>
        <time>2026-08-20T11:28:22Z</time>
      </trkpt>
      <trkpt lat="49.15265" lon="4.08033">
        <ele>177.7</ele>
        <time>2026-08-20T11:28:27Z</time>
      </trkpt>
      <trkpt lat="49.15265" lon="4.08033">
        <ele>177.7</ele>
        <time>2026-08-20T11:28:32Z</time>
      </trkpt>
      <trkpt lat="49.15265" lon="4.08033">
        <ele>177.7</ele>
        <time>2026-08-20T11:28:38Z</time>
      </trkpt>
      <trkpt lat="49.15265" lon="4.08033">
        <ele>177.7</ele>
        <time>2026-08-20T11:28:43Z</time>
      </trkpt>
      <trkpt lat="49.15265" lon="4.08033">
        <ele>177.7</ele>
        <time>2026-08-20T11:28:48Z</time>
      </trkpt>
      <trkpt lat="49.15265" lon="4.08033">
        <ele>177.7</ele>
        <time>2026-08-20T11:28:54Z</time>
      </trkpt>
      <trkpt lat="49.15265" lon="4.08033">
        <ele>177.7</ele>
        <time>2026-08-20T11:28:59Z</time>
      </trkpt>
      <trkpt lat="49.15265" lon="4.08033">
        <ele>177.7</ele>
        <time>2026-08-20T11:29:04Z</time>
      </trkpt>
      <trkpt lat="49.15265" lon="4.08033">
        <ele>177.7</ele>
        <time>2026-08-20T11:29:10Z</time>
      </trkpt>
      <trkpt lat="49.15265" lon="4.08033">
        <ele>177.7</ele>
        <time>2026-08-20T11:29:15Z</time>
      </trkpt>
      <trkpt lat="49.15265" lon="4.08033">
        <ele>177.7</ele>
        <time>2026-08-20T11:29:20Z</time>
      </trkpt>
      <trkpt lat="49.15265" lon="4.08033">
        <ele>177.7</ele>
        <time>2026-08-20T11:29:26Z</time>
      </trkpt>
      <trkpt lat="49.15265" lon="4.08033">
        <ele>177.7</ele>
        <time>2026-08-20T11:29:31Z</time>
      </trkpt>
      <trkpt lat="49.15265" lon="4.08033">
        <ele>177.7</ele>
        <time>2026-08-20T11:29:36Z</time>
      </trkpt>
      <trkpt lat="49.15265" lon="4.08033">
        <ele>177.7</ele>
        <time>2026-08-20T11:29:42Z</time>
      </trkpt>
      <trkpt lat="49.15265" lon="4.08033">
        <ele>177.7</ele>
        <time>2026-08-20T11:29:47Z</time>
      </trkpt>
      <trkpt lat="49.15265" lon="4.08033">
        <ele>177.7</ele>
        <time>2026-08-20T11:29:52Z</time>
      </trkpt>
      <trkpt lat="49.15265" lon="4.08033">
        <ele>177.7</ele>
        <time>2026-08-20T11:29:58Z</time>
      </trkpt>
      <trkpt lat="49.15265" lon="4.08033">
        <ele>177.7</ele>
        <time>2026-08-20T11:30:03Z</time>
      </trkpt>
      <trkpt lat="49.15265" lon="4.08033">
        <ele>177.7</ele>
        <time>2026-08-20T11:30:08Z</time>
      </trkpt>
      <trkpt lat="49.15265" lon="4.08033">
        <ele>177.7</ele>
        <time>2026-08-20T11:30:14Z</time>
      </trkpt>
      <trkpt lat="49.15265" lon="4.08033">
        <ele>177.7</ele>
        <time>2026-08-20T11:30:20Z</time>
      </trkpt>
      <trkpt lat="49.15265" lon="4.08033">
        <ele>177.7</ele>
        <time>2026-08-20T11:30:26Z</time>
      </trkpt>
      <trkpt lat="49.15265" lon="4.08033">
        <ele>177.7</ele>
        <time>2026-08-20T11:30:31Z</time>
      </trkpt>
      <trkpt lat="49.15265" lon="4.08033">
        <ele>177.7</ele>
        <time>2026-08-20T11:30:36Z</time>
      </trkpt>
      <trkpt lat="49.15265" lon="4.08033">
        <ele>177.7</ele>
        <time>2026-08-20T11:30:42Z</time>
      </trkpt>
      <trkpt lat="49.15265" lon="4.08033">
        <ele>177.7</ele>
        <time>2026-08-20T11:30:47Z</time>
      </trkpt>
      <trkpt lat="49.15265" lon="4.08033">
        <ele>177.7</ele>
        <time>2026-08-20T11:30:52Z</time>
      </trkpt>
      <trkpt lat="49.15265" lon="4.08033">
        <ele>177.7</ele>
        <time>2026-08-20T11:30:58Z</time>
      </trkpt>
      <trkpt lat="49.15265" lon="4.08033">
        <ele>177.7</ele>
        <time>2026-08-20T11:31:03Z</time>
      </trkpt>
      <trkpt lat="49.15265" lon="4.08033">
        <ele>177.7</ele>
        <time>2026-08-20T11:31:08Z</time>
      </trkpt>
      <trkpt lat="49.15265" lon="4.08033">
        <ele>177.7</ele>
        <time>2026-08-20T11:31:14Z</time>
      </trkpt>
      <trkpt lat="49.15265" lon="4.08033">
        <ele>177.7</ele>
        <time>2026-08-20T11:31:19Z</time>
      </trkpt>
      <trkpt lat="49.15265" lon="4.08033">
        <ele>177.7</ele>
        <time>2026-08-20T11:31:24Z</time>
      </trkpt>
      <trkpt lat="49.15265" lon="4.08033">
        <ele>177.7</ele>
        <time>2026-08-20T11:31:30Z</time>
      </trkpt>
      <trkpt lat="49.15265" lon="4.08033">
        <ele>177.7</ele>
        <time>2026-08-20T11:31:35Z</time>
      </trkpt>
      <trkpt lat="49.15265" lon="4.08033">
        <ele>177.7</ele>
        <time>2026-08-20T11:31:40Z</time>
      </trkpt>
      <trkpt lat="49.15265" lon="4.08033">
        <ele>177.7</ele>
        <time>2026-08-20T11:31:46Z</time>
      </trkpt>
      <trkpt lat="49.15265" lon="4.08033">
        <ele>177.7</ele>
        <time>2026-08-20T11:31:51Z</time>
      </trkpt>
      <trkpt lat="49.15265" lon="4.08033">
        <ele>177.7</ele>
        <time>2026-08-20T11:31:56Z</time>
      </trkpt>
      <trkpt lat="49.15265" lon="4.08033">
        <ele>177.7</ele>
        <time>2026-08-20T11:32:02Z</time>
      </trkpt>
      <trkpt lat="49.15265" lon="4.08033">
        <ele>177.7</ele>
        <time>2026-08-20T11:32:07Z</time>
      </trkpt>
      <trkpt lat="49.15265" lon="4.08033">
        <ele>177.7</ele>
        <time>2026-08-20T11:32:12Z</time>
      </trkpt>
      <trkpt lat="49.15265" lon="4.08033">
        <ele>177.7</ele>
        <time>2026-08-20T11:32:18Z</time>
      </trkpt>
      <trkpt lat="49.15265" lon="4.08033">
        <ele>177.7</ele>
        <time>2026-08-20T11:32:23Z</time>
      </trkpt>
      <trkpt lat="49.15265" lon="4.08033">
        <ele>177.7</ele>
        <time>2026-08-20T11:32:28Z</time>
      </trkpt>
      <trkpt lat="49.15265" lon="4.08033">
        <ele>177.7</ele>
        <time>2026-08-20T11:32:34Z</time>
      </trkpt>
      <trkpt lat="49.15265" lon="4.08033">
        <ele>177.7</ele>
        <time>2026-08-20T11:32:39Z</time>
      </trkpt>
      <trkpt lat="49.15265" lon="4.08033">
        <ele>177.7</ele>
        <time>2026-08-20T11:32:44Z</time>
      </trkpt>
      <trkpt lat="49.15265" lon="4.08033">
        <ele>177.7</ele>
        <time>2026-08-20T11:32:50Z</time>
      </trkpt>
      <trkpt lat="49.15265" lon="4.08033">
        <ele>177.7</ele>
        <time>2026-08-20T11:32:55Z</time>
      </trkpt>
      <trkpt lat="49.15265" lon="4.08033">
        <ele>177.7</ele>
        <time>2026-08-20T11:33:00Z</time>
      </trkpt>
      <trkpt lat="49.15265" lon="4.08033">
        <ele>177.7</ele>
        <time>2026-08-20T11:33:06Z</time>
      </trkpt>
      <trkpt lat="49.15265" lon="4.08033">
        <ele>177.7</ele>
        <time>2026-08-20T11:33:11Z</time>
      </trkpt>
      <trkpt lat="49.15265" lon="4.08033">
        <ele>177.7</ele>
        <time>2026-08-20T11:33:16Z</time>
      </trkpt>
      <trkpt lat="49.15265" lon="4.08033">
        <ele>177.7</ele>
        <time>2026-08-20T11:33:22Z</time>
      </trkpt>
      <trkpt lat="49.15265" lon="4.08033">
        <ele>177.7</ele>
        <time>2026-08-20T11:33:27Z</time>
      </trkpt>
      <trkpt lat="49.15265" lon="4.08033">
        <ele>177.7</ele>
        <time>2026-08-20T11:33:32Z</time>
      </trkpt>
      <trkpt lat="49.15265" lon="4.08033">
        <ele>177.7</ele>
        <time>2026-08-20T11:33:38Z</time>
      </trkpt>
      <trkpt lat="49.15265" lon="4.08033">
        <ele>177.7</ele>
        <time>2026-08-20T11:33:43Z</time>
      </trkpt>
      <trkpt lat="49.15265" lon="4.08033">
        <ele>177.7</ele>
        <time>2026-08-20T11:33:48Z</time>
      </trkpt>
      <trkpt lat="49.15265" lon="4.08033">
        <ele>177.7</ele>
        <time>2026-08-20T11:33:54Z</time>
      </trkpt>
      <trkpt lat="49.15265" lon="4.08033">
        <ele>177.7</ele>
        <time>2026-08-20T11:33:59Z</time>
      </trkpt>
      <trkpt lat="49.15265" lon="4.08033">
        <ele>177.7</ele>
        <time>2026-08-20T11:34:04Z</time>
      </trkpt>
      <trkpt lat="49.15265" lon="4.08033">
        <ele>177.7</ele>
        <time>2026-08-20T11:34:10Z</time>
      </trkpt>
      <trkpt lat="49.15265" lon="4.08033">
        <ele>177.7</ele>
        <time>2026-08-20T11:34:15Z</time>
      </trkpt>
      <trkpt lat="49.15265" lon="4.08033">
        <ele>177.7</ele>
        <time>2026-08-20T11:34:20Z</time>
      </trkpt>
      <trkpt lat="49.15265" lon="4.08033">
        <ele>177.7</ele>
        <time>2026-08-20T11:34:26Z</time>
      </trkpt>
      <trkpt lat="49.15265" lon="4.08033">
        <ele>177.7</ele>
        <time>2026-08-20T11:34:31Z</time>
      </trkpt>
      <trkpt lat="49.15265" lon="4.08033">
        <ele>177.7</ele>
        <time>2026-08-20T11:34:36Z</time>
      </trkpt>
      <trkpt lat="49.15265" lon="4.08033">
        <ele>177.7</ele>
        <time>2026-08-20T11:34:42Z</time>
      </trkpt>
      <trkpt lat="49.15265" lon="4.08033">
        <ele>177.7</ele>
        <time>2026-08-20T11:34:47Z</time>
      </trkpt>
      <trkpt lat="49.15265" lon="4.08033">
        <ele>177.7</ele>
        <time>2026-08-20T11:34:52Z</time>
      </trkpt>
      <trkpt lat="49.15265" lon="4.08033">
        <ele>177.7</ele>
        <time>2026-08-20T11:34:58Z</time>
      </trkpt>
      <trkpt lat="49.15265" lon="4.08033">
        <ele>177.7</ele>
        <time>2026-08-20T11:35:03Z</time>
      </trkpt>
      <trkpt lat="49.15265" lon="4.08033">
        <ele>177.7</ele>
        <time>2026-08-20T11:35:08Z</time>
      </trkpt>
      <trkpt lat="49.15265" lon="4.08033">
        <ele>177.7</ele>
        <time>2026-08-20T11:35:14Z</time>
      </trkpt>
      <trkpt lat="49.15265" lon="4.08033">
        <ele>177.7</ele>
        <time>2026-08-20T11:35:19Z</time>
      </trkpt>
      <trkpt lat="49.15265" lon="4.08033">
        <ele>177.7</ele>
        <time>2026-08-20T11:35:24Z</time>
      </trkpt>
      <trkpt lat="49.15265" lon="4.08033">
        <ele>177.7</ele>
        <time>2026-08-20T11:35:30Z</time>
      </trkpt>
      <trkpt lat="49.15265" lon="4.08033">
        <ele>177.7</ele>
        <time>2026-08-20T11:35:35Z</time>
      </trkpt>
      <trkpt lat="49.15265" lon="4.08033">
        <ele>177.7</ele>
        <time>2026-08-20T11:35:40Z</time>
      </trkpt>
      <trkpt lat="49.15265" lon="4.08033">
        <ele>177.7</ele>
        <time>2026-08-20T11:35:46Z</time>
      </trkpt>
      <trkpt lat="49.15265" lon="4.08033">
        <ele>177.7</ele>
        <time>2026-08-20T11:35:51Z</time>
      </trkpt>
      <trkpt lat="49.15265" lon="4.08033">
        <ele>177.7</ele>
        <time>2026-08-20T11:35:56Z</time>
      </trkpt>
      <trkpt lat="49.15265" lon="4.08033">
        <ele>177.7</ele>
        <time>2026-08-20T11:36:02Z</time>
      </trkpt>
      <trkpt lat="49.15265" lon="4.08033">
        <ele>177.7</ele>
        <time>2026-08-20T11:36:07Z</time>
      </trkpt>
      <trkpt lat="49.15265" lon="4.08033">
        <ele>177.7</ele>
        <time>2026-08-20T11:36:12Z</time>
      </trkpt>
      <trkpt lat="49.15265" lon="4.08033">
        <ele>177.7</ele>
        <time>2026-08-20T11:36:18Z</time>
      </trkpt>
      <trkpt lat="49.15265" lon="4.08033">
        <ele>177.7</ele>
        <time>2026-08-20T11:36:23Z</time>
      </trkpt>
      <trkpt lat="49.15265" lon="4.08033">
        <ele>177.7</ele>
        <time>2026-08-20T11:36:28Z</time>
      </trkpt>
      <trkpt lat="49.15265" lon="4.08033">
        <ele>177.7</ele>
        <time>2026-08-20T11:36:34Z</time>
      </trkpt>
      <trkpt lat="49.15265" lon="4.08033">
        <ele>177.7</ele>
        <time>2026-08-20T11:36:39Z</time>
      </trkpt>
      <trkpt lat="49.15265" lon="4.08033">
        <ele>177.7</ele>
        <time>2026-08-20T11:36:44Z</time>
      </trkpt>
      <trkpt lat="49.15265" lon="4.08033">
        <ele>177.7</ele>
        <time>2026-08-20T11:36:50Z</time>
      </trkpt>
      <trkpt lat="49.15265" lon="4.08033">
        <ele>177.7</ele>
        <time>2026-08-20T11:36:55Z</time>
      </trkpt>
      <trkpt lat="49.15265" lon="4.08033">
        <ele>177.7</ele>
        <time>2026-08-20T11:37:00Z</time>
      </trkpt>
      <trkpt lat="49.15265" lon="4.08033">
        <ele>177.7</ele>
        <time>2026-08-20T11:37:06Z</time>
      </trkpt>
      <trkpt lat="49.15265" lon="4.08033">
        <ele>177.7</ele>
        <time>2026-08-20T11:37:11Z</time>
      </trkpt>
      <trkpt lat="49.15265" lon="4.08033">
        <ele>177.7</ele>
        <time>2026-08-20T11:37:16Z</time>
      </trkpt>
      <trkpt lat="49.15265" lon="4.08033">
        <ele>177.7</ele>
        <time>2026-08-20T11:37:22Z</time>
      </trkpt>
      <trkpt lat="49.15265" lon="4.08033">
        <ele>177.7</ele>
        <time>2026-08-20T11:37:27Z</time>
      </trkpt>
      <trkpt lat="49.15265" lon="4.08033">
        <ele>177.7</ele>
        <time>2026-08-20T11:37:32Z</time>
      </trkpt>
      <trkpt lat="49.15265" lon="4.08033">
        <ele>177.7</ele>
        <time>2026-08-20T11:37:38Z</time>
      </trkpt>
      <trkpt lat="49.15265" lon="4.08033">
        <ele>177.7</ele>
        <time>2026-08-20T11:37:43Z</time>
      </trkpt>
      <trkpt lat="49.15265" lon="4.08033">
        <ele>177.7</ele>
        <time>2026-08-20T11:37:48Z</time>
      </trkpt>
      <trkpt lat="49.15265" lon="4.08033">
        <ele>177.7</ele>
        <time>2026-08-20T11:37:54Z</time>
      </trkpt>
      <trkpt lat="49.15265" lon="4.08033">
        <ele>177.7</ele>
        <time>2026-08-20T11:37:59Z</time>
      </trkpt>
      <trkpt lat="49.15265" lon="4.08033">
        <ele>177.7</ele>
        <time>2026-08-20T11:38:04Z</time>
      </trkpt>
      <trkpt lat="49.15265" lon="4.08033">
        <ele>177.7</ele>
        <time>2026-08-20T11:38:10Z</time>
      </trkpt>
      <trkpt lat="49.15265" lon="4.08033">
        <ele>177.7</ele>
        <time>2026-08-20T11:38:15Z</time>
      </trkpt>
      <trkpt lat="49.15265" lon="4.08033">
        <ele>177.7</ele>
        <time>2026-08-20T11:38:20Z</time>
      </trkpt>
      <trkpt lat="49.15265" lon="4.08033">
        <ele>177.7</ele>
        <time>2026-08-20T11:38:26Z</time>
      </trkpt>
      <trkpt lat="49.15265" lon="4.08033">
        <ele>177.7</ele>
        <time>2026-08-20T11:38:31Z</time>
      </trkpt>
      <trkpt lat="49.15265" lon="4.08033">
        <ele>177.7</ele>
        <time>2026-08-20T11:38:36Z</time>
      </trkpt>
      <trkpt lat="49.15265" lon="4.08033">
        <ele>177.7</ele>
        <time>2026-08-20T11:38:42Z</time>
      </trkpt>
      <trkpt lat="49.15265" lon="4.08033">
        <ele>177.7</ele>
        <time>2026-08-20T11:38:47Z</time>
      </trkpt>
      <trkpt lat="49.15265" lon="4.08033">
        <ele>177.7</ele>
        <time>2026-08-20T11:38:52Z</time>
      </trkpt>
      <trkpt lat="49.15265" lon="4.08033">
        <ele>177.7</ele>
        <time>2026-08-20T11:38:58Z</time>
      </trkpt>
      <trkpt lat="49.15265" lon="4.08033">
        <ele>177.7</ele>
        <time>2026-08-20T11:39:03Z</time>
      </trkpt>
      <trkpt lat="49.15265" lon="4.08033">
        <ele>177.7</ele>
        <time>2026-08-20T11:39:08Z</time>
      </trkpt>
      <trkpt lat="49.15265" lon="4.08033">
        <ele>177.7</ele>
        <time>2026-08-20T11:39:14Z</time>
      </trkpt>
      <trkpt lat="49.15265" lon="4.08033">
        <ele>177.7</ele>
        <time>2026-08-20T11:39:19Z</time>
      </trkpt>
      <trkpt lat="49.15265" lon="4.08033">
        <ele>177.7</ele>
        <time>2026-08-20T11:39:24Z</time>
      </trkpt>
      <trkpt lat="49.15265" lon="4.08033">
        <ele>177.7</ele>
        <time>2026-08-20T11:39:30Z</time>
      </trkpt>
      <trkpt lat="49.15265" lon="4.08033">
        <ele>177.7</ele>
        <time>2026-08-20T11:39:35Z</time>
      </trkpt>
      <trkpt lat="49.15265" lon="4.08033">
        <ele>177.7</ele>
        <time>2026-08-20T11:39:40Z</time>
      </trkpt>
      <trkpt lat="49.15265" lon="4.08033">
        <ele>177.7</ele>
        <time>2026-08-20T11:39:46Z</time>
      </trkpt>
      <trkpt lat="49.15265" lon="4.08033">
        <ele>177.7</ele>
        <time>2026-08-20T11:39:51Z</time>
      </trkpt>
      <trkpt lat="49.15265" lon="4.08033">
        <ele>177.7</ele>
        <time>2026-08-20T11:39:56Z</time>
      </trkpt>
      <trkpt lat="49.15265" lon="4.08033">
        <ele>177.7</ele>
        <time>2026-08-20T11:40:02Z</time>
      </trkpt>
      <trkpt lat="49.15265" lon="4.08033">
        <ele>177.7</ele>
        <time>2026-08-20T11:40:07Z</time>
      </trkpt>
      <trkpt lat="49.15265" lon="4.08033">
        <ele>177.7</ele>
        <time>2026-08-20T11:40:12Z</time>
      </trkpt>
      <trkpt lat="49.15265" lon="4.08033">
        <ele>177.7</ele>
        <time>2026-08-20T11:40:18Z</time>
      </trkpt>
      <trkpt lat="49.15265" lon="4.08033">
        <ele>177.7</ele>
        <time>2026-08-20T11:40:23Z</time>
      </trkpt>
      <trkpt lat="49.15265" lon="4.08033">
        <ele>177.7</ele>
        <time>2026-08-20T11:40:28Z</time>
      </trkpt>
      <trkpt lat="49.15265" lon="4.08033">
        <ele>177.7</ele>
        <time>2026-08-20T11:40:34Z</time>
      </trkpt>
      <trkpt lat="49.15265" lon="4.08033">
        <ele>177.7</ele>
        <time>2026-08-20T11:40:39Z</time>
      </trkpt>
      <trkpt lat="49.15265" lon="4.08033">
        <ele>177.7</ele>
        <time>2026-08-20T11:40:44Z</time>
      </trkpt>
      <trkpt lat="49.15265" lon="4.08033">
        <ele>177.7</ele>
        <time>2026-08-20T11:40:50Z</time>
      </trkpt>
      <trkpt lat="49.15265" lon="4.08033">
        <ele>177.7</ele>
        <time>2026-08-20T11:40:55Z</time>
      </trkpt>
      <trkpt lat="49.15265" lon="4.08033">
        <ele>177.7</ele>
        <time>2026-08-20T11:41:00Z</time>
      </trkpt>
      <trkpt lat="49.15265" lon="4.08033">
        <ele>177.7</ele>
        <time>2026-08-20T11:41:06Z</time>
      </trkpt>
      <trkpt lat="49.15265" lon="4.08033">
        <ele>177.7</ele>
        <time>2026-08-20T11:41:11Z</time>
      </trkpt>
      <trkpt lat="49.15265" lon="4.08033">
        <ele>177.7</ele>
        <time>2026-08-20T11:41:16Z</time>
      </trkpt>
      <trkpt lat="49.15265" lon="4.08033">
        <ele>177.7</ele>
        <time>2026-08-20T11:41:22Z</time>
      </trkpt>
      <trkpt lat="49.15265" lon="4.08033">
        <ele>177.7</ele>
        <time>2026-08-20T11:41:27Z</time>
      </trkpt>
      <trkpt lat="49.15265" lon="4.08033">
        <ele>177.7</ele>
        <time>2026-08-20T11:41:32Z</time>
      </trkpt>
      <trkpt lat="49.15265" lon="4.08033">
        <ele>177.7</ele>
        <time>2026-08-20T11:41:38Z</time>
      </trkpt>
      <trkpt lat="49.15265" lon="4.08033">
        <ele>177.7</ele>
        <time>2026-08-20T11:41:43Z</time>
      </trkpt>
      <trkpt lat="49.15265" lon="4.08033">
        <ele>177.7</ele>
        <time>2026-08-20T11:41:48Z</time>
      </trkpt>
      <trkpt lat="49.15265" lon="4.08033">
        <ele>177.7</ele>
        <time>2026-08-20T11:41:54Z</time>
      </trkpt>
      <trkpt lat="49.15265" lon="4.08033">
        <ele>177.7</ele>
        <time>2026-08-20T11:41:59Z</time>
      </trkpt>
      <trkpt lat="49.15265" lon="4.08033">
        <ele>177.7</ele>
        <time>2026-08-20T11:42:04Z</time>
      </trkpt>
      <trkpt lat="49.15265" lon="4.08033">
        <ele>177.7</ele>
        <time>2026-08-20T11:42:10Z</time>
      </trkpt>
      <trkpt lat="49.15265" lon="4.08033">
        <ele>177.7</ele>
        <time>2026-08-20T11:42:15Z</time>
      </trkpt>
      <trkpt lat="49.15265" lon="4.08033">
        <ele>177.7</ele>
        <time>2026-08-20T11:42:20Z</time>
      </trkpt>
      <trkpt lat="49.15265" lon="4.08033">
        <ele>177.7</ele>
        <time>2026-08-20T11:42:26Z</time>
      </trkpt>
      <trkpt lat="49.15265" lon="4.08033">
        <ele>177.7</ele>
        <time>2026-08-20T11:42:31Z</time>
      </trkpt>
      <trkpt lat="49.15265" lon="4.08033">
        <ele>177.7</ele>
        <time>2026-08-20T11:42:36Z</time>
      </trkpt>
      <trkpt lat="49.15265" lon="4.08033">
        <ele>177.7</ele>
        <time>2026-08-20T11:42:42Z</time>
      </trkpt>
      <trkpt lat="49.15265" lon="4.08033">
        <ele>177.7</ele>
        <time>2026-08-20T11:42:47Z</time>
      </trkpt>
      <trkpt lat="49.15265" lon="4.08033">
        <ele>177.7</ele>
        <time>2026-08-20T11:42:52Z</time>
      </trkpt>
      <trkpt lat="49.15265" lon="4.08033">
        <ele>177.7</ele>
        <time>2026-08-20T11:42:58Z</time>
      </trkpt>
      <trkpt lat="49.15265" lon="4.08033">
        <ele>177.7</ele>
        <time>2026-08-20T11:43:03Z</time>
      </trkpt>
      <trkpt lat="49.15265" lon="4.08033">
        <ele>177.7</ele>
        <time>2026-08-20T11:43:08Z</time>
      </trkpt>
      <trkpt lat="49.15265" lon="4.08033">
        <ele>177.7</ele>
        <time>2026-08-20T11:43:14Z</time>
      </trkpt>
      <trkpt lat="49.15265" lon="4.08033">
        <ele>177.7</ele>
        <time>2026-08-20T11:43:19Z</time>
      </trkpt>
      <trkpt lat="49.15265" lon="4.08033">
        <ele>177.7</ele>
        <time>2026-08-20T11:43:24Z</time>
      </trkpt>
      <trkpt lat="49.15265" lon="4.08033">
        <ele>177.7</ele>
        <time>2026-08-20T11:43:30Z</time>
      </trkpt>
      <trkpt lat="49.15265" lon="4.08033">
        <ele>177.7</ele>
        <time>2026-08-20T11:43:35Z</time>
      </trkpt>
      <trkpt lat="49.15265" lon="4.08033">
        <ele>177.7</ele>
        <time>2026-08-20T11:43:40Z</time>
      </trkpt>
      <trkpt lat="49.15265" lon="4.08033">
        <ele>177.7</ele>
        <time>2026-08-20T11:43:46Z</time>
      </trkpt>
      <trkpt lat="49.15265" lon="4.08033">
        <ele>177.7</ele>
        <time>2026-08-20T11:43:51Z</time>
      </trkpt>
      <trkpt lat="49.15265" lon="4.08033">
        <ele>177.7</ele>
        <time>2026-08-20T11:43:56Z</time>
      </trkpt>
      <trkpt lat="49.15265" lon="4.08033">
        <ele>177.7</ele>
        <time>2026-08-20T11:44:02Z</time>
      </trkpt>
      <trkpt lat="49.15265" lon="4.08033">
        <ele>177.7</ele>
        <time>2026-08-20T11:44:07Z</time>
      </trkpt>
      <trkpt lat="49.15265" lon="4.08033">
        <ele>177.7</ele>
        <time>2026-08-20T11:44:12Z</time>
      </trkpt>
      <trkpt lat="49.15265" lon="4.08033">
        <ele>177.7</ele>
        <time>2026-08-20T11:44:18Z</time>
      </trkpt>
      <trkpt lat="49.15265" lon="4.08033">
        <ele>177.7</ele>
        <time>2026-08-20T11:44:23Z</time>
      </trkpt>
      <trkpt lat="49.15265" lon="4.08033">
        <ele>177.7</ele>
        <time>2026-08-20T11:44:28Z</time>
      </trkpt>
      <trkpt lat="49.15265" lon="4.08033">
        <ele>177.7</ele>
        <time>2026-08-20T11:44:34Z</time>
      </trkpt>
      <trkpt lat="49.15265" lon="4.08033">
        <ele>177.7</ele>
        <time>2026-08-20T11:44:39Z</time>
      </trkpt>
      <trkpt lat="49.15265" lon="4.08033">
        <ele>177.7</ele>
        <time>2026-08-20T11:44:44Z</time>
      </trkpt>
      <trkpt lat="49.15265" lon="4.08033">
        <ele>177.7</ele>
        <time>2026-08-20T11:44:50Z</time>
      </trkpt>
      <trkpt lat="49.15265" lon="4.08033">
        <ele>177.7</ele>
        <time>2026-08-20T11:44:55Z</time>
      </trkpt>
      <trkpt lat="49.15265" lon="4.08033">
        <ele>177.7</ele>
        <time>2026-08-20T11:45:00Z</time>
      </trkpt>
      <trkpt lat="49.15265" lon="4.08033">
        <ele>177.7</ele>
        <time>2026-08-20T11:45:06Z</time>
      </trkpt>
      <trkpt lat="49.15265" lon="4.08033">
        <ele>177.7</ele>
        <time>2026-08-20T11:45:11Z</time>
      </trkpt>
      <trkpt lat="49.15265" lon="4.08033">
        <ele>177.7</ele>
        <time>2026-08-20T11:45:16Z</time>
      </trkpt>
      <trkpt lat="49.15265" lon="4.08033">
        <ele>177.7</ele>
        <time>2026-08-20T11:45:22Z</time>
      </trkpt>
      <trkpt lat="49.15265" lon="4.08033">
        <ele>177.7</ele>
        <time>2026-08-20T11:45:27Z</time>
      </trkpt>
      <trkpt lat="49.15265" lon="4.08033">
        <ele>177.7</ele>
        <time>2026-08-20T11:45:32Z</time>
      </trkpt>
      <trkpt lat="49.15265" lon="4.08033">
        <ele>177.7</ele>
        <time>2026-08-20T11:45:38Z</time>
      </trkpt>
      <trkpt lat="49.15265" lon="4.08033">
        <ele>177.7</ele>
        <time>2026-08-20T11:45:43Z</time>
      </trkpt>
      <trkpt lat="49.15265" lon="4.08033">
        <ele>177.7</ele>
        <time>2026-08-20T11:45:48Z</time>
      </trkpt>
      <trkpt lat="49.15265" lon="4.08033">
        <ele>177.7</ele>
        <time>2026-08-20T11:45:54Z</time>
      </trkpt>
      <trkpt lat="49.15265" lon="4.08033">
        <ele>177.7</ele>
        <time>2026-08-20T11:45:59Z</time>
      </trkpt>
      <trkpt lat="49.15265" lon="4.08033">
        <ele>177.7</ele>
        <time>2026-08-20T11:46:04Z</time>
      </trkpt>
      <trkpt lat="49.15265" lon="4.08033">
        <ele>177.7</ele>
        <time>2026-08-20T11:46:10Z</time>
      </trkpt>
      <trkpt lat="49.15265" lon="4.08033">
        <ele>177.7</ele>
        <time>2026-08-20T11:46:15Z</time>
      </trkpt>
      <trkpt lat="49.15265" lon="4.08033">
        <ele>177.7</ele>
        <time>2026-08-20T11:46:20Z</time>
      </trkpt>
      <trkpt lat="49.15265" lon="4.08033">
        <ele>177.7</ele>
        <time>2026-08-20T11:46:26Z</time>
      </trkpt>
      <trkpt lat="49.15265" lon="4.08033">
        <ele>177.7</ele>
        <time>2026-08-20T11:46:31Z</time>
      </trkpt>
      <trkpt lat="49.15265" lon="4.08033">
        <ele>177.7</ele>
        <time>2026-08-20T11:46:36Z</time>
      </trkpt>
      <trkpt lat="49.15265" lon="4.08033">
        <ele>177.7</ele>
        <time>2026-08-20T11:46:42Z</time>
      </trkpt>
      <trkpt lat="49.15265" lon="4.08033">
        <ele>177.7</ele>
        <time>2026-08-20T11:46:47Z</time>
      </trkpt>
      <trkpt lat="49.15265" lon="4.08033">
        <ele>177.7</ele>
        <time>2026-08-20T11:46:52Z</time>
      </trkpt>
      <trkpt lat="49.15265" lon="4.08033">
        <ele>177.7</ele>
        <time>2026-08-20T11:46:58Z</time>
      </trkpt>
      <trkpt lat="49.15265" lon="4.08033">
        <ele>177.7</ele>
        <time>2026-08-20T11:47:03Z</time>
      </trkpt>
      <trkpt lat="49.15265" lon="4.08033">
        <ele>177.7</ele>
        <time>2026-08-20T11:47:08Z</time>
      </trkpt>
      <trkpt lat="49.15265" lon="4.08033">
        <ele>177.7</ele>
        <time>2026-08-20T11:47:14Z</time>
      </trkpt>
      <trkpt lat="49.15265" lon="4.08033">
        <ele>177.7</ele>
        <time>2026-08-20T11:47:19Z</time>
      </trkpt>
      <trkpt lat="49.15265" lon="4.08033">
        <ele>177.7</ele>
        <time>2026-08-20T11:47:24Z</time>
      </trkpt>
      <trkpt lat="49.15265" lon="4.08033">
        <ele>177.7</ele>
        <time>2026-08-20T11:47:30Z</time>
      </trkpt>
      <trkpt lat="49.15265" lon="4.08033">
        <ele>177.7</ele>
        <time>2026-08-20T11:47:35Z</time>
      </trkpt>
      <trkpt lat="49.15265" lon="4.08033">
        <ele>177.7</ele>
        <time>2026-08-20T11:47:40Z</time>
      </trkpt>
      <trkpt lat="49.15265" lon="4.08033">
        <ele>177.7</ele>
        <time>2026-08-20T11:47:46Z</time>
      </trkpt>
      <trkpt lat="49.15265" lon="4.08033">
        <ele>177.7</ele>
        <time>2026-08-20T11:47:51Z</time>
      </trkpt>
      <trkpt lat="49.15265" lon="4.08033">
        <ele>177.7</ele>
        <time>2026-08-20T11:47:56Z</time>
      </trkpt>
      <trkpt lat="49.15265" lon="4.08033">
        <ele>177.7</ele>
        <time>2026-08-20T11:48:02Z</time>
      </trkpt>
      <trkpt lat="49.15265" lon="4.08033">
        <ele>177.7</ele>
        <time>2026-08-20T11:48:07Z</time>
      </trkpt>
      <trkpt lat="49.15265" lon="4.08033">
        <ele>177.7</ele>
        <time>2026-08-20T11:48:12Z</time>
      </trkpt>
      <trkpt lat="49.15265" lon="4.08033">
        <ele>177.7</ele>
        <time>2026-08-20T11:48:18Z</time>
      </trkpt>
      <trkpt lat="49.15265" lon="4.08033">
        <ele>177.7</ele>
        <time>2026-08-20T11:48:23Z</time>
      </trkpt>
      <trkpt lat="49.15265" lon="4.08033">
        <ele>177.7</ele>
        <time>2026-08-20T11:48:28Z</time>
      </trkpt>
      <trkpt lat="49.15265" lon="4.08033">
        <ele>177.7</ele>
        <time>2026-08-20T11:48:34Z</time>
      </trkpt>
      <trkpt lat="49.15265" lon="4.08033">
        <ele>177.7</ele>
        <time>2026-08-20T11:48:39Z</time>
      </trkpt>
      <trkpt lat="49.15265" lon="4.08033">
        <ele>177.7</ele>
        <time>2026-08-20T11:48:44Z</time>
      </trkpt>
      <trkpt lat="49.15265" lon="4.08033">
        <ele>177.7</ele>
        <time>2026-08-20T11:48:50Z</time>
      </trkpt>
      <trkpt lat="49.15265" lon="4.08033">
        <ele>177.7</ele>
        <time>2026-08-20T11:48:55Z</time>
      </trkpt>
      <trkpt lat="49.15265" lon="4.08033">
        <ele>177.7</ele>
        <time>2026-08-20T11:49:00Z</time>
      </trkpt>
      <trkpt lat="49.15265" lon="4.08033">
        <ele>177.7</ele>
        <time>2026-08-20T11:49:06Z</time>
      </trkpt>
      <trkpt lat="49.15265" lon="4.08033">
        <ele>177.7</ele>
        <time>2026-08-20T11:49:11Z</time>
      </trkpt>
      <trkpt lat="49.15268" lon="4.08042">
        <ele>177.4</ele>
        <time>2026-08-20T11:49:16Z</time>
      </trkpt>
      <trkpt lat="49.15269" lon="4.08051">
        <ele>177.4</ele>
        <time>2026-08-20T11:49:22Z</time>
      </trkpt>
      <trkpt lat="49.15266" lon="4.08057">
        <ele>178</ele>
        <time>2026-08-20T11:49:27Z</time>
      </trkpt>
      <trkpt lat="49.15262" lon="4.08061">
        <ele>178.7</ele>
        <time>2026-08-20T11:49:32Z</time>
      </trkpt>
      <trkpt lat="49.15261" lon="4.0807">
        <ele>179</ele>
        <time>2026-08-20T11:49:38Z</time>
      </trkpt>
      <trkpt lat="49.15259" lon="4.08076">
        <ele>179.4</ele>
        <time>2026-08-20T11:49:43Z</time>
      </trkpt>
      <trkpt lat="49.15256" lon="4.08082">
        <ele>180</ele>
        <time>2026-08-20T11:49:48Z</time>
      </trkpt>
      <trkpt lat="49.15252" lon="4.08087">
        <ele>180.6</ele>
        <time>2026-08-20T11:49:54Z</time>
      </trkpt>
      <trkpt lat="49.15249" lon="4.08093">
        <ele>181.1</ele>
        <time>2026-08-20T11:49:59Z</time>
      </trkpt>
      <trkpt lat="49.15246" lon="4.08099">
        <ele>181.8</ele>
        <time>2026-08-20T11:50:04Z</time>
      </trkpt>
      <trkpt lat="49.15244" lon="4.08105">
        <ele>182.2</ele>
        <time>2026-08-20T11:50:10Z</time>
      </trkpt>
      <trkpt lat="49.15242" lon="4.08105">
        <ele>182.7</ele>
        <time>2026-08-20T11:50:15Z</time>
      </trkpt>
      <trkpt lat="49.15242" lon="4.08106">
        <ele>182.7</ele>
        <time>2026-08-20T11:50:20Z</time>
      </trkpt>
      <trkpt lat="49.15239" lon="4.08115">
        <ele>183.4</ele>
        <time>2026-08-20T11:50:26Z</time>
      </trkpt>
      <trkpt lat="49.15238" lon="4.08122">
        <ele>183.5</ele>
        <time>2026-08-20T11:50:31Z</time>
      </trkpt>
      <trkpt lat="49.15237" lon="4.08128">
        <ele>183.8</ele>
        <time>2026-08-20T11:50:36Z</time>
      </trkpt>
      <trkpt lat="49.15236" lon="4.08131">
        <ele>184</ele>
        <time>2026-08-20T11:50:42Z</time>
      </trkpt>
      <trkpt lat="49.15235" lon="4.08132">
        <ele>184.2</ele>
        <time>2026-08-20T11:50:47Z</time>
      </trkpt>
      <trkpt lat="49.15233" lon="4.08136">
        <ele>184.7</ele>
        <time>2026-08-20T11:50:52Z</time>
      </trkpt>
      <trkpt lat="49.15229" lon="4.08138">
        <ele>185.7</ele>
        <time>2026-08-20T11:50:58Z</time>
      </trkpt>
      <trkpt lat="49.15226" lon="4.08138">
        <ele>186.5</ele>
        <time>2026-08-20T11:51:03Z</time>
      </trkpt>
      <trkpt lat="49.15226" lon="4.08136">
        <ele>186.5</ele>
        <time>2026-08-20T11:51:08Z</time>
      </trkpt>
      <trkpt lat="49.15226" lon="4.08136">
        <ele>186.5</ele>
        <time>2026-08-20T11:51:14Z</time>
      </trkpt>
      <trkpt lat="49.15226" lon="4.08136">
        <ele>186.5</ele>
        <time>2026-08-20T11:51:19Z</time>
      </trkpt>
      <trkpt lat="49.15226" lon="4.08136">
        <ele>186.5</ele>
        <time>2026-08-20T11:51:24Z</time>
      </trkpt>
      <trkpt lat="49.15226" lon="4.08136">
        <ele>186.5</ele>
        <time>2026-08-20T11:51:30Z</time>
      </trkpt>
      <trkpt lat="49.15226" lon="4.08136">
        <ele>186.5</ele>
        <time>2026-08-20T11:51:35Z</time>
      </trkpt>
      <trkpt lat="49.15226" lon="4.08136">
        <ele>186.5</ele>
        <time>2026-08-20T11:51:40Z</time>
      </trkpt>
      <trkpt lat="49.15226" lon="4.08136">
        <ele>186.5</ele>
        <time>2026-08-20T11:51:46Z</time>
      </trkpt>
      <trkpt lat="49.15226" lon="4.08136">
        <ele>186.5</ele>
        <time>2026-08-20T11:51:51Z</time>
      </trkpt>
      <trkpt lat="49.15226" lon="4.08136">
        <ele>186.5</ele>
        <time>2026-08-20T11:51:56Z</time>
      </trkpt>
      <trkpt lat="49.15226" lon="4.08136">
        <ele>186.5</ele>
        <time>2026-08-20T11:52:02Z</time>
      </trkpt>
      <trkpt lat="49.15224" lon="4.08137">
        <ele>187</ele>
        <time>2026-08-20T11:52:07Z</time>
      </trkpt>
      <trkpt lat="49.15221" lon="4.0814">
        <ele>187.8</ele>
        <time>2026-08-20T11:52:12Z</time>
      </trkpt>
      <trkpt lat="49.15215" lon="4.08144">
        <ele>189.3</ele>
        <time>2026-08-20T11:52:18Z</time>
      </trkpt>
      <trkpt lat="49.1521" lon="4.08147">
        <ele>190.6</ele>
        <time>2026-08-20T11:52:23Z</time>
      </trkpt>
      <trkpt lat="49.1521" lon="4.08147">
        <ele>190.6</ele>
        <time>2026-08-20T11:52:28Z</time>
      </trkpt>
      <trkpt lat="49.1521" lon="4.08147">
        <ele>190.6</ele>
        <time>2026-08-20T11:52:34Z</time>
      </trkpt>
      <trkpt lat="49.15206" lon="4.08149">
        <ele>191.6</ele>
        <time>2026-08-20T11:52:39Z</time>
      </trkpt>
      <trkpt lat="49.15202" lon="4.08153">
        <ele>192.6</ele>
        <time>2026-08-20T11:52:44Z</time>
      </trkpt>
      <trkpt lat="49.15195" lon="4.08158">
        <ele>194.5</ele>
        <time>2026-08-20T11:52:50Z</time>
      </trkpt>
      <trkpt lat="49.1519" lon="4.0816">
        <ele>195.8</ele>
        <time>2026-08-20T11:52:55Z</time>
      </trkpt>
      <trkpt lat="49.15186" lon="4.08164">
        <ele>196.9</ele>
        <time>2026-08-20T11:53:00Z</time>
      </trkpt>
      <trkpt lat="49.15181" lon="4.08167">
        <ele>198.2</ele>
        <time>2026-08-20T11:53:06Z</time>
      </trkpt>
      <trkpt lat="49.15178" lon="4.08171">
        <ele>198.6</ele>
        <time>2026-08-20T11:53:11Z</time>
      </trkpt>
      <trkpt lat="49.15173" lon="4.08171">
        <ele>199.9</ele>
        <time>2026-08-20T11:53:16Z</time>
      </trkpt>
      <trkpt lat="49.15167" lon="4.0817">
        <ele>201.6</ele>
        <time>2026-08-20T11:53:22Z</time>
      </trkpt>
      <trkpt lat="49.15162" lon="4.08171">
        <ele>202.2</ele>
        <time>2026-08-20T11:53:27Z</time>
      </trkpt>
      <trkpt lat="49.15157" lon="4.08171">
        <ele>202.9</ele>
        <time>2026-08-20T11:53:32Z</time>
      </trkpt>
      <trkpt lat="49.15151" lon="4.08169">
        <ele>203.9</ele>
        <time>2026-08-20T11:53:38Z</time>
      </trkpt>
      <trkpt lat="49.15148" lon="4.08167">
        <ele>204.4</ele>
        <time>2026-08-20T11:53:43Z</time>
      </trkpt>
      <trkpt lat="49.15143" lon="4.08165">
        <ele>205.1</ele>
        <time>2026-08-20T11:53:48Z</time>
      </trkpt>
      <trkpt lat="49.15139" lon="4.08162">
        <ele>205.6</ele>
        <time>2026-08-20T11:53:54Z</time>
      </trkpt>
      <trkpt lat="49.15135" lon="4.08159">
        <ele>206.2</ele>
        <time>2026-08-20T11:53:59Z</time>
      </trkpt>
      <trkpt lat="49.15131" lon="4.08155">
        <ele>206.7</ele>
        <time>2026-08-20T11:54:04Z</time>
      </trkpt>
      <trkpt lat="49.15127" lon="4.08151">
        <ele>207.2</ele>
        <time>2026-08-20T11:54:10Z</time>
      </trkpt>
      <trkpt lat="49.15125" lon="4.08149">
        <ele>207.5</ele>
        <time>2026-08-20T11:54:15Z</time>
      </trkpt>
      <trkpt lat="49.15124" lon="4.08147">
        <ele>207.6</ele>
        <time>2026-08-20T11:54:20Z</time>
      </trkpt>
      <trkpt lat="49.1512" lon="4.08144">
        <ele>208.2</ele>
        <time>2026-08-20T11:54:26Z</time>
      </trkpt>
      <trkpt lat="49.15117" lon="4.0814">
        <ele>208.6</ele>
        <time>2026-08-20T11:54:31Z</time>
      </trkpt>
      <trkpt lat="49.15115" lon="4.08136">
        <ele>208.9</ele>
        <time>2026-08-20T11:54:36Z</time>
      </trkpt>
      <trkpt lat="49.1511" lon="4.08131">
        <ele>209.6</ele>
        <time>2026-08-20T11:54:42Z</time>
      </trkpt>
      <trkpt lat="49.15108" lon="4.08128">
        <ele>209.9</ele>
        <time>2026-08-20T11:54:47Z</time>
      </trkpt>
      <trkpt lat="49.15105" lon="4.08124">
        <ele>210.4</ele>
        <time>2026-08-20T11:54:52Z</time>
      </trkpt>
      <trkpt lat="49.15102" lon="4.08119">
        <ele>210.9</ele>
        <time>2026-08-20T11:54:58Z</time>
      </trkpt>
      <trkpt lat="49.15099" lon="4.08114">
        <ele>211.3</ele>
        <time>2026-08-20T11:55:03Z</time>
      </trkpt>
      <trkpt lat="49.15095" lon="4.08109">
        <ele>212</ele>
        <time>2026-08-20T11:55:08Z</time>
      </trkpt>
      <trkpt lat="49.1509" lon="4.08106">
        <ele>212.7</ele>
        <time>2026-08-20T11:55:14Z</time>
      </trkpt>
      <trkpt lat="49.15087" lon="4.08102">
        <ele>213.2</ele>
        <time>2026-08-20T11:55:19Z</time>
      </trkpt>
      <trkpt lat="49.15087" lon="4.08099">
        <ele>213.3</ele>
        <time>2026-08-20T11:55:24Z</time>
      </trkpt>
      <trkpt lat="49.15087" lon="4.08097">
        <ele>213.3</ele>
        <time>2026-08-20T11:55:30Z</time>
      </trkpt>
      <trkpt lat="49.15087" lon="4.08097">
        <ele>213.3</ele>
        <time>2026-08-20T11:55:35Z</time>
      </trkpt>
      <trkpt lat="49.15087" lon="4.08097">
        <ele>213.3</ele>
        <time>2026-08-20T11:55:40Z</time>
      </trkpt>
      <trkpt lat="49.15083" lon="4.08091">
        <ele>214</ele>
        <time>2026-08-20T11:55:46Z</time>
      </trkpt>
      <trkpt lat="49.15081" lon="4.08089">
        <ele>214.2</ele>
        <time>2026-08-20T11:55:51Z</time>
      </trkpt>
      <trkpt lat="49.15077" lon="4.08085">
        <ele>214.8</ele>
        <time>2026-08-20T11:55:56Z</time>
      </trkpt>
      <trkpt lat="49.15074" lon="4.08082">
        <ele>215.3</ele>
        <time>2026-08-20T11:56:02Z</time>
      </trkpt>
      <trkpt lat="49.15071" lon="4.08079">
        <ele>215.7</ele>
        <time>2026-08-20T11:56:07Z</time>
      </trkpt>
      <trkpt lat="49.15068" lon="4.08075">
        <ele>216.2</ele>
        <time>2026-08-20T11:56:12Z</time>
      </trkpt>
      <trkpt lat="49.15064" lon="4.08069">
        <ele>216.8</ele>
        <time>2026-08-20T11:56:18Z</time>
      </trkpt>
      <trkpt lat="49.15062" lon="4.08065">
        <ele>217.2</ele>
        <time>2026-08-20T11:56:23Z</time>
      </trkpt>
      <trkpt lat="49.15059" lon="4.08061">
        <ele>217.7</ele>
        <time>2026-08-20T11:56:28Z</time>
      </trkpt>
      <trkpt lat="49.15054" lon="4.08056">
        <ele>218.5</ele>
        <time>2026-08-20T11:56:34Z</time>
      </trkpt>
      <trkpt lat="49.15051" lon="4.08052">
        <ele>219.1</ele>
        <time>2026-08-20T11:56:39Z</time>
      </trkpt>
      <trkpt lat="49.15047" lon="4.08049">
        <ele>219.7</ele>
        <time>2026-08-20T11:56:44Z</time>
      </trkpt>
      <trkpt lat="49.15044" lon="4.08045">
        <ele>220.3</ele>
        <time>2026-08-20T11:56:50Z</time>
      </trkpt>
      <trkpt lat="49.15041" lon="4.08042">
        <ele>220.8</ele>
        <time>2026-08-20T11:56:55Z</time>
      </trkpt>
      <trkpt lat="49.15038" lon="4.0804">
        <ele>221.4</ele>
        <time>2026-08-20T11:57:00Z</time>
      </trkpt>
      <trkpt lat="49.15037" lon="4.08038">
        <ele>221.6</ele>
        <time>2026-08-20T11:57:06Z</time>
      </trkpt>
      <trkpt lat="49.15037" lon="4.08038">
        <ele>221.6</ele>
        <time>2026-08-20T11:57:11Z</time>
      </trkpt>
      <trkpt lat="49.15037" lon="4.08038">
        <ele>221.6</ele>
        <time>2026-08-20T11:57:16Z</time>
      </trkpt>
      <trkpt lat="49.15037" lon="4.08038">
        <ele>221.6</ele>
        <time>2026-08-20T11:57:22Z</time>
      </trkpt>
      <trkpt lat="49.15037" lon="4.08038">
        <ele>221.6</ele>
        <time>2026-08-20T11:57:27Z</time>
      </trkpt>
      <trkpt lat="49.15037" lon="4.08038">
        <ele>221.6</ele>
        <time>2026-08-20T11:57:32Z</time>
      </trkpt>
      <trkpt lat="49.15037" lon="4.08038">
        <ele>221.6</ele>
        <time>2026-08-20T11:57:38Z</time>
      </trkpt>
      <trkpt lat="49.15033" lon="4.08044">
        <ele>222</ele>
        <time>2026-08-20T11:57:43Z</time>
      </trkpt>
      <trkpt lat="49.15031" lon="4.08044">
        <ele>222.3</ele>
        <time>2026-08-20T11:57:48Z</time>
      </trkpt>
      <trkpt lat="49.15026" lon="4.08041">
        <ele>223.1</ele>
        <time>2026-08-20T11:57:54Z</time>
      </trkpt>
      <trkpt lat="49.15021" lon="4.0804">
        <ele>223.9</ele>
        <time>2026-08-20T11:57:59Z</time>
      </trkpt>
      <trkpt lat="49.15017" lon="4.08042">
        <ele>224.4</ele>
        <time>2026-08-20T11:58:04Z</time>
      </trkpt>
      <trkpt lat="49.15013" lon="4.08046">
        <ele>224.9</ele>
        <time>2026-08-20T11:58:10Z</time>
      </trkpt>
      <trkpt lat="49.15008" lon="4.08052">
        <ele>225.3</ele>
        <time>2026-08-20T11:58:15Z</time>
      </trkpt>
      <trkpt lat="49.15005" lon="4.08057">
        <ele>225.5</ele>
        <time>2026-08-20T11:58:20Z</time>
      </trkpt>
      <trkpt lat="49.15002" lon="4.08061">
        <ele>225.8</ele>
        <time>2026-08-20T11:58:26Z</time>
      </trkpt>
      <trkpt lat="49.14999" lon="4.08064">
        <ele>226.1</ele>
        <time>2026-08-20T11:58:31Z</time>
      </trkpt>
      <trkpt lat="49.14996" lon="4.08069">
        <ele>226.2</ele>
        <time>2026-08-20T11:58:36Z</time>
      </trkpt>
      <trkpt lat="49.14993" lon="4.08075">
        <ele>226.3</ele>
        <time>2026-08-20T11:58:42Z</time>
      </trkpt>
      <trkpt lat="49.1499" lon="4.08079">
        <ele>226.5</ele>
        <time>2026-08-20T11:58:47Z</time>
      </trkpt>
      <trkpt lat="49.14987" lon="4.08084">
        <ele>226.7</ele>
        <time>2026-08-20T11:58:52Z</time>
      </trkpt>
      <trkpt lat="49.14983" lon="4.0809">
        <ele>226.9</ele>
        <time>2026-08-20T11:58:58Z</time>
      </trkpt>
      <trkpt lat="49.1498" lon="4.08095">
        <ele>227</ele>
        <time>2026-08-20T11:59:03Z</time>
      </trkpt>
      <trkpt lat="49.14976" lon="4.08099">
        <ele>227.4</ele>
        <time>2026-08-20T11:59:08Z</time>
      </trkpt>
      <trkpt lat="49.14973" lon="4.08104">
        <ele>227.6</ele>
        <time>2026-08-20T11:59:14Z</time>
      </trkpt>
      <trkpt lat="49.14969" lon="4.08109">
        <ele>227.9</ele>
        <time>2026-08-20T11:59:19Z</time>
      </trkpt>
      <trkpt lat="49.14966" lon="4.08112">
        <ele>228.3</ele>
        <time>2026-08-20T11:59:24Z</time>
      </trkpt>
      <trkpt lat="49.14964" lon="4.08111">
        <ele>228.6</ele>
        <time>2026-08-20T11:59:30Z</time>
      </trkpt>
      <trkpt lat="49.14962" lon="4.08115">
        <ele>228.8</ele>
        <time>2026-08-20T11:59:35Z</time>
      </trkpt>
      <trkpt lat="49.14957" lon="4.0812">
        <ele>229.4</ele>
        <time>2026-08-20T11:59:40Z</time>
      </trkpt>
      <trkpt lat="49.14953" lon="4.08122">
        <ele>230</ele>
        <time>2026-08-20T11:59:46Z</time>
      </trkpt>
      <trkpt lat="49.14948" lon="4.08122">
        <ele>230.8</ele>
        <time>2026-08-20T11:59:51Z</time>
      </trkpt>
      <trkpt lat="49.14946" lon="4.08122">
        <ele>231.1</ele>
        <time>2026-08-20T11:59:56Z</time>
      </trkpt>
      <trkpt lat="49.14945" lon="4.08121">
        <ele>231.3</ele>
        <time>2026-08-20T12:00:02Z</time>
      </trkpt>
      <trkpt lat="49.14945" lon="4.08121">
        <ele>231.3</ele>
        <time>2026-08-20T12:00:07Z</time>
      </trkpt>
      <trkpt lat="49.14944" lon="4.08121">
        <ele>231.5</ele>
        <time>2026-08-20T12:00:12Z</time>
      </trkpt>
      <trkpt lat="49.14941" lon="4.08121">
        <ele>232</ele>
        <time>2026-08-20T12:00:18Z</time>
      </trkpt>
      <trkpt lat="49.1494" lon="4.0812">
        <ele>232.2</ele>
        <time>2026-08-20T12:00:23Z</time>
      </trkpt>
      <trkpt lat="49.1494" lon="4.0812">
        <ele>232.2</ele>
        <time>2026-08-20T12:00:28Z</time>
      </trkpt>
      <trkpt lat="49.1494" lon="4.0812">
        <ele>232.2</ele>
        <time>2026-08-20T12:00:34Z</time>
      </trkpt>
      <trkpt lat="49.1494" lon="4.0812">
        <ele>232.2</ele>
        <time>2026-08-20T12:00:39Z</time>
      </trkpt>
      <trkpt lat="49.1494" lon="4.0812">
        <ele>232.2</ele>
        <time>2026-08-20T12:00:44Z</time>
      </trkpt>
      <trkpt lat="49.1494" lon="4.0812">
        <ele>232.2</ele>
        <time>2026-08-20T12:00:50Z</time>
      </trkpt>
      <trkpt lat="49.1494" lon="4.0812">
        <ele>232.2</ele>
        <time>2026-08-20T12:00:55Z</time>
      </trkpt>
      <trkpt lat="49.1494" lon="4.0812">
        <ele>232.2</ele>
        <time>2026-08-20T12:01:00Z</time>
      </trkpt>
      <trkpt lat="49.1494" lon="4.0812">
        <ele>232.2</ele>
        <time>2026-08-20T12:01:06Z</time>
      </trkpt>
      <trkpt lat="49.1494" lon="4.0812">
        <ele>232.2</ele>
        <time>2026-08-20T12:01:11Z</time>
      </trkpt>
      <trkpt lat="49.1494" lon="4.0812">
        <ele>232.2</ele>
        <time>2026-08-20T12:01:16Z</time>
      </trkpt>
      <trkpt lat="49.1494" lon="4.0812">
        <ele>232.2</ele>
        <time>2026-08-20T12:01:22Z</time>
      </trkpt>
      <trkpt lat="49.1494" lon="4.0812">
        <ele>232.2</ele>
        <time>2026-08-20T12:01:27Z</time>
      </trkpt>
      <trkpt lat="49.1494" lon="4.0812">
        <ele>232.2</ele>
        <time>2026-08-20T12:01:32Z</time>
      </trkpt>
      <trkpt lat="49.1494" lon="4.0812">
        <ele>232.2</ele>
        <time>2026-08-20T12:01:38Z</time>
      </trkpt>
      <trkpt lat="49.1494" lon="4.0812">
        <ele>232.2</ele>
        <time>2026-08-20T12:01:43Z</time>
      </trkpt>
      <trkpt lat="49.1494" lon="4.0812">
        <ele>232.2</ele>
        <time>2026-08-20T12:01:48Z</time>
      </trkpt>
      <trkpt lat="49.1494" lon="4.0812">
        <ele>232.2</ele>
        <time>2026-08-20T12:01:54Z</time>
      </trkpt>
      <trkpt lat="49.1494" lon="4.0812">
        <ele>232.2</ele>
        <time>2026-08-20T12:01:59Z</time>
      </trkpt>
      <trkpt lat="49.1494" lon="4.0812">
        <ele>232.2</ele>
        <time>2026-08-20T12:02:04Z</time>
      </trkpt>
      <trkpt lat="49.1494" lon="4.0812">
        <ele>232.2</ele>
        <time>2026-08-20T12:02:10Z</time>
      </trkpt>
      <trkpt lat="49.1494" lon="4.0812">
        <ele>232.2</ele>
        <time>2026-08-20T12:02:15Z</time>
      </trkpt>
      <trkpt lat="49.1494" lon="4.0812">
        <ele>232.2</ele>
        <time>2026-08-20T12:02:20Z</time>
      </trkpt>
      <trkpt lat="49.14938" lon="4.08122">
        <ele>232.5</ele>
        <time>2026-08-20T12:02:26Z</time>
      </trkpt>
      <trkpt lat="49.14934" lon="4.08119">
        <ele>233.2</ele>
        <time>2026-08-20T12:02:31Z</time>
      </trkpt>
      <trkpt lat="49.1493" lon="4.08116">
        <ele>233.9</ele>
        <time>2026-08-20T12:02:36Z</time>
      </trkpt>
      <trkpt lat="49.14926" lon="4.08113">
        <ele>234.5</ele>
        <time>2026-08-20T12:02:42Z</time>
      </trkpt>
      <trkpt lat="49.14922" lon="4.08112">
        <ele>235.2</ele>
        <time>2026-08-20T12:02:47Z</time>
      </trkpt>
      <trkpt lat="49.14919" lon="4.0811">
        <ele>235.6</ele>
        <time>2026-08-20T12:02:52Z</time>
      </trkpt>
      <trkpt lat="49.14916" lon="4.08109">
        <ele>236.1</ele>
        <time>2026-08-20T12:02:58Z</time>
      </trkpt>
      <trkpt lat="49.14915" lon="4.08108">
        <ele>236.2</ele>
        <time>2026-08-20T12:03:03Z</time>
      </trkpt>
      <trkpt lat="49.14915" lon="4.08108">
        <ele>236.2</ele>
        <time>2026-08-20T12:03:08Z</time>
      </trkpt>
      <trkpt lat="49.14915" lon="4.08108">
        <ele>236.2</ele>
        <time>2026-08-20T12:03:14Z</time>
      </trkpt>
      <trkpt lat="49.14915" lon="4.08108">
        <ele>236.2</ele>
        <time>2026-08-20T12:03:19Z</time>
      </trkpt>
      <trkpt lat="49.14909" lon="4.08103">
        <ele>237</ele>
        <time>2026-08-20T12:03:24Z</time>
      </trkpt>
      <trkpt lat="49.14904" lon="4.08102">
        <ele>237.6</ele>
        <time>2026-08-20T12:03:30Z</time>
      </trkpt>
      <trkpt lat="49.14899" lon="4.08099">
        <ele>238.3</ele>
        <time>2026-08-20T12:03:35Z</time>
      </trkpt>
      <trkpt lat="49.14895" lon="4.08096">
        <ele>238.8</ele>
        <time>2026-08-20T12:03:40Z</time>
      </trkpt>
      <trkpt lat="49.1489" lon="4.08094">
        <ele>239.4</ele>
        <time>2026-08-20T12:03:46Z</time>
      </trkpt>
      <trkpt lat="49.14884" lon="4.08092">
        <ele>240.2</ele>
        <time>2026-08-20T12:03:51Z</time>
      </trkpt>
      <trkpt lat="49.1488" lon="4.08089">
        <ele>240.8</ele>
        <time>2026-08-20T12:03:56Z</time>
      </trkpt>
      <trkpt lat="49.14875" lon="4.08086">
        <ele>241.5</ele>
        <time>2026-08-20T12:04:02Z</time>
      </trkpt>
      <trkpt lat="49.14871" lon="4.08085">
        <ele>242</ele>
        <time>2026-08-20T12:04:07Z</time>
      </trkpt>
      <trkpt lat="49.14866" lon="4.08082">
        <ele>242.7</ele>
        <time>2026-08-20T12:04:12Z</time>
      </trkpt>
      <trkpt lat="49.14861" lon="4.08079">
        <ele>243.5</ele>
        <time>2026-08-20T12:04:18Z</time>
      </trkpt>
      <trkpt lat="49.14857" lon="4.08078">
        <ele>244</ele>
        <time>2026-08-20T12:04:23Z</time>
      </trkpt>
      <trkpt lat="49.14853" lon="4.08076">
        <ele>244.6</ele>
        <time>2026-08-20T12:04:28Z</time>
      </trkpt>
      <trkpt lat="49.14847" lon="4.08074">
        <ele>245.4</ele>
        <time>2026-08-20T12:04:34Z</time>
      </trkpt>
      <trkpt lat="49.14844" lon="4.08072">
        <ele>245.8</ele>
        <time>2026-08-20T12:04:39Z</time>
      </trkpt>
      <trkpt lat="49.1484" lon="4.0807">
        <ele>246.3</ele>
        <time>2026-08-20T12:04:44Z</time>
      </trkpt>
      <trkpt lat="49.14838" lon="4.08069">
        <ele>246.6</ele>
        <time>2026-08-20T12:04:50Z</time>
      </trkpt>
      <trkpt lat="49.14838" lon="4.08069">
        <ele>246.6</ele>
        <time>2026-08-20T12:04:55Z</time>
      </trkpt>
      <trkpt lat="49.14832" lon="4.08068">
        <ele>247.4</ele>
        <time>2026-08-20T12:05:00Z</time>
      </trkpt>
      <trkpt lat="49.14827" lon="4.08064">
        <ele>248.1</ele>
        <time>2026-08-20T12:05:06Z</time>
      </trkpt>
      <trkpt lat="49.14823" lon="4.08063">
        <ele>248.6</ele>
        <time>2026-08-20T12:05:11Z</time>
      </trkpt>
      <trkpt lat="49.14819" lon="4.0806">
        <ele>249.2</ele>
        <time>2026-08-20T12:05:16Z</time>
      </trkpt>
      <trkpt lat="49.14815" lon="4.08059">
        <ele>249.8</ele>
        <time>2026-08-20T12:05:22Z</time>
      </trkpt>
      <trkpt lat="49.14811" lon="4.08058">
        <ele>250.3</ele>
        <time>2026-08-20T12:05:27Z</time>
      </trkpt>
      <trkpt lat="49.14807" lon="4.08056">
        <ele>250.9</ele>
        <time>2026-08-20T12:05:32Z</time>
      </trkpt>
      <trkpt lat="49.14804" lon="4.08054">
        <ele>251.3</ele>
        <time>2026-08-20T12:05:38Z</time>
      </trkpt>
      <trkpt lat="49.14803" lon="4.08053">
        <ele>251.5</ele>
        <time>2026-08-20T12:05:43Z</time>
      </trkpt>
      <trkpt lat="49.14803" lon="4.08053">
        <ele>251.5</ele>
        <time>2026-08-20T12:05:48Z</time>
      </trkpt>
      <trkpt lat="49.14803" lon="4.08053">
        <ele>251.5</ele>
        <time>2026-08-20T12:05:54Z</time>
      </trkpt>
      <trkpt lat="49.14803" lon="4.08053">
        <ele>251.5</ele>
        <time>2026-08-20T12:05:59Z</time>
      </trkpt>
      <trkpt lat="49.14799" lon="4.08051">
        <ele>252.1</ele>
        <time>2026-08-20T12:06:04Z</time>
      </trkpt>
      <trkpt lat="49.14794" lon="4.08049">
        <ele>252.8</ele>
        <time>2026-08-20T12:06:10Z</time>
      </trkpt>
      <trkpt lat="49.14789" lon="4.08047">
        <ele>253.5</ele>
        <time>2026-08-20T12:06:15Z</time>
      </trkpt>
      <trkpt lat="49.14785" lon="4.08045">
        <ele>254.1</ele>
        <time>2026-08-20T12:06:20Z</time>
      </trkpt>
      <trkpt lat="49.14781" lon="4.08042">
        <ele>254.7</ele>
        <time>2026-08-20T12:06:26Z</time>
      </trkpt>
      <trkpt lat="49.14776" lon="4.0804">
        <ele>255.4</ele>
        <time>2026-08-20T12:06:31Z</time>
      </trkpt>
      <trkpt lat="49.14772" lon="4.08039">
        <ele>256</ele>
        <time>2026-08-20T12:06:36Z</time>
      </trkpt>
      <trkpt lat="49.14767" lon="4.0804">
        <ele>256.7</ele>
        <time>2026-08-20T12:06:42Z</time>
      </trkpt>
      <trkpt lat="49.14762" lon="4.08039">
        <ele>257.4</ele>
        <time>2026-08-20T12:06:47Z</time>
      </trkpt>
      <trkpt lat="49.1476" lon="4.08038">
        <ele>257.7</ele>
        <time>2026-08-20T12:06:52Z</time>
      </trkpt>
      <trkpt lat="49.14759" lon="4.08038">
        <ele>257.8</ele>
        <time>2026-08-20T12:06:58Z</time>
      </trkpt>
      <trkpt lat="49.14759" lon="4.08038">
        <ele>257.8</ele>
        <time>2026-08-20T12:07:03Z</time>
      </trkpt>
      <trkpt lat="49.14755" lon="4.08039">
        <ele>258.4</ele>
        <time>2026-08-20T12:07:08Z</time>
      </trkpt>
      <trkpt lat="49.14751" lon="4.08037">
        <ele>259</ele>
        <time>2026-08-20T12:07:14Z</time>
      </trkpt>
      <trkpt lat="49.14748" lon="4.08036">
        <ele>259.4</ele>
        <time>2026-08-20T12:07:19Z</time>
      </trkpt>
      <trkpt lat="49.14745" lon="4.08038">
        <ele>259.6</ele>
        <time>2026-08-20T12:07:24Z</time>
      </trkpt>
      <trkpt lat="49.14744" lon="4.08036">
        <ele>259.8</ele>
        <time>2026-08-20T12:07:30Z</time>
      </trkpt>
      <trkpt lat="49.14744" lon="4.08036">
        <ele>259.8</ele>
        <time>2026-08-20T12:07:35Z</time>
      </trkpt>
      <trkpt lat="49.14744" lon="4.08036">
        <ele>259.8</ele>
        <time>2026-08-20T12:07:40Z</time>
      </trkpt>
      <trkpt lat="49.14744" lon="4.08036">
        <ele>259.8</ele>
        <time>2026-08-20T12:07:46Z</time>
      </trkpt>
      <trkpt lat="49.14744" lon="4.08036">
        <ele>259.8</ele>
        <time>2026-08-20T12:07:51Z</time>
      </trkpt>
      <trkpt lat="49.14744" lon="4.08036">
        <ele>259.8</ele>
        <time>2026-08-20T12:07:56Z</time>
      </trkpt>
      <trkpt lat="49.14744" lon="4.08036">
        <ele>259.8</ele>
        <time>2026-08-20T12:08:02Z</time>
      </trkpt>
      <trkpt lat="49.14744" lon="4.08036">
        <ele>259.8</ele>
        <time>2026-08-20T12:08:07Z</time>
      </trkpt>
      <trkpt lat="49.14744" lon="4.08036">
        <ele>259.8</ele>
        <time>2026-08-20T12:08:12Z</time>
      </trkpt>
      <trkpt lat="49.14744" lon="4.08036">
        <ele>259.8</ele>
        <time>2026-08-20T12:08:18Z</time>
      </trkpt>
      <trkpt lat="49.14744" lon="4.08036">
        <ele>259.8</ele>
        <time>2026-08-20T12:08:23Z</time>
      </trkpt>
      <trkpt lat="49.14744" lon="4.08036">
        <ele>259.8</ele>
        <time>2026-08-20T12:08:28Z</time>
      </trkpt>
      <trkpt lat="49.14744" lon="4.08036">
        <ele>259.8</ele>
        <time>2026-08-20T12:08:34Z</time>
      </trkpt>
      <trkpt lat="49.14744" lon="4.08036">
        <ele>259.8</ele>
        <time>2026-08-20T12:08:39Z</time>
      </trkpt>
      <trkpt lat="49.14744" lon="4.08036">
        <ele>259.8</ele>
        <time>2026-08-20T12:08:44Z</time>
      </trkpt>
      <trkpt lat="49.14744" lon="4.08036">
        <ele>259.8</ele>
        <time>2026-08-20T12:08:50Z</time>
      </trkpt>
      <trkpt lat="49.14744" lon="4.08036">
        <ele>259.8</ele>
        <time>2026-08-20T12:08:55Z</time>
      </trkpt>
      <trkpt lat="49.14741" lon="4.08042">
        <ele>260</ele>
        <time>2026-08-20T12:09:00Z</time>
      </trkpt>
      <trkpt lat="49.14736" lon="4.08046">
        <ele>260.4</ele>
        <time>2026-08-20T12:09:06Z</time>
      </trkpt>
      <trkpt lat="49.14731" lon="4.08051">
        <ele>260.8</ele>
        <time>2026-08-20T12:09:11Z</time>
      </trkpt>
      <trkpt lat="49.14727" lon="4.08054">
        <ele>261.2</ele>
        <time>2026-08-20T12:09:16Z</time>
      </trkpt>
      <trkpt lat="49.14722" lon="4.08057">
        <ele>261.7</ele>
        <time>2026-08-20T12:09:22Z</time>
      </trkpt>
      <trkpt lat="49.1472" lon="4.08059">
        <ele>261.8</ele>
        <time>2026-08-20T12:09:27Z</time>
      </trkpt>
      <trkpt lat="49.14717" lon="4.08062">
        <ele>262.1</ele>
        <time>2026-08-20T12:09:32Z</time>
      </trkpt>
      <trkpt lat="49.14711" lon="4.08066">
        <ele>262.6</ele>
        <time>2026-08-20T12:09:38Z</time>
      </trkpt>
      <trkpt lat="49.14707" lon="4.08071">
        <ele>262.9</ele>
        <time>2026-08-20T12:09:43Z</time>
      </trkpt>
      <trkpt lat="49.14701" lon="4.08075">
        <ele>263.5</ele>
        <time>2026-08-20T12:09:48Z</time>
      </trkpt>
      <trkpt lat="49.14697" lon="4.08078">
        <ele>263.9</ele>
        <time>2026-08-20T12:09:54Z</time>
      </trkpt>
      <trkpt lat="49.14693" lon="4.08082">
        <ele>264.2</ele>
        <time>2026-08-20T12:09:59Z</time>
      </trkpt>
      <trkpt lat="49.14689" lon="4.08084">
        <ele>264.6</ele>
        <time>2026-08-20T12:10:04Z</time>
      </trkpt>
      <trkpt lat="49.14685" lon="4.08088">
        <ele>264.9</ele>
        <time>2026-08-20T12:10:10Z</time>
      </trkpt>
      <trkpt lat="49.14681" lon="4.08093">
        <ele>265.3</ele>
        <time>2026-08-20T12:10:15Z</time>
      </trkpt>
      <trkpt lat="49.14679" lon="4.08095">
        <ele>265.5</ele>
        <time>2026-08-20T12:10:20Z</time>
      </trkpt>
      <trkpt lat="49.14675" lon="4.08098">
        <ele>265.9</ele>
        <time>2026-08-20T12:10:26Z</time>
      </trkpt>
      <trkpt lat="49.14672" lon="4.08101">
        <ele>266.2</ele>
        <time>2026-08-20T12:10:31Z</time>
      </trkpt>
      <trkpt lat="49.14668" lon="4.08103">
        <ele>266.6</ele>
        <time>2026-08-20T12:10:36Z</time>
      </trkpt>
      <trkpt lat="49.14662" lon="4.08107">
        <ele>267.2</ele>
        <time>2026-08-20T12:10:42Z</time>
      </trkpt>
      <trkpt lat="49.14658" lon="4.08109">
        <ele>267.6</ele>
        <time>2026-08-20T12:10:47Z</time>
      </trkpt>
      <trkpt lat="49.14654" lon="4.0811">
        <ele>267.9</ele>
        <time>2026-08-20T12:10:52Z</time>
      </trkpt>
      <trkpt lat="49.1465" lon="4.0811">
        <ele>268.3</ele>
        <time>2026-08-20T12:10:58Z</time>
      </trkpt>
      <trkpt lat="49.14647" lon="4.08108">
        <ele>268.7</ele>
        <time>2026-08-20T12:11:03Z</time>
      </trkpt>
      <trkpt lat="49.14647" lon="4.08108">
        <ele>268.7</ele>
        <time>2026-08-20T12:11:08Z</time>
      </trkpt>
      <trkpt lat="49.14647" lon="4.08108">
        <ele>268.7</ele>
        <time>2026-08-20T12:11:14Z</time>
      </trkpt>
      <trkpt lat="49.14647" lon="4.08108">
        <ele>268.7</ele>
        <time>2026-08-20T12:11:19Z</time>
      </trkpt>
      <trkpt lat="49.14647" lon="4.08108">
        <ele>268.7</ele>
        <time>2026-08-20T12:11:24Z</time>
      </trkpt>
      <trkpt lat="49.14647" lon="4.08108">
        <ele>268.7</ele>
        <time>2026-08-20T12:11:30Z</time>
      </trkpt>
      <trkpt lat="49.14647" lon="4.08108">
        <ele>268.7</ele>
        <time>2026-08-20T12:11:35Z</time>
      </trkpt>
      <trkpt lat="49.14647" lon="4.08108">
        <ele>268.7</ele>
        <time>2026-08-20T12:11:40Z</time>
      </trkpt>
      <trkpt lat="49.14647" lon="4.08108">
        <ele>268.7</ele>
        <time>2026-08-20T12:11:46Z</time>
      </trkpt>
      <trkpt lat="49.14647" lon="4.08108">
        <ele>268.7</ele>
        <time>2026-08-20T12:11:51Z</time>
      </trkpt>
      <trkpt lat="49.14643" lon="4.0811">
        <ele>269</ele>
        <time>2026-08-20T12:11:56Z</time>
      </trkpt>
      <trkpt lat="49.14639" lon="4.08107">
        <ele>269.5</ele>
        <time>2026-08-20T12:12:02Z</time>
      </trkpt>
      <trkpt lat="49.14637" lon="4.08108">
        <ele>269.7</ele>
        <time>2026-08-20T12:12:07Z</time>
      </trkpt>
      <trkpt lat="49.14636" lon="4.0811">
        <ele>269.7</ele>
        <time>2026-08-20T12:12:12Z</time>
      </trkpt>
      <trkpt lat="49.14636" lon="4.0811">
        <ele>269.7</ele>
        <time>2026-08-20T12:12:18Z</time>
      </trkpt>
      <trkpt lat="49.14636" lon="4.0811">
        <ele>269.7</ele>
        <time>2026-08-20T12:12:23Z</time>
      </trkpt>
      <trkpt lat="49.14633" lon="4.0811">
        <ele>270</ele>
        <time>2026-08-20T12:12:28Z</time>
      </trkpt>
      <trkpt lat="49.14626" lon="4.08106">
        <ele>270.8</ele>
        <time>2026-08-20T12:12:34Z</time>
      </trkpt>
      <trkpt lat="49.14621" lon="4.081">
        <ele>271.3</ele>
        <time>2026-08-20T12:12:39Z</time>
      </trkpt>
      <trkpt lat="49.14617" lon="4.08096">
        <ele>271.7</ele>
        <time>2026-08-20T12:12:44Z</time>
      </trkpt>
      <trkpt lat="49.14612" lon="4.08092">
        <ele>272.2</ele>
        <time>2026-08-20T12:12:50Z</time>
      </trkpt>
      <trkpt lat="49.14608" lon="4.0809">
        <ele>272.6</ele>
        <time>2026-08-20T12:12:55Z</time>
      </trkpt>
      <trkpt lat="49.14603" lon="4.08089">
        <ele>273.1</ele>
        <time>2026-08-20T12:13:00Z</time>
      </trkpt>
      <trkpt lat="49.14598" lon="4.08086">
        <ele>273.6</ele>
        <time>2026-08-20T12:13:06Z</time>
      </trkpt>
      <trkpt lat="49.14593" lon="4.08083">
        <ele>274.1</ele>
        <time>2026-08-20T12:13:11Z</time>
      </trkpt>
      <trkpt lat="49.14588" lon="4.08081">
        <ele>274.6</ele>
        <time>2026-08-20T12:13:16Z</time>
      </trkpt>
      <trkpt lat="49.14583" lon="4.08076">
        <ele>275.2</ele>
        <time>2026-08-20T12:13:22Z</time>
      </trkpt>
      <trkpt lat="49.14579" lon="4.08074">
        <ele>275.6</ele>
        <time>2026-08-20T12:13:27Z</time>
      </trkpt>
      <trkpt lat="49.14574" lon="4.08072">
        <ele>276</ele>
        <time>2026-08-20T12:13:32Z</time>
      </trkpt>
      <trkpt lat="49.14569" lon="4.08079">
        <ele>276.3</ele>
        <time>2026-08-20T12:13:38Z</time>
      </trkpt>
      <trkpt lat="49.14566" lon="4.08085">
        <ele>276.5</ele>
        <time>2026-08-20T12:13:43Z</time>
      </trkpt>
      <trkpt lat="49.14565" lon="4.08089">
        <ele>276.5</ele>
        <time>2026-08-20T12:13:48Z</time>
      </trkpt>
      <trkpt lat="49.14559" lon="4.0809">
        <ele>277</ele>
        <time>2026-08-20T12:13:54Z</time>
      </trkpt>
      <trkpt lat="49.14555" lon="4.08094">
        <ele>277.4</ele>
        <time>2026-08-20T12:13:59Z</time>
      </trkpt>
      <trkpt lat="49.14551" lon="4.08097">
        <ele>277.7</ele>
        <time>2026-08-20T12:14:04Z</time>
      </trkpt>
      <trkpt lat="49.14549" lon="4.08096">
        <ele>277.9</ele>
        <time>2026-08-20T12:14:10Z</time>
      </trkpt>
      <trkpt lat="49.14549" lon="4.08097">
        <ele>277.9</ele>
        <time>2026-08-20T12:14:15Z</time>
      </trkpt>
      <trkpt lat="49.14549" lon="4.08097">
        <ele>277.9</ele>
        <time>2026-08-20T12:14:20Z</time>
      </trkpt>
      <trkpt lat="49.14548" lon="4.08104">
        <ele>278</ele>
        <time>2026-08-20T12:14:26Z</time>
      </trkpt>
      <trkpt lat="49.14545" lon="4.08104">
        <ele>278.2</ele>
        <time>2026-08-20T12:14:31Z</time>
      </trkpt>
      <trkpt lat="49.1454" lon="4.08107">
        <ele>278.6</ele>
        <time>2026-08-20T12:14:36Z</time>
      </trkpt>
      <trkpt lat="49.14535" lon="4.08113">
        <ele>279.1</ele>
        <time>2026-08-20T12:14:42Z</time>
      </trkpt>
      <trkpt lat="49.14531" lon="4.08117">
        <ele>279.4</ele>
        <time>2026-08-20T12:14:47Z</time>
      </trkpt>
      <trkpt lat="49.14529" lon="4.08121">
        <ele>279.6</ele>
        <time>2026-08-20T12:14:52Z</time>
      </trkpt>
      <trkpt lat="49.14525" lon="4.08123">
        <ele>279.9</ele>
        <time>2026-08-20T12:14:58Z</time>
      </trkpt>
      <trkpt lat="49.14522" lon="4.08127">
        <ele>280.2</ele>
        <time>2026-08-20T12:15:03Z</time>
      </trkpt>
      <trkpt lat="49.14519" lon="4.0813">
        <ele>280.4</ele>
        <time>2026-08-20T12:15:08Z</time>
      </trkpt>
      <trkpt lat="49.14515" lon="4.08132">
        <ele>280.7</ele>
        <time>2026-08-20T12:15:14Z</time>
      </trkpt>
      <trkpt lat="49.14513" lon="4.08133">
        <ele>280.9</ele>
        <time>2026-08-20T12:15:19Z</time>
      </trkpt>
      <trkpt lat="49.14513" lon="4.08133">
        <ele>280.9</ele>
        <time>2026-08-20T12:15:24Z</time>
      </trkpt>
      <trkpt lat="49.14513" lon="4.08133">
        <ele>280.9</ele>
        <time>2026-08-20T12:15:30Z</time>
      </trkpt>
      <trkpt lat="49.14513" lon="4.08133">
        <ele>280.9</ele>
        <time>2026-08-20T12:15:35Z</time>
      </trkpt>
      <trkpt lat="49.14513" lon="4.08133">
        <ele>280.9</ele>
        <time>2026-08-20T12:15:40Z</time>
      </trkpt>
      <trkpt lat="49.14513" lon="4.08133">
        <ele>280.9</ele>
        <time>2026-08-20T12:15:46Z</time>
      </trkpt>
      <trkpt lat="49.14513" lon="4.08133">
        <ele>280.9</ele>
        <time>2026-08-20T12:15:51Z</time>
      </trkpt>
      <trkpt lat="49.14513" lon="4.08133">
        <ele>280.9</ele>
        <time>2026-08-20T12:15:56Z</time>
      </trkpt>
      <trkpt lat="49.14513" lon="4.08133">
        <ele>280.9</ele>
        <time>2026-08-20T12:16:02Z</time>
      </trkpt>
      <trkpt lat="49.14513" lon="4.08133">
        <ele>280.9</ele>
        <time>2026-08-20T12:16:07Z</time>
      </trkpt>
      <trkpt lat="49.14513" lon="4.08133">
        <ele>280.9</ele>
        <time>2026-08-20T12:16:12Z</time>
      </trkpt>
      <trkpt lat="49.14513" lon="4.08133">
        <ele>280.9</ele>
        <time>2026-08-20T12:16:18Z</time>
      </trkpt>
      <trkpt lat="49.14513" lon="4.08133">
        <ele>280.9</ele>
        <time>2026-08-20T12:16:23Z</time>
      </trkpt>
      <trkpt lat="49.14513" lon="4.08133">
        <ele>280.9</ele>
        <time>2026-08-20T12:16:28Z</time>
      </trkpt>
      <trkpt lat="49.14513" lon="4.08133">
        <ele>280.9</ele>
        <time>2026-08-20T12:16:34Z</time>
      </trkpt>
      <trkpt lat="49.14513" lon="4.08133">
        <ele>280.9</ele>
        <time>2026-08-20T12:16:39Z</time>
      </trkpt>
      <trkpt lat="49.14513" lon="4.08133">
        <ele>280.9</ele>
        <time>2026-08-20T12:16:44Z</time>
      </trkpt>
      <trkpt lat="49.14513" lon="4.08133">
        <ele>280.9</ele>
        <time>2026-08-20T12:16:50Z</time>
      </trkpt>
      <trkpt lat="49.14513" lon="4.08133">
        <ele>280.9</ele>
        <time>2026-08-20T12:16:55Z</time>
      </trkpt>
      <trkpt lat="49.14513" lon="4.08133">
        <ele>280.9</ele>
        <time>2026-08-20T12:17:00Z</time>
      </trkpt>
      <trkpt lat="49.14513" lon="4.08133">
        <ele>280.9</ele>
        <time>2026-08-20T12:17:06Z</time>
      </trkpt>
      <trkpt lat="49.14513" lon="4.08133">
        <ele>280.9</ele>
        <time>2026-08-20T12:17:11Z</time>
      </trkpt>
      <trkpt lat="49.14513" lon="4.08133">
        <ele>280.9</ele>
        <time>2026-08-20T12:17:16Z</time>
      </trkpt>
      <trkpt lat="49.14513" lon="4.08133">
        <ele>280.9</ele>
        <time>2026-08-20T12:17:22Z</time>
      </trkpt>
      <trkpt lat="49.14513" lon="4.08133">
        <ele>280.9</ele>
        <time>2026-08-20T12:17:27Z</time>
      </trkpt>
      <trkpt lat="49.14513" lon="4.08133">
        <ele>280.9</ele>
        <time>2026-08-20T12:17:32Z</time>
      </trkpt>
      <trkpt lat="49.14513" lon="4.08133">
        <ele>280.9</ele>
        <time>2026-08-20T12:17:38Z</time>
      </trkpt>
      <trkpt lat="49.14513" lon="4.08133">
        <ele>280.9</ele>
        <time>2026-08-20T12:17:43Z</time>
      </trkpt>
      <trkpt lat="49.14513" lon="4.08133">
        <ele>280.9</ele>
        <time>2026-08-20T12:17:48Z</time>
      </trkpt>
      <trkpt lat="49.14513" lon="4.08133">
        <ele>280.9</ele>
        <time>2026-08-20T12:17:54Z</time>
      </trkpt>
      <trkpt lat="49.14513" lon="4.08133">
        <ele>280.9</ele>
        <time>2026-08-20T12:17:59Z</time>
      </trkpt>
      <trkpt lat="49.14513" lon="4.08133">
        <ele>280.9</ele>
        <time>2026-08-20T12:18:04Z</time>
      </trkpt>
      <trkpt lat="49.14513" lon="4.08133">
        <ele>280.9</ele>
        <time>2026-08-20T12:18:10Z</time>
      </trkpt>
      <trkpt lat="49.14513" lon="4.08133">
        <ele>280.9</ele>
        <time>2026-08-20T12:18:15Z</time>
      </trkpt>
      <trkpt lat="49.14513" lon="4.08133">
        <ele>280.9</ele>
        <time>2026-08-20T12:18:20Z</time>
      </trkpt>
      <trkpt lat="49.14513" lon="4.08133">
        <ele>280.9</ele>
        <time>2026-08-20T12:18:26Z</time>
      </trkpt>
      <trkpt lat="49.14513" lon="4.08133">
        <ele>280.9</ele>
        <time>2026-08-20T12:18:31Z</time>
      </trkpt>
      <trkpt lat="49.14513" lon="4.08133">
        <ele>280.9</ele>
        <time>2026-08-20T12:18:36Z</time>
      </trkpt>
      <trkpt lat="49.14513" lon="4.08133">
        <ele>280.9</ele>
        <time>2026-08-20T12:18:42Z</time>
      </trkpt>
      <trkpt lat="49.14513" lon="4.08133">
        <ele>280.9</ele>
        <time>2026-08-20T12:18:47Z</time>
      </trkpt>
      <trkpt lat="49.14513" lon="4.08133">
        <ele>280.9</ele>
        <time>2026-08-20T12:18:52Z</time>
      </trkpt>
      <trkpt lat="49.14513" lon="4.08133">
        <ele>280.9</ele>
        <time>2026-08-20T12:18:58Z</time>
      </trkpt>
      <trkpt lat="49.14513" lon="4.08133">
        <ele>280.9</ele>
        <time>2026-08-20T12:19:03Z</time>
      </trkpt>
      <trkpt lat="49.14513" lon="4.08133">
        <ele>280.9</ele>
        <time>2026-08-20T12:19:08Z</time>
      </trkpt>
      <trkpt lat="49.14513" lon="4.08133">
        <ele>280.9</ele>
        <time>2026-08-20T12:19:14Z</time>
      </trkpt>
      <trkpt lat="49.14513" lon="4.08133">
        <ele>280.9</ele>
        <time>2026-08-20T12:19:19Z</time>
      </trkpt>
      <trkpt lat="49.14513" lon="4.08133">
        <ele>280.9</ele>
        <time>2026-08-20T12:19:24Z</time>
      </trkpt>
      <trkpt lat="49.14513" lon="4.08133">
        <ele>280.9</ele>
        <time>2026-08-20T12:19:30Z</time>
      </trkpt>
      <trkpt lat="49.14513" lon="4.08133">
        <ele>280.9</ele>
        <time>2026-08-20T12:19:35Z</time>
      </trkpt>
      <trkpt lat="49.14513" lon="4.08133">
        <ele>280.9</ele>
        <time>2026-08-20T12:19:40Z</time>
      </trkpt>
      <trkpt lat="49.14513" lon="4.08133">
        <ele>280.9</ele>
        <time>2026-08-20T12:19:46Z</time>
      </trkpt>
      <trkpt lat="49.14513" lon="4.08133">
        <ele>280.9</ele>
        <time>2026-08-20T12:19:51Z</time>
      </trkpt>
      <trkpt lat="49.14513" lon="4.08133">
        <ele>280.9</ele>
        <time>2026-08-20T12:19:56Z</time>
      </trkpt>
      <trkpt lat="49.14513" lon="4.08133">
        <ele>280.9</ele>
        <time>2026-08-20T12:20:02Z</time>
      </trkpt>
      <trkpt lat="49.14513" lon="4.08133">
        <ele>280.9</ele>
        <time>2026-08-20T12:20:07Z</time>
      </trkpt>
      <trkpt lat="49.14513" lon="4.08133">
        <ele>280.9</ele>
        <time>2026-08-20T12:20:12Z</time>
      </trkpt>
      <trkpt lat="49.14513" lon="4.08133">
        <ele>280.9</ele>
        <time>2026-08-20T12:20:18Z</time>
      </trkpt>
      <trkpt lat="49.14513" lon="4.08133">
        <ele>280.9</ele>
        <time>2026-08-20T12:20:23Z</time>
      </trkpt>
      <trkpt lat="49.14513" lon="4.08133">
        <ele>280.9</ele>
        <time>2026-08-20T12:20:28Z</time>
      </trkpt>
      <trkpt lat="49.14513" lon="4.08133">
        <ele>280.9</ele>
        <time>2026-08-20T12:20:34Z</time>
      </trkpt>
      <trkpt lat="49.14513" lon="4.08133">
        <ele>280.9</ele>
        <time>2026-08-20T12:20:39Z</time>
      </trkpt>
      <trkpt lat="49.14513" lon="4.08133">
        <ele>280.9</ele>
        <time>2026-08-20T12:20:44Z</time>
      </trkpt>
      <trkpt lat="49.14513" lon="4.08133">
        <ele>280.9</ele>
        <time>2026-08-20T12:20:50Z</time>
      </trkpt>
      <trkpt lat="49.14513" lon="4.08133">
        <ele>280.9</ele>
        <time>2026-08-20T12:20:55Z</time>
      </trkpt>
      <trkpt lat="49.14513" lon="4.08133">
        <ele>280.9</ele>
        <time>2026-08-20T12:21:00Z</time>
      </trkpt>
      <trkpt lat="49.14513" lon="4.08133">
        <ele>280.9</ele>
        <time>2026-08-20T12:21:06Z</time>
      </trkpt>
      <trkpt lat="49.14513" lon="4.08133">
        <ele>280.9</ele>
        <time>2026-08-20T12:21:11Z</time>
      </trkpt>
      <trkpt lat="49.14513" lon="4.08133">
        <ele>280.9</ele>
        <time>2026-08-20T12:21:16Z</time>
      </trkpt>
      <trkpt lat="49.14513" lon="4.08133">
        <ele>280.9</ele>
        <time>2026-08-20T12:21:22Z</time>
      </trkpt>
      <trkpt lat="49.14513" lon="4.08133">
        <ele>280.9</ele>
        <time>2026-08-20T12:21:27Z</time>
      </trkpt>
      <trkpt lat="49.14513" lon="4.08133">
        <ele>280.9</ele>
        <time>2026-08-20T12:21:32Z</time>
      </trkpt>
      <trkpt lat="49.14512" lon="4.08137">
        <ele>281</ele>
        <time>2026-08-20T12:21:38Z</time>
      </trkpt>
      <trkpt lat="49.14512" lon="4.08137">
        <ele>281</ele>
        <time>2026-08-20T12:21:43Z</time>
      </trkpt>
      <trkpt lat="49.14512" lon="4.08137">
        <ele>281</ele>
        <time>2026-08-20T12:21:48Z</time>
      </trkpt>
      <trkpt lat="49.14512" lon="4.08137">
        <ele>281</ele>
        <time>2026-08-20T12:21:54Z</time>
      </trkpt>
      <trkpt lat="49.14512" lon="4.08137">
        <ele>281</ele>
        <time>2026-08-20T12:21:59Z</time>
      </trkpt>
      <trkpt lat="49.14512" lon="4.08137">
        <ele>281</ele>
        <time>2026-08-20T12:22:04Z</time>
      </trkpt>
      <trkpt lat="49.14512" lon="4.08137">
        <ele>281</ele>
        <time>2026-08-20T12:22:10Z</time>
      </trkpt>
      <trkpt lat="49.14512" lon="4.08137">
        <ele>281</ele>
        <time>2026-08-20T12:22:15Z</time>
      </trkpt>
      <trkpt lat="49.14512" lon="4.08137">
        <ele>281</ele>
        <time>2026-08-20T12:22:20Z</time>
      </trkpt>
      <trkpt lat="49.14512" lon="4.08137">
        <ele>281</ele>
        <time>2026-08-20T12:22:26Z</time>
      </trkpt>
      <trkpt lat="49.14512" lon="4.08137">
        <ele>281</ele>
        <time>2026-08-20T12:22:31Z</time>
      </trkpt>
      <trkpt lat="49.14512" lon="4.08137">
        <ele>281</ele>
        <time>2026-08-20T12:22:36Z</time>
      </trkpt>
      <trkpt lat="49.14512" lon="4.08137">
        <ele>281</ele>
        <time>2026-08-20T12:22:42Z</time>
      </trkpt>
      <trkpt lat="49.14512" lon="4.08137">
        <ele>281</ele>
        <time>2026-08-20T12:22:47Z</time>
      </trkpt>
      <trkpt lat="49.14512" lon="4.08137">
        <ele>281</ele>
        <time>2026-08-20T12:22:52Z</time>
      </trkpt>
      <trkpt lat="49.14512" lon="4.08137">
        <ele>281</ele>
        <time>2026-08-20T12:22:58Z</time>
      </trkpt>
      <trkpt lat="49.14512" lon="4.08137">
        <ele>281</ele>
        <time>2026-08-20T12:23:03Z</time>
      </trkpt>
      <trkpt lat="49.14512" lon="4.08137">
        <ele>281</ele>
        <time>2026-08-20T12:23:08Z</time>
      </trkpt>
      <trkpt lat="49.14512" lon="4.08137">
        <ele>281</ele>
        <time>2026-08-20T12:23:14Z</time>
      </trkpt>
      <trkpt lat="49.14512" lon="4.08137">
        <ele>281</ele>
        <time>2026-08-20T12:23:19Z</time>
      </trkpt>
      <trkpt lat="49.14512" lon="4.08137">
        <ele>281</ele>
        <time>2026-08-20T12:23:24Z</time>
      </trkpt>
      <trkpt lat="49.14512" lon="4.08137">
        <ele>281</ele>
        <time>2026-08-20T12:23:30Z</time>
      </trkpt>
      <trkpt lat="49.14512" lon="4.08137">
        <ele>281</ele>
        <time>2026-08-20T12:23:35Z</time>
      </trkpt>
      <trkpt lat="49.14512" lon="4.08137">
        <ele>281</ele>
        <time>2026-08-20T12:23:40Z</time>
      </trkpt>
      <trkpt lat="49.14512" lon="4.08137">
        <ele>281</ele>
        <time>2026-08-20T12:23:46Z</time>
      </trkpt>
      <trkpt lat="49.14512" lon="4.08137">
        <ele>281</ele>
        <time>2026-08-20T12:23:51Z</time>
      </trkpt>
      <trkpt lat="49.14512" lon="4.08137">
        <ele>281</ele>
        <time>2026-08-20T12:23:56Z</time>
      </trkpt>
      <trkpt lat="49.14512" lon="4.08137">
        <ele>281</ele>
        <time>2026-08-20T12:24:02Z</time>
      </trkpt>
      <trkpt lat="49.14512" lon="4.08137">
        <ele>281</ele>
        <time>2026-08-20T12:24:07Z</time>
      </trkpt>
      <trkpt lat="49.14512" lon="4.08137">
        <ele>281</ele>
        <time>2026-08-20T12:24:12Z</time>
      </trkpt>
      <trkpt lat="49.14512" lon="4.08137">
        <ele>281</ele>
        <time>2026-08-20T12:24:18Z</time>
      </trkpt>
      <trkpt lat="49.14512" lon="4.08137">
        <ele>281</ele>
        <time>2026-08-20T12:24:23Z</time>
      </trkpt>
      <trkpt lat="49.14512" lon="4.08137">
        <ele>281</ele>
        <time>2026-08-20T12:24:28Z</time>
      </trkpt>
      <trkpt lat="49.14512" lon="4.08137">
        <ele>281</ele>
        <time>2026-08-20T12:24:34Z</time>
      </trkpt>
      <trkpt lat="49.14512" lon="4.08137">
        <ele>281</ele>
        <time>2026-08-20T12:24:39Z</time>
      </trkpt>
      <trkpt lat="49.14512" lon="4.08137">
        <ele>281</ele>
        <time>2026-08-20T12:24:44Z</time>
      </trkpt>
      <trkpt lat="49.14512" lon="4.08137">
        <ele>281</ele>
        <time>2026-08-20T12:24:50Z</time>
      </trkpt>
      <trkpt lat="49.14512" lon="4.08137">
        <ele>281</ele>
        <time>2026-08-20T12:24:55Z</time>
      </trkpt>
      <trkpt lat="49.14512" lon="4.08137">
        <ele>281</ele>
        <time>2026-08-20T12:25:00Z</time>
      </trkpt>
      <trkpt lat="49.14512" lon="4.08137">
        <ele>281</ele>
        <time>2026-08-20T12:25:06Z</time>
      </trkpt>
      <trkpt lat="49.14512" lon="4.08137">
        <ele>281</ele>
        <time>2026-08-20T12:25:11Z</time>
      </trkpt>
      <trkpt lat="49.14512" lon="4.08137">
        <ele>281</ele>
        <time>2026-08-20T12:25:16Z</time>
      </trkpt>
      <trkpt lat="49.14512" lon="4.08137">
        <ele>281</ele>
        <time>2026-08-20T12:25:22Z</time>
      </trkpt>
      <trkpt lat="49.14512" lon="4.08137">
        <ele>281</ele>
        <time>2026-08-20T12:25:27Z</time>
      </trkpt>
      <trkpt lat="49.14512" lon="4.08137">
        <ele>281</ele>
        <time>2026-08-20T12:25:32Z</time>
      </trkpt>
      <trkpt lat="49.14512" lon="4.08137">
        <ele>281</ele>
        <time>2026-08-20T12:25:38Z</time>
      </trkpt>
      <trkpt lat="49.14512" lon="4.08137">
        <ele>281</ele>
        <time>2026-08-20T12:25:43Z</time>
      </trkpt>
      <trkpt lat="49.14512" lon="4.08137">
        <ele>281</ele>
        <time>2026-08-20T12:25:48Z</time>
      </trkpt>
      <trkpt lat="49.145" lon="4.08144">
        <ele>282</ele>
        <time>2026-08-20T12:25:54Z</time>
      </trkpt>
      <trkpt lat="49.14494" lon="4.08147">
        <ele>282.1</ele>
        <time>2026-08-20T12:25:59Z</time>
      </trkpt>
      <trkpt lat="49.1449" lon="4.0815">
        <ele>282.2</ele>
        <time>2026-08-20T12:26:04Z</time>
      </trkpt>
      <trkpt lat="49.14485" lon="4.08152">
        <ele>282.3</ele>
        <time>2026-08-20T12:26:10Z</time>
      </trkpt>
      <trkpt lat="49.1448" lon="4.08154">
        <ele>282.3</ele>
        <time>2026-08-20T12:26:15Z</time>
      </trkpt>
      <trkpt lat="49.14476" lon="4.08157">
        <ele>282.4</ele>
        <time>2026-08-20T12:26:20Z</time>
      </trkpt>
      <trkpt lat="49.14473" lon="4.08163">
        <ele>282.4</ele>
        <time>2026-08-20T12:26:26Z</time>
      </trkpt>
      <trkpt lat="49.14473" lon="4.08165">
        <ele>282.3</ele>
        <time>2026-08-20T12:26:31Z</time>
      </trkpt>
      <trkpt lat="49.14473" lon="4.08166">
        <ele>282.3</ele>
        <time>2026-08-20T12:26:36Z</time>
      </trkpt>
      <trkpt lat="49.14468" lon="4.08166">
        <ele>282.4</ele>
        <time>2026-08-20T12:26:42Z</time>
      </trkpt>
      <trkpt lat="49.14466" lon="4.08168">
        <ele>282.4</ele>
        <time>2026-08-20T12:26:47Z</time>
      </trkpt>
      <trkpt lat="49.14461" lon="4.08169">
        <ele>282.5</ele>
        <time>2026-08-20T12:26:52Z</time>
      </trkpt>
      <trkpt lat="49.14456" lon="4.08169">
        <ele>282.5</ele>
        <time>2026-08-20T12:26:58Z</time>
      </trkpt>
      <trkpt lat="49.14452" lon="4.08169">
        <ele>282.6</ele>
        <time>2026-08-20T12:27:03Z</time>
      </trkpt>
      <trkpt lat="49.14451" lon="4.08168">
        <ele>282.6</ele>
        <time>2026-08-20T12:27:08Z</time>
      </trkpt>
      <trkpt lat="49.14451" lon="4.08168">
        <ele>282.6</ele>
        <time>2026-08-20T12:27:14Z</time>
      </trkpt>
      <trkpt lat="49.14453" lon="4.08156">
        <ele>282.8</ele>
        <time>2026-08-20T12:27:19Z</time>
      </trkpt>
      <trkpt lat="49.14453" lon="4.0815">
        <ele>282.9</ele>
        <time>2026-08-20T12:27:24Z</time>
      </trkpt>
      <trkpt lat="49.14455" lon="4.08142">
        <ele>283</ele>
        <time>2026-08-20T12:27:30Z</time>
      </trkpt>
      <trkpt lat="49.14458" lon="4.08139">
        <ele>283</ele>
        <time>2026-08-20T12:27:35Z</time>
      </trkpt>
      <trkpt lat="49.14459" lon="4.08137">
        <ele>283</ele>
        <time>2026-08-20T12:27:40Z</time>
      </trkpt>
      <trkpt lat="49.14459" lon="4.0813">
        <ele>283.1</ele>
        <time>2026-08-20T12:27:46Z</time>
      </trkpt>
      <trkpt lat="49.14459" lon="4.0812">
        <ele>283.3</ele>
        <time>2026-08-20T12:27:51Z</time>
      </trkpt>
      <trkpt lat="49.1446" lon="4.08115">
        <ele>283.4</ele>
        <time>2026-08-20T12:27:56Z</time>
      </trkpt>
      <trkpt lat="49.14458" lon="4.08112">
        <ele>283.5</ele>
        <time>2026-08-20T12:28:02Z</time>
      </trkpt>
      <trkpt lat="49.14457" lon="4.08108">
        <ele>283.6</ele>
        <time>2026-08-20T12:28:07Z</time>
      </trkpt>
      <trkpt lat="49.14457" lon="4.08102">
        <ele>283.7</ele>
        <time>2026-08-20T12:28:12Z</time>
      </trkpt>
      <trkpt lat="49.14456" lon="4.08094">
        <ele>283.9</ele>
        <time>2026-08-20T12:28:18Z</time>
      </trkpt>
      <trkpt lat="49.14456" lon="4.08087">
        <ele>284</ele>
        <time>2026-08-20T12:28:23Z</time>
      </trkpt>
      <trkpt lat="49.14455" lon="4.0808">
        <ele>284.1</ele>
        <time>2026-08-20T12:28:28Z</time>
      </trkpt>
      <trkpt lat="49.14454" lon="4.08072">
        <ele>283.9</ele>
        <time>2026-08-20T12:28:34Z</time>
      </trkpt>
      <trkpt lat="49.14453" lon="4.08067">
        <ele>283.8</ele>
        <time>2026-08-20T12:28:39Z</time>
      </trkpt>
      <trkpt lat="49.14452" lon="4.08059">
        <ele>283.7</ele>
        <time>2026-08-20T12:28:44Z</time>
      </trkpt>
      <trkpt lat="49.14451" lon="4.08052">
        <ele>283.5</ele>
        <time>2026-08-20T12:28:50Z</time>
      </trkpt>
      <trkpt lat="49.14451" lon="4.08043">
        <ele>283.3</ele>
        <time>2026-08-20T12:28:55Z</time>
      </trkpt>
      <trkpt lat="49.14451" lon="4.08037">
        <ele>283.1</ele>
        <time>2026-08-20T12:29:00Z</time>
      </trkpt>
      <trkpt lat="49.14452" lon="4.08035">
        <ele>283.1</ele>
        <time>2026-08-20T12:29:06Z</time>
      </trkpt>
      <trkpt lat="49.14452" lon="4.08035">
        <ele>283.1</ele>
        <time>2026-08-20T12:29:11Z</time>
      </trkpt>
      <trkpt lat="49.14452" lon="4.08035">
        <ele>283.1</ele>
        <time>2026-08-20T12:29:16Z</time>
      </trkpt>
      <trkpt lat="49.14452" lon="4.08029">
        <ele>282.9</ele>
        <time>2026-08-20T12:29:22Z</time>
      </trkpt>
      <trkpt lat="49.14451" lon="4.08025">
        <ele>282.8</ele>
        <time>2026-08-20T12:29:27Z</time>
      </trkpt>
      <trkpt lat="49.14451" lon="4.08017">
        <ele>282.6</ele>
        <time>2026-08-20T12:29:32Z</time>
      </trkpt>
      <trkpt lat="49.14454" lon="4.08011">
        <ele>282.4</ele>
        <time>2026-08-20T12:29:38Z</time>
      </trkpt>
      <trkpt lat="49.14456" lon="4.08003">
        <ele>282.1</ele>
        <time>2026-08-20T12:29:43Z</time>
      </trkpt>
      <trkpt lat="49.14456" lon="4.07994">
        <ele>282.1</ele>
        <time>2026-08-20T12:29:48Z</time>
      </trkpt>
      <trkpt lat="49.14457" lon="4.07985">
        <ele>282.1</ele>
        <time>2026-08-20T12:29:54Z</time>
      </trkpt>
      <trkpt lat="49.14457" lon="4.0798">
        <ele>282.1</ele>
        <time>2026-08-20T12:29:59Z</time>
      </trkpt>
      <trkpt lat="49.14458" lon="4.07974">
        <ele>282.2</ele>
        <time>2026-08-20T12:30:04Z</time>
      </trkpt>
      <trkpt lat="49.14458" lon="4.07965">
        <ele>282.2</ele>
        <time>2026-08-20T12:30:10Z</time>
      </trkpt>
      <trkpt lat="49.1446" lon="4.07959">
        <ele>282.2</ele>
        <time>2026-08-20T12:30:15Z</time>
      </trkpt>
      <trkpt lat="49.14459" lon="4.07953">
        <ele>282.3</ele>
        <time>2026-08-20T12:30:20Z</time>
      </trkpt>
      <trkpt lat="49.14461" lon="4.07947">
        <ele>282.3</ele>
        <time>2026-08-20T12:30:26Z</time>
      </trkpt>
      <trkpt lat="49.14461" lon="4.0794">
        <ele>282.3</ele>
        <time>2026-08-20T12:30:31Z</time>
      </trkpt>
      <trkpt lat="49.14462" lon="4.07934">
        <ele>282.3</ele>
        <time>2026-08-20T12:30:36Z</time>
      </trkpt>
      <trkpt lat="49.14463" lon="4.0793">
        <ele>282.4</ele>
        <time>2026-08-20T12:30:42Z</time>
      </trkpt>
      <trkpt lat="49.14463" lon="4.0793">
        <ele>282.4</ele>
        <time>2026-08-20T12:30:47Z</time>
      </trkpt>
      <trkpt lat="49.14463" lon="4.0793">
        <ele>282.4</ele>
        <time>2026-08-20T12:30:52Z</time>
      </trkpt>
      <trkpt lat="49.14463" lon="4.0793">
        <ele>282.4</ele>
        <time>2026-08-20T12:30:58Z</time>
      </trkpt>
      <trkpt lat="49.14463" lon="4.0793">
        <ele>282.4</ele>
        <time>2026-08-20T12:31:03Z</time>
      </trkpt>
      <trkpt lat="49.14463" lon="4.0793">
        <ele>282.4</ele>
        <time>2026-08-20T12:31:08Z</time>
      </trkpt>
      <trkpt lat="49.14463" lon="4.0793">
        <ele>282.4</ele>
        <time>2026-08-20T12:31:14Z</time>
      </trkpt>
      <trkpt lat="49.14463" lon="4.0793">
        <ele>282.4</ele>
        <time>2026-08-20T12:31:19Z</time>
      </trkpt>
      <trkpt lat="49.14463" lon="4.0793">
        <ele>282.4</ele>
        <time>2026-08-20T12:31:24Z</time>
      </trkpt>
      <trkpt lat="49.14463" lon="4.0793">
        <ele>282.4</ele>
        <time>2026-08-20T12:31:30Z</time>
      </trkpt>
      <trkpt lat="49.14463" lon="4.0793">
        <ele>282.4</ele>
        <time>2026-08-20T12:31:35Z</time>
      </trkpt>
      <trkpt lat="49.14463" lon="4.0793">
        <ele>282.4</ele>
        <time>2026-08-20T12:31:40Z</time>
      </trkpt>
      <trkpt lat="49.14462" lon="4.07924">
        <ele>282.4</ele>
        <time>2026-08-20T12:31:46Z</time>
      </trkpt>
      <trkpt lat="49.14461" lon="4.07919">
        <ele>282.5</ele>
        <time>2026-08-20T12:31:51Z</time>
      </trkpt>
      <trkpt lat="49.14463" lon="4.07912">
        <ele>282.4</ele>
        <time>2026-08-20T12:31:56Z</time>
      </trkpt>
      <trkpt lat="49.14464" lon="4.07904">
        <ele>282.2</ele>
        <time>2026-08-20T12:32:02Z</time>
      </trkpt>
      <trkpt lat="49.14466" lon="4.07896">
        <ele>282</ele>
        <time>2026-08-20T12:32:07Z</time>
      </trkpt>
      <trkpt lat="49.14468" lon="4.07888">
        <ele>281.8</ele>
        <time>2026-08-20T12:32:12Z</time>
      </trkpt>
      <trkpt lat="49.14469" lon="4.07878">
        <ele>281.6</ele>
        <time>2026-08-20T12:32:18Z</time>
      </trkpt>
      <trkpt lat="49.1447" lon="4.07869">
        <ele>281.4</ele>
        <time>2026-08-20T12:32:23Z</time>
      </trkpt>
      <trkpt lat="49.14469" lon="4.0786">
        <ele>281.3</ele>
        <time>2026-08-20T12:32:28Z</time>
      </trkpt>
      <trkpt lat="49.1447" lon="4.0785">
        <ele>281</ele>
        <time>2026-08-20T12:32:34Z</time>
      </trkpt>
      <trkpt lat="49.14471" lon="4.07842">
        <ele>280.9</ele>
        <time>2026-08-20T12:32:39Z</time>
      </trkpt>
      <trkpt lat="49.14471" lon="4.07835">
        <ele>280.7</ele>
        <time>2026-08-20T12:32:44Z</time>
      </trkpt>
      <trkpt lat="49.14475" lon="4.07832">
        <ele>280.6</ele>
        <time>2026-08-20T12:32:50Z</time>
      </trkpt>
      <trkpt lat="49.14475" lon="4.07832">
        <ele>280.6</ele>
        <time>2026-08-20T12:32:55Z</time>
      </trkpt>
      <trkpt lat="49.14475" lon="4.07832">
        <ele>280.6</ele>
        <time>2026-08-20T12:33:00Z</time>
      </trkpt>
      <trkpt lat="49.14474" lon="4.07828">
        <ele>280.4</ele>
        <time>2026-08-20T12:33:06Z</time>
      </trkpt>
      <trkpt lat="49.14477" lon="4.07821">
        <ele>280.1</ele>
        <time>2026-08-20T12:33:11Z</time>
      </trkpt>
      <trkpt lat="49.1448" lon="4.07815">
        <ele>279.8</ele>
        <time>2026-08-20T12:33:16Z</time>
      </trkpt>
      <trkpt lat="49.14485" lon="4.07807">
        <ele>279.4</ele>
        <time>2026-08-20T12:33:22Z</time>
      </trkpt>
      <trkpt lat="49.14488" lon="4.07806">
        <ele>279.3</ele>
        <time>2026-08-20T12:33:27Z</time>
      </trkpt>
      <trkpt lat="49.14488" lon="4.07799">
        <ele>279.1</ele>
        <time>2026-08-20T12:33:32Z</time>
      </trkpt>
      <trkpt lat="49.14491" lon="4.07791">
        <ele>278.7</ele>
        <time>2026-08-20T12:33:38Z</time>
      </trkpt>
      <trkpt lat="49.14493" lon="4.07788">
        <ele>278.5</ele>
        <time>2026-08-20T12:33:43Z</time>
      </trkpt>
      <trkpt lat="49.14495" lon="4.07787">
        <ele>278.5</ele>
        <time>2026-08-20T12:33:48Z</time>
      </trkpt>
      <trkpt lat="49.14498" lon="4.07783">
        <ele>278.2</ele>
        <time>2026-08-20T12:33:54Z</time>
      </trkpt>
      <trkpt lat="49.14501" lon="4.07776">
        <ele>277.9</ele>
        <time>2026-08-20T12:33:59Z</time>
      </trkpt>
      <trkpt lat="49.14503" lon="4.0777">
        <ele>277.7</ele>
        <time>2026-08-20T12:34:04Z</time>
      </trkpt>
      <trkpt lat="49.14505" lon="4.07766">
        <ele>277.6</ele>
        <time>2026-08-20T12:34:10Z</time>
      </trkpt>
      <trkpt lat="49.14505" lon="4.07764">
        <ele>277.5</ele>
        <time>2026-08-20T12:34:15Z</time>
      </trkpt>
      <trkpt lat="49.14508" lon="4.07757">
        <ele>277.3</ele>
        <time>2026-08-20T12:34:20Z</time>
      </trkpt>
      <trkpt lat="49.14509" lon="4.07754">
        <ele>277.1</ele>
        <time>2026-08-20T12:34:26Z</time>
      </trkpt>
      <trkpt lat="49.14509" lon="4.07754">
        <ele>277.1</ele>
        <time>2026-08-20T12:34:31Z</time>
      </trkpt>
      <trkpt lat="49.14509" lon="4.07754">
        <ele>277.1</ele>
        <time>2026-08-20T12:34:36Z</time>
      </trkpt>
      <trkpt lat="49.14509" lon="4.07754">
        <ele>277.1</ele>
        <time>2026-08-20T12:34:42Z</time>
      </trkpt>
      <trkpt lat="49.14509" lon="4.07754">
        <ele>277.1</ele>
        <time>2026-08-20T12:34:47Z</time>
      </trkpt>
      <trkpt lat="49.14509" lon="4.07754">
        <ele>277.1</ele>
        <time>2026-08-20T12:34:52Z</time>
      </trkpt>
      <trkpt lat="49.14509" lon="4.07754">
        <ele>277.1</ele>
        <time>2026-08-20T12:34:58Z</time>
      </trkpt>
      <trkpt lat="49.14509" lon="4.07754">
        <ele>277.1</ele>
        <time>2026-08-20T12:35:03Z</time>
      </trkpt>
      <trkpt lat="49.14509" lon="4.07754">
        <ele>277.1</ele>
        <time>2026-08-20T12:35:08Z</time>
      </trkpt>
      <trkpt lat="49.14508" lon="4.0775">
        <ele>277</ele>
        <time>2026-08-20T12:35:14Z</time>
      </trkpt>
      <trkpt lat="49.1451" lon="4.07747">
        <ele>277.1</ele>
        <time>2026-08-20T12:35:19Z</time>
      </trkpt>
      <trkpt lat="49.14513" lon="4.07743">
        <ele>277.1</ele>
        <time>2026-08-20T12:35:24Z</time>
      </trkpt>
      <trkpt lat="49.14516" lon="4.07735">
        <ele>277.2</ele>
        <time>2026-08-20T12:35:30Z</time>
      </trkpt>
      <trkpt lat="49.14518" lon="4.07729">
        <ele>277.3</ele>
        <time>2026-08-20T12:35:35Z</time>
      </trkpt>
      <trkpt lat="49.14521" lon="4.07723">
        <ele>277.3</ele>
        <time>2026-08-20T12:35:40Z</time>
      </trkpt>
      <trkpt lat="49.14523" lon="4.07721">
        <ele>277.3</ele>
        <time>2026-08-20T12:35:46Z</time>
      </trkpt>
      <trkpt lat="49.14523" lon="4.07721">
        <ele>277.3</ele>
        <time>2026-08-20T12:35:51Z</time>
      </trkpt>
      <trkpt lat="49.14524" lon="4.07718">
        <ele>277.3</ele>
        <time>2026-08-20T12:35:56Z</time>
      </trkpt>
      <trkpt lat="49.14527" lon="4.07717">
        <ele>277.3</ele>
        <time>2026-08-20T12:36:02Z</time>
      </trkpt>
      <trkpt lat="49.14532" lon="4.07713">
        <ele>277.2</ele>
        <time>2026-08-20T12:36:07Z</time>
      </trkpt>
      <trkpt lat="49.14535" lon="4.07709">
        <ele>277.2</ele>
        <time>2026-08-20T12:36:12Z</time>
      </trkpt>
      <trkpt lat="49.14538" lon="4.07705">
        <ele>277.1</ele>
        <time>2026-08-20T12:36:18Z</time>
      </trkpt>
      <trkpt lat="49.14541" lon="4.07704">
        <ele>277</ele>
        <time>2026-08-20T12:36:23Z</time>
      </trkpt>
      <trkpt lat="49.14544" lon="4.07702">
        <ele>276.9</ele>
        <time>2026-08-20T12:36:28Z</time>
      </trkpt>
      <trkpt lat="49.14547" lon="4.077">
        <ele>276.8</ele>
        <time>2026-08-20T12:36:34Z</time>
      </trkpt>
      <trkpt lat="49.14551" lon="4.07696">
        <ele>276.7</ele>
        <time>2026-08-20T12:36:39Z</time>
      </trkpt>
      <trkpt lat="49.14554" lon="4.0769">
        <ele>276.6</ele>
        <time>2026-08-20T12:36:44Z</time>
      </trkpt>
      <trkpt lat="49.14557" lon="4.07684">
        <ele>276.4</ele>
        <time>2026-08-20T12:36:50Z</time>
      </trkpt>
      <trkpt lat="49.14559" lon="4.0768">
        <ele>276.3</ele>
        <time>2026-08-20T12:36:55Z</time>
      </trkpt>
      <trkpt lat="49.14563" lon="4.07674">
        <ele>276.1</ele>
        <time>2026-08-20T12:37:00Z</time>
      </trkpt>
      <trkpt lat="49.14566" lon="4.07666">
        <ele>275.8</ele>
        <time>2026-08-20T12:37:06Z</time>
      </trkpt>
      <trkpt lat="49.14568" lon="4.07658">
        <ele>275.8</ele>
        <time>2026-08-20T12:37:11Z</time>
      </trkpt>
      <trkpt lat="49.1457" lon="4.07651">
        <ele>275.7</ele>
        <time>2026-08-20T12:37:16Z</time>
      </trkpt>
      <trkpt lat="49.14572" lon="4.07645">
        <ele>275.6</ele>
        <time>2026-08-20T12:37:22Z</time>
      </trkpt>
      <trkpt lat="49.14574" lon="4.07641">
        <ele>275.5</ele>
        <time>2026-08-20T12:37:27Z</time>
      </trkpt>
      <trkpt lat="49.14575" lon="4.07636">
        <ele>275.4</ele>
        <time>2026-08-20T12:37:32Z</time>
      </trkpt>
      <trkpt lat="49.14576" lon="4.07628">
        <ele>275.4</ele>
        <time>2026-08-20T12:37:38Z</time>
      </trkpt>
      <trkpt lat="49.14576" lon="4.07623">
        <ele>275.4</ele>
        <time>2026-08-20T12:37:43Z</time>
      </trkpt>
      <trkpt lat="49.14577" lon="4.07619">
        <ele>275.3</ele>
        <time>2026-08-20T12:37:48Z</time>
      </trkpt>
      <trkpt lat="49.14577" lon="4.07618">
        <ele>275.3</ele>
        <time>2026-08-20T12:37:54Z</time>
      </trkpt>
      <trkpt lat="49.14577" lon="4.07618">
        <ele>275.3</ele>
        <time>2026-08-20T12:37:59Z</time>
      </trkpt>
      <trkpt lat="49.14577" lon="4.07618">
        <ele>275.3</ele>
        <time>2026-08-20T12:38:04Z</time>
      </trkpt>
      <trkpt lat="49.14577" lon="4.07618">
        <ele>275.3</ele>
        <time>2026-08-20T12:38:10Z</time>
      </trkpt>
      <trkpt lat="49.14577" lon="4.07618">
        <ele>275.3</ele>
        <time>2026-08-20T12:38:15Z</time>
      </trkpt>
      <trkpt lat="49.14577" lon="4.07618">
        <ele>275.3</ele>
        <time>2026-08-20T12:38:20Z</time>
      </trkpt>
      <trkpt lat="49.14577" lon="4.07618">
        <ele>275.3</ele>
        <time>2026-08-20T12:38:26Z</time>
      </trkpt>
      <trkpt lat="49.14577" lon="4.07618">
        <ele>275.3</ele>
        <time>2026-08-20T12:38:31Z</time>
      </trkpt>
      <trkpt lat="49.14577" lon="4.07618">
        <ele>275.3</ele>
        <time>2026-08-20T12:38:36Z</time>
      </trkpt>
      <trkpt lat="49.14577" lon="4.07618">
        <ele>275.3</ele>
        <time>2026-08-20T12:38:42Z</time>
      </trkpt>
      <trkpt lat="49.14582" lon="4.0761">
        <ele>275.1</ele>
        <time>2026-08-20T12:38:47Z</time>
      </trkpt>
      <trkpt lat="49.14582" lon="4.07606">
        <ele>275.1</ele>
        <time>2026-08-20T12:38:52Z</time>
      </trkpt>
      <trkpt lat="49.14582" lon="4.076">
        <ele>275.1</ele>
        <time>2026-08-20T12:38:58Z</time>
      </trkpt>
      <trkpt lat="49.14584" lon="4.07593">
        <ele>275</ele>
        <time>2026-08-20T12:39:03Z</time>
      </trkpt>
      <trkpt lat="49.14586" lon="4.07589">
        <ele>274.9</ele>
        <time>2026-08-20T12:39:08Z</time>
      </trkpt>
      <trkpt lat="49.14587" lon="4.07583">
        <ele>274.9</ele>
        <time>2026-08-20T12:39:14Z</time>
      </trkpt>
      <trkpt lat="49.14588" lon="4.07575">
        <ele>274.6</ele>
        <time>2026-08-20T12:39:19Z</time>
      </trkpt>
      <trkpt lat="49.14586" lon="4.07568">
        <ele>274.5</ele>
        <time>2026-08-20T12:39:24Z</time>
      </trkpt>
      <trkpt lat="49.14586" lon="4.0756">
        <ele>274.3</ele>
        <time>2026-08-20T12:39:30Z</time>
      </trkpt>
      <trkpt lat="49.14585" lon="4.07553">
        <ele>274.2</ele>
        <time>2026-08-20T12:39:35Z</time>
      </trkpt>
      <trkpt lat="49.14584" lon="4.07547">
        <ele>274.1</ele>
        <time>2026-08-20T12:39:40Z</time>
      </trkpt>
      <trkpt lat="49.14585" lon="4.07538">
        <ele>273.9</ele>
        <time>2026-08-20T12:39:46Z</time>
      </trkpt>
      <trkpt lat="49.14588" lon="4.07531">
        <ele>273.6</ele>
        <time>2026-08-20T12:39:51Z</time>
      </trkpt>
      <trkpt lat="49.14592" lon="4.07524">
        <ele>273.3</ele>
        <time>2026-08-20T12:39:56Z</time>
      </trkpt>
      <trkpt lat="49.14597" lon="4.07518">
        <ele>272.9</ele>
        <time>2026-08-20T12:40:02Z</time>
      </trkpt>
      <trkpt lat="49.14601" lon="4.07514">
        <ele>272.7</ele>
        <time>2026-08-20T12:40:07Z</time>
      </trkpt>
      <trkpt lat="49.14606" lon="4.07511">
        <ele>272.4</ele>
        <time>2026-08-20T12:40:12Z</time>
      </trkpt>
      <trkpt lat="49.14612" lon="4.07505">
        <ele>272.1</ele>
        <time>2026-08-20T12:40:18Z</time>
      </trkpt>
      <trkpt lat="49.14617" lon="4.07496">
        <ele>271.8</ele>
        <time>2026-08-20T12:40:23Z</time>
      </trkpt>
      <trkpt lat="49.14619" lon="4.07488">
        <ele>271.9</ele>
        <time>2026-08-20T12:40:28Z</time>
      </trkpt>
      <trkpt lat="49.14623" lon="4.07479">
        <ele>271.8</ele>
        <time>2026-08-20T12:40:34Z</time>
      </trkpt>
      <trkpt lat="49.14626" lon="4.07472">
        <ele>271.8</ele>
        <time>2026-08-20T12:40:39Z</time>
      </trkpt>
      <trkpt lat="49.14629" lon="4.07465">
        <ele>271.8</ele>
        <time>2026-08-20T12:40:44Z</time>
      </trkpt>
      <trkpt lat="49.1463" lon="4.07454">
        <ele>271.9</ele>
        <time>2026-08-20T12:40:50Z</time>
      </trkpt>
      <trkpt lat="49.14631" lon="4.07447">
        <ele>271.9</ele>
        <time>2026-08-20T12:40:55Z</time>
      </trkpt>
      <trkpt lat="49.14634" lon="4.07439">
        <ele>271.9</ele>
        <time>2026-08-20T12:41:00Z</time>
      </trkpt>
      <trkpt lat="49.14637" lon="4.07431">
        <ele>271.9</ele>
        <time>2026-08-20T12:41:06Z</time>
      </trkpt>
      <trkpt lat="49.14641" lon="4.07428">
        <ele>271.8</ele>
        <time>2026-08-20T12:41:11Z</time>
      </trkpt>
      <trkpt lat="49.14645" lon="4.07427">
        <ele>271.7</ele>
        <time>2026-08-20T12:41:16Z</time>
      </trkpt>
      <trkpt lat="49.1465" lon="4.07423">
        <ele>271.5</ele>
        <time>2026-08-20T12:41:22Z</time>
      </trkpt>
      <trkpt lat="49.14653" lon="4.07422">
        <ele>271.4</ele>
        <time>2026-08-20T12:41:27Z</time>
      </trkpt>
      <trkpt lat="49.14659" lon="4.07415">
        <ele>271.4</ele>
        <time>2026-08-20T12:41:32Z</time>
      </trkpt>
      <trkpt lat="49.14667" lon="4.07407">
        <ele>271.5</ele>
        <time>2026-08-20T12:41:38Z</time>
      </trkpt>
      <trkpt lat="49.14671" lon="4.074">
        <ele>271.7</ele>
        <time>2026-08-20T12:41:43Z</time>
      </trkpt>
      <trkpt lat="49.14674" lon="4.07392">
        <ele>272</ele>
        <time>2026-08-20T12:41:48Z</time>
      </trkpt>
      <trkpt lat="49.14677" lon="4.07382">
        <ele>272.4</ele>
        <time>2026-08-20T12:41:54Z</time>
      </trkpt>
      <trkpt lat="49.14678" lon="4.07377">
        <ele>272.6</ele>
        <time>2026-08-20T12:41:59Z</time>
      </trkpt>
      <trkpt lat="49.14679" lon="4.07371">
        <ele>272.8</ele>
        <time>2026-08-20T12:42:04Z</time>
      </trkpt>
      <trkpt lat="49.14683" lon="4.07362">
        <ele>273.1</ele>
        <time>2026-08-20T12:42:10Z</time>
      </trkpt>
      <trkpt lat="49.14685" lon="4.07355">
        <ele>273.4</ele>
        <time>2026-08-20T12:42:15Z</time>
      </trkpt>
      <trkpt lat="49.14687" lon="4.07348">
        <ele>273.6</ele>
        <time>2026-08-20T12:42:20Z</time>
      </trkpt>
      <trkpt lat="49.14689" lon="4.07342">
        <ele>273.8</ele>
        <time>2026-08-20T12:42:26Z</time>
      </trkpt>
      <trkpt lat="49.14689" lon="4.07338">
        <ele>274</ele>
        <time>2026-08-20T12:42:31Z</time>
      </trkpt>
      <trkpt lat="49.14688" lon="4.07338">
        <ele>274</ele>
        <time>2026-08-20T12:42:36Z</time>
      </trkpt>
      <trkpt lat="49.14687" lon="4.07337">
        <ele>274.1</ele>
        <time>2026-08-20T12:42:42Z</time>
      </trkpt>
      <trkpt lat="49.14688" lon="4.07336">
        <ele>274.1</ele>
        <time>2026-08-20T12:42:47Z</time>
      </trkpt>
      <trkpt lat="49.14692" lon="4.07331">
        <ele>274.2</ele>
        <time>2026-08-20T12:42:52Z</time>
      </trkpt>
      <trkpt lat="49.14696" lon="4.07325">
        <ele>274.3</ele>
        <time>2026-08-20T12:42:58Z</time>
      </trkpt>
      <trkpt lat="49.14698" lon="4.07324">
        <ele>274.3</ele>
        <time>2026-08-20T12:43:03Z</time>
      </trkpt>
      <trkpt lat="49.14698" lon="4.07324">
        <ele>274.3</ele>
        <time>2026-08-20T12:43:08Z</time>
      </trkpt>
      <trkpt lat="49.14703" lon="4.07319">
        <ele>274.4</ele>
        <time>2026-08-20T12:43:14Z</time>
      </trkpt>
      <trkpt lat="49.14705" lon="4.07319">
        <ele>274.3</ele>
        <time>2026-08-20T12:43:19Z</time>
      </trkpt>
      <trkpt lat="49.14708" lon="4.07314">
        <ele>274.4</ele>
        <time>2026-08-20T12:43:24Z</time>
      </trkpt>
      <trkpt lat="49.14711" lon="4.07306">
        <ele>274.7</ele>
        <time>2026-08-20T12:43:30Z</time>
      </trkpt>
      <trkpt lat="49.14714" lon="4.07299">
        <ele>274.9</ele>
        <time>2026-08-20T12:43:35Z</time>
      </trkpt>
      <trkpt lat="49.14718" lon="4.07293">
        <ele>275.1</ele>
        <time>2026-08-20T12:43:40Z</time>
      </trkpt>
      <trkpt lat="49.14723" lon="4.07288">
        <ele>275.1</ele>
        <time>2026-08-20T12:43:46Z</time>
      </trkpt>
      <trkpt lat="49.14724" lon="4.07287">
        <ele>275.2</ele>
        <time>2026-08-20T12:43:51Z</time>
      </trkpt>
      <trkpt lat="49.14728" lon="4.07286">
        <ele>275.1</ele>
        <time>2026-08-20T12:43:56Z</time>
      </trkpt>
      <trkpt lat="49.14733" lon="4.07282">
        <ele>275.1</ele>
        <time>2026-08-20T12:44:02Z</time>
      </trkpt>
      <trkpt lat="49.14736" lon="4.07279">
        <ele>275.1</ele>
        <time>2026-08-20T12:44:07Z</time>
      </trkpt>
      <trkpt lat="49.14741" lon="4.07274">
        <ele>275.2</ele>
        <time>2026-08-20T12:44:12Z</time>
      </trkpt>
      <trkpt lat="49.14745" lon="4.07268">
        <ele>275.3</ele>
        <time>2026-08-20T12:44:18Z</time>
      </trkpt>
      <trkpt lat="49.14751" lon="4.07264">
        <ele>275.2</ele>
        <time>2026-08-20T12:44:23Z</time>
      </trkpt>
      <trkpt lat="49.14756" lon="4.0726">
        <ele>274.9</ele>
        <time>2026-08-20T12:44:28Z</time>
      </trkpt>
      <trkpt lat="49.1476" lon="4.07256">
        <ele>274.6</ele>
        <time>2026-08-20T12:44:34Z</time>
      </trkpt>
      <trkpt lat="49.14764" lon="4.07252">
        <ele>274.4</ele>
        <time>2026-08-20T12:44:39Z</time>
      </trkpt>
      <trkpt lat="49.14768" lon="4.07248">
        <ele>274</ele>
        <time>2026-08-20T12:44:44Z</time>
      </trkpt>
      <trkpt lat="49.14775" lon="4.07244">
        <ele>273</ele>
        <time>2026-08-20T12:44:50Z</time>
      </trkpt>
      <trkpt lat="49.1478" lon="4.07242">
        <ele>272.4</ele>
        <time>2026-08-20T12:44:55Z</time>
      </trkpt>
      <trkpt lat="49.14784" lon="4.0724">
        <ele>271.8</ele>
        <time>2026-08-20T12:45:00Z</time>
      </trkpt>
      <trkpt lat="49.14789" lon="4.07235">
        <ele>271.1</ele>
        <time>2026-08-20T12:45:06Z</time>
      </trkpt>
      <trkpt lat="49.14794" lon="4.07229">
        <ele>270.2</ele>
        <time>2026-08-20T12:45:11Z</time>
      </trkpt>
      <trkpt lat="49.14798" lon="4.07223">
        <ele>269.5</ele>
        <time>2026-08-20T12:45:16Z</time>
      </trkpt>
      <trkpt lat="49.14803" lon="4.07214">
        <ele>268.5</ele>
        <time>2026-08-20T12:45:22Z</time>
      </trkpt>
      <trkpt lat="49.14805" lon="4.07209">
        <ele>268.1</ele>
        <time>2026-08-20T12:45:27Z</time>
      </trkpt>
      <trkpt lat="49.14807" lon="4.07203">
        <ele>267.6</ele>
        <time>2026-08-20T12:45:32Z</time>
      </trkpt>
      <trkpt lat="49.14811" lon="4.07196">
        <ele>266.8</ele>
        <time>2026-08-20T12:45:38Z</time>
      </trkpt>
      <trkpt lat="49.14814" lon="4.07189">
        <ele>266.2</ele>
        <time>2026-08-20T12:45:43Z</time>
      </trkpt>
      <trkpt lat="49.14817" lon="4.07184">
        <ele>265.6</ele>
        <time>2026-08-20T12:45:48Z</time>
      </trkpt>
      <trkpt lat="49.1482" lon="4.07177">
        <ele>264.9</ele>
        <time>2026-08-20T12:45:54Z</time>
      </trkpt>
      <trkpt lat="49.14824" lon="4.0717">
        <ele>264.2</ele>
        <time>2026-08-20T12:45:59Z</time>
      </trkpt>
      <trkpt lat="49.14826" lon="4.07164">
        <ele>263.5</ele>
        <time>2026-08-20T12:46:04Z</time>
      </trkpt>
      <trkpt lat="49.14828" lon="4.07154">
        <ele>262.4</ele>
        <time>2026-08-20T12:46:10Z</time>
      </trkpt>
      <trkpt lat="49.14829" lon="4.07144">
        <ele>261.3</ele>
        <time>2026-08-20T12:46:15Z</time>
      </trkpt>
      <trkpt lat="49.14826" lon="4.07137">
        <ele>260.9</ele>
        <time>2026-08-20T12:46:20Z</time>
      </trkpt>
      <trkpt lat="49.14823" lon="4.07133">
        <ele>260.9</ele>
        <time>2026-08-20T12:46:26Z</time>
      </trkpt>
      <trkpt lat="49.14824" lon="4.0713">
        <ele>260.5</ele>
        <time>2026-08-20T12:46:31Z</time>
      </trkpt>
      <trkpt lat="49.14824" lon="4.0713">
        <ele>260.5</ele>
        <time>2026-08-20T12:46:36Z</time>
      </trkpt>
      <trkpt lat="49.14824" lon="4.0713">
        <ele>260.5</ele>
        <time>2026-08-20T12:46:42Z</time>
      </trkpt>
      <trkpt lat="49.14824" lon="4.0713">
        <ele>260.5</ele>
        <time>2026-08-20T12:46:47Z</time>
      </trkpt>
      <trkpt lat="49.14825" lon="4.07119">
        <ele>259.3</ele>
        <time>2026-08-20T12:46:52Z</time>
      </trkpt>
      <trkpt lat="49.14821" lon="4.0711">
        <ele>258.9</ele>
        <time>2026-08-20T12:46:58Z</time>
      </trkpt>
      <trkpt lat="49.14819" lon="4.07104">
        <ele>258.5</ele>
        <time>2026-08-20T12:47:03Z</time>
      </trkpt>
      <trkpt lat="49.14818" lon="4.07098">
        <ele>258.1</ele>
        <time>2026-08-20T12:47:08Z</time>
      </trkpt>
      <trkpt lat="49.14821" lon="4.07092">
        <ele>257.2</ele>
        <time>2026-08-20T12:47:14Z</time>
      </trkpt>
      <trkpt lat="49.14826" lon="4.07088">
        <ele>256.2</ele>
        <time>2026-08-20T12:47:19Z</time>
      </trkpt>
      <trkpt lat="49.14829" lon="4.07082">
        <ele>255.4</ele>
        <time>2026-08-20T12:47:24Z</time>
      </trkpt>
      <trkpt lat="49.14835" lon="4.07076">
        <ele>254.4</ele>
        <time>2026-08-20T12:47:30Z</time>
      </trkpt>
      <trkpt lat="49.14838" lon="4.07072">
        <ele>253.9</ele>
        <time>2026-08-20T12:47:35Z</time>
      </trkpt>
      <trkpt lat="49.14841" lon="4.07066">
        <ele>253.3</ele>
        <time>2026-08-20T12:47:40Z</time>
      </trkpt>
      <trkpt lat="49.14844" lon="4.07058">
        <ele>252.6</ele>
        <time>2026-08-20T12:47:46Z</time>
      </trkpt>
      <trkpt lat="49.14846" lon="4.07053">
        <ele>252.2</ele>
        <time>2026-08-20T12:47:51Z</time>
      </trkpt>
      <trkpt lat="49.14848" lon="4.07048">
        <ele>251.7</ele>
        <time>2026-08-20T12:47:56Z</time>
      </trkpt>
      <trkpt lat="49.14853" lon="4.07039">
        <ele>250.9</ele>
        <time>2026-08-20T12:48:02Z</time>
      </trkpt>
      <trkpt lat="49.14857" lon="4.07033">
        <ele>250.3</ele>
        <time>2026-08-20T12:48:07Z</time>
      </trkpt>
      <trkpt lat="49.14862" lon="4.07027">
        <ele>249.7</ele>
        <time>2026-08-20T12:48:12Z</time>
      </trkpt>
      <trkpt lat="49.14867" lon="4.07022">
        <ele>249.2</ele>
        <time>2026-08-20T12:48:18Z</time>
      </trkpt>
      <trkpt lat="49.14871" lon="4.07018">
        <ele>248.7</ele>
        <time>2026-08-20T12:48:23Z</time>
      </trkpt>
      <trkpt lat="49.14875" lon="4.07015">
        <ele>248.4</ele>
        <time>2026-08-20T12:48:28Z</time>
      </trkpt>
      <trkpt lat="49.14882" lon="4.07009">
        <ele>247.8</ele>
        <time>2026-08-20T12:48:34Z</time>
      </trkpt>
      <trkpt lat="49.14888" lon="4.07003">
        <ele>247.2</ele>
        <time>2026-08-20T12:48:39Z</time>
      </trkpt>
      <trkpt lat="49.14891" lon="4.06997">
        <ele>246.7</ele>
        <time>2026-08-20T12:48:44Z</time>
      </trkpt>
      <trkpt lat="49.14892" lon="4.06989">
        <ele>246.1</ele>
        <time>2026-08-20T12:48:50Z</time>
      </trkpt>
      <trkpt lat="49.14894" lon="4.06979">
        <ele>245.2</ele>
        <time>2026-08-20T12:48:55Z</time>
      </trkpt>
      <trkpt lat="49.14893" lon="4.06968">
        <ele>244.4</ele>
        <time>2026-08-20T12:49:00Z</time>
      </trkpt>
      <trkpt lat="49.14893" lon="4.06961">
        <ele>243.9</ele>
        <time>2026-08-20T12:49:06Z</time>
      </trkpt>
      <trkpt lat="49.14894" lon="4.06955">
        <ele>243.4</ele>
        <time>2026-08-20T12:49:11Z</time>
      </trkpt>
      <trkpt lat="49.14898" lon="4.06946">
        <ele>242.6</ele>
        <time>2026-08-20T12:49:16Z</time>
      </trkpt>
      <trkpt lat="49.14902" lon="4.06934">
        <ele>241.6</ele>
        <time>2026-08-20T12:49:22Z</time>
      </trkpt>
      <trkpt lat="49.14903" lon="4.06926">
        <ele>241</ele>
        <time>2026-08-20T12:49:27Z</time>
      </trkpt>
      <trkpt lat="49.14905" lon="4.06922">
        <ele>240.7</ele>
        <time>2026-08-20T12:49:32Z</time>
      </trkpt>
      <trkpt lat="49.14906" lon="4.0692">
        <ele>240.5</ele>
        <time>2026-08-20T12:49:38Z</time>
      </trkpt>
      <trkpt lat="49.14906" lon="4.06919">
        <ele>240.4</ele>
        <time>2026-08-20T12:49:43Z</time>
      </trkpt>
      <trkpt lat="49.14906" lon="4.06919">
        <ele>240.4</ele>
        <time>2026-08-20T12:49:48Z</time>
      </trkpt>
      <trkpt lat="49.14906" lon="4.06919">
        <ele>240.4</ele>
        <time>2026-08-20T12:49:54Z</time>
      </trkpt>
      <trkpt lat="49.14906" lon="4.06919">
        <ele>240.4</ele>
        <time>2026-08-20T12:49:59Z</time>
      </trkpt>
      <trkpt lat="49.14906" lon="4.06919">
        <ele>240.4</ele>
        <time>2026-08-20T12:50:04Z</time>
      </trkpt>
      <trkpt lat="49.14906" lon="4.06919">
        <ele>240.4</ele>
        <time>2026-08-20T12:50:10Z</time>
      </trkpt>
      <trkpt lat="49.14906" lon="4.06919">
        <ele>240.4</ele>
        <time>2026-08-20T12:50:15Z</time>
      </trkpt>
      <trkpt lat="49.14906" lon="4.06919">
        <ele>240.4</ele>
        <time>2026-08-20T12:50:20Z</time>
      </trkpt>
      <trkpt lat="49.14906" lon="4.06919">
        <ele>240.4</ele>
        <time>2026-08-20T12:50:26Z</time>
      </trkpt>
      <trkpt lat="49.14906" lon="4.06919">
        <ele>240.4</ele>
        <time>2026-08-20T12:50:31Z</time>
      </trkpt>
      <trkpt lat="49.14906" lon="4.06919">
        <ele>240.4</ele>
        <time>2026-08-20T12:50:36Z</time>
      </trkpt>
      <trkpt lat="49.14906" lon="4.06919">
        <ele>240.4</ele>
        <time>2026-08-20T12:50:42Z</time>
      </trkpt>
      <trkpt lat="49.14914" lon="4.06917">
        <ele>240.1</ele>
        <time>2026-08-20T12:50:47Z</time>
      </trkpt>
      <trkpt lat="49.14918" lon="4.06912">
        <ele>239.7</ele>
        <time>2026-08-20T12:50:52Z</time>
      </trkpt>
      <trkpt lat="49.14922" lon="4.06906">
        <ele>239.2</ele>
        <time>2026-08-20T12:50:58Z</time>
      </trkpt>
      <trkpt lat="49.14926" lon="4.06898">
        <ele>238.6</ele>
        <time>2026-08-20T12:51:03Z</time>
      </trkpt>
      <trkpt lat="49.14929" lon="4.06893">
        <ele>238.2</ele>
        <time>2026-08-20T12:51:08Z</time>
      </trkpt>
      <trkpt lat="49.14927" lon="4.06881">
        <ele>237.6</ele>
        <time>2026-08-20T12:51:14Z</time>
      </trkpt>
      <trkpt lat="49.14926" lon="4.06874">
        <ele>237.2</ele>
        <time>2026-08-20T12:51:19Z</time>
      </trkpt>
      <trkpt lat="49.14924" lon="4.06867">
        <ele>236.8</ele>
        <time>2026-08-20T12:51:24Z</time>
      </trkpt>
      <trkpt lat="49.14925" lon="4.06859">
        <ele>236.3</ele>
        <time>2026-08-20T12:51:30Z</time>
      </trkpt>
      <trkpt lat="49.14926" lon="4.06853">
        <ele>235.9</ele>
        <time>2026-08-20T12:51:35Z</time>
      </trkpt>
      <trkpt lat="49.14927" lon="4.06846">
        <ele>235.4</ele>
        <time>2026-08-20T12:51:40Z</time>
      </trkpt>
      <trkpt lat="49.14928" lon="4.06837">
        <ele>234.8</ele>
        <time>2026-08-20T12:51:46Z</time>
      </trkpt>
      <trkpt lat="49.14929" lon="4.06829">
        <ele>234.2</ele>
        <time>2026-08-20T12:51:51Z</time>
      </trkpt>
      <trkpt lat="49.14929" lon="4.06822">
        <ele>233.6</ele>
        <time>2026-08-20T12:51:56Z</time>
      </trkpt>
      <trkpt lat="49.14928" lon="4.06814">
        <ele>233</ele>
        <time>2026-08-20T12:52:02Z</time>
      </trkpt>
      <trkpt lat="49.1493" lon="4.06808">
        <ele>232.4</ele>
        <time>2026-08-20T12:52:07Z</time>
      </trkpt>
      <trkpt lat="49.14936" lon="4.06801">
        <ele>231.6</ele>
        <time>2026-08-20T12:52:12Z</time>
      </trkpt>
      <trkpt lat="49.14941" lon="4.06796">
        <ele>231</ele>
        <time>2026-08-20T12:52:18Z</time>
      </trkpt>
      <trkpt lat="49.14946" lon="4.06794">
        <ele>230.6</ele>
        <time>2026-08-20T12:52:23Z</time>
      </trkpt>
      <trkpt lat="49.14947" lon="4.0679">
        <ele>230.3</ele>
        <time>2026-08-20T12:52:28Z</time>
      </trkpt>
      <trkpt lat="49.14947" lon="4.06783">
        <ele>229.7</ele>
        <time>2026-08-20T12:52:34Z</time>
      </trkpt>
      <trkpt lat="49.14951" lon="4.06778">
        <ele>229.1</ele>
        <time>2026-08-20T12:52:39Z</time>
      </trkpt>
      <trkpt lat="49.14957" lon="4.06773">
        <ele>228.5</ele>
        <time>2026-08-20T12:52:44Z</time>
      </trkpt>
      <trkpt lat="49.14959" lon="4.06764">
        <ele>227.7</ele>
        <time>2026-08-20T12:52:50Z</time>
      </trkpt>
      <trkpt lat="49.14956" lon="4.06756">
        <ele>227.1</ele>
        <time>2026-08-20T12:52:55Z</time>
      </trkpt>
      <trkpt lat="49.14954" lon="4.06749">
        <ele>226.6</ele>
        <time>2026-08-20T12:53:00Z</time>
      </trkpt>
      <trkpt lat="49.14957" lon="4.06744">
        <ele>226.2</ele>
        <time>2026-08-20T12:53:06Z</time>
      </trkpt>
      <trkpt lat="49.14963" lon="4.06744">
        <ele>225.9</ele>
        <time>2026-08-20T12:53:11Z</time>
      </trkpt>
      <trkpt lat="49.14968" lon="4.06744">
        <ele>225.7</ele>
        <time>2026-08-20T12:53:16Z</time>
      </trkpt>
      <trkpt lat="49.14973" lon="4.06744">
        <ele>225.5</ele>
        <time>2026-08-20T12:53:22Z</time>
      </trkpt>
      <trkpt lat="49.14973" lon="4.06744">
        <ele>225.5</ele>
        <time>2026-08-20T12:53:27Z</time>
      </trkpt>
      <trkpt lat="49.14973" lon="4.06744">
        <ele>225.5</ele>
        <time>2026-08-20T12:53:32Z</time>
      </trkpt>
      <trkpt lat="49.14973" lon="4.06744">
        <ele>225.5</ele>
        <time>2026-08-20T12:53:38Z</time>
      </trkpt>
      <trkpt lat="49.14973" lon="4.06744">
        <ele>225.5</ele>
        <time>2026-08-20T12:53:43Z</time>
      </trkpt>
      <trkpt lat="49.14973" lon="4.06744">
        <ele>225.5</ele>
        <time>2026-08-20T12:53:48Z</time>
      </trkpt>
      <trkpt lat="49.14977" lon="4.06738">
        <ele>224.9</ele>
        <time>2026-08-20T12:53:54Z</time>
      </trkpt>
      <trkpt lat="49.14982" lon="4.06738">
        <ele>224.7</ele>
        <time>2026-08-20T12:53:59Z</time>
      </trkpt>
      <trkpt lat="49.14986" lon="4.06732">
        <ele>224</ele>
        <time>2026-08-20T12:54:04Z</time>
      </trkpt>
      <trkpt lat="49.14991" lon="4.06726">
        <ele>223.2</ele>
        <time>2026-08-20T12:54:10Z</time>
      </trkpt>
      <trkpt lat="49.14992" lon="4.06718">
        <ele>222.4</ele>
        <time>2026-08-20T12:54:15Z</time>
      </trkpt>
      <trkpt lat="49.14994" lon="4.06712">
        <ele>221.7</ele>
        <time>2026-08-20T12:54:20Z</time>
      </trkpt>
      <trkpt lat="49.15" lon="4.06705">
        <ele>220.7</ele>
        <time>2026-08-20T12:54:26Z</time>
      </trkpt>
      <trkpt lat="49.15003" lon="4.06699">
        <ele>220</ele>
        <time>2026-08-20T12:54:31Z</time>
      </trkpt>
      <trkpt lat="49.15007" lon="4.06694">
        <ele>219.3</ele>
        <time>2026-08-20T12:54:36Z</time>
      </trkpt>
      <trkpt lat="49.15011" lon="4.06692">
        <ele>218.8</ele>
        <time>2026-08-20T12:54:42Z</time>
      </trkpt>
      <trkpt lat="49.15016" lon="4.06691">
        <ele>218.5</ele>
        <time>2026-08-20T12:54:47Z</time>
      </trkpt>
      <trkpt lat="49.15022" lon="4.06688">
        <ele>217.8</ele>
        <time>2026-08-20T12:54:52Z</time>
      </trkpt>
      <trkpt lat="49.15027" lon="4.06681">
        <ele>216.7</ele>
        <time>2026-08-20T12:54:58Z</time>
      </trkpt>
      <trkpt lat="49.1503" lon="4.06675">
        <ele>215.8</ele>
        <time>2026-08-20T12:55:03Z</time>
      </trkpt>
      <trkpt lat="49.15031" lon="4.06668">
        <ele>214.9</ele>
        <time>2026-08-20T12:55:08Z</time>
      </trkpt>
      <trkpt lat="49.15028" lon="4.06659">
        <ele>215.1</ele>
        <time>2026-08-20T12:55:14Z</time>
      </trkpt>
      <trkpt lat="49.15026" lon="4.06652">
        <ele>215.3</ele>
        <time>2026-08-20T12:55:19Z</time>
      </trkpt>
      <trkpt lat="49.15028" lon="4.06644">
        <ele>215.3</ele>
        <time>2026-08-20T12:55:24Z</time>
      </trkpt>
      <trkpt lat="49.1503" lon="4.06644">
        <ele>215.1</ele>
        <time>2026-08-20T12:55:30Z</time>
      </trkpt>
      <trkpt lat="49.1503" lon="4.06644">
        <ele>215.1</ele>
        <time>2026-08-20T12:55:35Z</time>
      </trkpt>
      <trkpt lat="49.1503" lon="4.06644">
        <ele>215.1</ele>
        <time>2026-08-20T12:55:40Z</time>
      </trkpt>
      <trkpt lat="49.1503" lon="4.06644">
        <ele>215.1</ele>
        <time>2026-08-20T12:55:46Z</time>
      </trkpt>
      <trkpt lat="49.1503" lon="4.06644">
        <ele>215.1</ele>
        <time>2026-08-20T12:55:51Z</time>
      </trkpt>
      <trkpt lat="49.1503" lon="4.06644">
        <ele>215.1</ele>
        <time>2026-08-20T12:55:56Z</time>
      </trkpt>
      <trkpt lat="49.15038" lon="4.06642">
        <ele>214.5</ele>
        <time>2026-08-20T12:56:02Z</time>
      </trkpt>
      <trkpt lat="49.15038" lon="4.06642">
        <ele>214.5</ele>
        <time>2026-08-20T12:56:07Z</time>
      </trkpt>
      <trkpt lat="49.15038" lon="4.06642">
        <ele>214.5</ele>
        <time>2026-08-20T12:56:12Z</time>
      </trkpt>
      <trkpt lat="49.15041" lon="4.06639">
        <ele>214.2</ele>
        <time>2026-08-20T12:56:18Z</time>
      </trkpt>
      <trkpt lat="49.15046" lon="4.06634">
        <ele>213.8</ele>
        <time>2026-08-20T12:56:23Z</time>
      </trkpt>
      <trkpt lat="49.15051" lon="4.06629">
        <ele>213.4</ele>
        <time>2026-08-20T12:56:28Z</time>
      </trkpt>
      <trkpt lat="49.15056" lon="4.06621">
        <ele>213</ele>
        <time>2026-08-20T12:56:34Z</time>
      </trkpt>
      <trkpt lat="49.15057" lon="4.06614">
        <ele>212.9</ele>
        <time>2026-08-20T12:56:39Z</time>
      </trkpt>
      <trkpt lat="49.1506" lon="4.06609">
        <ele>212.6</ele>
        <time>2026-08-20T12:56:44Z</time>
      </trkpt>
      <trkpt lat="49.15062" lon="4.06604">
        <ele>212.4</ele>
        <time>2026-08-20T12:56:50Z</time>
      </trkpt>
      <trkpt lat="49.15062" lon="4.06597">
        <ele>212.3</ele>
        <time>2026-08-20T12:56:55Z</time>
      </trkpt>
      <trkpt lat="49.15065" lon="4.06596">
        <ele>212</ele>
        <time>2026-08-20T12:57:00Z</time>
      </trkpt>
      <trkpt lat="49.15069" lon="4.06596">
        <ele>211.6</ele>
        <time>2026-08-20T12:57:06Z</time>
      </trkpt>
      <trkpt lat="49.15074" lon="4.06592">
        <ele>211.1</ele>
        <time>2026-08-20T12:57:11Z</time>
      </trkpt>
      <trkpt lat="49.15079" lon="4.06587">
        <ele>210.5</ele>
        <time>2026-08-20T12:57:16Z</time>
      </trkpt>
      <trkpt lat="49.15084" lon="4.06582">
        <ele>210</ele>
        <time>2026-08-20T12:57:22Z</time>
      </trkpt>
      <trkpt lat="49.15088" lon="4.06578">
        <ele>209.9</ele>
        <time>2026-08-20T12:57:27Z</time>
      </trkpt>
      <trkpt lat="49.15093" lon="4.06574">
        <ele>209.7</ele>
        <time>2026-08-20T12:57:32Z</time>
      </trkpt>
      <trkpt lat="49.15097" lon="4.06567">
        <ele>209.7</ele>
        <time>2026-08-20T12:57:38Z</time>
      </trkpt>
      <trkpt lat="49.15102" lon="4.06563">
        <ele>209.5</ele>
        <time>2026-08-20T12:57:43Z</time>
      </trkpt>
      <trkpt lat="49.15104" lon="4.0656">
        <ele>209.5</ele>
        <time>2026-08-20T12:57:48Z</time>
      </trkpt>
      <trkpt lat="49.15109" lon="4.06554">
        <ele>209.3</ele>
        <time>2026-08-20T12:57:54Z</time>
      </trkpt>
      <trkpt lat="49.15114" lon="4.06549">
        <ele>209</ele>
        <time>2026-08-20T12:57:59Z</time>
      </trkpt>
      <trkpt lat="49.15118" lon="4.06547">
        <ele>208.7</ele>
        <time>2026-08-20T12:58:04Z</time>
      </trkpt>
      <trkpt lat="49.15121" lon="4.06547">
        <ele>208.4</ele>
        <time>2026-08-20T12:58:10Z</time>
      </trkpt>
      <trkpt lat="49.15122" lon="4.06547">
        <ele>208.3</ele>
        <time>2026-08-20T12:58:15Z</time>
      </trkpt>
      <trkpt lat="49.15122" lon="4.06547">
        <ele>208.3</ele>
        <time>2026-08-20T12:58:20Z</time>
      </trkpt>
      <trkpt lat="49.15122" lon="4.06547">
        <ele>208.3</ele>
        <time>2026-08-20T12:58:26Z</time>
      </trkpt>
      <trkpt lat="49.15122" lon="4.06547">
        <ele>208.3</ele>
        <time>2026-08-20T12:58:31Z</time>
      </trkpt>
      <trkpt lat="49.15122" lon="4.06547">
        <ele>208.3</ele>
        <time>2026-08-20T12:58:36Z</time>
      </trkpt>
      <trkpt lat="49.15122" lon="4.06547">
        <ele>208.3</ele>
        <time>2026-08-20T12:58:42Z</time>
      </trkpt>
      <trkpt lat="49.15122" lon="4.06547">
        <ele>208.3</ele>
        <time>2026-08-20T12:58:47Z</time>
      </trkpt>
      <trkpt lat="49.15122" lon="4.06547">
        <ele>208.3</ele>
        <time>2026-08-20T12:58:52Z</time>
      </trkpt>
      <trkpt lat="49.15122" lon="4.06547">
        <ele>208.3</ele>
        <time>2026-08-20T12:58:58Z</time>
      </trkpt>
      <trkpt lat="49.15124" lon="4.06542">
        <ele>208.3</ele>
        <time>2026-08-20T12:59:03Z</time>
      </trkpt>
      <trkpt lat="49.1513" lon="4.06536">
        <ele>208</ele>
        <time>2026-08-20T12:59:08Z</time>
      </trkpt>
      <trkpt lat="49.15139" lon="4.06532">
        <ele>207.2</ele>
        <time>2026-08-20T12:59:14Z</time>
      </trkpt>
      <trkpt lat="49.15144" lon="4.06532">
        <ele>206.6</ele>
        <time>2026-08-20T12:59:19Z</time>
      </trkpt>
      <trkpt lat="49.15149" lon="4.06528">
        <ele>206.2</ele>
        <time>2026-08-20T12:59:24Z</time>
      </trkpt>
      <trkpt lat="49.15155" lon="4.06526">
        <ele>205.6</ele>
        <time>2026-08-20T12:59:30Z</time>
      </trkpt>
      <trkpt lat="49.15159" lon="4.06525">
        <ele>205.2</ele>
        <time>2026-08-20T12:59:35Z</time>
      </trkpt>
      <trkpt lat="49.15162" lon="4.06522">
        <ele>205</ele>
        <time>2026-08-20T12:59:40Z</time>
      </trkpt>
      <trkpt lat="49.15166" lon="4.0652">
        <ele>204.6</ele>
        <time>2026-08-20T12:59:46Z</time>
      </trkpt>
      <trkpt lat="49.15172" lon="4.06516">
        <ele>203.6</ele>
        <time>2026-08-20T12:59:51Z</time>
      </trkpt>
      <trkpt lat="49.15176" lon="4.06516">
        <ele>202.8</ele>
        <time>2026-08-20T12:59:56Z</time>
      </trkpt>
      <trkpt lat="49.15179" lon="4.06516">
        <ele>202.3</ele>
        <time>2026-08-20T13:00:02Z</time>
      </trkpt>
      <trkpt lat="49.15182" lon="4.06515">
        <ele>201.7</ele>
        <time>2026-08-20T13:00:07Z</time>
      </trkpt>
      <trkpt lat="49.15184" lon="4.06516">
        <ele>201.3</ele>
        <time>2026-08-20T13:00:12Z</time>
      </trkpt>
      <trkpt lat="49.15184" lon="4.06516">
        <ele>201.3</ele>
        <time>2026-08-20T13:00:18Z</time>
      </trkpt>
      <trkpt lat="49.15184" lon="4.06516">
        <ele>201.3</ele>
        <time>2026-08-20T13:00:23Z</time>
      </trkpt>
      <trkpt lat="49.15184" lon="4.06516">
        <ele>201.3</ele>
        <time>2026-08-20T13:00:28Z</time>
      </trkpt>
      <trkpt lat="49.15182" lon="4.06511">
        <ele>201.8</ele>
        <time>2026-08-20T13:00:34Z</time>
      </trkpt>
      <trkpt lat="49.15185" lon="4.06508">
        <ele>201.3</ele>
        <time>2026-08-20T13:00:39Z</time>
      </trkpt>
      <trkpt lat="49.1519" lon="4.06502">
        <ele>200.5</ele>
        <time>2026-08-20T13:00:44Z</time>
      </trkpt>
      <trkpt lat="49.15196" lon="4.06494">
        <ele>199.1</ele>
        <time>2026-08-20T13:00:50Z</time>
      </trkpt>
      <trkpt lat="49.15199" lon="4.06489">
        <ele>198.3</ele>
        <time>2026-08-20T13:00:55Z</time>
      </trkpt>
      <trkpt lat="49.15205" lon="4.06484">
        <ele>197</ele>
        <time>2026-08-20T13:01:00Z</time>
      </trkpt>
      <trkpt lat="49.15208" lon="4.06478">
        <ele>196.1</ele>
        <time>2026-08-20T13:01:06Z</time>
      </trkpt>
      <trkpt lat="49.15209" lon="4.06477">
        <ele>195.9</ele>
        <time>2026-08-20T13:01:11Z</time>
      </trkpt>
      <trkpt lat="49.15209" lon="4.06477">
        <ele>195.9</ele>
        <time>2026-08-20T13:01:16Z</time>
      </trkpt>
      <trkpt lat="49.15209" lon="4.06477">
        <ele>195.9</ele>
        <time>2026-08-20T13:01:22Z</time>
      </trkpt>
      <trkpt lat="49.15209" lon="4.06477">
        <ele>195.9</ele>
        <time>2026-08-20T13:01:27Z</time>
      </trkpt>
      <trkpt lat="49.15209" lon="4.06477">
        <ele>195.9</ele>
        <time>2026-08-20T13:01:32Z</time>
      </trkpt>
      <trkpt lat="49.15209" lon="4.06477">
        <ele>195.9</ele>
        <time>2026-08-20T13:01:38Z</time>
      </trkpt>
      <trkpt lat="49.15209" lon="4.06477">
        <ele>195.9</ele>
        <time>2026-08-20T13:01:43Z</time>
      </trkpt>
      <trkpt lat="49.15209" lon="4.06477">
        <ele>195.9</ele>
        <time>2026-08-20T13:01:48Z</time>
      </trkpt>
      <trkpt lat="49.15209" lon="4.06477">
        <ele>195.9</ele>
        <time>2026-08-20T13:01:54Z</time>
      </trkpt>
      <trkpt lat="49.15209" lon="4.06477">
        <ele>195.9</ele>
        <time>2026-08-20T13:01:59Z</time>
      </trkpt>
      <trkpt lat="49.15209" lon="4.06477">
        <ele>195.9</ele>
        <time>2026-08-20T13:02:04Z</time>
      </trkpt>
      <trkpt lat="49.15209" lon="4.06477">
        <ele>195.9</ele>
        <time>2026-08-20T13:02:10Z</time>
      </trkpt>
      <trkpt lat="49.15209" lon="4.06477">
        <ele>195.9</ele>
        <time>2026-08-20T13:02:15Z</time>
      </trkpt>
      <trkpt lat="49.15209" lon="4.06477">
        <ele>195.9</ele>
        <time>2026-08-20T13:02:20Z</time>
      </trkpt>
      <trkpt lat="49.15209" lon="4.06477">
        <ele>195.9</ele>
        <time>2026-08-20T13:02:26Z</time>
      </trkpt>
      <trkpt lat="49.15209" lon="4.06477">
        <ele>195.9</ele>
        <time>2026-08-20T13:02:31Z</time>
      </trkpt>
      <trkpt lat="49.15209" lon="4.06477">
        <ele>195.9</ele>
        <time>2026-08-20T13:02:36Z</time>
      </trkpt>
      <trkpt lat="49.15209" lon="4.06477">
        <ele>195.9</ele>
        <time>2026-08-20T13:02:42Z</time>
      </trkpt>
      <trkpt lat="49.15209" lon="4.06477">
        <ele>195.9</ele>
        <time>2026-08-20T13:02:47Z</time>
      </trkpt>
      <trkpt lat="49.15209" lon="4.06477">
        <ele>195.9</ele>
        <time>2026-08-20T13:02:52Z</time>
      </trkpt>
      <trkpt lat="49.15209" lon="4.06477">
        <ele>195.9</ele>
        <time>2026-08-20T13:02:58Z</time>
      </trkpt>
      <trkpt lat="49.15209" lon="4.06477">
        <ele>195.9</ele>
        <time>2026-08-20T13:03:03Z</time>
      </trkpt>
      <trkpt lat="49.15209" lon="4.06477">
        <ele>195.9</ele>
        <time>2026-08-20T13:03:08Z</time>
      </trkpt>
      <trkpt lat="49.15209" lon="4.06477">
        <ele>195.9</ele>
        <time>2026-08-20T13:03:14Z</time>
      </trkpt>
      <trkpt lat="49.15209" lon="4.06477">
        <ele>195.9</ele>
        <time>2026-08-20T13:03:19Z</time>
      </trkpt>
      <trkpt lat="49.15209" lon="4.06477">
        <ele>195.9</ele>
        <time>2026-08-20T13:03:24Z</time>
      </trkpt>
      <trkpt lat="49.15209" lon="4.06477">
        <ele>195.9</ele>
        <time>2026-08-20T13:03:30Z</time>
      </trkpt>
      <trkpt lat="49.15209" lon="4.06477">
        <ele>195.9</ele>
        <time>2026-08-20T13:03:35Z</time>
      </trkpt>
      <trkpt lat="49.15209" lon="4.06477">
        <ele>195.9</ele>
        <time>2026-08-20T13:03:40Z</time>
      </trkpt>
      <trkpt lat="49.15209" lon="4.06477">
        <ele>195.9</ele>
        <time>2026-08-20T13:03:46Z</time>
      </trkpt>
      <trkpt lat="49.15209" lon="4.06477">
        <ele>195.9</ele>
        <time>2026-08-20T13:03:51Z</time>
      </trkpt>
      <trkpt lat="49.15209" lon="4.06477">
        <ele>195.9</ele>
        <time>2026-08-20T13:03:56Z</time>
      </trkpt>
      <trkpt lat="49.15212" lon="4.0647">
        <ele>195.1</ele>
        <time>2026-08-20T13:04:02Z</time>
      </trkpt>
      <trkpt lat="49.15219" lon="4.06464">
        <ele>193.5</ele>
        <time>2026-08-20T13:04:07Z</time>
      </trkpt>
      <trkpt lat="49.15222" lon="4.06461">
        <ele>192.8</ele>
        <time>2026-08-20T13:04:12Z</time>
      </trkpt>
      <trkpt lat="49.15222" lon="4.0646">
        <ele>192.8</ele>
        <time>2026-08-20T13:04:18Z</time>
      </trkpt>
      <trkpt lat="49.15222" lon="4.06459">
        <ele>192.7</ele>
        <time>2026-08-20T13:04:23Z</time>
      </trkpt>
      <trkpt lat="49.15224" lon="4.06457">
        <ele>192.3</ele>
        <time>2026-08-20T13:04:28Z</time>
      </trkpt>
      <trkpt lat="49.15229" lon="4.0645">
        <ele>191.1</ele>
        <time>2026-08-20T13:04:34Z</time>
      </trkpt>
      <trkpt lat="49.15233" lon="4.06445">
        <ele>190.1</ele>
        <time>2026-08-20T13:04:39Z</time>
      </trkpt>
      <trkpt lat="49.15236" lon="4.06438">
        <ele>189.3</ele>
        <time>2026-08-20T13:04:44Z</time>
      </trkpt>
      <trkpt lat="49.15241" lon="4.06432">
        <ele>188.2</ele>
        <time>2026-08-20T13:04:50Z</time>
      </trkpt>
      <trkpt lat="49.15245" lon="4.06426">
        <ele>187.2</ele>
        <time>2026-08-20T13:04:55Z</time>
      </trkpt>
      <trkpt lat="49.15247" lon="4.06418">
        <ele>186.6</ele>
        <time>2026-08-20T13:05:00Z</time>
      </trkpt>
      <trkpt lat="49.15252" lon="4.0641">
        <ele>186.1</ele>
        <time>2026-08-20T13:05:06Z</time>
      </trkpt>
      <trkpt lat="49.15256" lon="4.06405">
        <ele>186</ele>
        <time>2026-08-20T13:05:11Z</time>
      </trkpt>
      <trkpt lat="49.1526" lon="4.06399">
        <ele>185.9</ele>
        <time>2026-08-20T13:05:16Z</time>
      </trkpt>
      <trkpt lat="49.15266" lon="4.06395">
        <ele>185.6</ele>
        <time>2026-08-20T13:05:22Z</time>
      </trkpt>
      <trkpt lat="49.15271" lon="4.06389">
        <ele>185.4</ele>
        <time>2026-08-20T13:05:27Z</time>
      </trkpt>
      <trkpt lat="49.15276" lon="4.06384">
        <ele>185.2</ele>
        <time>2026-08-20T13:05:32Z</time>
      </trkpt>
      <trkpt lat="49.15283" lon="4.06379">
        <ele>184.8</ele>
        <time>2026-08-20T13:05:38Z</time>
      </trkpt>
      <trkpt lat="49.15288" lon="4.06376">
        <ele>184.5</ele>
        <time>2026-08-20T13:05:43Z</time>
      </trkpt>
      <trkpt lat="49.15293" lon="4.06376">
        <ele>184.1</ele>
        <time>2026-08-20T13:05:48Z</time>
      </trkpt>
      <trkpt lat="49.15299" lon="4.06374">
        <ele>183.7</ele>
        <time>2026-08-20T13:05:54Z</time>
      </trkpt>
      <trkpt lat="49.15303" lon="4.06372">
        <ele>183.5</ele>
        <time>2026-08-20T13:05:59Z</time>
      </trkpt>
      <trkpt lat="49.15309" lon="4.0637">
        <ele>183</ele>
        <time>2026-08-20T13:06:04Z</time>
      </trkpt>
      <trkpt lat="49.15316" lon="4.06369">
        <ele>182.5</ele>
        <time>2026-08-20T13:06:10Z</time>
      </trkpt>
      <trkpt lat="49.15321" lon="4.06367">
        <ele>182.2</ele>
        <time>2026-08-20T13:06:15Z</time>
      </trkpt>
      <trkpt lat="49.15326" lon="4.06365">
        <ele>181.8</ele>
        <time>2026-08-20T13:06:20Z</time>
      </trkpt>
      <trkpt lat="49.15333" lon="4.06364">
        <ele>181.3</ele>
        <time>2026-08-20T13:06:26Z</time>
      </trkpt>
      <trkpt lat="49.15338" lon="4.06362">
        <ele>181.1</ele>
        <time>2026-08-20T13:06:31Z</time>
      </trkpt>
      <trkpt lat="49.15343" lon="4.0636">
        <ele>180.9</ele>
        <time>2026-08-20T13:06:36Z</time>
      </trkpt>
      <trkpt lat="49.15346" lon="4.06358">
        <ele>180.8</ele>
        <time>2026-08-20T13:06:42Z</time>
      </trkpt>
      <trkpt lat="49.15351" lon="4.06359">
        <ele>180.5</ele>
        <time>2026-08-20T13:06:47Z</time>
      </trkpt>
      <trkpt lat="49.15356" lon="4.06359">
        <ele>180.2</ele>
        <time>2026-08-20T13:06:52Z</time>
      </trkpt>
      <trkpt lat="49.15362" lon="4.06357">
        <ele>180</ele>
        <time>2026-08-20T13:06:58Z</time>
      </trkpt>
      <trkpt lat="49.15365" lon="4.06356">
        <ele>179.8</ele>
        <time>2026-08-20T13:07:03Z</time>
      </trkpt>
      <trkpt lat="49.15369" lon="4.06356">
        <ele>179.6</ele>
        <time>2026-08-20T13:07:08Z</time>
      </trkpt>
      <trkpt lat="49.15376" lon="4.06354">
        <ele>179.3</ele>
        <time>2026-08-20T13:07:14Z</time>
      </trkpt>
      <trkpt lat="49.15383" lon="4.06353">
        <ele>179</ele>
        <time>2026-08-20T13:07:19Z</time>
      </trkpt>
      <trkpt lat="49.15388" lon="4.06351">
        <ele>178.8</ele>
        <time>2026-08-20T13:07:24Z</time>
      </trkpt>
      <trkpt lat="49.15397" lon="4.06347">
        <ele>178.5</ele>
        <time>2026-08-20T13:07:30Z</time>
      </trkpt>
      <trkpt lat="49.15402" lon="4.06338">
        <ele>178.5</ele>
        <time>2026-08-20T13:07:35Z</time>
      </trkpt>
      <trkpt lat="49.15403" lon="4.06337">
        <ele>178.5</ele>
        <time>2026-08-20T13:07:40Z</time>
      </trkpt>
      <trkpt lat="49.15403" lon="4.06337">
        <ele>178.5</ele>
        <time>2026-08-20T13:07:46Z</time>
      </trkpt>
      <trkpt lat="49.15403" lon="4.06337">
        <ele>178.5</ele>
        <time>2026-08-20T13:07:51Z</time>
      </trkpt>
      <trkpt lat="49.15403" lon="4.06337">
        <ele>178.5</ele>
        <time>2026-08-20T13:07:56Z</time>
      </trkpt>
      <trkpt lat="49.15399" lon="4.06333">
        <ele>178.9</ele>
        <time>2026-08-20T13:08:02Z</time>
      </trkpt>
      <trkpt lat="49.15399" lon="4.06333">
        <ele>178.9</ele>
        <time>2026-08-20T13:08:07Z</time>
      </trkpt>
      <trkpt lat="49.15399" lon="4.06333">
        <ele>178.9</ele>
        <time>2026-08-20T13:08:12Z</time>
      </trkpt>
      <trkpt lat="49.15399" lon="4.06333">
        <ele>178.9</ele>
        <time>2026-08-20T13:08:18Z</time>
      </trkpt>
      <trkpt lat="49.15399" lon="4.06333">
        <ele>178.9</ele>
        <time>2026-08-20T13:08:23Z</time>
      </trkpt>
      <trkpt lat="49.15399" lon="4.06333">
        <ele>178.9</ele>
        <time>2026-08-20T13:08:28Z</time>
      </trkpt>
      <trkpt lat="49.15399" lon="4.06333">
        <ele>178.9</ele>
        <time>2026-08-20T13:08:34Z</time>
      </trkpt>
      <trkpt lat="49.15399" lon="4.06333">
        <ele>178.9</ele>
        <time>2026-08-20T13:08:39Z</time>
      </trkpt>
      <trkpt lat="49.15399" lon="4.06333">
        <ele>178.9</ele>
        <time>2026-08-20T13:08:44Z</time>
      </trkpt>
      <trkpt lat="49.15399" lon="4.06333">
        <ele>178.9</ele>
        <time>2026-08-20T13:08:50Z</time>
      </trkpt>
      <trkpt lat="49.15402" lon="4.06337">
        <ele>178.6</ele>
        <time>2026-08-20T13:08:55Z</time>
      </trkpt>
      <trkpt lat="49.15407" lon="4.06331">
        <ele>178.7</ele>
        <time>2026-08-20T13:09:00Z</time>
      </trkpt>
      <trkpt lat="49.15411" lon="4.06325">
        <ele>179</ele>
        <time>2026-08-20T13:09:06Z</time>
      </trkpt>
      <trkpt lat="49.15414" lon="4.06322">
        <ele>179.1</ele>
        <time>2026-08-20T13:09:11Z</time>
      </trkpt>
      <trkpt lat="49.15419" lon="4.06322">
        <ele>178.8</ele>
        <time>2026-08-20T13:09:16Z</time>
      </trkpt>
      <trkpt lat="49.15426" lon="4.06321">
        <ele>178.6</ele>
        <time>2026-08-20T13:09:22Z</time>
      </trkpt>
      <trkpt lat="49.15431" lon="4.0632">
        <ele>178.4</ele>
        <time>2026-08-20T13:09:27Z</time>
      </trkpt>
      <trkpt lat="49.15437" lon="4.06315">
        <ele>178.5</ele>
        <time>2026-08-20T13:09:32Z</time>
      </trkpt>
      <trkpt lat="49.15442" lon="4.06306">
        <ele>179</ele>
        <time>2026-08-20T13:09:38Z</time>
      </trkpt>
      <trkpt lat="49.15446" lon="4.06298">
        <ele>179.4</ele>
        <time>2026-08-20T13:09:43Z</time>
      </trkpt>
      <trkpt lat="49.1545" lon="4.06291">
        <ele>179.8</ele>
        <time>2026-08-20T13:09:48Z</time>
      </trkpt>
      <trkpt lat="49.15454" lon="4.06284">
        <ele>180.1</ele>
        <time>2026-08-20T13:09:54Z</time>
      </trkpt>
      <trkpt lat="49.15457" lon="4.06275">
        <ele>180.6</ele>
        <time>2026-08-20T13:09:59Z</time>
      </trkpt>
      <trkpt lat="49.1546" lon="4.06266">
        <ele>181.2</ele>
        <time>2026-08-20T13:10:04Z</time>
      </trkpt>
      <trkpt lat="49.15463" lon="4.06256">
        <ele>181.8</ele>
        <time>2026-08-20T13:10:10Z</time>
      </trkpt>
      <trkpt lat="49.15467" lon="4.06251">
        <ele>181.9</ele>
        <time>2026-08-20T13:10:15Z</time>
      </trkpt>
      <trkpt lat="49.1547" lon="4.06244">
        <ele>182</ele>
        <time>2026-08-20T13:10:20Z</time>
      </trkpt>
      <trkpt lat="49.15476" lon="4.06246">
        <ele>181.6</ele>
        <time>2026-08-20T13:10:26Z</time>
      </trkpt>
      <trkpt lat="49.1548" lon="4.06248">
        <ele>181.3</ele>
        <time>2026-08-20T13:10:31Z</time>
      </trkpt>
      <trkpt lat="49.15487" lon="4.0625">
        <ele>180.8</ele>
        <time>2026-08-20T13:10:36Z</time>
      </trkpt>
      <trkpt lat="49.15492" lon="4.06252">
        <ele>180.3</ele>
        <time>2026-08-20T13:10:42Z</time>
      </trkpt>
      <trkpt lat="49.15497" lon="4.06258">
        <ele>179.6</ele>
        <time>2026-08-20T13:10:47Z</time>
      </trkpt>
      <trkpt lat="49.15502" lon="4.06262">
        <ele>178.9</ele>
        <time>2026-08-20T13:10:52Z</time>
      </trkpt>
      <trkpt lat="49.15508" lon="4.06265">
        <ele>177.9</ele>
        <time>2026-08-20T13:10:58Z</time>
      </trkpt>
      <trkpt lat="49.15513" lon="4.06267">
        <ele>177.1</ele>
        <time>2026-08-20T13:11:03Z</time>
      </trkpt>
      <trkpt lat="49.15517" lon="4.06271">
        <ele>176.3</ele>
        <time>2026-08-20T13:11:08Z</time>
      </trkpt>
      <trkpt lat="49.15522" lon="4.06273">
        <ele>175.5</ele>
        <time>2026-08-20T13:11:14Z</time>
      </trkpt>
      <trkpt lat="49.15525" lon="4.06274">
        <ele>175.1</ele>
        <time>2026-08-20T13:11:19Z</time>
      </trkpt>
      <trkpt lat="49.15526" lon="4.06275">
        <ele>174.9</ele>
        <time>2026-08-20T13:11:24Z</time>
      </trkpt>
      <trkpt lat="49.15526" lon="4.06275">
        <ele>174.9</ele>
        <time>2026-08-20T13:11:30Z</time>
      </trkpt>
      <trkpt lat="49.15526" lon="4.06275">
        <ele>174.9</ele>
        <time>2026-08-20T13:11:35Z</time>
      </trkpt>
      <trkpt lat="49.15526" lon="4.06275">
        <ele>174.9</ele>
        <time>2026-08-20T13:11:40Z</time>
      </trkpt>
      <trkpt lat="49.15526" lon="4.06275">
        <ele>174.9</ele>
        <time>2026-08-20T13:11:46Z</time>
      </trkpt>
      <trkpt lat="49.15526" lon="4.06275">
        <ele>174.9</ele>
        <time>2026-08-20T13:11:51Z</time>
      </trkpt>
      <trkpt lat="49.15526" lon="4.06275">
        <ele>174.9</ele>
        <time>2026-08-20T13:11:56Z</time>
      </trkpt>
      <trkpt lat="49.15526" lon="4.06275">
        <ele>174.9</ele>
        <time>2026-08-20T13:12:02Z</time>
      </trkpt>
      <trkpt lat="49.15534" lon="4.06279">
        <ele>173.7</ele>
        <time>2026-08-20T13:12:07Z</time>
      </trkpt>
      <trkpt lat="49.15539" lon="4.06281">
        <ele>173</ele>
        <time>2026-08-20T13:12:12Z</time>
      </trkpt>
      <trkpt lat="49.15545" lon="4.06277">
        <ele>172.5</ele>
        <time>2026-08-20T13:12:18Z</time>
      </trkpt>
      <trkpt lat="49.15551" lon="4.06275">
        <ele>171.8</ele>
        <time>2026-08-20T13:12:23Z</time>
      </trkpt>
      <trkpt lat="49.15558" lon="4.06269">
        <ele>171.1</ele>
        <time>2026-08-20T13:12:28Z</time>
      </trkpt>
      <trkpt lat="49.15562" lon="4.06263">
        <ele>170.7</ele>
        <time>2026-08-20T13:12:34Z</time>
      </trkpt>
      <trkpt lat="49.15567" lon="4.06256">
        <ele>170.2</ele>
        <time>2026-08-20T13:12:39Z</time>
      </trkpt>
      <trkpt lat="49.15571" lon="4.06249">
        <ele>169.8</ele>
        <time>2026-08-20T13:12:44Z</time>
      </trkpt>
      <trkpt lat="49.15575" lon="4.06243">
        <ele>169.3</ele>
        <time>2026-08-20T13:12:50Z</time>
      </trkpt>
      <trkpt lat="49.15579" lon="4.06236">
        <ele>168.8</ele>
        <time>2026-08-20T13:12:55Z</time>
      </trkpt>
      <trkpt lat="49.15582" lon="4.06229">
        <ele>168.4</ele>
        <time>2026-08-20T13:13:00Z</time>
      </trkpt>
      <trkpt lat="49.15585" lon="4.06221">
        <ele>168.2</ele>
        <time>2026-08-20T13:13:06Z</time>
      </trkpt>
      <trkpt lat="49.15587" lon="4.06211">
        <ele>168.1</ele>
        <time>2026-08-20T13:13:11Z</time>
      </trkpt>
      <trkpt lat="49.15591" lon="4.06207">
        <ele>167.8</ele>
        <time>2026-08-20T13:13:16Z</time>
      </trkpt>
      <trkpt lat="49.15594" lon="4.06202">
        <ele>167.6</ele>
        <time>2026-08-20T13:13:22Z</time>
      </trkpt>
      <trkpt lat="49.15597" lon="4.06198">
        <ele>167.3</ele>
        <time>2026-08-20T13:13:27Z</time>
      </trkpt>
      <trkpt lat="49.15602" lon="4.06193">
        <ele>166.9</ele>
        <time>2026-08-20T13:13:32Z</time>
      </trkpt>
      <trkpt lat="49.15604" lon="4.06185">
        <ele>166.8</ele>
        <time>2026-08-20T13:13:38Z</time>
      </trkpt>
      <trkpt lat="49.15607" lon="4.06177">
        <ele>166.6</ele>
        <time>2026-08-20T13:13:43Z</time>
      </trkpt>
      <trkpt lat="49.1561" lon="4.06169">
        <ele>166.4</ele>
        <time>2026-08-20T13:13:48Z</time>
      </trkpt>
      <trkpt lat="49.15613" lon="4.06159">
        <ele>166.3</ele>
        <time>2026-08-20T13:13:54Z</time>
      </trkpt>
      <trkpt lat="49.15616" lon="4.06152">
        <ele>166.2</ele>
        <time>2026-08-20T13:13:59Z</time>
      </trkpt>
      <trkpt lat="49.15618" lon="4.06145">
        <ele>166.2</ele>
        <time>2026-08-20T13:14:04Z</time>
      </trkpt>
      <trkpt lat="49.15622" lon="4.06135">
        <ele>166</ele>
        <time>2026-08-20T13:14:10Z</time>
      </trkpt>
      <trkpt lat="49.15622" lon="4.06128">
        <ele>166.2</ele>
        <time>2026-08-20T13:14:15Z</time>
      </trkpt>
      <trkpt lat="49.15623" lon="4.06128">
        <ele>166.1</ele>
        <time>2026-08-20T13:14:20Z</time>
      </trkpt>
      <trkpt lat="49.15624" lon="4.06124">
        <ele>166.1</ele>
        <time>2026-08-20T13:14:26Z</time>
      </trkpt>
      <trkpt lat="49.15626" lon="4.06118">
        <ele>166.1</ele>
        <time>2026-08-20T13:14:31Z</time>
      </trkpt>
      <trkpt lat="49.15629" lon="4.06111">
        <ele>166</ele>
        <time>2026-08-20T13:14:36Z</time>
      </trkpt>
      <trkpt lat="49.15632" lon="4.06101">
        <ele>165.9</ele>
        <time>2026-08-20T13:14:42Z</time>
      </trkpt>
      <trkpt lat="49.15635" lon="4.06092">
        <ele>165.8</ele>
        <time>2026-08-20T13:14:47Z</time>
      </trkpt>
      <trkpt lat="49.15637" lon="4.06085">
        <ele>165.8</ele>
        <time>2026-08-20T13:14:52Z</time>
      </trkpt>
      <trkpt lat="49.15639" lon="4.06074">
        <ele>165.9</ele>
        <time>2026-08-20T13:14:58Z</time>
      </trkpt>
      <trkpt lat="49.15641" lon="4.06065">
        <ele>165.9</ele>
        <time>2026-08-20T13:15:03Z</time>
      </trkpt>
      <trkpt lat="49.15645" lon="4.06057">
        <ele>165.7</ele>
        <time>2026-08-20T13:15:08Z</time>
      </trkpt>
      <trkpt lat="49.15647" lon="4.06046">
        <ele>165.8</ele>
        <time>2026-08-20T13:15:14Z</time>
      </trkpt>
      <trkpt lat="49.1565" lon="4.0604">
        <ele>165.6</ele>
        <time>2026-08-20T13:15:19Z</time>
      </trkpt>
      <trkpt lat="49.15654" lon="4.06034">
        <ele>165.4</ele>
        <time>2026-08-20T13:15:24Z</time>
      </trkpt>
      <trkpt lat="49.1566" lon="4.06026">
        <ele>165</ele>
        <time>2026-08-20T13:15:30Z</time>
      </trkpt>
      <trkpt lat="49.15662" lon="4.06023">
        <ele>164.9</ele>
        <time>2026-08-20T13:15:35Z</time>
      </trkpt>
      <trkpt lat="49.15666" lon="4.06015">
        <ele>164.7</ele>
        <time>2026-08-20T13:15:40Z</time>
      </trkpt>
      <trkpt lat="49.1567" lon="4.06007">
        <ele>164.6</ele>
        <time>2026-08-20T13:15:46Z</time>
      </trkpt>
      <trkpt lat="49.15673" lon="4.06001">
        <ele>164.5</ele>
        <time>2026-08-20T13:15:51Z</time>
      </trkpt>
      <trkpt lat="49.15676" lon="4.05995">
        <ele>164.7</ele>
        <time>2026-08-20T13:15:56Z</time>
      </trkpt>
      <trkpt lat="49.1568" lon="4.05987">
        <ele>164.9</ele>
        <time>2026-08-20T13:16:02Z</time>
      </trkpt>
      <trkpt lat="49.15684" lon="4.0598">
        <ele>165</ele>
        <time>2026-08-20T13:16:07Z</time>
      </trkpt>
      <trkpt lat="49.15688" lon="4.05973">
        <ele>165.2</ele>
        <time>2026-08-20T13:16:12Z</time>
      </trkpt>
      <trkpt lat="49.15693" lon="4.05964">
        <ele>165.3</ele>
        <time>2026-08-20T13:16:18Z</time>
      </trkpt>
      <trkpt lat="49.15697" lon="4.05957">
        <ele>165.3</ele>
        <time>2026-08-20T13:16:23Z</time>
      </trkpt>
      <trkpt lat="49.157" lon="4.05949">
        <ele>165.5</ele>
        <time>2026-08-20T13:16:28Z</time>
      </trkpt>
      <trkpt lat="49.15704" lon="4.05939">
        <ele>165.7</ele>
        <time>2026-08-20T13:16:34Z</time>
      </trkpt>
      <trkpt lat="49.15708" lon="4.05931">
        <ele>165.8</ele>
        <time>2026-08-20T13:16:39Z</time>
      </trkpt>
      <trkpt lat="49.15712" lon="4.05924">
        <ele>165.7</ele>
        <time>2026-08-20T13:16:44Z</time>
      </trkpt>
      <trkpt lat="49.15715" lon="4.05914">
        <ele>166</ele>
        <time>2026-08-20T13:16:50Z</time>
      </trkpt>
      <trkpt lat="49.15717" lon="4.05904">
        <ele>166.7</ele>
        <time>2026-08-20T13:16:55Z</time>
      </trkpt>
      <trkpt lat="49.15718" lon="4.05896">
        <ele>167.4</ele>
        <time>2026-08-20T13:17:00Z</time>
      </trkpt>
      <trkpt lat="49.1572" lon="4.05885">
        <ele>168.1</ele>
        <time>2026-08-20T13:17:06Z</time>
      </trkpt>
      <trkpt lat="49.1572" lon="4.05875">
        <ele>169</ele>
        <time>2026-08-20T13:17:11Z</time>
      </trkpt>
      <trkpt lat="49.15721" lon="4.05867">
        <ele>169.6</ele>
        <time>2026-08-20T13:17:16Z</time>
      </trkpt>
      <trkpt lat="49.15719" lon="4.05859">
        <ele>170.6</ele>
        <time>2026-08-20T13:17:22Z</time>
      </trkpt>
      <trkpt lat="49.15718" lon="4.05853">
        <ele>171.3</ele>
        <time>2026-08-20T13:17:27Z</time>
      </trkpt>
      <trkpt lat="49.15718" lon="4.05847">
        <ele>171.9</ele>
        <time>2026-08-20T13:17:32Z</time>
      </trkpt>
      <trkpt lat="49.15716" lon="4.0584">
        <ele>172.9</ele>
        <time>2026-08-20T13:17:38Z</time>
      </trkpt>
      <trkpt lat="49.15716" lon="4.05839">
        <ele>173</ele>
        <time>2026-08-20T13:17:43Z</time>
      </trkpt>
      <trkpt lat="49.15715" lon="4.05839">
        <ele>173.2</ele>
        <time>2026-08-20T13:17:48Z</time>
      </trkpt>
      <trkpt lat="49.15715" lon="4.05839">
        <ele>173.2</ele>
        <time>2026-08-20T13:17:54Z</time>
      </trkpt>
      <trkpt lat="49.15715" lon="4.05839">
        <ele>173.2</ele>
        <time>2026-08-20T13:17:59Z</time>
      </trkpt>
      <trkpt lat="49.15715" lon="4.05839">
        <ele>173.2</ele>
        <time>2026-08-20T13:18:04Z</time>
      </trkpt>
      <trkpt lat="49.15715" lon="4.05839">
        <ele>173.2</ele>
        <time>2026-08-20T13:18:10Z</time>
      </trkpt>
      <trkpt lat="49.15715" lon="4.05839">
        <ele>173.2</ele>
        <time>2026-08-20T13:18:15Z</time>
      </trkpt>
      <trkpt lat="49.15715" lon="4.05839">
        <ele>173.2</ele>
        <time>2026-08-20T13:18:20Z</time>
      </trkpt>
      <trkpt lat="49.15713" lon="4.05826">
        <ele>174.5</ele>
        <time>2026-08-20T13:18:26Z</time>
      </trkpt>
      <trkpt lat="49.15713" lon="4.0582">
        <ele>174.9</ele>
        <time>2026-08-20T13:18:31Z</time>
      </trkpt>
      <trkpt lat="49.15711" lon="4.05812">
        <ele>175.7</ele>
        <time>2026-08-20T13:18:36Z</time>
      </trkpt>
      <trkpt lat="49.15709" lon="4.05803">
        <ele>176.7</ele>
        <time>2026-08-20T13:18:42Z</time>
      </trkpt>
      <trkpt lat="49.15709" lon="4.05797">
        <ele>177</ele>
        <time>2026-08-20T13:18:47Z</time>
      </trkpt>
      <trkpt lat="49.15711" lon="4.05788">
        <ele>177.1</ele>
        <time>2026-08-20T13:18:52Z</time>
      </trkpt>
      <trkpt lat="49.15714" lon="4.05781">
        <ele>176.9</ele>
        <time>2026-08-20T13:18:58Z</time>
      </trkpt>
      <trkpt lat="49.15715" lon="4.05779">
        <ele>176.8</ele>
        <time>2026-08-20T13:19:03Z</time>
      </trkpt>
      <trkpt lat="49.15718" lon="4.05775">
        <ele>176.3</ele>
        <time>2026-08-20T13:19:08Z</time>
      </trkpt>
      <trkpt lat="49.15722" lon="4.05769">
        <ele>175.7</ele>
        <time>2026-08-20T13:19:14Z</time>
      </trkpt>
      <trkpt lat="49.15723" lon="4.05769">
        <ele>175.5</ele>
        <time>2026-08-20T13:19:19Z</time>
      </trkpt>
      <trkpt lat="49.15723" lon="4.05769">
        <ele>175.5</ele>
        <time>2026-08-20T13:19:24Z</time>
      </trkpt>
      <trkpt lat="49.15723" lon="4.05769">
        <ele>175.5</ele>
        <time>2026-08-20T13:19:30Z</time>
      </trkpt>
      <trkpt lat="49.15724" lon="4.05764">
        <ele>175.5</ele>
        <time>2026-08-20T13:19:35Z</time>
      </trkpt>
      <trkpt lat="49.15728" lon="4.0576">
        <ele>174.8</ele>
        <time>2026-08-20T13:19:40Z</time>
      </trkpt>
      <trkpt lat="49.15731" lon="4.05754">
        <ele>174.4</ele>
        <time>2026-08-20T13:19:46Z</time>
      </trkpt>
      <trkpt lat="49.15735" lon="4.05748">
        <ele>173.6</ele>
        <time>2026-08-20T13:19:51Z</time>
      </trkpt>
      <trkpt lat="49.15738" lon="4.05743">
        <ele>172.8</ele>
        <time>2026-08-20T13:19:56Z</time>
      </trkpt>
      <trkpt lat="49.15743" lon="4.05736">
        <ele>171.6</ele>
        <time>2026-08-20T13:20:02Z</time>
      </trkpt>
      <trkpt lat="49.15747" lon="4.0573">
        <ele>170.7</ele>
        <time>2026-08-20T13:20:07Z</time>
      </trkpt>
      <trkpt lat="49.15751" lon="4.05725">
        <ele>169.9</ele>
        <time>2026-08-20T13:20:12Z</time>
      </trkpt>
      <trkpt lat="49.15755" lon="4.0572">
        <ele>169.4</ele>
        <time>2026-08-20T13:20:18Z</time>
      </trkpt>
      <trkpt lat="49.15758" lon="4.05714">
        <ele>169.1</ele>
        <time>2026-08-20T13:20:23Z</time>
      </trkpt>
      <trkpt lat="49.1576" lon="4.05709">
        <ele>169</ele>
        <time>2026-08-20T13:20:28Z</time>
      </trkpt>
      <trkpt lat="49.1576" lon="4.05709">
        <ele>169</ele>
        <time>2026-08-20T13:20:34Z</time>
      </trkpt>
      <trkpt lat="49.1576" lon="4.05709">
        <ele>169</ele>
        <time>2026-08-20T13:20:39Z</time>
      </trkpt>
      <trkpt lat="49.15762" lon="4.05705">
        <ele>168.8</ele>
        <time>2026-08-20T13:20:44Z</time>
      </trkpt>
      <trkpt lat="49.15763" lon="4.05701">
        <ele>168.8</ele>
        <time>2026-08-20T13:20:50Z</time>
      </trkpt>
      <trkpt lat="49.15763" lon="4.05701">
        <ele>168.8</ele>
        <time>2026-08-20T13:20:55Z</time>
      </trkpt>
      <trkpt lat="49.15763" lon="4.05701">
        <ele>168.8</ele>
        <time>2026-08-20T13:21:00Z</time>
      </trkpt>
      <trkpt lat="49.15763" lon="4.05701">
        <ele>168.8</ele>
        <time>2026-08-20T13:21:06Z</time>
      </trkpt>
      <trkpt lat="49.15763" lon="4.05701">
        <ele>168.8</ele>
        <time>2026-08-20T13:21:11Z</time>
      </trkpt>
      <trkpt lat="49.15763" lon="4.05701">
        <ele>168.8</ele>
        <time>2026-08-20T13:21:16Z</time>
      </trkpt>
      <trkpt lat="49.15763" lon="4.05701">
        <ele>168.8</ele>
        <time>2026-08-20T13:21:22Z</time>
      </trkpt>
      <trkpt lat="49.15763" lon="4.05701">
        <ele>168.8</ele>
        <time>2026-08-20T13:21:27Z</time>
      </trkpt>
      <trkpt lat="49.15763" lon="4.05701">
        <ele>168.8</ele>
        <time>2026-08-20T13:21:32Z</time>
      </trkpt>
      <trkpt lat="49.15763" lon="4.05701">
        <ele>168.8</ele>
        <time>2026-08-20T13:21:38Z</time>
      </trkpt>
      <trkpt lat="49.15764" lon="4.05697">
        <ele>168.7</ele>
        <time>2026-08-20T13:21:43Z</time>
      </trkpt>
      <trkpt lat="49.15765" lon="4.05692">
        <ele>168.7</ele>
        <time>2026-08-20T13:21:48Z</time>
      </trkpt>
      <trkpt lat="49.15767" lon="4.05686">
        <ele>168.6</ele>
        <time>2026-08-20T13:21:54Z</time>
      </trkpt>
      <trkpt lat="49.15767" lon="4.05686">
        <ele>168.6</ele>
        <time>2026-08-20T13:21:59Z</time>
      </trkpt>
      <trkpt lat="49.15767" lon="4.05686">
        <ele>168.6</ele>
        <time>2026-08-20T13:22:04Z</time>
      </trkpt>
      <trkpt lat="49.15767" lon="4.05686">
        <ele>168.6</ele>
        <time>2026-08-20T13:22:10Z</time>
      </trkpt>
      <trkpt lat="49.15767" lon="4.05686">
        <ele>168.6</ele>
        <time>2026-08-20T13:22:15Z</time>
      </trkpt>
      <trkpt lat="49.15767" lon="4.05686">
        <ele>168.6</ele>
        <time>2026-08-20T13:22:20Z</time>
      </trkpt>
      <trkpt lat="49.15767" lon="4.05686">
        <ele>168.6</ele>
        <time>2026-08-20T13:22:26Z</time>
      </trkpt>
      <trkpt lat="49.15769" lon="4.05676">
        <ele>168.7</ele>
        <time>2026-08-20T13:22:31Z</time>
      </trkpt>
      <trkpt lat="49.15771" lon="4.05668">
        <ele>168.7</ele>
        <time>2026-08-20T13:22:36Z</time>
      </trkpt>
      <trkpt lat="49.15773" lon="4.0566">
        <ele>169.1</ele>
        <time>2026-08-20T13:22:42Z</time>
      </trkpt>
      <trkpt lat="49.15773" lon="4.05657">
        <ele>169.3</ele>
        <time>2026-08-20T13:22:47Z</time>
      </trkpt>
      <trkpt lat="49.15773" lon="4.05657">
        <ele>169.3</ele>
        <time>2026-08-20T13:22:52Z</time>
      </trkpt>
      <trkpt lat="49.15774" lon="4.05655">
        <ele>169.4</ele>
        <time>2026-08-20T13:22:58Z</time>
      </trkpt>
      <trkpt lat="49.15776" lon="4.05651">
        <ele>169.6</ele>
        <time>2026-08-20T13:23:03Z</time>
      </trkpt>
      <trkpt lat="49.15777" lon="4.05645">
        <ele>170</ele>
        <time>2026-08-20T13:23:08Z</time>
      </trkpt>
      <trkpt lat="49.1578" lon="4.05637">
        <ele>170.5</ele>
        <time>2026-08-20T13:23:14Z</time>
      </trkpt>
      <trkpt lat="49.15781" lon="4.05631">
        <ele>170.9</ele>
        <time>2026-08-20T13:23:19Z</time>
      </trkpt>
      <trkpt lat="49.15783" lon="4.05624">
        <ele>171.4</ele>
        <time>2026-08-20T13:23:24Z</time>
      </trkpt>
      <trkpt lat="49.15785" lon="4.05616">
        <ele>172</ele>
        <time>2026-08-20T13:23:30Z</time>
      </trkpt>
      <trkpt lat="49.15787" lon="4.05609">
        <ele>172.5</ele>
        <time>2026-08-20T13:23:35Z</time>
      </trkpt>
      <trkpt lat="49.15789" lon="4.05602">
        <ele>173</ele>
        <time>2026-08-20T13:23:40Z</time>
      </trkpt>
      <trkpt lat="49.15791" lon="4.05593">
        <ele>173.7</ele>
        <time>2026-08-20T13:23:46Z</time>
      </trkpt>
      <trkpt lat="49.15789" lon="4.05589">
        <ele>174.1</ele>
        <time>2026-08-20T13:23:51Z</time>
      </trkpt>
      <trkpt lat="49.1579" lon="4.05588">
        <ele>174.1</ele>
        <time>2026-08-20T13:23:56Z</time>
      </trkpt>
      <trkpt lat="49.15795" lon="4.05583">
        <ele>174.5</ele>
        <time>2026-08-20T13:24:02Z</time>
      </trkpt>
      <trkpt lat="49.15797" lon="4.05577">
        <ele>175.1</ele>
        <time>2026-08-20T13:24:07Z</time>
      </trkpt>
      <trkpt lat="49.158" lon="4.0557">
        <ele>175.8</ele>
        <time>2026-08-20T13:24:12Z</time>
      </trkpt>
      <trkpt lat="49.15802" lon="4.05561">
        <ele>176.7</ele>
        <time>2026-08-20T13:24:18Z</time>
      </trkpt>
      <trkpt lat="49.15804" lon="4.05552">
        <ele>177.5</ele>
        <time>2026-08-20T13:24:23Z</time>
      </trkpt>
      <trkpt lat="49.15806" lon="4.05545">
        <ele>178.1</ele>
        <time>2026-08-20T13:24:28Z</time>
      </trkpt>
      <trkpt lat="49.15809" lon="4.05537">
        <ele>178.8</ele>
        <time>2026-08-20T13:24:34Z</time>
      </trkpt>
      <trkpt lat="49.15812" lon="4.05531">
        <ele>179.1</ele>
        <time>2026-08-20T13:24:39Z</time>
      </trkpt>
      <trkpt lat="49.15815" lon="4.05522">
        <ele>179.8</ele>
        <time>2026-08-20T13:24:44Z</time>
      </trkpt>
      <trkpt lat="49.15818" lon="4.05514">
        <ele>180.2</ele>
        <time>2026-08-20T13:24:50Z</time>
      </trkpt>
      <trkpt lat="49.15821" lon="4.05507">
        <ele>180.6</ele>
        <time>2026-08-20T13:24:55Z</time>
      </trkpt>
      <trkpt lat="49.15823" lon="4.05499">
        <ele>181.1</ele>
        <time>2026-08-20T13:25:00Z</time>
      </trkpt>
      <trkpt lat="49.15828" lon="4.0549">
        <ele>181.2</ele>
        <time>2026-08-20T13:25:06Z</time>
      </trkpt>
      <trkpt lat="49.15828" lon="4.05489">
        <ele>181.2</ele>
        <time>2026-08-20T13:25:11Z</time>
      </trkpt>
      <trkpt lat="49.15829" lon="4.05486">
        <ele>181.3</ele>
        <time>2026-08-20T13:25:16Z</time>
      </trkpt>
      <trkpt lat="49.15831" lon="4.05484">
        <ele>181.2</ele>
        <time>2026-08-20T13:25:22Z</time>
      </trkpt>
      <trkpt lat="49.15831" lon="4.05484">
        <ele>181.2</ele>
        <time>2026-08-20T13:25:27Z</time>
      </trkpt>
      <trkpt lat="49.15832" lon="4.05482">
        <ele>181.2</ele>
        <time>2026-08-20T13:25:32Z</time>
      </trkpt>
      <trkpt lat="49.15835" lon="4.05473">
        <ele>181.3</ele>
        <time>2026-08-20T13:25:38Z</time>
      </trkpt>
      <trkpt lat="49.15836" lon="4.05466">
        <ele>181.5</ele>
        <time>2026-08-20T13:25:43Z</time>
      </trkpt>
      <trkpt lat="49.15839" lon="4.05459">
        <ele>181.3</ele>
        <time>2026-08-20T13:25:48Z</time>
      </trkpt>
      <trkpt lat="49.15842" lon="4.05449">
        <ele>181.3</ele>
        <time>2026-08-20T13:25:54Z</time>
      </trkpt>
      <trkpt lat="49.15845" lon="4.05441">
        <ele>181.1</ele>
        <time>2026-08-20T13:25:59Z</time>
      </trkpt>
      <trkpt lat="49.15848" lon="4.05433">
        <ele>181</ele>
        <time>2026-08-20T13:26:04Z</time>
      </trkpt>
      <trkpt lat="49.15851" lon="4.05425">
        <ele>180.7</ele>
        <time>2026-08-20T13:26:10Z</time>
      </trkpt>
      <trkpt lat="49.15854" lon="4.05417">
        <ele>180.5</ele>
        <time>2026-08-20T13:26:15Z</time>
      </trkpt>
      <trkpt lat="49.15858" lon="4.05411">
        <ele>180.1</ele>
        <time>2026-08-20T13:26:20Z</time>
      </trkpt>
      <trkpt lat="49.15862" lon="4.05404">
        <ele>179.8</ele>
        <time>2026-08-20T13:26:26Z</time>
      </trkpt>
      <trkpt lat="49.15863" lon="4.05403">
        <ele>179.7</ele>
        <time>2026-08-20T13:26:31Z</time>
      </trkpt>
      <trkpt lat="49.15863" lon="4.05404">
        <ele>179.6</ele>
        <time>2026-08-20T13:26:36Z</time>
      </trkpt>
      <trkpt lat="49.15863" lon="4.05404">
        <ele>179.6</ele>
        <time>2026-08-20T13:26:42Z</time>
      </trkpt>
      <trkpt lat="49.15864" lon="4.05401">
        <ele>179.6</ele>
        <time>2026-08-20T13:26:47Z</time>
      </trkpt>
      <trkpt lat="49.15867" lon="4.05395">
        <ele>179.5</ele>
        <time>2026-08-20T13:26:52Z</time>
      </trkpt>
      <trkpt lat="49.15871" lon="4.05388">
        <ele>179.2</ele>
        <time>2026-08-20T13:26:58Z</time>
      </trkpt>
      <trkpt lat="49.15873" lon="4.05382">
        <ele>179.3</ele>
        <time>2026-08-20T13:27:03Z</time>
      </trkpt>
      <trkpt lat="49.15875" lon="4.05379">
        <ele>179.2</ele>
        <time>2026-08-20T13:27:08Z</time>
      </trkpt>
      <trkpt lat="49.15879" lon="4.05375">
        <ele>178.7</ele>
        <time>2026-08-20T13:27:14Z</time>
      </trkpt>
      <trkpt lat="49.1588" lon="4.05374">
        <ele>178.6</ele>
        <time>2026-08-20T13:27:19Z</time>
      </trkpt>
      <trkpt lat="49.1588" lon="4.05374">
        <ele>178.6</ele>
        <time>2026-08-20T13:27:24Z</time>
      </trkpt>
      <trkpt lat="49.1588" lon="4.05374">
        <ele>178.6</ele>
        <time>2026-08-20T13:27:30Z</time>
      </trkpt>
      <trkpt lat="49.1588" lon="4.05374">
        <ele>178.6</ele>
        <time>2026-08-20T13:27:35Z</time>
      </trkpt>
      <trkpt lat="49.1588" lon="4.05374">
        <ele>178.6</ele>
        <time>2026-08-20T13:27:40Z</time>
      </trkpt>
      <trkpt lat="49.15882" lon="4.05367">
        <ele>178.8</ele>
        <time>2026-08-20T13:27:46Z</time>
      </trkpt>
      <trkpt lat="49.15886" lon="4.05362">
        <ele>178.4</ele>
        <time>2026-08-20T13:27:51Z</time>
      </trkpt>
      <trkpt lat="49.15889" lon="4.05356">
        <ele>178.3</ele>
        <time>2026-08-20T13:27:56Z</time>
      </trkpt>
      <trkpt lat="49.15892" lon="4.05352">
        <ele>178.1</ele>
        <time>2026-08-20T13:28:02Z</time>
      </trkpt>
      <trkpt lat="49.15897" lon="4.05347">
        <ele>177.5</ele>
        <time>2026-08-20T13:28:07Z</time>
      </trkpt>
      <trkpt lat="49.15899" lon="4.05342">
        <ele>177.6</ele>
        <time>2026-08-20T13:28:12Z</time>
      </trkpt>
      <trkpt lat="49.15904" lon="4.05336">
        <ele>177.2</ele>
        <time>2026-08-20T13:28:18Z</time>
      </trkpt>
      <trkpt lat="49.15908" lon="4.0533">
        <ele>177</ele>
        <time>2026-08-20T13:28:23Z</time>
      </trkpt>
      <trkpt lat="49.15913" lon="4.05325">
        <ele>176.7</ele>
        <time>2026-08-20T13:28:28Z</time>
      </trkpt>
      <trkpt lat="49.15916" lon="4.05322">
        <ele>176.5</ele>
        <time>2026-08-20T13:28:34Z</time>
      </trkpt>
      <trkpt lat="49.15922" lon="4.05317">
        <ele>176.4</ele>
        <time>2026-08-20T13:28:39Z</time>
      </trkpt>
      <trkpt lat="49.15926" lon="4.05312">
        <ele>176.6</ele>
        <time>2026-08-20T13:28:44Z</time>
      </trkpt>
      <trkpt lat="49.15933" lon="4.05305">
        <ele>176.8</ele>
        <time>2026-08-20T13:28:50Z</time>
      </trkpt>
      <trkpt lat="49.15938" lon="4.053">
        <ele>176.8</ele>
        <time>2026-08-20T13:28:55Z</time>
      </trkpt>
      <trkpt lat="49.15942" lon="4.05295">
        <ele>177</ele>
        <time>2026-08-20T13:29:00Z</time>
      </trkpt>
      <trkpt lat="49.15947" lon="4.05288">
        <ele>177.3</ele>
        <time>2026-08-20T13:29:06Z</time>
      </trkpt>
      <trkpt lat="49.15952" lon="4.05282">
        <ele>177.5</ele>
        <time>2026-08-20T13:29:11Z</time>
      </trkpt>
      <trkpt lat="49.15955" lon="4.05277">
        <ele>177.8</ele>
        <time>2026-08-20T13:29:16Z</time>
      </trkpt>
      <trkpt lat="49.1596" lon="4.0527">
        <ele>178</ele>
        <time>2026-08-20T13:29:22Z</time>
      </trkpt>
      <trkpt lat="49.15964" lon="4.05266">
        <ele>178.1</ele>
        <time>2026-08-20T13:29:27Z</time>
      </trkpt>
      <trkpt lat="49.15968" lon="4.05264">
        <ele>177.9</ele>
        <time>2026-08-20T13:29:32Z</time>
      </trkpt>
      <trkpt lat="49.15968" lon="4.05264">
        <ele>177.9</ele>
        <time>2026-08-20T13:29:38Z</time>
      </trkpt>
      <trkpt lat="49.1597" lon="4.05263">
        <ele>177.8</ele>
        <time>2026-08-20T13:29:43Z</time>
      </trkpt>
      <trkpt lat="49.15975" lon="4.05262">
        <ele>177.4</ele>
        <time>2026-08-20T13:29:48Z</time>
      </trkpt>
      <trkpt lat="49.15981" lon="4.05261">
        <ele>176.8</ele>
        <time>2026-08-20T13:29:54Z</time>
      </trkpt>
      <trkpt lat="49.15987" lon="4.0526">
        <ele>176.3</ele>
        <time>2026-08-20T13:29:59Z</time>
      </trkpt>
      <trkpt lat="49.15992" lon="4.05258">
        <ele>176</ele>
        <time>2026-08-20T13:30:04Z</time>
      </trkpt>
      <trkpt lat="49.15996" lon="4.05254">
        <ele>176</ele>
        <time>2026-08-20T13:30:10Z</time>
      </trkpt>
      <trkpt lat="49.15997" lon="4.0525">
        <ele>176.3</ele>
        <time>2026-08-20T13:30:15Z</time>
      </trkpt>
      <trkpt lat="49.15996" lon="4.05243">
        <ele>177.3</ele>
        <time>2026-08-20T13:30:20Z</time>
      </trkpt>
      <trkpt lat="49.15994" lon="4.05237">
        <ele>178.2</ele>
        <time>2026-08-20T13:30:26Z</time>
      </trkpt>
      <trkpt lat="49.15994" lon="4.05236">
        <ele>178.3</ele>
        <time>2026-08-20T13:30:31Z</time>
      </trkpt>
      <trkpt lat="49.15993" lon="4.05233">
        <ele>178.8</ele>
        <time>2026-08-20T13:30:36Z</time>
      </trkpt>
      <trkpt lat="49.15993" lon="4.05233">
        <ele>178.8</ele>
        <time>2026-08-20T13:30:42Z</time>
      </trkpt>
      <trkpt lat="49.15993" lon="4.05233">
        <ele>178.8</ele>
        <time>2026-08-20T13:30:47Z</time>
      </trkpt>
      <trkpt lat="49.15993" lon="4.05233">
        <ele>178.8</ele>
        <time>2026-08-20T13:30:52Z</time>
      </trkpt>
      <trkpt lat="49.15991" lon="4.05232">
        <ele>179.2</ele>
        <time>2026-08-20T13:30:58Z</time>
      </trkpt>
      <trkpt lat="49.15991" lon="4.05227">
        <ele>179.8</ele>
        <time>2026-08-20T13:31:03Z</time>
      </trkpt>
      <trkpt lat="49.1599" lon="4.05223">
        <ele>180.4</ele>
        <time>2026-08-20T13:31:08Z</time>
      </trkpt>
      <trkpt lat="49.15988" lon="4.05215">
        <ele>181.6</ele>
        <time>2026-08-20T13:31:14Z</time>
      </trkpt>
      <trkpt lat="49.15986" lon="4.0521">
        <ele>182.4</ele>
        <time>2026-08-20T13:31:19Z</time>
      </trkpt>
      <trkpt lat="49.15985" lon="4.0521">
        <ele>182.5</ele>
        <time>2026-08-20T13:31:24Z</time>
      </trkpt>
      <trkpt lat="49.15984" lon="4.0521">
        <ele>182.6</ele>
        <time>2026-08-20T13:31:30Z</time>
      </trkpt>
      <trkpt lat="49.15984" lon="4.0521">
        <ele>182.6</ele>
        <time>2026-08-20T13:31:35Z</time>
      </trkpt>
      <trkpt lat="49.15984" lon="4.0521">
        <ele>182.6</ele>
        <time>2026-08-20T13:31:40Z</time>
      </trkpt>
      <trkpt lat="49.15984" lon="4.0521">
        <ele>182.6</ele>
        <time>2026-08-20T13:31:46Z</time>
      </trkpt>
      <trkpt lat="49.15984" lon="4.0521">
        <ele>182.6</ele>
        <time>2026-08-20T13:31:51Z</time>
      </trkpt>
      <trkpt lat="49.15984" lon="4.0521">
        <ele>182.6</ele>
        <time>2026-08-20T13:31:56Z</time>
      </trkpt>
      <trkpt lat="49.15984" lon="4.0521">
        <ele>182.6</ele>
        <time>2026-08-20T13:32:02Z</time>
      </trkpt>
      <trkpt lat="49.15984" lon="4.0521">
        <ele>182.6</ele>
        <time>2026-08-20T13:32:07Z</time>
      </trkpt>
      <trkpt lat="49.15984" lon="4.0521">
        <ele>182.6</ele>
        <time>2026-08-20T13:32:12Z</time>
      </trkpt>
      <trkpt lat="49.15984" lon="4.0521">
        <ele>182.6</ele>
        <time>2026-08-20T13:32:18Z</time>
      </trkpt>
      <trkpt lat="49.15984" lon="4.0521">
        <ele>182.6</ele>
        <time>2026-08-20T13:32:23Z</time>
      </trkpt>
      <trkpt lat="49.15984" lon="4.0521">
        <ele>182.6</ele>
        <time>2026-08-20T13:32:28Z</time>
      </trkpt>
      <trkpt lat="49.15984" lon="4.0521">
        <ele>182.6</ele>
        <time>2026-08-20T13:32:34Z</time>
      </trkpt>
      <trkpt lat="49.15984" lon="4.0521">
        <ele>182.6</ele>
        <time>2026-08-20T13:32:39Z</time>
      </trkpt>
      <trkpt lat="49.15984" lon="4.0521">
        <ele>182.6</ele>
        <time>2026-08-20T13:32:44Z</time>
      </trkpt>
      <trkpt lat="49.15984" lon="4.0521">
        <ele>182.6</ele>
        <time>2026-08-20T13:32:50Z</time>
      </trkpt>
      <trkpt lat="49.15984" lon="4.0521">
        <ele>182.6</ele>
        <time>2026-08-20T13:32:55Z</time>
      </trkpt>
      <trkpt lat="49.15984" lon="4.0521">
        <ele>182.6</ele>
        <time>2026-08-20T13:33:00Z</time>
      </trkpt>
      <trkpt lat="49.15984" lon="4.0521">
        <ele>182.6</ele>
        <time>2026-08-20T13:33:06Z</time>
      </trkpt>
      <trkpt lat="49.15984" lon="4.0521">
        <ele>182.6</ele>
        <time>2026-08-20T13:33:11Z</time>
      </trkpt>
      <trkpt lat="49.15984" lon="4.0521">
        <ele>182.6</ele>
        <time>2026-08-20T13:33:16Z</time>
      </trkpt>
      <trkpt lat="49.15986" lon="4.0521">
        <ele>182.4</ele>
        <time>2026-08-20T13:33:22Z</time>
      </trkpt>
      <trkpt lat="49.15986" lon="4.05206">
        <ele>182.9</ele>
        <time>2026-08-20T13:33:27Z</time>
      </trkpt>
      <trkpt lat="49.15986" lon="4.05204">
        <ele>183.1</ele>
        <time>2026-08-20T13:33:32Z</time>
      </trkpt>
      <trkpt lat="49.15985" lon="4.052">
        <ele>183.7</ele>
        <time>2026-08-20T13:33:38Z</time>
      </trkpt>
      <trkpt lat="49.15983" lon="4.05197">
        <ele>184.3</ele>
        <time>2026-08-20T13:33:43Z</time>
      </trkpt>
      <trkpt lat="49.15983" lon="4.05197">
        <ele>184.3</ele>
        <time>2026-08-20T13:33:48Z</time>
      </trkpt>
      <trkpt lat="49.15983" lon="4.05192">
        <ele>184.9</ele>
        <time>2026-08-20T13:33:54Z</time>
      </trkpt>
      <trkpt lat="49.15981" lon="4.05189">
        <ele>185.5</ele>
        <time>2026-08-20T13:33:59Z</time>
      </trkpt>
      <trkpt lat="49.15979" lon="4.05183">
        <ele>186.5</ele>
        <time>2026-08-20T13:34:04Z</time>
      </trkpt>
      <trkpt lat="49.15976" lon="4.05176">
        <ele>187.7</ele>
        <time>2026-08-20T13:34:10Z</time>
      </trkpt>
      <trkpt lat="49.15974" lon="4.05171">
        <ele>188.6</ele>
        <time>2026-08-20T13:34:15Z</time>
      </trkpt>
      <trkpt lat="49.15971" lon="4.05167">
        <ele>189.4</ele>
        <time>2026-08-20T13:34:20Z</time>
      </trkpt>
      <trkpt lat="49.15969" lon="4.05161">
        <ele>190.2</ele>
        <time>2026-08-20T13:34:26Z</time>
      </trkpt>
      <trkpt lat="49.15967" lon="4.05155">
        <ele>191.1</ele>
        <time>2026-08-20T13:34:31Z</time>
      </trkpt>
      <trkpt lat="49.15966" lon="4.05151">
        <ele>191.5</ele>
        <time>2026-08-20T13:34:36Z</time>
      </trkpt>
      <trkpt lat="49.15966" lon="4.05148">
        <ele>191.8</ele>
        <time>2026-08-20T13:34:42Z</time>
      </trkpt>
      <trkpt lat="49.15963" lon="4.05143">
        <ele>192.7</ele>
        <time>2026-08-20T13:34:47Z</time>
      </trkpt>
      <trkpt lat="49.1596" lon="4.05137">
        <ele>193.6</ele>
        <time>2026-08-20T13:34:52Z</time>
      </trkpt>
      <trkpt lat="49.15958" lon="4.0513">
        <ele>194.6</ele>
        <time>2026-08-20T13:34:58Z</time>
      </trkpt>
      <trkpt lat="49.15955" lon="4.05125">
        <ele>195.4</ele>
        <time>2026-08-20T13:35:03Z</time>
      </trkpt>
      <trkpt lat="49.15952" lon="4.05121">
        <ele>196.2</ele>
        <time>2026-08-20T13:35:08Z</time>
      </trkpt>
      <trkpt lat="49.15949" lon="4.05116">
        <ele>197.1</ele>
        <time>2026-08-20T13:35:14Z</time>
      </trkpt>
      <trkpt lat="49.15949" lon="4.05115">
        <ele>197.2</ele>
        <time>2026-08-20T13:35:19Z</time>
      </trkpt>
      <trkpt lat="49.15948" lon="4.05111">
        <ele>197.7</ele>
        <time>2026-08-20T13:35:24Z</time>
      </trkpt>
      <trkpt lat="49.15946" lon="4.05105">
        <ele>198.6</ele>
        <time>2026-08-20T13:35:30Z</time>
      </trkpt>
      <trkpt lat="49.15944" lon="4.05101">
        <ele>199.3</ele>
        <time>2026-08-20T13:35:35Z</time>
      </trkpt>
      <trkpt lat="49.15943" lon="4.05099">
        <ele>199.6</ele>
        <time>2026-08-20T13:35:40Z</time>
      </trkpt>
      <trkpt lat="49.15943" lon="4.05098">
        <ele>199.7</ele>
        <time>2026-08-20T13:35:46Z</time>
      </trkpt>
      <trkpt lat="49.15943" lon="4.05098">
        <ele>199.7</ele>
        <time>2026-08-20T13:35:51Z</time>
      </trkpt>
      <trkpt lat="49.15943" lon="4.05098">
        <ele>199.7</ele>
        <time>2026-08-20T13:35:56Z</time>
      </trkpt>
      <trkpt lat="49.15943" lon="4.05098">
        <ele>199.7</ele>
        <time>2026-08-20T13:36:02Z</time>
      </trkpt>
      <trkpt lat="49.15943" lon="4.05098">
        <ele>199.7</ele>
        <time>2026-08-20T13:36:07Z</time>
      </trkpt>
      <trkpt lat="49.15939" lon="4.05091">
        <ele>201</ele>
        <time>2026-08-20T13:36:12Z</time>
      </trkpt>
      <trkpt lat="49.15943" lon="4.05087">
        <ele>200.8</ele>
        <time>2026-08-20T13:36:18Z</time>
      </trkpt>
      <trkpt lat="49.15946" lon="4.05084">
        <ele>200.7</ele>
        <time>2026-08-20T13:36:23Z</time>
      </trkpt>
      <trkpt lat="49.15948" lon="4.05081">
        <ele>200.6</ele>
        <time>2026-08-20T13:36:28Z</time>
      </trkpt>
      <trkpt lat="49.15952" lon="4.05077">
        <ele>200.3</ele>
        <time>2026-08-20T13:36:34Z</time>
      </trkpt>
      <trkpt lat="49.15954" lon="4.05074">
        <ele>200.2</ele>
        <time>2026-08-20T13:36:39Z</time>
      </trkpt>
      <trkpt lat="49.15955" lon="4.05071">
        <ele>200.2</ele>
        <time>2026-08-20T13:36:44Z</time>
      </trkpt>
      <trkpt lat="49.15956" lon="4.05069">
        <ele>200.2</ele>
        <time>2026-08-20T13:36:50Z</time>
      </trkpt>
      <trkpt lat="49.15956" lon="4.05064">
        <ele>200.5</ele>
        <time>2026-08-20T13:36:55Z</time>
      </trkpt>
      <trkpt lat="49.15958" lon="4.05061">
        <ele>200.4</ele>
        <time>2026-08-20T13:37:00Z</time>
      </trkpt>
      <trkpt lat="49.1596" lon="4.05055">
        <ele>200.5</ele>
        <time>2026-08-20T13:37:06Z</time>
      </trkpt>
      <trkpt lat="49.15963" lon="4.05051">
        <ele>200.3</ele>
        <time>2026-08-20T13:37:11Z</time>
      </trkpt>
      <trkpt lat="49.15964" lon="4.05049">
        <ele>200.3</ele>
        <time>2026-08-20T13:37:16Z</time>
      </trkpt>
      <trkpt lat="49.15966" lon="4.05044">
        <ele>200.3</ele>
        <time>2026-08-20T13:37:22Z</time>
      </trkpt>
      <trkpt lat="49.15969" lon="4.05042">
        <ele>200.1</ele>
        <time>2026-08-20T13:37:27Z</time>
      </trkpt>
      <trkpt lat="49.15968" lon="4.05038">
        <ele>200.5</ele>
        <time>2026-08-20T13:37:32Z</time>
      </trkpt>
      <trkpt lat="49.15968" lon="4.05038">
        <ele>200.5</ele>
        <time>2026-08-20T13:37:38Z</time>
      </trkpt>
      <trkpt lat="49.15968" lon="4.05038">
        <ele>200.5</ele>
        <time>2026-08-20T13:37:43Z</time>
      </trkpt>
      <trkpt lat="49.15968" lon="4.05038">
        <ele>200.5</ele>
        <time>2026-08-20T13:37:48Z</time>
      </trkpt>
      <trkpt lat="49.15968" lon="4.05038">
        <ele>200.5</ele>
        <time>2026-08-20T13:37:54Z</time>
      </trkpt>
      <trkpt lat="49.15971" lon="4.05035">
        <ele>200.3</ele>
        <time>2026-08-20T13:37:59Z</time>
      </trkpt>
      <trkpt lat="49.15971" lon="4.05036">
        <ele>200.2</ele>
        <time>2026-08-20T13:38:04Z</time>
      </trkpt>
      <trkpt lat="49.15971" lon="4.05036">
        <ele>200.2</ele>
        <time>2026-08-20T13:38:10Z</time>
      </trkpt>
      <trkpt lat="49.15971" lon="4.05036">
        <ele>200.2</ele>
        <time>2026-08-20T13:38:15Z</time>
      </trkpt>
      <trkpt lat="49.15971" lon="4.05036">
        <ele>200.2</ele>
        <time>2026-08-20T13:38:20Z</time>
      </trkpt>
      <trkpt lat="49.15971" lon="4.05036">
        <ele>200.2</ele>
        <time>2026-08-20T13:38:26Z</time>
      </trkpt>
      <trkpt lat="49.15971" lon="4.05036">
        <ele>200.2</ele>
        <time>2026-08-20T13:38:31Z</time>
      </trkpt>
      <trkpt lat="49.15971" lon="4.05036">
        <ele>200.2</ele>
        <time>2026-08-20T13:38:36Z</time>
      </trkpt>
      <trkpt lat="49.15974" lon="4.05035">
        <ele>199.9</ele>
        <time>2026-08-20T13:38:42Z</time>
      </trkpt>
      <trkpt lat="49.15975" lon="4.05034">
        <ele>199.8</ele>
        <time>2026-08-20T13:38:47Z</time>
      </trkpt>
      <trkpt lat="49.15975" lon="4.05034">
        <ele>199.8</ele>
        <time>2026-08-20T13:38:52Z</time>
      </trkpt>
      <trkpt lat="49.15976" lon="4.0503">
        <ele>199.9</ele>
        <time>2026-08-20T13:38:58Z</time>
      </trkpt>
      <trkpt lat="49.15978" lon="4.05025">
        <ele>200</ele>
        <time>2026-08-20T13:39:03Z</time>
      </trkpt>
      <trkpt lat="49.1598" lon="4.05024">
        <ele>199.8</ele>
        <time>2026-08-20T13:39:08Z</time>
      </trkpt>
      <trkpt lat="49.15983" lon="4.0502">
        <ele>199.7</ele>
        <time>2026-08-20T13:39:14Z</time>
      </trkpt>
      <trkpt lat="49.15985" lon="4.05018">
        <ele>199.6</ele>
        <time>2026-08-20T13:39:19Z</time>
      </trkpt>
      <trkpt lat="49.15986" lon="4.05014">
        <ele>199.7</ele>
        <time>2026-08-20T13:39:24Z</time>
      </trkpt>
      <trkpt lat="49.15987" lon="4.05008">
        <ele>200</ele>
        <time>2026-08-20T13:39:30Z</time>
      </trkpt>
      <trkpt lat="49.1599" lon="4.05002">
        <ele>200.1</ele>
        <time>2026-08-20T13:39:35Z</time>
      </trkpt>
      <trkpt lat="49.15994" lon="4.04996">
        <ele>200</ele>
        <time>2026-08-20T13:39:40Z</time>
      </trkpt>
      <trkpt lat="49.15999" lon="4.0499">
        <ele>200</ele>
        <time>2026-08-20T13:39:46Z</time>
      </trkpt>
      <trkpt lat="49.16" lon="4.04986">
        <ele>200.2</ele>
        <time>2026-08-20T13:39:51Z</time>
      </trkpt>
      <trkpt lat="49.16004" lon="4.04981">
        <ele>200.5</ele>
        <time>2026-08-20T13:39:56Z</time>
      </trkpt>
      <trkpt lat="49.16006" lon="4.04973">
        <ele>201.1</ele>
        <time>2026-08-20T13:40:02Z</time>
      </trkpt>
      <trkpt lat="49.16008" lon="4.04969">
        <ele>201.3</ele>
        <time>2026-08-20T13:40:07Z</time>
      </trkpt>
      <trkpt lat="49.16009" lon="4.04964">
        <ele>201.7</ele>
        <time>2026-08-20T13:40:12Z</time>
      </trkpt>
      <trkpt lat="49.1601" lon="4.0496">
        <ele>202</ele>
        <time>2026-08-20T13:40:18Z</time>
      </trkpt>
      <trkpt lat="49.16013" lon="4.04954">
        <ele>202.4</ele>
        <time>2026-08-20T13:40:23Z</time>
      </trkpt>
      <trkpt lat="49.16016" lon="4.0495">
        <ele>202.6</ele>
        <time>2026-08-20T13:40:28Z</time>
      </trkpt>
      <trkpt lat="49.1602" lon="4.04947">
        <ele>202.7</ele>
        <time>2026-08-20T13:40:34Z</time>
      </trkpt>
      <trkpt lat="49.16025" lon="4.04942">
        <ele>203</ele>
        <time>2026-08-20T13:40:39Z</time>
      </trkpt>
      <trkpt lat="49.16029" lon="4.04936">
        <ele>203.3</ele>
        <time>2026-08-20T13:40:44Z</time>
      </trkpt>
      <trkpt lat="49.16033" lon="4.04928">
        <ele>203.9</ele>
        <time>2026-08-20T13:40:50Z</time>
      </trkpt>
      <trkpt lat="49.16037" lon="4.0492">
        <ele>204.4</ele>
        <time>2026-08-20T13:40:55Z</time>
      </trkpt>
      <trkpt lat="49.16039" lon="4.04914">
        <ele>204.8</ele>
        <time>2026-08-20T13:41:00Z</time>
      </trkpt>
      <trkpt lat="49.16045" lon="4.04907">
        <ele>205</ele>
        <time>2026-08-20T13:41:06Z</time>
      </trkpt>
      <trkpt lat="49.16048" lon="4.04906">
        <ele>205</ele>
        <time>2026-08-20T13:41:11Z</time>
      </trkpt>
      <trkpt lat="49.16054" lon="4.04905">
        <ele>204.8</ele>
        <time>2026-08-20T13:41:16Z</time>
      </trkpt>
      <trkpt lat="49.1606" lon="4.04901">
        <ele>204.8</ele>
        <time>2026-08-20T13:41:22Z</time>
      </trkpt>
      <trkpt lat="49.16064" lon="4.04896">
        <ele>205</ele>
        <time>2026-08-20T13:41:27Z</time>
      </trkpt>
      <trkpt lat="49.16067" lon="4.0489">
        <ele>205.3</ele>
        <time>2026-08-20T13:41:32Z</time>
      </trkpt>
      <trkpt lat="49.16072" lon="4.0488">
        <ele>205.7</ele>
        <time>2026-08-20T13:41:38Z</time>
      </trkpt>
      <trkpt lat="49.16075" lon="4.04875">
        <ele>205.8</ele>
        <time>2026-08-20T13:41:43Z</time>
      </trkpt>
      <trkpt lat="49.16074" lon="4.04867">
        <ele>206.4</ele>
        <time>2026-08-20T13:41:48Z</time>
      </trkpt>
      <trkpt lat="49.16075" lon="4.04856">
        <ele>207</ele>
        <time>2026-08-20T13:41:54Z</time>
      </trkpt>
      <trkpt lat="49.16075" lon="4.04847">
        <ele>207.6</ele>
        <time>2026-08-20T13:41:59Z</time>
      </trkpt>
      <trkpt lat="49.16075" lon="4.04838">
        <ele>208.1</ele>
        <time>2026-08-20T13:42:04Z</time>
      </trkpt>
      <trkpt lat="49.16076" lon="4.04828">
        <ele>208.7</ele>
        <time>2026-08-20T13:42:10Z</time>
      </trkpt>
      <trkpt lat="49.16078" lon="4.0482">
        <ele>209</ele>
        <time>2026-08-20T13:42:15Z</time>
      </trkpt>
      <trkpt lat="49.16077" lon="4.04815">
        <ele>209.4</ele>
        <time>2026-08-20T13:42:20Z</time>
      </trkpt>
      <trkpt lat="49.16077" lon="4.04809">
        <ele>209.7</ele>
        <time>2026-08-20T13:42:26Z</time>
      </trkpt>
      <trkpt lat="49.16078" lon="4.048">
        <ele>210.2</ele>
        <time>2026-08-20T13:42:31Z</time>
      </trkpt>
      <trkpt lat="49.16077" lon="4.04796">
        <ele>210.5</ele>
        <time>2026-08-20T13:42:36Z</time>
      </trkpt>
      <trkpt lat="49.16077" lon="4.04796">
        <ele>210.5</ele>
        <time>2026-08-20T13:42:42Z</time>
      </trkpt>
      <trkpt lat="49.16077" lon="4.04796">
        <ele>210.5</ele>
        <time>2026-08-20T13:42:47Z</time>
      </trkpt>
      <trkpt lat="49.16077" lon="4.04796">
        <ele>210.5</ele>
        <time>2026-08-20T13:42:52Z</time>
      </trkpt>
      <trkpt lat="49.16077" lon="4.04796">
        <ele>210.5</ele>
        <time>2026-08-20T13:42:58Z</time>
      </trkpt>
      <trkpt lat="49.16077" lon="4.04796">
        <ele>210.5</ele>
        <time>2026-08-20T13:43:03Z</time>
      </trkpt>
      <trkpt lat="49.16077" lon="4.04796">
        <ele>210.5</ele>
        <time>2026-08-20T13:43:08Z</time>
      </trkpt>
      <trkpt lat="49.16077" lon="4.04796">
        <ele>210.5</ele>
        <time>2026-08-20T13:43:14Z</time>
      </trkpt>
      <trkpt lat="49.16077" lon="4.04796">
        <ele>210.5</ele>
        <time>2026-08-20T13:43:19Z</time>
      </trkpt>
      <trkpt lat="49.16077" lon="4.04796">
        <ele>210.5</ele>
        <time>2026-08-20T13:43:24Z</time>
      </trkpt>
      <trkpt lat="49.16077" lon="4.04796">
        <ele>210.5</ele>
        <time>2026-08-20T13:43:30Z</time>
      </trkpt>
      <trkpt lat="49.16077" lon="4.04796">
        <ele>210.5</ele>
        <time>2026-08-20T13:43:35Z</time>
      </trkpt>
      <trkpt lat="49.16077" lon="4.04796">
        <ele>210.5</ele>
        <time>2026-08-20T13:43:40Z</time>
      </trkpt>
      <trkpt lat="49.1608" lon="4.04798">
        <ele>210.3</ele>
        <time>2026-08-20T13:43:46Z</time>
      </trkpt>
      <trkpt lat="49.1608" lon="4.04806">
        <ele>209.8</ele>
        <time>2026-08-20T13:43:51Z</time>
      </trkpt>
      <trkpt lat="49.16078" lon="4.04815">
        <ele>209.3</ele>
        <time>2026-08-20T13:43:56Z</time>
      </trkpt>
      <trkpt lat="49.16076" lon="4.04826">
        <ele>208.8</ele>
        <time>2026-08-20T13:44:02Z</time>
      </trkpt>
      <trkpt lat="49.16076" lon="4.04835">
        <ele>208.3</ele>
        <time>2026-08-20T13:44:07Z</time>
      </trkpt>
      <trkpt lat="49.16076" lon="4.04837">
        <ele>208.1</ele>
        <time>2026-08-20T13:44:12Z</time>
      </trkpt>
      <trkpt lat="49.16074" lon="4.04841">
        <ele>208</ele>
        <time>2026-08-20T13:44:18Z</time>
      </trkpt>
      <trkpt lat="49.16072" lon="4.04848">
        <ele>207.6</ele>
        <time>2026-08-20T13:44:23Z</time>
      </trkpt>
      <trkpt lat="49.16072" lon="4.04856">
        <ele>207.1</ele>
        <time>2026-08-20T13:44:28Z</time>
      </trkpt>
      <trkpt lat="49.16075" lon="4.04866">
        <ele>206.4</ele>
        <time>2026-08-20T13:44:34Z</time>
      </trkpt>
      <trkpt lat="49.16073" lon="4.04874">
        <ele>206</ele>
        <time>2026-08-20T13:44:39Z</time>
      </trkpt>
      <trkpt lat="49.16069" lon="4.04882">
        <ele>205.7</ele>
        <time>2026-08-20T13:44:44Z</time>
      </trkpt>
      <trkpt lat="49.16063" lon="4.04888">
        <ele>205.5</ele>
        <time>2026-08-20T13:44:50Z</time>
      </trkpt>
      <trkpt lat="49.16058" lon="4.04895">
        <ele>205.3</ele>
        <time>2026-08-20T13:44:55Z</time>
      </trkpt>
      <trkpt lat="49.16054" lon="4.04899">
        <ele>205.2</ele>
        <time>2026-08-20T13:45:00Z</time>
      </trkpt>
      <trkpt lat="49.16052" lon="4.04898">
        <ele>205.3</ele>
        <time>2026-08-20T13:45:06Z</time>
      </trkpt>
      <trkpt lat="49.1605" lon="4.04896">
        <ele>205.5</ele>
        <time>2026-08-20T13:45:11Z</time>
      </trkpt>
      <trkpt lat="49.16047" lon="4.04895">
        <ele>205.7</ele>
        <time>2026-08-20T13:45:16Z</time>
      </trkpt>
      <trkpt lat="49.16045" lon="4.04892">
        <ele>206</ele>
        <time>2026-08-20T13:45:22Z</time>
      </trkpt>
      <trkpt lat="49.16048" lon="4.04884">
        <ele>206.4</ele>
        <time>2026-08-20T13:45:27Z</time>
      </trkpt>
      <trkpt lat="49.16051" lon="4.04878">
        <ele>206.7</ele>
        <time>2026-08-20T13:45:32Z</time>
      </trkpt>
      <trkpt lat="49.16054" lon="4.04867">
        <ele>207.2</ele>
        <time>2026-08-20T13:45:38Z</time>
      </trkpt>
      <trkpt lat="49.16055" lon="4.04859">
        <ele>207.7</ele>
        <time>2026-08-20T13:45:43Z</time>
      </trkpt>
      <trkpt lat="49.16056" lon="4.0485">
        <ele>208.2</ele>
        <time>2026-08-20T13:45:48Z</time>
      </trkpt>
      <trkpt lat="49.16056" lon="4.0484">
        <ele>208.9</ele>
        <time>2026-08-20T13:45:54Z</time>
      </trkpt>
      <trkpt lat="49.16056" lon="4.04833">
        <ele>209.3</ele>
        <time>2026-08-20T13:45:59Z</time>
      </trkpt>
      <trkpt lat="49.16057" lon="4.04825">
        <ele>209.7</ele>
        <time>2026-08-20T13:46:04Z</time>
      </trkpt>
      <trkpt lat="49.16057" lon="4.04814">
        <ele>210.4</ele>
        <time>2026-08-20T13:46:10Z</time>
      </trkpt>
      <trkpt lat="49.16058" lon="4.04808">
        <ele>210.6</ele>
        <time>2026-08-20T13:46:15Z</time>
      </trkpt>
      <trkpt lat="49.16058" lon="4.04803">
        <ele>210.9</ele>
        <time>2026-08-20T13:46:20Z</time>
      </trkpt>
      <trkpt lat="49.16057" lon="4.04802">
        <ele>211</ele>
        <time>2026-08-20T13:46:26Z</time>
      </trkpt>
      <trkpt lat="49.16057" lon="4.04802">
        <ele>211</ele>
        <time>2026-08-20T13:46:31Z</time>
      </trkpt>
      <trkpt lat="49.16057" lon="4.04799">
        <ele>211.2</ele>
        <time>2026-08-20T13:46:36Z</time>
      </trkpt>
      <trkpt lat="49.16058" lon="4.04791">
        <ele>211.6</ele>
        <time>2026-08-20T13:46:42Z</time>
      </trkpt>
      <trkpt lat="49.16056" lon="4.04782">
        <ele>212.2</ele>
        <time>2026-08-20T13:46:47Z</time>
      </trkpt>
      <trkpt lat="49.16055" lon="4.04775">
        <ele>212.6</ele>
        <time>2026-08-20T13:46:52Z</time>
      </trkpt>
      <trkpt lat="49.16055" lon="4.0477">
        <ele>212.9</ele>
        <time>2026-08-20T13:46:58Z</time>
      </trkpt>
      <trkpt lat="49.16056" lon="4.04762">
        <ele>213.3</ele>
        <time>2026-08-20T13:47:03Z</time>
      </trkpt>
      <trkpt lat="49.16056" lon="4.04754">
        <ele>213.8</ele>
        <time>2026-08-20T13:47:08Z</time>
      </trkpt>
      <trkpt lat="49.16056" lon="4.04745">
        <ele>214</ele>
        <time>2026-08-20T13:47:14Z</time>
      </trkpt>
      <trkpt lat="49.16056" lon="4.04738">
        <ele>214</ele>
        <time>2026-08-20T13:47:19Z</time>
      </trkpt>
      <trkpt lat="49.16055" lon="4.04735">
        <ele>214</ele>
        <time>2026-08-20T13:47:24Z</time>
      </trkpt>
      <trkpt lat="49.16055" lon="4.04735">
        <ele>214</ele>
        <time>2026-08-20T13:47:30Z</time>
      </trkpt>
      <trkpt lat="49.16055" lon="4.04735">
        <ele>214</ele>
        <time>2026-08-20T13:47:35Z</time>
      </trkpt>
      <trkpt lat="49.16055" lon="4.04735">
        <ele>214</ele>
        <time>2026-08-20T13:47:40Z</time>
      </trkpt>
      <trkpt lat="49.16055" lon="4.04735">
        <ele>214</ele>
        <time>2026-08-20T13:47:46Z</time>
      </trkpt>
      <trkpt lat="49.16055" lon="4.04735">
        <ele>214</ele>
        <time>2026-08-20T13:47:51Z</time>
      </trkpt>
      <trkpt lat="49.16055" lon="4.04735">
        <ele>214</ele>
        <time>2026-08-20T13:47:56Z</time>
      </trkpt>
      <trkpt lat="49.16054" lon="4.04737">
        <ele>214.1</ele>
        <time>2026-08-20T13:48:02Z</time>
      </trkpt>
      <trkpt lat="49.16054" lon="4.04747">
        <ele>214.1</ele>
        <time>2026-08-20T13:48:07Z</time>
      </trkpt>
      <trkpt lat="49.16055" lon="4.04758">
        <ele>213.6</ele>
        <time>2026-08-20T13:48:12Z</time>
      </trkpt>
      <trkpt lat="49.16054" lon="4.04759">
        <ele>213.6</ele>
        <time>2026-08-20T13:48:18Z</time>
      </trkpt>
      <trkpt lat="49.16053" lon="4.04764">
        <ele>213.3</ele>
        <time>2026-08-20T13:48:23Z</time>
      </trkpt>
      <trkpt lat="49.1605" lon="4.04768">
        <ele>213.2</ele>
        <time>2026-08-20T13:48:28Z</time>
      </trkpt>
      <trkpt lat="49.16046" lon="4.04762">
        <ele>213.7</ele>
        <time>2026-08-20T13:48:34Z</time>
      </trkpt>
      <trkpt lat="49.16043" lon="4.04756">
        <ele>214.1</ele>
        <time>2026-08-20T13:48:39Z</time>
      </trkpt>
      <trkpt lat="49.16041" lon="4.0475">
        <ele>214.5</ele>
        <time>2026-08-20T13:48:44Z</time>
      </trkpt>
      <trkpt lat="49.1604" lon="4.04739">
        <ele>214.6</ele>
        <time>2026-08-20T13:48:50Z</time>
      </trkpt>
      <trkpt lat="49.16038" lon="4.04731">
        <ele>214.8</ele>
        <time>2026-08-20T13:48:55Z</time>
      </trkpt>
      <trkpt lat="49.16037" lon="4.04724">
        <ele>214.9</ele>
        <time>2026-08-20T13:49:00Z</time>
      </trkpt>
      <trkpt lat="49.16035" lon="4.04714">
        <ele>215.1</ele>
        <time>2026-08-20T13:49:06Z</time>
      </trkpt>
      <trkpt lat="49.16034" lon="4.04709">
        <ele>215.2</ele>
        <time>2026-08-20T13:49:11Z</time>
      </trkpt>
      <trkpt lat="49.16034" lon="4.04705">
        <ele>215.2</ele>
        <time>2026-08-20T13:49:16Z</time>
      </trkpt>
      <trkpt lat="49.16038" lon="4.04701">
        <ele>215</ele>
        <time>2026-08-20T13:49:22Z</time>
      </trkpt>
      <trkpt lat="49.1604" lon="4.04695">
        <ele>214.9</ele>
        <time>2026-08-20T13:49:27Z</time>
      </trkpt>
      <trkpt lat="49.1604" lon="4.04689">
        <ele>215</ele>
        <time>2026-08-20T13:49:32Z</time>
      </trkpt>
      <trkpt lat="49.16039" lon="4.04679">
        <ele>215.1</ele>
        <time>2026-08-20T13:49:38Z</time>
      </trkpt>
      <trkpt lat="49.16036" lon="4.04677">
        <ele>215.3</ele>
        <time>2026-08-20T13:49:43Z</time>
      </trkpt>
      <trkpt lat="49.16034" lon="4.04677">
        <ele>215.5</ele>
        <time>2026-08-20T13:49:48Z</time>
      </trkpt>
      <trkpt lat="49.16034" lon="4.04676">
        <ele>215.5</ele>
        <time>2026-08-20T13:49:54Z</time>
      </trkpt>
      <trkpt lat="49.16034" lon="4.04676">
        <ele>215.5</ele>
        <time>2026-08-20T13:49:59Z</time>
      </trkpt>
      <trkpt lat="49.16034" lon="4.04676">
        <ele>215.5</ele>
        <time>2026-08-20T13:50:04Z</time>
      </trkpt>
      <trkpt lat="49.16034" lon="4.04676">
        <ele>215.5</ele>
        <time>2026-08-20T13:50:10Z</time>
      </trkpt>
      <trkpt lat="49.16034" lon="4.04676">
        <ele>215.5</ele>
        <time>2026-08-20T13:50:15Z</time>
      </trkpt>
      <trkpt lat="49.1604" lon="4.04676">
        <ele>215.1</ele>
        <time>2026-08-20T13:50:20Z</time>
      </trkpt>
      <trkpt lat="49.16044" lon="4.04672">
        <ele>214.8</ele>
        <time>2026-08-20T13:50:26Z</time>
      </trkpt>
      <trkpt lat="49.16048" lon="4.0467">
        <ele>214.5</ele>
        <time>2026-08-20T13:50:31Z</time>
      </trkpt>
      <trkpt lat="49.16053" lon="4.0467">
        <ele>214.2</ele>
        <time>2026-08-20T13:50:36Z</time>
      </trkpt>
      <trkpt lat="49.16058" lon="4.04667">
        <ele>213.8</ele>
        <time>2026-08-20T13:50:42Z</time>
      </trkpt>
      <trkpt lat="49.16064" lon="4.04665">
        <ele>213.4</ele>
        <time>2026-08-20T13:50:47Z</time>
      </trkpt>
      <trkpt lat="49.16068" lon="4.04661">
        <ele>213.3</ele>
        <time>2026-08-20T13:50:52Z</time>
      </trkpt>
      <trkpt lat="49.16073" lon="4.04656">
        <ele>213</ele>
        <time>2026-08-20T13:50:58Z</time>
      </trkpt>
      <trkpt lat="49.16078" lon="4.0465">
        <ele>212.8</ele>
        <time>2026-08-20T13:51:03Z</time>
      </trkpt>
      <trkpt lat="49.16082" lon="4.04642">
        <ele>212.7</ele>
        <time>2026-08-20T13:51:08Z</time>
      </trkpt>
      <trkpt lat="49.16087" lon="4.04633">
        <ele>212.3</ele>
        <time>2026-08-20T13:51:14Z</time>
      </trkpt>
      <trkpt lat="49.1609" lon="4.04627">
        <ele>212</ele>
        <time>2026-08-20T13:51:19Z</time>
      </trkpt>
      <trkpt lat="49.16092" lon="4.04619">
        <ele>211.9</ele>
        <time>2026-08-20T13:51:24Z</time>
      </trkpt>
      <trkpt lat="49.16098" lon="4.04612">
        <ele>211.2</ele>
        <time>2026-08-20T13:51:30Z</time>
      </trkpt>
      <trkpt lat="49.16101" lon="4.04605">
        <ele>210.9</ele>
        <time>2026-08-20T13:51:35Z</time>
      </trkpt>
      <trkpt lat="49.16104" lon="4.04598">
        <ele>210.7</ele>
        <time>2026-08-20T13:51:40Z</time>
      </trkpt>
      <trkpt lat="49.16109" lon="4.04591">
        <ele>210.1</ele>
        <time>2026-08-20T13:51:46Z</time>
      </trkpt>
      <trkpt lat="49.16114" lon="4.04583">
        <ele>209.6</ele>
        <time>2026-08-20T13:51:51Z</time>
      </trkpt>
      <trkpt lat="49.16117" lon="4.04575">
        <ele>209.7</ele>
        <time>2026-08-20T13:51:56Z</time>
      </trkpt>
      <trkpt lat="49.16122" lon="4.04567">
        <ele>209.5</ele>
        <time>2026-08-20T13:52:02Z</time>
      </trkpt>
      <trkpt lat="49.16126" lon="4.0456">
        <ele>209.4</ele>
        <time>2026-08-20T13:52:07Z</time>
      </trkpt>
      <trkpt lat="49.16131" lon="4.04553">
        <ele>209.1</ele>
        <time>2026-08-20T13:52:12Z</time>
      </trkpt>
      <trkpt lat="49.16133" lon="4.04545">
        <ele>209.3</ele>
        <time>2026-08-20T13:52:18Z</time>
      </trkpt>
      <trkpt lat="49.16135" lon="4.04537">
        <ele>209.6</ele>
        <time>2026-08-20T13:52:23Z</time>
      </trkpt>
      <trkpt lat="49.16136" lon="4.04529">
        <ele>209.9</ele>
        <time>2026-08-20T13:52:28Z</time>
      </trkpt>
      <trkpt lat="49.1614" lon="4.0452">
        <ele>209.9</ele>
        <time>2026-08-20T13:52:34Z</time>
      </trkpt>
      <trkpt lat="49.16144" lon="4.04512">
        <ele>209.8</ele>
        <time>2026-08-20T13:52:39Z</time>
      </trkpt>
      <trkpt lat="49.16146" lon="4.04504">
        <ele>210</ele>
        <time>2026-08-20T13:52:44Z</time>
      </trkpt>
      <trkpt lat="49.16144" lon="4.04497">
        <ele>210.7</ele>
        <time>2026-08-20T13:52:50Z</time>
      </trkpt>
      <trkpt lat="49.16145" lon="4.04496">
        <ele>210.6</ele>
        <time>2026-08-20T13:52:55Z</time>
      </trkpt>
      <trkpt lat="49.16145" lon="4.04496">
        <ele>210.6</ele>
        <time>2026-08-20T13:53:00Z</time>
      </trkpt>
      <trkpt lat="49.16145" lon="4.04496">
        <ele>210.6</ele>
        <time>2026-08-20T13:53:06Z</time>
      </trkpt>
      <trkpt lat="49.16148" lon="4.04499">
        <ele>210</ele>
        <time>2026-08-20T13:53:11Z</time>
      </trkpt>
      <trkpt lat="49.16154" lon="4.04502">
        <ele>208.9</ele>
        <time>2026-08-20T13:53:16Z</time>
      </trkpt>
      <trkpt lat="49.16161" lon="4.04493">
        <ele>208.4</ele>
        <time>2026-08-20T13:53:22Z</time>
      </trkpt>
      <trkpt lat="49.16162" lon="4.04484">
        <ele>208.8</ele>
        <time>2026-08-20T13:53:27Z</time>
      </trkpt>
      <trkpt lat="49.16162" lon="4.04475">
        <ele>209.4</ele>
        <time>2026-08-20T13:53:32Z</time>
      </trkpt>
      <trkpt lat="49.16162" lon="4.04464">
        <ele>210.2</ele>
        <time>2026-08-20T13:53:38Z</time>
      </trkpt>
      <trkpt lat="49.1616" lon="4.04456">
        <ele>211</ele>
        <time>2026-08-20T13:53:43Z</time>
      </trkpt>
      <trkpt lat="49.16154" lon="4.04453">
        <ele>211.8</ele>
        <time>2026-08-20T13:53:48Z</time>
      </trkpt>
      <trkpt lat="49.16147" lon="4.04452">
        <ele>212.7</ele>
        <time>2026-08-20T13:53:54Z</time>
      </trkpt>
      <trkpt lat="49.16141" lon="4.04451">
        <ele>213.4</ele>
        <time>2026-08-20T13:53:59Z</time>
      </trkpt>
      <trkpt lat="49.16136" lon="4.04452">
        <ele>214</ele>
        <time>2026-08-20T13:54:04Z</time>
      </trkpt>
      <trkpt lat="49.16134" lon="4.04452">
        <ele>214.2</ele>
        <time>2026-08-20T13:54:10Z</time>
      </trkpt>
      <trkpt lat="49.16131" lon="4.04451">
        <ele>214.6</ele>
        <time>2026-08-20T13:54:15Z</time>
      </trkpt>
      <trkpt lat="49.16126" lon="4.04448">
        <ele>215.3</ele>
        <time>2026-08-20T13:54:20Z</time>
      </trkpt>
      <trkpt lat="49.16124" lon="4.04446">
        <ele>215.6</ele>
        <time>2026-08-20T13:54:26Z</time>
      </trkpt>
      <trkpt lat="49.16123" lon="4.04446">
        <ele>215.7</ele>
        <time>2026-08-20T13:54:31Z</time>
      </trkpt>
      <trkpt lat="49.16119" lon="4.04444">
        <ele>216.2</ele>
        <time>2026-08-20T13:54:36Z</time>
      </trkpt>
      <trkpt lat="49.16115" lon="4.04439">
        <ele>216.7</ele>
        <time>2026-08-20T13:54:42Z</time>
      </trkpt>
      <trkpt lat="49.16112" lon="4.04438">
        <ele>217.1</ele>
        <time>2026-08-20T13:54:47Z</time>
      </trkpt>
      <trkpt lat="49.16109" lon="4.04438">
        <ele>217.4</ele>
        <time>2026-08-20T13:54:52Z</time>
      </trkpt>
      <trkpt lat="49.16108" lon="4.04439">
        <ele>217.5</ele>
        <time>2026-08-20T13:54:58Z</time>
      </trkpt>
      <trkpt lat="49.16108" lon="4.04439">
        <ele>217.5</ele>
        <time>2026-08-20T13:55:03Z</time>
      </trkpt>
      <trkpt lat="49.16108" lon="4.04439">
        <ele>217.5</ele>
        <time>2026-08-20T13:55:08Z</time>
      </trkpt>
      <trkpt lat="49.16102" lon="4.04433">
        <ele>218.2</ele>
        <time>2026-08-20T13:55:14Z</time>
      </trkpt>
      <trkpt lat="49.16097" lon="4.04429">
        <ele>218.7</ele>
        <time>2026-08-20T13:55:19Z</time>
      </trkpt>
      <trkpt lat="49.16092" lon="4.04426">
        <ele>219.2</ele>
        <time>2026-08-20T13:55:24Z</time>
      </trkpt>
      <trkpt lat="49.16088" lon="4.04424">
        <ele>219.6</ele>
        <time>2026-08-20T13:55:30Z</time>
      </trkpt>
      <trkpt lat="49.16087" lon="4.04425">
        <ele>219.7</ele>
        <time>2026-08-20T13:55:35Z</time>
      </trkpt>
      <trkpt lat="49.16085" lon="4.04424">
        <ele>219.8</ele>
        <time>2026-08-20T13:55:40Z</time>
      </trkpt>
      <trkpt lat="49.16081" lon="4.0442">
        <ele>220.2</ele>
        <time>2026-08-20T13:55:46Z</time>
      </trkpt>
      <trkpt lat="49.16077" lon="4.04417">
        <ele>220.6</ele>
        <time>2026-08-20T13:55:51Z</time>
      </trkpt>
      <trkpt lat="49.16072" lon="4.04415">
        <ele>221.2</ele>
        <time>2026-08-20T13:55:56Z</time>
      </trkpt>
      <trkpt lat="49.16067" lon="4.04411">
        <ele>221.9</ele>
        <time>2026-08-20T13:56:02Z</time>
      </trkpt>
      <trkpt lat="49.16066" lon="4.0441">
        <ele>222.1</ele>
        <time>2026-08-20T13:56:07Z</time>
      </trkpt>
      <trkpt lat="49.16063" lon="4.04406">
        <ele>222.7</ele>
        <time>2026-08-20T13:56:12Z</time>
      </trkpt>
      <trkpt lat="49.16057" lon="4.04404">
        <ele>223.4</ele>
        <time>2026-08-20T13:56:18Z</time>
      </trkpt>
      <trkpt lat="49.16052" lon="4.04401">
        <ele>224.2</ele>
        <time>2026-08-20T13:56:23Z</time>
      </trkpt>
      <trkpt lat="49.16046" lon="4.04396">
        <ele>225.2</ele>
        <time>2026-08-20T13:56:28Z</time>
      </trkpt>
      <trkpt lat="49.16042" lon="4.04391">
        <ele>226</ele>
        <time>2026-08-20T13:56:34Z</time>
      </trkpt>
      <trkpt lat="49.1604" lon="4.04389">
        <ele>226.3</ele>
        <time>2026-08-20T13:56:39Z</time>
      </trkpt>
      <trkpt lat="49.1604" lon="4.04387">
        <ele>226.5</ele>
        <time>2026-08-20T13:56:44Z</time>
      </trkpt>
      <trkpt lat="49.1604" lon="4.04387">
        <ele>226.5</ele>
        <time>2026-08-20T13:56:50Z</time>
      </trkpt>
      <trkpt lat="49.1604" lon="4.04387">
        <ele>226.5</ele>
        <time>2026-08-20T13:56:55Z</time>
      </trkpt>
      <trkpt lat="49.16033" lon="4.04389">
        <ele>227.1</ele>
        <time>2026-08-20T13:57:00Z</time>
      </trkpt>
      <trkpt lat="49.16029" lon="4.04389">
        <ele>227.5</ele>
        <time>2026-08-20T13:57:06Z</time>
      </trkpt>
      <trkpt lat="49.16026" lon="4.04387">
        <ele>228</ele>
        <time>2026-08-20T13:57:11Z</time>
      </trkpt>
      <trkpt lat="49.16021" lon="4.04386">
        <ele>228.6</ele>
        <time>2026-08-20T13:57:16Z</time>
      </trkpt>
      <trkpt lat="49.16015" lon="4.04385">
        <ele>229.4</ele>
        <time>2026-08-20T13:57:22Z</time>
      </trkpt>
      <trkpt lat="49.1601" lon="4.04384">
        <ele>230</ele>
        <time>2026-08-20T13:57:27Z</time>
      </trkpt>
      <trkpt lat="49.16007" lon="4.04382">
        <ele>230.6</ele>
        <time>2026-08-20T13:57:32Z</time>
      </trkpt>
      <trkpt lat="49.16002" lon="4.04382">
        <ele>231.1</ele>
        <time>2026-08-20T13:57:38Z</time>
      </trkpt>
      <trkpt lat="49.15998" lon="4.04381">
        <ele>231.7</ele>
        <time>2026-08-20T13:57:43Z</time>
      </trkpt>
      <trkpt lat="49.15993" lon="4.04378">
        <ele>232.5</ele>
        <time>2026-08-20T13:57:48Z</time>
      </trkpt>
      <trkpt lat="49.15983" lon="4.04376">
        <ele>233.9</ele>
        <time>2026-08-20T13:57:54Z</time>
      </trkpt>
      <trkpt lat="49.15976" lon="4.04374">
        <ele>235</ele>
        <time>2026-08-20T13:57:59Z</time>
      </trkpt>
      <trkpt lat="49.1597" lon="4.04373">
        <ele>235.8</ele>
        <time>2026-08-20T13:58:04Z</time>
      </trkpt>
      <trkpt lat="49.15964" lon="4.04371">
        <ele>236.7</ele>
        <time>2026-08-20T13:58:10Z</time>
      </trkpt>
      <trkpt lat="49.15961" lon="4.0437">
        <ele>237.2</ele>
        <time>2026-08-20T13:58:15Z</time>
      </trkpt>
      <trkpt lat="49.15958" lon="4.04367">
        <ele>237.9</ele>
        <time>2026-08-20T13:58:20Z</time>
      </trkpt>
      <trkpt lat="49.15954" lon="4.04361">
        <ele>239</ele>
        <time>2026-08-20T13:58:26Z</time>
      </trkpt>
      <trkpt lat="49.15954" lon="4.04361">
        <ele>239</ele>
        <time>2026-08-20T13:58:31Z</time>
      </trkpt>
      <trkpt lat="49.15954" lon="4.04361">
        <ele>239</ele>
        <time>2026-08-20T13:58:36Z</time>
      </trkpt>
      <trkpt lat="49.15954" lon="4.04361">
        <ele>239</ele>
        <time>2026-08-20T13:58:42Z</time>
      </trkpt>
      <trkpt lat="49.15954" lon="4.04361">
        <ele>239</ele>
        <time>2026-08-20T13:58:47Z</time>
      </trkpt>
      <trkpt lat="49.15954" lon="4.0435">
        <ele>240.3</ele>
        <time>2026-08-20T13:58:52Z</time>
      </trkpt>
      <trkpt lat="49.1595" lon="4.04347">
        <ele>241.1</ele>
        <time>2026-08-20T13:58:58Z</time>
      </trkpt>
      <trkpt lat="49.15947" lon="4.04343">
        <ele>241.9</ele>
        <time>2026-08-20T13:59:03Z</time>
      </trkpt>
      <trkpt lat="49.15942" lon="4.04338">
        <ele>243.1</ele>
        <time>2026-08-20T13:59:08Z</time>
      </trkpt>
      <trkpt lat="49.15936" lon="4.04333">
        <ele>244.5</ele>
        <time>2026-08-20T13:59:14Z</time>
      </trkpt>
      <trkpt lat="49.15933" lon="4.04331">
        <ele>244.9</ele>
        <time>2026-08-20T13:59:19Z</time>
      </trkpt>
      <trkpt lat="49.15931" lon="4.0433">
        <ele>245.2</ele>
        <time>2026-08-20T13:59:24Z</time>
      </trkpt>
      <trkpt lat="49.1593" lon="4.04328">
        <ele>245.4</ele>
        <time>2026-08-20T13:59:30Z</time>
      </trkpt>
      <trkpt lat="49.1593" lon="4.04328">
        <ele>245.4</ele>
        <time>2026-08-20T13:59:35Z</time>
      </trkpt>
      <trkpt lat="49.1593" lon="4.04328">
        <ele>245.4</ele>
        <time>2026-08-20T13:59:40Z</time>
      </trkpt>
      <trkpt lat="49.1593" lon="4.04328">
        <ele>245.4</ele>
        <time>2026-08-20T13:59:46Z</time>
      </trkpt>
      <trkpt lat="49.1593" lon="4.04328">
        <ele>245.4</ele>
        <time>2026-08-20T13:59:51Z</time>
      </trkpt>
      <trkpt lat="49.1593" lon="4.04328">
        <ele>245.4</ele>
        <time>2026-08-20T13:59:56Z</time>
      </trkpt>
      <trkpt lat="49.1593" lon="4.04328">
        <ele>245.4</ele>
        <time>2026-08-20T14:00:02Z</time>
      </trkpt>
      <trkpt lat="49.1593" lon="4.04328">
        <ele>245.4</ele>
        <time>2026-08-20T14:00:07Z</time>
      </trkpt>
      <trkpt lat="49.1593" lon="4.04328">
        <ele>245.4</ele>
        <time>2026-08-20T14:00:12Z</time>
      </trkpt>
      <trkpt lat="49.1593" lon="4.04328">
        <ele>245.4</ele>
        <time>2026-08-20T14:00:18Z</time>
      </trkpt>
      <trkpt lat="49.1593" lon="4.04328">
        <ele>245.4</ele>
        <time>2026-08-20T14:00:23Z</time>
      </trkpt>
      <trkpt lat="49.1593" lon="4.04328">
        <ele>245.4</ele>
        <time>2026-08-20T14:00:28Z</time>
      </trkpt>
      <trkpt lat="49.1593" lon="4.04328">
        <ele>245.4</ele>
        <time>2026-08-20T14:00:34Z</time>
      </trkpt>
      <trkpt lat="49.1593" lon="4.04328">
        <ele>245.4</ele>
        <time>2026-08-20T14:00:39Z</time>
      </trkpt>
      <trkpt lat="49.1593" lon="4.04328">
        <ele>245.4</ele>
        <time>2026-08-20T14:00:44Z</time>
      </trkpt>
      <trkpt lat="49.15924" lon="4.0432">
        <ele>246.6</ele>
        <time>2026-08-20T14:00:50Z</time>
      </trkpt>
      <trkpt lat="49.15923" lon="4.04312">
        <ele>247.1</ele>
        <time>2026-08-20T14:00:55Z</time>
      </trkpt>
      <trkpt lat="49.15923" lon="4.0431">
        <ele>247.2</ele>
        <time>2026-08-20T14:01:00Z</time>
      </trkpt>
      <trkpt lat="49.15928" lon="4.04319">
        <ele>246.1</ele>
        <time>2026-08-20T14:01:06Z</time>
      </trkpt>
      <trkpt lat="49.1593" lon="4.04327">
        <ele>245.5</ele>
        <time>2026-08-20T14:01:11Z</time>
      </trkpt>
      <trkpt lat="49.15933" lon="4.04333">
        <ele>244.9</ele>
        <time>2026-08-20T14:01:16Z</time>
      </trkpt>
      <trkpt lat="49.15933" lon="4.04338">
        <ele>244.3</ele>
        <time>2026-08-20T14:01:22Z</time>
      </trkpt>
      <trkpt lat="49.15933" lon="4.04338">
        <ele>244.3</ele>
        <time>2026-08-20T14:01:27Z</time>
      </trkpt>
      <trkpt lat="49.15933" lon="4.04338">
        <ele>244.3</ele>
        <time>2026-08-20T14:01:32Z</time>
      </trkpt>
      <trkpt lat="49.15931" lon="4.04335">
        <ele>244.9</ele>
        <time>2026-08-20T14:01:38Z</time>
      </trkpt>
      <trkpt lat="49.15928" lon="4.04325">
        <ele>245.8</ele>
        <time>2026-08-20T14:01:43Z</time>
      </trkpt>
      <trkpt lat="49.15926" lon="4.04318">
        <ele>246.4</ele>
        <time>2026-08-20T14:01:48Z</time>
      </trkpt>
      <trkpt lat="49.15924" lon="4.04311">
        <ele>247</ele>
        <time>2026-08-20T14:01:54Z</time>
      </trkpt>
      <trkpt lat="49.15923" lon="4.04305">
        <ele>247.4</ele>
        <time>2026-08-20T14:01:59Z</time>
      </trkpt>
      <trkpt lat="49.15923" lon="4.04303">
        <ele>247.5</ele>
        <time>2026-08-20T14:02:04Z</time>
      </trkpt>
      <trkpt lat="49.15923" lon="4.04304">
        <ele>247.4</ele>
        <time>2026-08-20T14:02:10Z</time>
      </trkpt>
      <trkpt lat="49.15923" lon="4.04304">
        <ele>247.4</ele>
        <time>2026-08-20T14:02:15Z</time>
      </trkpt>
      <trkpt lat="49.15923" lon="4.04304">
        <ele>247.4</ele>
        <time>2026-08-20T14:02:20Z</time>
      </trkpt>
      <trkpt lat="49.15923" lon="4.04304">
        <ele>247.4</ele>
        <time>2026-08-20T14:02:26Z</time>
      </trkpt>
      <trkpt lat="49.15923" lon="4.04304">
        <ele>247.4</ele>
        <time>2026-08-20T14:02:31Z</time>
      </trkpt>
      <trkpt lat="49.15923" lon="4.04304">
        <ele>247.4</ele>
        <time>2026-08-20T14:02:36Z</time>
      </trkpt>
      <trkpt lat="49.15923" lon="4.04304">
        <ele>247.4</ele>
        <time>2026-08-20T14:02:42Z</time>
      </trkpt>
      <trkpt lat="49.15923" lon="4.04304">
        <ele>247.4</ele>
        <time>2026-08-20T14:02:47Z</time>
      </trkpt>
      <trkpt lat="49.15923" lon="4.04304">
        <ele>247.4</ele>
        <time>2026-08-20T14:02:52Z</time>
      </trkpt>
      <trkpt lat="49.15923" lon="4.04304">
        <ele>247.4</ele>
        <time>2026-08-20T14:02:58Z</time>
      </trkpt>
      <trkpt lat="49.15923" lon="4.04304">
        <ele>247.4</ele>
        <time>2026-08-20T14:03:03Z</time>
      </trkpt>
      <trkpt lat="49.15927" lon="4.04317">
        <ele>246.3</ele>
        <time>2026-08-20T14:03:08Z</time>
      </trkpt>
      <trkpt lat="49.15927" lon="4.04317">
        <ele>246.3</ele>
        <time>2026-08-20T14:03:14Z</time>
      </trkpt>
    </trkseg>
  </trk>
</gpx>